# Wetter Temperatur Luftdruck Luftfeuchtigkeit Sichtweite Windgeschwindigkeit Windrichtung Zeit
1 Clouds -6 1003 92 16093 1.46 15 18:41 11.12.2019
2 Clouds -6 1003 92 16093 1.46 15 18:21 11.12.2019
3 Clouds -7 1003 92 16093 1.46 15 17:57 11.12.2019
4 Clouds -7 1003 92 16093 1.46 15 17:57 11.12.2019
5 Clouds -7 1003 92 16093 1.46 15 17:39 11.12.2019
6 Clouds -7 1003 92 16093 1.43 12 17:18 11.12.2019
7 Clouds -7 1003 85 16093 1.43 12 16:57 11.12.2019
8 Clouds -7 1003 85 16093 1.43 12 16:57 11.12.2019
9 Clouds -7 1004 100 16093 1.43 12 16:38 11.12.2019
10 Clouds -7 1004 100 16093 1.43 12 16:38 11.12.2019
11 Clouds -7 1004 100 16093 1.43 12 16:38 11.12.2019
12 Clouds -7 1004 100 16093 1.43 12 16:20 11.12.2019
13 Clouds -8 1004 92 16093 1.43 12 15:59 11.12.2019
14 Clouds -8 1004 92 16093 1.43 12 15:39 11.12.2019
15 Clouds -9 1004 92 16093 1.43 12 15:21 11.12.2019
16 Clouds -10 1004 92 16093 1.43 12 14:56 11.12.2019
17 Clouds -10 1004 92 16093 1.43 12 14:37 11.12.2019
18 Clouds -9 1004 92 16093 1.64 15 14:19 11.12.2019
19 Clear -11 1004 92 16093 1.64 15 13:55 11.12.2019
20 Clear -11 1004 92 16093 1.64 15 13:36 11.12.2019
21 Clear -11 1004 92 16093 1.64 15 13:18 11.12.2019
22 Mist -11 1003 85 8047 1.58 18 12:55 11.12.2019
23 Clouds -11 1004 92 16093 1.58 18 12:37 11.12.2019
24 Clouds -11 1004 92 16093 1.58 18 12:18 11.12.2019
25 Clouds -9 1004 92 16093 1.58 18 11:56 11.12.2019
26 Clouds -8 1004 92 16093 1.58 18 11:37 11.12.2019
27 Clouds -8 1004 92 16093 1.58 18 11:37 11.12.2019
28 Clouds -10 1004 92 16093 1.47 32 11:18 11.12.2019
29 Mist -8 1003 92 8047 1.47 32 10:44 11.12.2019
30 Mist -8 1003 92 8047 1.47 32 10:25 11.12.2019
31 Clouds -8 1003 100 16093 1.47 32 09:58 11.12.2019
32 Clouds -8 1003 100 16093 1.47 32 09:38 11.12.2019
33 Clouds -8 1003 100 16093 1.47 32 09:38 11.12.2019
34 Clouds -8 1003 100 16093 1.47 32 09:20 11.12.2019
35 Clouds -7 1003 100 16093 1.47 32 08:57 11.12.2019
36 Clouds -7 1003 100 16093 1.47 32 08:37 11.12.2019
37 Clouds -7 1003 100 16093 1.77 24 08:18 11.12.2019
38 Clouds -6 1002 92 16093 1.93 19 07:45 11.12.2019
39 Clouds -6 1002 92 16093 1.93 19 07:25 11.12.2019
40 Clouds -5 1001 92 16093 1.93 19 06:47 11.12.2019
41 Clouds -6 1001 92 16093 1.93 19 06:25 11.12.2019
42 Clouds -6 1001 85 16093 1.93 19 05:58 11.12.2019
43 Clouds -6 1001 85 16093 1.93 19 05:37 11.12.2019
44 Clouds -5 1001 100 16093 1.67 46 04:55 11.12.2019
45 Clouds -4 1001 92 16093 1.5 170 03:49 11.12.2019
46 Clear -4 1001 92 16093 1.67 46 02:40 11.12.2019
47 Clouds -4 1001 79 16093 1.5 120 01:23 11.12.2019
48 Clouds -4 1001 92 16093 2.6 130 00:46 11.12.2019
49 Clouds -4 1001 92 16093 2.6 130 00:21 11.12.2019
50 Clouds -4 1001 85 14484 2.1 110 23:46 10.12.2019
51 Clouds -4 1001 85 14484 2.1 110 23:28 10.12.2019
52 Clouds -4 1000 85 16093 2.1 270 22:57 10.12.2019
53 Clouds -4 1000 85 16093 2.1 270 22:39 10.12.2019
54 Clouds -5 1000 85 16093 2.1 270 22:21 10.12.2019
55 Clouds -6 1000 92 16093 1.5 40 21:55 10.12.2019
56 Clouds -6 1000 92 16093 1.5 40 21:55 10.12.2019
57 Clouds -6 1000 92 16093 1.5 40 21:37 10.12.2019
58 Clouds -6 1000 92 16093 1.5 40 21:19 10.12.2019
59 Clouds -6 1001 100 16093 1.87 20 20:57 10.12.2019
60 Clouds -5 1001 100 16093 1.87 20 20:37 10.12.2019
61 Clouds -5 1001 100 16093 1.87 20 20:37 10.12.2019
62 Clouds -5 1001 100 16093 0.36 258 20:19 10.12.2019
63 Clouds -4 1000 85 16093 0.14 294 19:55 10.12.2019
64 Clouds -5 1000 85 16093 0.14 294 19:36 10.12.2019
65 Clouds -5 1000 85 16093 0.14 294 19:18 10.12.2019
66 Clouds -4 1001 92 16093 0.14 294 18:40 10.12.2019
67 Clouds -4 1001 92 16093 0.14 294 18:20 10.12.2019
68 Clouds -4 1000 92 16093 0.14 294 17:58 10.12.2019
69 Clouds -4 1000 92 16093 0.14 294 17:39 10.12.2019
70 Clouds -4 1000 92 16093 1.2 340 17:20 10.12.2019
71 Clouds -3 1000 100 16093 1.2 340 16:44 10.12.2019
72 Clouds -3 1000 100 16093 1.2 340 16:21 10.12.2019
73 Clouds -3 1000 92 16093 1.2 340 15:59 10.12.2019
74 Clouds -3 1000 79 16093 1.2 340 15:38 10.12.2019
75 Clouds -3 1000 79 16093 1.2 340 15:18 10.12.2019
76 Clouds -3 1000 79 16093 1.2 340 15:18 10.12.2019
77 Clouds -3 1000 92 16093 3.1 240 14:56 10.12.2019
78 Clouds -3 1000 92 16093 3.1 240 14:37 10.12.2019
79 Clouds -3 1000 92 16093 3.1 240 14:19 10.12.2019
80 Clouds -3 999 92 16093 2.6 260 13:56 10.12.2019
81 Clouds -3 999 92 16093 2.6 260 13:56 10.12.2019
82 Clouds -3 999 92 16093 2.6 260 13:38 10.12.2019
83 Clouds -3 999 92 16093 2.6 260 13:19 10.12.2019
84 Clouds -3 999 86 16093 1.5 230 12:47 10.12.2019
85 Clouds -3 999 86 16093 1.5 230 12:26 10.12.2019
86 Clouds -3 998 86 16093 2.1 290 11:45 10.12.2019
87 Clouds -3 998 86 16093 2.1 290 11:25 10.12.2019
88 Clouds -3 997 85 16093 3.1 270 10:58 10.12.2019
89 Clouds -3 997 85 16093 3.1 270 10:40 10.12.2019
90 Clouds -3 997 85 16093 3.1 270 10:22 10.12.2019
91 Clouds -3 997 92 16093 0.92 357 09:56 10.12.2019
92 Clouds -3 997 92 16093 0.92 357 09:56 10.12.2019
93 Clouds -3 997 92 16093 0.92 357 09:38 10.12.2019
94 Clouds -3 997 92 16093 0.92 357 09:38 10.12.2019
95 Clouds -4 997 92 16093 0.92 357 09:20 10.12.2019
96 Clouds -4 996 100 16093 0.92 357 08:57 10.12.2019
97 Clouds -4 996 100 16093 0.92 357 08:38 10.12.2019
98 Clouds -4 996 100 16093 1.59 55 08:19 10.12.2019
99 Clouds -4 996 100 16093 1.85 61 08:19 10.12.2019
100 Clouds -4 995 85 16093 1.85 61 07:44 10.12.2019
101 Rain -3 995 85 16093 1.85 61 07:26 10.12.2019
102 Rain -3 995 85 16093 1.85 61 07:26 10.12.2019
103 Rain -3 996 92 16093 2.6 280 06:49 10.12.2019
104 Rain -3 996 92 16093 2.6 280 06:24 10.12.2019
105 Clear -3 995 92 16093 2.6 280 05:55 10.12.2019
106 Clear -3 995 92 16093 2.6 280 05:33 10.12.2019
107 Clouds -2 995 100 16093 2.14 53 03:54 10.12.2019
108 Clouds -3 995 92 12874 2.14 53 02:57 10.12.2019
109 Clear -4 996 79 14484 2.19 51 01:54 10.12.2019
110 Clear -3 996 79 14484 2.19 51 01:27 10.12.2019
111 Clear -4 996 92 16093 2.2 51 00:51 10.12.2019
112 Clear -3 996 92 16093 2.2 51 00:24 10.12.2019
113 Clouds -4 996 92 16093 1 250 23:55 09.12.2019
114 Clouds -4 997 85 11265 1.5 250 23:36 09.12.2019
115 Clouds -6 997 85 11265 1.5 250 23:18 09.12.2019
116 Clouds -6 997 79 16093 3.48 39 22:54 09.12.2019
117 Clouds -6 997 79 16093 3.48 39 22:36 09.12.2019
118 Clouds -5 997 79 16093 3.48 39 22:18 09.12.2019
119 Clouds -5 997 79 16093 2.1 340 21:54 09.12.2019
120 Clouds -4 997 79 16093 2.1 340 21:36 09.12.2019
121 Clouds -4 997 79 16093 2.1 340 21:18 09.12.2019
122 Clouds -4 998 73 16093 2.6 30 20:54 09.12.2019
123 Clouds -4 998 73 16093 2.6 30 20:36 09.12.2019
124 Clouds -6 998 73 16093 2.6 30 20:18 09.12.2019
125 Clouds -6 999 73 16093 2.6 20 19:54 09.12.2019
126 Clouds -6 999 73 16093 2.6 20 19:36 09.12.2019
127 Clouds -6 999 73 16093 2.6 20 19:18 09.12.2019
128 Clouds -4 1000 68 16093 3.6 40 18:40 09.12.2019
129 Clouds -4 1000 68 16093 3.6 40 18:20 09.12.2019
130 Clouds -4 1000 68 16093 3.6 40 18:20 09.12.2019
131 Clouds -5 1001 73 16093 4.1 50 17:59 09.12.2019
132 Clouds -6 1001 73 16093 4.1 50 17:41 09.12.2019
133 Clouds -8 1001 73 16093 4.1 50 17:21 09.12.2019
134 Clear -10 1002 100 16093 2.79 47 16:58 09.12.2019
135 Clear -10 1002 100 16093 2.79 47 16:39 09.12.2019
136 Clear -11 1002 100 16093 2.79 47 16:21 09.12.2019
137 Clear -13 1003 100 16093 2.79 47 15:57 09.12.2019
138 Clear -10 1003 100 16093 2.79 47 15:38 09.12.2019
139 Clear -10 1003 100 16093 2.79 47 15:38 09.12.2019
140 Clear -11 1003 100 16093 2.79 47 15:19 09.12.2019
141 Clear -12 1005 92 16093 2.79 47 14:59 09.12.2019
142 Clear -12 1005 92 16093 2.79 47 14:41 09.12.2019
143 Clear -12 1005 92 16093 2.92 42 14:18 09.12.2019
144 Clear -11 1006 84 14484 2.92 42 13:56 09.12.2019
145 Clear -11 1006 84 14484 2.28 46 13:37 09.12.2019
146 Clear -12 1006 84 14484 2.28 46 13:19 09.12.2019
147 Clouds -12 1008 84 16093 2.28 46 12:55 09.12.2019
148 Clouds -12 1008 84 16093 2.28 46 12:37 09.12.2019
149 Clouds -12 1008 84 16093 2.28 46 12:18 09.12.2019
150 Clear -13 1009 91 16093 2.28 46 11:55 09.12.2019
151 Clear -13 1009 91 16093 2.28 46 11:36 09.12.2019
152 Clear -12 1009 91 16093 2.53 39 11:18 09.12.2019
153 Clear -14 1010 91 16093 2.53 39 10:39 09.12.2019
154 Clear -14 1010 91 16093 2.53 39 10:39 09.12.2019
155 Clear -13 1010 91 16093 2.53 39 10:20 09.12.2019
156 Clear -13 1012 91 16093 2.53 39 09:56 09.12.2019
157 Clear -13 1012 91 16093 2.53 39 09:37 09.12.2019
158 Clear -13 1012 91 16093 2.53 39 09:19 09.12.2019
159 Clear -11 1012 84 16093 2.53 39 08:40 09.12.2019
160 Clear -12 1012 84 16093 2.24 36 08:22 09.12.2019
161 Clear -13 1013 91 16093 2.24 36 07:53 09.12.2019
162 Clear -13 1013 91 16093 2.24 36 07:34 09.12.2019
163 Clear -13 1014 91 16093 2.24 36 06:59 09.12.2019
164 Clear -12 1014 91 16093 2.24 36 06:37 09.12.2019
165 Clear -12 1014 91 16093 2.24 36 06:19 09.12.2019
166 Clear -12 1014 84 16093 1.09 56 05:25 09.12.2019
167 Clouds -12 1014 92 16093 1.09 56 04:29 09.12.2019
168 Clouds -11 1014 92 16093 1.09 56 03:18 09.12.2019
169 Clouds -11 1014 92 16093 1.03 126 02:18 09.12.2019
170 Clouds -11 1014 85 16093 1.5 350 01:40 09.12.2019
171 Clouds -11 1013 92 16093 0.94 109 00:45 09.12.2019
172 Clouds -11 1013 92 16093 0.94 109 00:24 09.12.2019
173 Clouds -11 1012 85 16093 0.94 109 23:39 08.12.2019
174 Clouds -11 1012 85 16093 1.86 159 23:21 08.12.2019
175 Clouds -10 1011 78 16093 2.1 150 22:56 08.12.2019
176 Clouds -10 1010 92 16093 1.86 159 22:38 08.12.2019
177 Clouds -10 1010 92 16093 1.86 159 22:18 08.12.2019
178 Clouds -10 1010 92 16093 1.86 159 22:18 08.12.2019
179 Clouds -8 1007 92 16093 1.86 159 21:57 08.12.2019
180 Clouds -8 1007 92 16093 1.86 159 21:39 08.12.2019
181 Clouds -8 1007 92 16093 1.86 159 21:39 08.12.2019
182 Clouds -8 1007 92 16093 1.86 159 21:19 08.12.2019
183 Snow -7 1007 92 14484 1.86 159 20:57 08.12.2019
184 Snow -7 1005 85 9656 3.1 210 20:38 08.12.2019
185 Snow -7 1005 85 9656 3.1 210 20:19 08.12.2019
186 Snow -7 1004 85 2816 4.1 190 19:57 08.12.2019
187 Clouds -7 1003 85 16093 1.54 210 19:39 08.12.2019
188 Clouds -8 1003 85 16093 1.54 210 19:21 08.12.2019
189 Clouds -8 999 100 16093 1.54 210 18:55 08.12.2019
190 Clouds -8 999 100 16093 1.54 210 18:36 08.12.2019
191 Clouds -9 999 100 16093 1.54 210 18:18 08.12.2019
192 Clear -11 997 92 16093 1.54 210 17:56 08.12.2019
193 Clear -10 997 92 16093 1.54 210 17:37 08.12.2019
194 Clear -10 997 92 16093 1.54 210 17:37 08.12.2019
195 Clear -9 997 92 16093 1.44 13 17:19 08.12.2019
196 Clouds -8 996 92 16093 1.44 13 16:55 08.12.2019
197 Clouds -8 996 92 16093 1.44 13 16:55 08.12.2019
198 Clouds -8 996 92 16093 1.44 13 16:37 08.12.2019
199 Clouds -8 996 92 16093 1.44 13 16:19 08.12.2019
200 Clouds -8 995 92 16093 1.44 13 15:38 08.12.2019
201 Clouds -8 995 92 16093 1.44 13 15:19 08.12.2019
202 Clouds -8 995 92 16093 1.44 13 14:59 08.12.2019
203 Clouds -8 995 92 16093 1.44 13 14:39 08.12.2019
204 Clouds -7 995 92 16093 1.18 47 14:21 08.12.2019
205 Clouds -7 994 92 16093 1.18 47 13:57 08.12.2019
206 Clouds -7 994 92 16093 1.18 47 13:38 08.12.2019
207 Clouds -7 994 92 16093 1.47 52 13:20 08.12.2019
208 Clouds -7 994 92 16093 1.47 52 12:54 08.12.2019
209 Clouds -7 994 92 16093 1.47 52 12:36 08.12.2019
210 Clouds -7 994 92 16093 1.47 52 12:18 08.12.2019
211 Clouds -7 994 85 16093 1.47 52 11:39 08.12.2019
212 Clouds -7 994 85 16093 1.47 52 11:39 08.12.2019
213 Clouds -8 994 85 16093 1.29 36 11:20 08.12.2019
214 Clouds -9 994 92 16093 1.29 36 10:59 08.12.2019
215 Clouds -9 994 92 16093 1.29 36 10:38 08.12.2019
216 Clouds -9 994 92 16093 1.29 36 10:20 08.12.2019
217 Clouds -10 994 92 16093 1.29 36 09:57 08.12.2019
218 Clouds -9 994 92 16093 1.29 36 09:57 08.12.2019
219 Clouds -9 994 92 16093 1.29 36 09:38 08.12.2019
220 Clouds -10 994 92 16093 1.29 36 09:19 08.12.2019
221 Clouds -10 995 92 16093 1.29 36 08:58 08.12.2019
222 Clouds -11 995 92 16093 1.29 36 08:38 08.12.2019
223 Clouds -11 995 92 16093 2.11 47 08:19 08.12.2019
224 Clouds -11 995 84 16093 2.11 47 07:44 08.12.2019
225 Clouds -12 995 84 16093 2.11 47 07:20 08.12.2019
226 Clouds -11 995 84 16093 2.11 47 06:51 08.12.2019
227 Clouds -12 995 84 16093 2.11 47 06:22 08.12.2019
228 Clouds -12 996 84 16093 2.11 47 05:49 08.12.2019
229 Clouds -13 996 84 16093 2.07 38 05:18 08.12.2019
230 Clouds -13 997 91 16093 2.07 38 03:50 08.12.2019
231 Clouds -13 997 91 16093 2.07 38 03:23 08.12.2019
232 Clouds -14 997 91 16093 2.07 38 02:39 08.12.2019
233 Clouds -14 998 84 16093 1.52 35 01:56 08.12.2019
234 Clouds -16 998 84 16093 1.52 35 01:27 08.12.2019
235 Clouds -14 998 84 16093 1.14 11 00:40 08.12.2019
236 Clouds -14 998 84 16093 1.14 11 00:21 08.12.2019
237 Clouds -14 998 84 16093 1.14 11 23:41 07.12.2019
238 Clouds -15 998 84 16093 1.19 32 23:21 07.12.2019
239 Clouds -16 999 84 16093 1.19 32 22:58 07.12.2019
240 Clouds -16 999 84 16093 1.19 32 22:40 07.12.2019
241 Clouds -16 999 84 16093 1.19 32 22:40 07.12.2019
242 Clouds -16 999 84 16093 1.19 32 22:40 07.12.2019
243 Clouds -16 999 84 16093 1.19 32 22:40 07.12.2019
244 Clouds -16 999 84 16093 1.19 32 22:22 07.12.2019
245 Clear -16 999 84 16093 1.19 32 21:56 07.12.2019
246 Clear -16 999 84 16093 1.19 32 21:38 07.12.2019
247 Clear -16 999 84 16093 1.19 32 21:20 07.12.2019
248 Clouds -16 999 83 16093 1.19 32 20:59 07.12.2019
249 Clouds -17 999 83 16093 1.51 36 20:37 07.12.2019
250 Clouds -17 999 83 16093 2.01 33 20:18 07.12.2019
251 Clouds -18 1000 83 16093 2.01 33 19:56 07.12.2019
252 Clouds -18 1000 83 16093 2.01 33 19:38 07.12.2019
253 Clouds -19 1000 83 16093 2.01 33 19:20 07.12.2019
254 Clear -21 1000 76 16093 2.01 33 18:44 07.12.2019
255 Clear -20 1000 76 16093 2.01 33 18:20 07.12.2019
256 Clear -20 1000 83 16093 2.01 33 17:58 07.12.2019
257 Clear -20 1000 83 16093 2.01 33 17:40 07.12.2019
258 Clear -20 1000 83 16093 1.37 29 17:22 07.12.2019
259 Clear -20 1001 83 16093 1.37 29 16:57 07.12.2019
260 Clear -20 1001 83 16093 1.37 29 16:38 07.12.2019
261 Clear -20 1001 83 16093 1.37 29 16:20 07.12.2019
262 Clouds -20 1001 83 16093 1.37 29 15:57 07.12.2019
263 Clouds -19 1001 83 16093 1.37 29 15:38 07.12.2019
264 Clouds -19 1001 83 16093 1.37 29 15:38 07.12.2019
265 Clouds -19 1001 83 16093 1.37 29 15:20 07.12.2019
266 Clear -21 1001 75 16093 1.37 29 14:42 07.12.2019
267 Clear -22 1001 75 16093 1.5 36 14:19 07.12.2019
268 Clear -22 1002 75 16093 1.5 36 13:56 07.12.2019
269 Clear -22 1002 75 16093 1.5 36 13:56 07.12.2019
270 Clear -22 1002 75 16093 1.5 36 13:37 07.12.2019
271 Clear -23 1002 75 16093 1.54 37 13:19 07.12.2019
272 Clouds -23 1003 82 16093 1.54 37 12:41 07.12.2019
273 Clouds -23 1003 82 16093 1.54 37 12:23 07.12.2019
274 Clear -23 1003 75 16093 1.54 37 11:58 07.12.2019
275 Clear -23 1003 75 16093 1.54 37 11:40 07.12.2019
276 Clear -24 1003 75 16093 2.01 36 11:22 07.12.2019
277 Clear -25 1004 82 16093 2.01 36 10:39 07.12.2019
278 Clear -26 1004 82 16093 2.01 36 10:20 07.12.2019
279 Clear -25 1004 75 16093 2.01 36 09:58 07.12.2019
280 Clear -25 1004 75 16093 2.01 36 09:38 07.12.2019
281 Clear -25 1004 75 16093 2.01 36 09:19 07.12.2019
282 Clear -25 1005 82 16093 2.01 36 08:43 07.12.2019
283 Clear -25 1005 82 16093 1.74 43 08:21 07.12.2019
284 Clear -24 1006 75 16093 1.74 43 07:47 07.12.2019
285 Clear -24 1006 75 16093 1.74 43 07:27 07.12.2019
286 Clear -23 1006 75 16093 1.74 43 06:52 07.12.2019
287 Clear -24 1006 75 16093 1.74 43 06:25 07.12.2019
288 Clouds -23 1007 82 16093 1.74 43 05:44 07.12.2019
289 Clouds -25 1008 74 16093 1.68 30 04:19 07.12.2019
290 Clouds -27 1008 74 16093 1.68 30 03:47 07.12.2019
291 Clouds -27 1008 74 16093 1.76 39 02:22 07.12.2019
292 Clear -26 1009 74 16093 1.76 39 01:37 07.12.2019
293 Clear -27 1010 74 16093 1.69 40 00:57 07.12.2019
294 Clear -27 1010 74 16093 1.69 40 00:21 07.12.2019
295 Clear -28 1010 74 16093 1.69 40 23:57 06.12.2019
296 Clear -28 1010 74 16093 1.69 40 23:38 06.12.2019
297 Clear -28 1010 74 16093 1.52 34 23:19 06.12.2019
298 Clear -29 1011 74 14484 1.52 34 22:39 06.12.2019
299 Clear -29 1011 74 14484 1.52 34 22:21 06.12.2019
300 Clouds -29 1011 74 14484 1.52 34 21:58 06.12.2019
301 Clouds -31 1011 74 14484 1.52 34 21:40 06.12.2019
302 Clouds -32 1011 74 14484 1.52 34 21:20 06.12.2019
303 Clear -32 1011 74 14484 1.52 34 20:46 06.12.2019
304 Clear -30 1011 74 14484 1.52 36 20:26 06.12.2019
305 Clouds -28 1011 68 16093 1.44 34 19:59 06.12.2019
306 Clouds -27 1011 68 16093 1.44 34 19:40 06.12.2019
307 Clouds -29 1011 68 16093 1.44 34 19:22 06.12.2019
308 Clear -29 1011 74 16093 1.44 34 18:58 06.12.2019
309 Clear -30 1011 74 16093 1.44 34 18:40 06.12.2019
310 Clear -31 1011 74 16093 1.44 34 18:20 06.12.2019
311 Clear -31 1011 74 16093 1.44 34 17:57 06.12.2019
312 Clear -31 1011 74 16093 1.44 34 17:57 06.12.2019
313 Clear -31 1011 74 16093 1.44 34 17:39 06.12.2019
314 Clear -30 1011 74 16093 1.64 28 17:21 06.12.2019
315 Clear -29 1012 74 16093 1.64 28 16:56 06.12.2019
316 Clear -29 1012 74 16093 1.64 28 16:37 06.12.2019
317 Clear -30 1012 74 16093 1.64 28 16:18 06.12.2019
318 Clear -31 1012 74 16093 1.64 28 15:41 06.12.2019
319 Clear -31 1012 74 16093 1.64 28 15:21 06.12.2019
320 Clear -31 1012 74 16093 1.64 28 14:57 06.12.2019
321 Clear -31 1012 74 16093 1.64 28 14:39 06.12.2019
322 Clear -31 1012 74 16093 1.24 35 14:19 06.12.2019
323 Clear -31 1012 74 16093 1.24 35 13:45 06.12.2019
324 Clear -31 1012 74 16093 1.38 40 13:26 06.12.2019
325 Clear -31 1012 74 16093 1.38 40 12:56 06.12.2019
326 Clear -31 1012 74 16093 1.38 40 12:38 06.12.2019
327 Clear -31 1012 74 16093 1.38 40 12:19 06.12.2019
328 Clear -31 1012 74 16093 1.38 40 11:42 06.12.2019
329 Clear -31 1012 74 16093 1.66 36 11:23 06.12.2019
330 Clear -31 1013 74 16093 1.66 36 10:55 06.12.2019
331 Clear -31 1013 74 16093 1.66 36 10:37 06.12.2019
332 Clear -31 1013 74 16093 1.66 36 10:18 06.12.2019
333 Clear -31 1012 74 16093 1.66 36 09:54 06.12.2019
334 Clear -31 1012 74 16093 1.66 36 09:36 06.12.2019
335 Clear -31 1012 74 16093 1.66 36 09:18 06.12.2019
336 Clear -31 1012 74 16093 1.66 36 08:40 06.12.2019
337 Clear -31 1012 74 16093 1.62 36 08:21 06.12.2019
338 Clear -31 1013 74 16093 1.61 34 07:38 06.12.2019
339 Clear -31 1013 74 16093 1.61 34 07:20 06.12.2019
340 Clear -31 1013 74 16093 1.61 34 06:48 06.12.2019
341 Clear -31 1013 74 16093 1.61 34 06:24 06.12.2019
342 Clear -30 1013 74 16093 1.61 34 05:46 06.12.2019
343 Mist -28 1013 75 6437 1.53 31 02:44 06.12.2019
344 Clear -27 1013 68 16093 1.53 36 01:43 06.12.2019
345 Clear -28 1014 82 12874 1.7 35 00:50 06.12.2019
346 Fog -28 1014 68 16093 1.7 35 00:23 06.12.2019
347 Clouds -28 1014 75 16093 1.7 35 23:51 05.12.2019
348 Clouds -28 1014 75 16093 1.85 35 23:20 05.12.2019
349 Clear -29 1015 75 16093 1.85 35 22:58 05.12.2019
350 Clear -29 1015 75 16093 1.85 35 22:39 05.12.2019
351 Clear -29 1015 75 16093 1.85 35 22:19 05.12.2019
352 Clear -30 1015 74 14484 1.85 35 21:56 05.12.2019
353 Clear -30 1015 74 14484 1.85 35 21:37 05.12.2019
354 Clear -30 1015 74 14484 1.85 35 21:19 05.12.2019
355 Clouds -31 1014 67 16093 1.85 35 20:56 05.12.2019
356 Clouds -30 1014 67 16093 1.85 35 20:56 05.12.2019
357 Clouds -30 1014 67 16093 1.85 35 20:56 05.12.2019
358 Clouds -30 1015 74 12874 1.85 35 20:37 05.12.2019
359 Clouds -30 1015 74 12874 1.64 35 20:18 05.12.2019
360 Clouds -30 1015 74 12874 1.64 35 20:18 05.12.2019
361 Clouds -30 1015 74 12874 1.64 35 20:18 05.12.2019
362 Clear -30 1015 74 16093 1.64 35 19:41 05.12.2019
363 Clear -30 1015 74 16093 1.64 35 19:22 05.12.2019
364 Clear -30 1016 82 16093 1.64 35 18:59 05.12.2019
365 Clear -30 1016 82 16093 1.64 35 18:39 05.12.2019
366 Clear -30 1016 82 16093 1.64 35 18:20 05.12.2019
367 Clear -28 1016 75 16093 1.64 35 17:55 05.12.2019
368 Clear -28 1016 75 16093 1.64 35 17:37 05.12.2019
369 Clear -29 1016 75 16093 1.59 40 17:18 05.12.2019
370 Clouds -29 1016 75 16093 1.59 40 16:40 05.12.2019
371 Clouds -29 1016 75 16093 1.59 40 16:40 05.12.2019
372 Clouds -29 1016 75 16093 1.59 40 16:40 05.12.2019
373 Clouds -29 1016 75 16093 1.59 40 16:22 05.12.2019
374 Clouds -28 1016 75 16093 1.59 40 15:58 05.12.2019
375 Clouds -28 1016 75 16093 1.59 40 15:40 05.12.2019
376 Clouds -28 1016 75 16093 1.59 40 15:20 05.12.2019
377 Clouds -27 1017 82 16093 1.59 40 14:56 05.12.2019
378 Clouds -27 1017 82 16093 1.59 40 14:38 05.12.2019
379 Clouds -28 1017 82 16093 1.42 35 14:20 05.12.2019
380 Clouds -28 1017 82 16093 1.42 35 13:58 05.12.2019
381 Clouds -27 1017 82 16093 1.42 35 13:40 05.12.2019
382 Clouds -28 1017 82 16093 1.21 39 13:21 05.12.2019
383 Clouds -28 1018 75 16093 1.21 39 12:59 05.12.2019
384 Clouds -28 1018 75 16093 1.21 39 12:40 05.12.2019
385 Clouds -27 1018 82 16093 1.21 39 12:21 05.12.2019
386 Clouds -27 1018 75 16093 1.21 39 11:41 05.12.2019
387 Clouds -27 1018 75 16093 1.35 43 11:23 05.12.2019
388 Clear -26 1018 75 16093 1.35 43 10:59 05.12.2019
389 Clear -27 1018 75 16093 1.35 43 10:41 05.12.2019
390 Clear -26 1018 75 16093 1.35 43 10:19 05.12.2019
391 Clouds -26 1019 75 16093 1.35 43 09:57 05.12.2019
392 Clouds -26 1019 75 16093 1.35 43 09:39 05.12.2019
393 Clouds -27 1019 75 16093 1.35 43 09:20 05.12.2019
394 Clear -26 1018 82 16093 1.35 43 08:56 05.12.2019
395 Clear -26 1018 82 16093 1.35 43 08:37 05.12.2019
396 Clear -26 1018 82 16093 0.57 47 08:19 05.12.2019
397 Clear -26 1018 82 16093 0.57 47 08:19 05.12.2019
398 Clear -26 1018 82 16093 0.57 47 08:19 05.12.2019
399 Clouds -25 1019 75 16093 0.57 47 07:41 05.12.2019
400 Clouds -25 1018 76 16093 1.5 80 07:23 05.12.2019
401 Clear -25 1019 75 16093 0.57 47 06:48 05.12.2019
402 Clouds -25 1018 69 16093 1.5 50 06:24 05.12.2019
403 Clear -25 1019 83 16093 0.57 47 05:56 05.12.2019
404 Clear -25 1019 83 16093 0.63 55 05:24 05.12.2019
405 Clouds -24 1019 75 16093 0.63 55 04:59 05.12.2019
406 Clouds -23 1019 83 16093 0.63 55 03:41 05.12.2019
407 Clouds -23 1019 83 16093 0.63 55 02:42 05.12.2019
408 Clouds -24 1019 83 16093 0.62 44 02:22 05.12.2019
409 Clouds -23 1019 77 16093 0.62 44 01:51 05.12.2019
410 Clouds -23 1019 77 16093 0.91 32 01:23 05.12.2019
411 Clouds -23 1019 76 11265 0.91 32 00:44 05.12.2019
412 Clouds -23 1019 76 11265 0.91 32 00:21 05.12.2019
413 Clouds -22 1019 76 16093 0.91 32 23:55 04.12.2019
414 Clouds -22 1019 76 16093 0.91 32 23:37 04.12.2019
415 Clouds -22 1020 76 11265 0.99 50 23:18 04.12.2019
416 Clouds -21 1020 83 12874 0.99 50 22:39 04.12.2019
417 Clouds -21 1020 83 12874 0.99 50 22:20 04.12.2019
418 Snow -22 1018 70 9656 2.6 340 21:58 04.12.2019
419 Snow -22 1018 70 9656 2.6 340 21:39 04.12.2019
420 Clouds -22 1019 83 12874 0.99 50 21:19 04.12.2019
421 Clear -21 1019 83 14484 0.99 50 20:57 04.12.2019
422 Clear -21 1019 83 14484 0.99 50 20:39 04.12.2019
423 Clear -21 1019 83 14484 1.08 33 20:21 04.12.2019
424 Clouds -19 1018 77 16093 0.84 37 19:57 04.12.2019
425 Clouds -19 1018 77 16093 0.84 37 19:38 04.12.2019
426 Clouds -19 1018 77 16093 0.84 37 19:20 04.12.2019
427 Clouds -18 1018 83 16093 0.84 37 18:42 04.12.2019
428 Clouds -18 1018 83 16093 0.84 37 18:24 04.12.2019
429 Clouds -18 1018 84 16093 0.84 37 17:59 04.12.2019
430 Clouds -18 1018 84 16093 0.84 37 17:39 04.12.2019
431 Clouds -18 1018 84 16093 0.84 37 17:39 04.12.2019
432 Clouds -18 1018 84 16093 0.84 37 17:39 04.12.2019
433 Clouds -18 1018 84 16093 0.88 33 17:20 04.12.2019
434 Clouds -17 1018 84 16093 0.88 33 16:56 04.12.2019
435 Clouds -17 1018 84 16093 0.88 33 16:38 04.12.2019
436 Clouds -17 1018 84 16093 0.88 33 16:19 04.12.2019
437 Clouds -17 1018 84 16093 0.88 33 16:19 04.12.2019
438 Clouds -17 1018 91 16093 0.88 33 15:55 04.12.2019
439 Clouds -17 1018 91 16093 0.88 33 15:36 04.12.2019
440 Clouds -17 1018 91 16093 0.88 33 15:18 04.12.2019
441 Clouds -17 1018 84 16093 0.88 33 14:43 04.12.2019
442 Clouds -17 1018 84 16093 0.88 33 14:23 04.12.2019
443 Clouds -17 1017 84 16093 0.94 32 13:57 04.12.2019
444 Clouds -17 1017 84 16093 0.94 32 13:38 04.12.2019
445 Clouds -17 1017 84 16093 0.69 37 13:19 04.12.2019
446 Mist -17 1017 91 6437 0.69 37 12:44 04.12.2019
447 Mist -17 1017 91 6437 0.69 37 12:24 04.12.2019
448 Clouds -18 1017 91 16093 0.69 37 11:55 04.12.2019
449 Clouds -18 1017 91 16093 0.69 37 11:37 04.12.2019
450 Clouds -18 1017 91 16093 1.28 21 11:19 04.12.2019
451 Clouds -17 1016 91 14484 1.28 21 10:43 04.12.2019
452 Clouds -16 1016 91 14484 1.28 21 10:23 04.12.2019
453 Clouds -16 1016 84 14484 1.28 21 09:55 04.12.2019
454 Clouds -16 1016 84 14484 1.28 21 09:55 04.12.2019
455 Clouds -16 1016 84 14484 1.28 21 09:37 04.12.2019
456 Clouds -16 1016 84 14484 1.28 21 09:18 04.12.2019
457 Mist -15 1015 91 11265 1.28 21 08:39 04.12.2019
458 Clouds -15 1015 84 11265 1.06 24 08:20 04.12.2019
459 Clouds -15 1015 92 14484 1.06 24 07:48 04.12.2019
460 Clouds -15 1015 92 14484 1.06 24 07:30 04.12.2019
461 Clouds -15 1015 92 14484 1.06 24 07:30 04.12.2019
462 Clouds -15 1014 92 16093 1.06 24 06:34 04.12.2019
463 Mist -14 1014 92 8047 1.06 24 05:48 04.12.2019
464 Clouds -14 1014 92 16093 1.06 24 05:29 04.12.2019
465 Clouds -14 1014 92 12874 1.32 21 04:25 04.12.2019
466 Clouds -14 1013 92 12874 1.32 21 02:47 04.12.2019
467 Snow -14 1012 92 9656 0.78 23 00:52 04.12.2019
468 Snow -14 1012 92 9656 0.78 23 00:28 04.12.2019
469 Snow -14 1012 92 9656 0.78 23 23:59 03.12.2019
470 Snow -14 1012 92 9656 0.78 23 23:40 03.12.2019
471 Snow -14 1012 92 9656 0.74 19 23:19 03.12.2019
472 Clouds -14 1011 84 16093 1.5 170 22:41 03.12.2019
473 Snow -15 1012 92 9656 0.74 19 22:19 03.12.2019
474 Clouds -15 1011 84 11265 0.74 19 21:59 03.12.2019
475 Clouds -15 1011 84 11265 0.74 19 21:39 03.12.2019
476 Clouds -15 1011 84 11265 0.74 19 21:19 03.12.2019
477 Snow -16 1011 84 9656 0.74 19 20:58 03.12.2019
478 Snow -16 1011 84 9656 0.74 19 20:40 03.12.2019
479 Clouds -16 1010 70 16093 0.7 10 20:19 03.12.2019
480 Clouds -19 1009 83 16093 0.7 10 19:55 03.12.2019
481 Clouds -19 1009 83 16093 0.7 10 19:37 03.12.2019
482 Clouds -19 1009 83 16093 0.7 10 19:19 03.12.2019
483 Clouds -19 1009 76 16093 0.7 10 18:56 03.12.2019
484 Clouds -19 1009 76 16093 0.7 10 18:38 03.12.2019
485 Clouds -19 1009 83 14484 0.7 10 18:20 03.12.2019
486 Clouds -19 1009 83 14484 0.7 10 17:56 03.12.2019
487 Clouds -19 1009 83 14484 0.7 10 17:36 03.12.2019
488 Clear -19 1008 83 12874 0.9 12 17:18 03.12.2019
489 Clear -19 1008 83 14484 0.9 12 16:56 03.12.2019
490 Clear -19 1008 83 14484 0.9 12 16:38 03.12.2019
491 Clear -19 1008 83 14484 0.9 12 16:19 03.12.2019
492 Snow -18 1007 77 16093 2.1 160 15:54 03.12.2019
493 Snow -18 1007 77 16093 2.1 160 15:36 03.12.2019
494 Clear -18 1007 84 16093 0.9 12 15:18 03.12.2019
495 Clear -16 1007 84 14484 0.9 12 14:41 03.12.2019
496 Clear -15 1007 84 14484 1.24 16 14:20 03.12.2019
497 Clear -15 1007 84 14484 1.24 16 14:20 03.12.2019
498 Clouds -13 1006 92 16093 1.24 16 13:54 03.12.2019
499 Clouds -13 1006 92 16093 1.24 16 13:36 03.12.2019
500 Clouds -13 1006 92 16093 1.21 25 13:18 03.12.2019
501 Clouds -12 1006 92 14484 1.21 25 12:40 03.12.2019
502 Clouds -12 1006 92 14484 1.21 25 12:18 03.12.2019
503 Clouds -12 1006 92 14484 1.21 25 11:58 03.12.2019
504 Clouds -12 1006 92 14484 1.21 25 11:39 03.12.2019
505 Clouds -12 1005 92 16093 1.58 18 11:20 03.12.2019
506 Snow -12 1005 92 8047 1.58 18 10:57 03.12.2019
507 Snow -12 1005 92 8047 1.58 18 10:39 03.12.2019
508 Snow -12 1005 92 8047 1.58 18 10:19 03.12.2019
509 Snow -12 1004 92 14484 1.58 18 09:46 03.12.2019
510 Snow -11 1004 92 14484 1.58 18 09:25 03.12.2019
511 Snow -11 1003 92 11265 1.58 18 08:59 03.12.2019
512 Snow -11 1003 92 11265 1.58 18 08:40 03.12.2019
513 Snow -11 1003 92 11265 1.21 25 08:21 03.12.2019
514 Snow -11 1002 85 11265 1.21 25 07:53 03.12.2019
515 Snow -11 1002 85 11265 1.21 25 07:53 03.12.2019
516 Snow -11 1002 85 11265 1.21 25 07:30 03.12.2019
517 Snow -11 1001 92 9656 1.21 25 06:58 03.12.2019
518 Snow -11 1001 92 9656 1.21 25 06:21 03.12.2019
519 Rain -11 1001 92 11265 1.21 25 05:56 03.12.2019
520 Snow -11 1000 92 11265 0.57 358 03:45 03.12.2019
521 Snow -11 999 92 6437 0.57 358 03:23 03.12.2019
522 Snow -11 999 85 3219 2.1 200 02:57 03.12.2019
523 Snow -11 999 85 3219 2.1 200 02:39 03.12.2019
524 Snow -10 999 92 4023 0.4 301 02:21 03.12.2019
525 Snow -10 998 85 9656 0.4 301 01:40 03.12.2019
526 Snow -10 998 92 8047 0.4 301 01:20 03.12.2019
527 Snow -10 997 78 3219 1.5 0 00:43 03.12.2019
528 Snow -10 997 78 4828 1.5 0 00:25 03.12.2019
529 Snow -10 997 78 4828 2.1 250 23:44 02.12.2019
530 Snow -10 996 72 1609 1.5 230 23:22 02.12.2019
531 Snow -10 996 92 4828 0.72 297 22:59 02.12.2019
532 Snow -10 996 92 4828 0.72 297 22:39 02.12.2019
533 Snow -10 996 92 8047 0.72 297 22:21 02.12.2019
534 Mist -10 996 92 6437 0.72 297 21:57 02.12.2019
535 Mist -10 996 92 6437 0.72 297 21:36 02.12.2019
536 Snow -10 996 92 8047 0.72 297 21:18 02.12.2019
537 Snow -10 995 92 8047 0.72 297 20:55 02.12.2019
538 Snow -10 995 92 8047 0.72 297 20:37 02.12.2019
539 Mist -10 995 92 3017 1.06 318 20:18 02.12.2019
540 Snow -10 995 92 4828 1.06 318 19:41 02.12.2019
541 Snow -10 995 92 4828 1.06 318 19:41 02.12.2019
542 Mist -10 994 92 4023 1.06 318 19:21 02.12.2019
543 Mist -10 994 92 4023 1.06 318 19:21 02.12.2019
544 Snow -10 994 92 4828 1.06 318 18:55 02.12.2019
545 Rain -10 994 92 9656 1.06 318 18:36 02.12.2019
546 Rain -10 994 92 9656 1.06 318 18:18 02.12.2019
547 Rain -10 994 92 9656 1.06 318 18:18 02.12.2019
548 Snow -10 993 85 2414 1.06 318 17:41 02.12.2019
549 Snow -10 993 92 11265 1.17 303 17:21 02.12.2019
550 Snow -10 993 92 11265 1.17 303 17:21 02.12.2019
551 Snow -10 993 78 11265 1.5 220 16:59 02.12.2019
552 Snow -10 993 78 11265 1.5 220 16:39 02.12.2019
553 Snow -10 993 78 11265 1.5 220 16:39 02.12.2019
554 Snow -10 993 92 8047 1.17 303 16:18 02.12.2019
555 Snow -10 993 92 4828 1.17 303 15:57 02.12.2019
556 Snow -10 993 92 4828 1.17 303 15:38 02.12.2019
557 Snow -10 993 92 6437 1.17 303 15:20 02.12.2019
558 Snow -10 993 92 12874 1.17 303 14:55 02.12.2019
559 Snow -10 993 92 12874 1.17 303 14:37 02.12.2019
560 Snow -10 992 78 8047 1.34 319 14:19 02.12.2019
561 Snow -10 992 78 9656 2.6 190 13:55 02.12.2019
562 Snow -10 992 78 9656 2.6 190 13:55 02.12.2019
563 Clouds -10 993 92 14484 1.34 319 13:36 02.12.2019
564 Clouds -10 993 92 14484 1.34 319 13:18 02.12.2019
565 Clouds -9 992 92 14484 1.31 319 12:42 02.12.2019
566 Snow -9 992 92 14484 1.31 319 12:21 02.12.2019
567 Clouds -9 992 92 16093 1.31 319 11:57 02.12.2019
568 Clouds -9 992 92 16093 1.31 319 11:38 02.12.2019
569 Clouds -9 992 92 16093 1.58 333 11:19 02.12.2019
570 Clouds -9 992 85 16093 1.5 190 10:57 02.12.2019
571 Clouds -9 992 85 16093 1.5 190 10:39 02.12.2019
572 Clouds -9 992 92 16093 1.58 333 10:21 02.12.2019
573 Clouds -9 992 85 16093 1.58 333 09:55 02.12.2019
574 Clouds -8 992 85 16093 1.58 333 09:37 02.12.2019
575 Clouds -8 992 92 16093 1.58 333 09:18 02.12.2019
576 Clouds -8 993 92 14484 1.58 333 08:41 02.12.2019
577 Clouds -8 993 92 14484 1.58 333 08:23 02.12.2019
578 Snow -8 993 92 2816 1.58 333 07:59 02.12.2019
579 Snow -8 993 92 2816 1.58 333 07:38 02.12.2019
580 Clouds -8 993 92 14484 1.58 333 07:19 02.12.2019
581 Snow -8 993 85 4023 1.58 333 06:40 02.12.2019
582 Clouds -8 994 100 16093 1.58 333 05:45 02.12.2019
583 Clouds -8 994 100 16093 1.8 343 05:18 02.12.2019
584 Clouds -8 995 92 16093 1.8 343 03:19 02.12.2019
585 Clouds -8 995 92 16093 1.8 343 02:47 02.12.2019
586 Clouds -8 996 100 16093 1.54 351 01:46 02.12.2019
587 Clouds -8 996 92 16093 1.37 341 01:19 02.12.2019
588 Clouds -8 997 92 14484 1.37 341 00:34 02.12.2019
589 Clouds -8 998 92 12874 1.37 341 23:59 01.12.2019
590 Clouds -8 998 92 12874 1.37 341 23:41 01.12.2019
591 Clouds -8 998 100 14484 1.37 6 23:21 01.12.2019
592 Clouds -8 997 85 16093 1.37 6 22:56 01.12.2019
593 Clouds -8 997 85 16093 1.37 6 22:38 01.12.2019
594 Clouds -8 999 100 16093 1.37 6 22:19 01.12.2019
595 Clouds -8 1000 85 16093 1.5 350 21:56 01.12.2019
596 Clouds -8 1000 85 16093 1.5 350 21:56 01.12.2019
597 Clouds -8 1000 100 16093 1.37 6 21:38 01.12.2019
598 Clouds -8 1000 100 16093 1.37 6 21:19 01.12.2019
599 Clouds -9 1000 85 16093 2.6 360 20:58 01.12.2019
600 Clouds -9 1000 85 16093 2.6 360 20:39 01.12.2019
601 Clouds -9 1000 100 16093 1.42 8 20:21 01.12.2019
602 Clouds -8 1000 85 16093 1.35 17 19:57 01.12.2019
603 Clouds -8 1000 85 16093 1.35 17 19:38 01.12.2019
604 Clouds -8 1001 100 16093 1.35 17 19:20 01.12.2019
605 Snow -8 1002 85 14484 1.5 30 18:55 01.12.2019
606 Clouds -8 1002 92 12874 1.35 17 18:37 01.12.2019
607 Clouds -8 1002 92 12874 1.35 17 18:37 01.12.2019
608 Snow -8 1002 85 14484 1.5 30 18:37 01.12.2019
609 Clouds -8 1002 92 12874 1.35 17 18:18 01.12.2019
610 Snow -8 1003 92 16093 1.35 17 17:56 01.12.2019
611 Snow -8 1003 92 16093 1.35 17 17:38 01.12.2019
612 Clouds -8 1003 92 16093 1.03 32 17:19 01.12.2019
613 Snow -8 1003 92 8047 1.03 32 16:44 01.12.2019
614 Snow -8 1004 92 12874 1.03 32 16:25 01.12.2019
615 Clouds -8 1004 92 16093 1.03 32 15:58 01.12.2019
616 Clouds -8 1004 92 16093 1.03 32 15:58 01.12.2019
617 Clouds -8 1004 92 16093 1.03 32 15:40 01.12.2019
618 Clouds -8 1004 92 16093 1.03 32 15:40 01.12.2019
619 Clouds -8 1004 100 16093 1.03 32 15:20 01.12.2019
620 Clouds -8 1004 100 11265 1.03 32 14:38 01.12.2019
621 Snow -8 1005 100 11265 0.43 87 14:19 01.12.2019
622 Mist -7 1005 92 9656 0.43 87 13:40 01.12.2019
623 Clouds -7 1005 92 11265 0.54 82 13:22 01.12.2019
624 Mist -7 1006 92 8047 0.54 82 12:58 01.12.2019
625 Mist -7 1006 92 8047 0.54 82 12:36 01.12.2019
626 Mist -7 1006 92 8047 0.54 82 12:36 01.12.2019
627 Snow -7 1006 92 9656 0.54 82 12:27 01.12.2019
628 Snow -7 1006 92 9656 0.54 82 12:27 01.12.2019
629 Snow -7 1006 92 9656 0.54 82 12:27 01.12.2019
630 Snow -7 1006 92 3621 0.54 82 11:44 01.12.2019
631 Snow -7 1007 100 9656 0.54 82 11:24 01.12.2019
632 Snow -7 1007 92 16093 0.54 102 10:55 01.12.2019
633 Snow -7 1007 92 16093 0.54 102 10:55 01.12.2019
634 Snow -7 1007 92 16093 0.54 102 10:37 01.12.2019
635 Snow -7 1007 85 9656 0.54 102 10:19 01.12.2019
636 Snow -7 1007 85 8047 0.54 102 09:41 01.12.2019
637 Clouds -7 1007 100 16093 0.54 102 09:22 01.12.2019
638 Snow -7 1007 100 16093 0.54 102 08:49 01.12.2019
639 Snow -7 1007 100 16093 0.5 191 08:24 01.12.2019
640 Clouds -7 1007 100 16093 0.5 191 07:54 01.12.2019
641 Clouds -7 1007 100 16093 0.5 191 07:36 01.12.2019
642 Clouds -7 1007 100 16093 0.5 191 07:18 01.12.2019
643 Snow -7 1006 85 9656 1.5 190 06:49 01.12.2019
644 Clouds -7 1007 100 16093 0.5 191 05:57 01.12.2019
645 Clouds -7 1006 85 16093 2.6 200 04:54 01.12.2019
646 Clouds -7 1006 100 16093 0.82 206 04:22 01.12.2019
647 Clouds -7 1005 100 14484 0.82 206 02:43 01.12.2019
648 Snow -7 1005 100 14484 0.82 206 02:24 01.12.2019
649 Clouds -7 1004 100 14484 0.57 22 01:53 01.12.2019
650 Clouds -7 1004 100 14484 0.09 111 01:29 01.12.2019
651 Clouds -7 1004 92 14484 0.09 111 00:45 01.12.2019
652 Clouds -7 1004 92 16093 0.09 111 00:26 01.12.2019
653 Clouds -7 1003 92 16093 0.09 111 23:47 30.11.2019
654 Clouds -7 1003 92 16093 1.22 10 23:25 30.11.2019
655 Clouds -7 1002 85 12874 2.1 150 22:59 30.11.2019
656 Clouds -7 1003 92 16093 1.22 10 22:39 30.11.2019
657 Clouds -7 1003 92 16093 1.22 10 22:20 30.11.2019
658 Clouds -7 1002 85 14484 2.1 120 21:47 30.11.2019
659 Clouds -7 1002 92 16093 1.22 10 21:28 30.11.2019
660 Clouds -8 1002 100 16093 1.22 10 20:58 30.11.2019
661 Clouds -8 1002 100 16093 1.22 10 20:39 30.11.2019
662 Clouds -7 1001 85 16093 1.5 200 20:19 30.11.2019
663 Clouds -7 1001 85 16093 1.5 200 20:19 30.11.2019
664 Clouds -8 1001 100 16093 1.27 25 19:56 30.11.2019
665 Clouds -8 1001 100 16093 1.27 25 19:38 30.11.2019
666 Clouds -8 1001 100 16093 1.27 25 19:20 30.11.2019
667 Clouds -8 1000 92 16093 1.27 25 18:58 30.11.2019
668 Clouds -7 1000 92 16093 1.27 25 18:38 30.11.2019
669 Clouds -7 1000 92 16093 1.27 25 18:20 30.11.2019
670 Clouds -7 1000 92 16093 1.27 25 17:58 30.11.2019
671 Clouds -7 1000 92 16093 1.27 25 17:39 30.11.2019
672 Clouds -7 1000 92 16093 1.72 33 17:20 30.11.2019
673 Clouds -7 1000 100 16093 1.72 33 16:57 30.11.2019
674 Clouds -7 1000 100 16093 1.72 33 16:57 30.11.2019
675 Clouds -7 1000 100 16093 1.72 33 16:39 30.11.2019
676 Clouds -7 1000 100 16093 1.72 33 16:20 30.11.2019
677 Clear -7 1000 92 16093 1.72 33 15:42 30.11.2019
678 Clear -7 1000 92 16093 1.72 33 15:19 30.11.2019
679 Clouds -6 1000 100 16093 1.72 33 14:58 30.11.2019
680 Clouds -6 1000 100 16093 1.72 33 14:38 30.11.2019
681 Clouds -6 1000 100 16093 1.95 23 14:19 30.11.2019
682 Mist -6 1000 100 8047 1.95 23 13:58 30.11.2019
683 Mist -6 1000 100 8047 1.95 23 13:38 30.11.2019
684 Mist -6 1000 100 8047 2.07 18 13:20 30.11.2019
685 Clouds -6 1000 100 16093 2.07 18 12:47 30.11.2019
686 Clouds -6 1000 100 16093 2.07 18 12:29 30.11.2019
687 Clouds -6 1000 92 16093 2.07 18 11:58 30.11.2019
688 Clouds -6 1000 92 16093 2.07 18 11:58 30.11.2019
689 Clouds -5 1000 92 16093 2.07 18 11:40 30.11.2019
690 Clouds -6 1000 92 16093 1.83 30 11:18 30.11.2019
691 Clouds -5 1000 100 16093 1.83 30 10:45 30.11.2019
692 Clouds -5 1000 100 16093 1.83 30 10:21 30.11.2019
693 Clouds -5 1001 92 16093 1.83 30 09:59 30.11.2019
694 Clouds -5 1001 92 16093 1.83 30 09:40 30.11.2019
695 Clouds -5 1001 92 16093 1.83 30 09:20 30.11.2019
696 Clouds -5 1001 100 16093 1.83 30 08:41 30.11.2019
697 Clouds -5 1001 100 16093 1.89 32 08:19 30.11.2019
698 Clouds -5 1001 100 16093 1.89 32 07:43 30.11.2019
699 Clouds -5 1001 100 16093 1.89 32 07:24 30.11.2019
700 Clouds -5 1001 100 16093 1.89 32 06:46 30.11.2019
701 Clouds -5 1001 100 16093 1.89 32 06:28 30.11.2019
702 Clear -5 1001 100 16093 1.89 32 05:29 30.11.2019
703 Clouds -5 1001 92 16093 2.16 31 03:40 30.11.2019
704 Clouds -5 1002 100 16093 2.16 31 02:26 30.11.2019
705 Clouds -5 1002 100 16093 2.16 31 02:26 30.11.2019
706 Clouds -5 1002 92 12874 1.97 26 01:56 30.11.2019
707 Clouds -5 1002 92 12874 1.99 38 01:24 30.11.2019
708 Clouds -5 1002 100 14484 1.99 38 00:46 30.11.2019
709 Clouds -4 1002 100 14484 1.99 38 00:27 30.11.2019
710 Clouds -4 1003 100 16093 1.99 38 23:46 29.11.2019
711 Clouds -5 1003 100 16093 1.99 38 23:25 29.11.2019
712 Clouds -4 1003 100 14484 1.39 24 22:58 29.11.2019
713 Clouds -4 1003 100 14484 1.39 24 22:39 29.11.2019
714 Clouds -4 1003 100 14484 1.39 24 22:21 29.11.2019
715 Fog -4 1002 85 805 1.5 150 21:41 29.11.2019
716 Clouds -4 1003 92 14484 1.39 24 21:22 29.11.2019
717 Mist -4 1003 100 6437 1.39 24 20:56 29.11.2019
718 Clouds -4 1003 79 16093 2.6 360 20:37 29.11.2019
719 Clouds -4 1003 79 16093 2.6 360 20:18 29.11.2019
720 Clouds -4 1004 79 16093 3.1 360 19:55 29.11.2019
721 Clouds -4 1004 100 16093 0.96 7 19:37 29.11.2019
722 Clouds -4 1004 100 16093 0.96 7 19:37 29.11.2019
723 Clouds -4 1004 100 16093 0.96 7 19:19 29.11.2019
724 Clouds -4 1004 92 16093 0.96 7 18:42 29.11.2019
725 Clouds -4 1004 100 16093 0.96 7 18:24 29.11.2019
726 Mist -4 1004 100 4023 0.96 7 18:00 29.11.2019
727 Mist -4 1004 100 4023 0.96 7 17:41 29.11.2019
728 Mist -4 1005 100 4023 0.69 10 17:22 29.11.2019
729 Mist -4 1005 92 6437 0.69 10 16:44 29.11.2019
730 Mist -4 1005 92 6437 0.69 10 16:21 29.11.2019
731 Snow -4 1005 100 9656 0.69 10 15:59 29.11.2019
732 Snow -4 1005 100 9656 0.69 10 15:39 29.11.2019
733 Rain -4 1005 92 6437 0.69 10 15:21 29.11.2019
734 Rain -4 1005 92 6437 0.69 10 15:21 29.11.2019
735 Snow -4 1005 92 4426 0.69 10 14:41 29.11.2019
736 Mist -4 1006 100 9656 1.16 3 14:22 29.11.2019
737 Mist -4 1006 100 9656 1.16 3 13:58 29.11.2019
738 Mist -4 1006 100 9656 1.16 3 13:38 29.11.2019
739 Snow -4 1006 92 8047 1.19 0 13:20 29.11.2019
740 Snow -4 1006 92 12874 1.19 0 12:44 29.11.2019
741 Snow -4 1006 92 12874 1.19 0 12:25 29.11.2019
742 Snow -4 1006 92 12874 1.19 0 11:59 29.11.2019
743 Snow -4 1006 92 12874 1.19 0 11:40 29.11.2019
744 Clouds -4 1006 92 14484 1.49 4 11:19 29.11.2019
745 Clouds -4 1006 92 16093 1.49 4 10:58 29.11.2019
746 Clouds -4 1006 92 16093 1.49 4 10:39 29.11.2019
747 Snow -4 1006 92 6437 1.49 4 10:21 29.11.2019
748 Snow -4 1006 92 4828 1.49 4 09:59 29.11.2019
749 Snow -4 1006 92 4828 1.49 4 09:39 29.11.2019
750 Snow -4 1006 100 3621 1.49 4 09:21 29.11.2019
751 Snow -4 1006 92 3621 1.49 4 08:55 29.11.2019
752 Snow -3 1006 92 3621 1.49 4 08:37 29.11.2019
753 Mist -4 1006 92 8047 0.83 355 08:19 29.11.2019
754 Mist -3 1006 92 8047 0.83 355 07:42 29.11.2019
755 Mist -3 1006 92 8047 0.83 355 07:42 29.11.2019
756 Mist -4 1006 100 6437 0.83 355 07:23 29.11.2019
757 Clouds -3 1006 100 14484 0.83 355 06:54 29.11.2019
758 Clouds -3 1006 100 14484 0.83 355 06:35 29.11.2019
759 Clouds -3 1005 92 14484 0.83 355 05:46 29.11.2019
760 Mist -3 1005 92 8047 0.83 355 05:23 29.11.2019
761 Mist -3 1005 92 8047 0.83 355 05:23 29.11.2019
762 Snow -2 1005 100 3017 0.9 245 03:41 29.11.2019
763 Snow -2 1004 100 12874 0.9 245 03:19 29.11.2019
764 Snow -1 1004 92 14484 0.9 245 02:25 29.11.2019
765 Snow -1 1003 100 14484 2.1 260 01:49 29.11.2019
766 Snow -1 1003 100 12874 2.1 250 01:23 29.11.2019
767 Snow -1 1003 100 12874 2.1 250 01:23 29.11.2019
768 Snow 0 1003 97 3219 2.1 250 00:40 29.11.2019
769 Rain 0 1003 97 6437 3.1 230 00:18 29.11.2019
770 Snow 0 1003 97 4023 2.6 220 23:42 28.11.2019
771 Clouds 0 1002 97 16093 2.6 230 23:21 28.11.2019
772 Snow 0 1001 86 3219 2.6 200 22:57 28.11.2019
773 Snow 0 1001 86 3219 2.6 200 22:37 28.11.2019
774 Snow 0 1001 86 3219 2.6 200 22:37 28.11.2019
775 Snow 0 1001 97 2414 2.6 220 22:19 28.11.2019
776 Snow 0 1001 97 2213 2.1 210 21:55 28.11.2019
777 Snow 0 1001 97 2213 2.1 210 21:36 28.11.2019
778 Snow 0 1001 97 2012 2.6 210 21:18 28.11.2019
779 Snow 0 1001 97 2213 1.5 210 20:42 28.11.2019
780 Snow -1 1000 97 2615 1.1 161 20:22 28.11.2019
781 Snow -1 1000 97 4828 2.1 160 19:58 28.11.2019
782 Snow -1 1000 97 4828 2.1 160 19:40 28.11.2019
783 Snow -1 999 97 12874 1.1 161 19:21 28.11.2019
784 Clouds -1 999 97 12874 1.1 161 18:58 28.11.2019
785 Clouds 0 999 97 12874 1.1 161 18:39 28.11.2019
786 Clouds 0 999 97 12874 1.1 161 18:18 28.11.2019
787 Clouds -1 998 97 16093 2.1 280 17:59 28.11.2019
788 Clouds -1 998 97 16093 2.1 280 17:40 28.11.2019
789 Clouds -1 998 87 16093 2.1 280 17:21 28.11.2019
790 Clouds -1 996 87 16093 0.85 225 16:55 28.11.2019
791 Clouds -1 996 87 16093 0.85 225 16:37 28.11.2019
792 Clouds -2 996 86 16093 2.6 280 16:18 28.11.2019
793 Clouds -1 995 87 16093 0.85 225 15:41 28.11.2019
794 Clouds -1 996 74 16093 0.85 225 15:20 28.11.2019
795 Clouds -1 995 59 16093 2.1 360 14:58 28.11.2019
796 Clouds -1 995 59 16093 2.1 360 14:40 28.11.2019
797 Clouds -1 995 80 16093 3.6 80 14:21 28.11.2019
798 Clouds -1 995 74 16093 2.6 70 13:56 28.11.2019
799 Clouds -2 995 74 16093 2.6 70 13:38 28.11.2019
800 Clouds -1 995 74 16093 2.6 70 13:19 28.11.2019
801 Clouds -1 995 84 16093 3.1 60 12:42 28.11.2019
802 Clouds -1 995 84 16093 3.1 60 12:23 28.11.2019
803 Clouds -1 995 86 16093 4.1 60 11:57 28.11.2019
804 Clouds -1 995 86 16093 4.1 60 11:39 28.11.2019
805 Clouds -2 995 86 16093 4.1 60 11:20 28.11.2019
806 Clouds -2 996 80 16093 4.1 70 10:43 28.11.2019
807 Clouds -2 996 80 16093 4.1 70 10:22 28.11.2019
808 Clouds -2 997 80 16093 2.6 70 09:59 28.11.2019
809 Clouds -2 997 80 16093 2.6 70 09:40 28.11.2019
810 Clouds -2 997 80 16093 2.6 70 09:20 28.11.2019
811 Clouds -2 997 80 16093 2.6 70 09:20 28.11.2019
812 -273 0 0 0 0 0 08:54 28.11.2019
813 Clouds -2 997 80 16093 3.1 60 08:36 28.11.2019
814 Clouds -2 997 80 16093 3.1 60 08:18 28.11.2019
815 Clouds -3 996 55 16093 2.1 20 07:41 28.11.2019
816 Clouds -3 997 79 16093 2.1 20 07:23 28.11.2019
817 Clouds -3 998 86 16093 3.1 60 06:43 28.11.2019
818 Clouds -3 998 86 16093 3.1 60 06:18 28.11.2019
819 Clear -3 999 86 16093 3.6 60 05:44 28.11.2019
820 Clouds -4 1001 86 16093 4.1 70 04:57 28.11.2019
821 Clouds -5 1004 85 16093 2.6 60 02:36 28.11.2019
822 Clouds -5 1005 92 16093 2.1 40 01:28 28.11.2019
823 Clear -5 1006 85 16093 2.25 103 00:43 28.11.2019
824 Clear -5 1006 85 16093 2.25 103 00:20 28.11.2019
825 Clear -5 1007 79 14484 2.6 60 23:40 27.11.2019
826 Clear -5 1007 79 14484 2.6 60 23:22 27.11.2019
827 Clear -5 1009 85 14484 2.1 50 22:58 27.11.2019
828 Clear -5 1009 85 14484 2.1 50 22:38 27.11.2019
829 Clear -5 1009 85 14484 2.1 50 22:19 27.11.2019
830 -273 0 0 0 0 0 21:56 27.11.2019
831 Clouds -6 1010 85 16093 2.6 70 21:37 27.11.2019
832 Clouds -6 1010 85 16093 2.6 70 21:19 27.11.2019
833 Clouds -6 1012 85 16093 2.6 60 20:58 27.11.2019
834 Clouds -6 1012 85 16093 2.6 60 20:38 27.11.2019
835 Clouds -6 1012 85 16093 2.6 60 20:20 27.11.2019
836 Clouds -7 1014 85 16093 3.1 70 19:57 27.11.2019
837 Clouds -7 1014 85 16093 3.1 70 19:39 27.11.2019
838 -273 0 0 0 0 0 19:19 27.11.2019
839 Clouds -7 1015 92 16093 2.6 80 18:58 27.11.2019
840 Clouds -7 1015 92 16093 2.6 80 18:37 27.11.2019
841 Clouds -7 1015 92 16093 2.6 80 18:19 27.11.2019
842 Clouds -8 1016 92 16093 2.1 50 17:56 27.11.2019
843 Clouds -8 1016 92 16093 2.1 50 17:37 27.11.2019
844 Clouds -8 1016 92 16093 2.1 50 17:37 27.11.2019
845 Clouds -8 1016 92 16093 2.1 50 17:18 27.11.2019
846 Clouds -7 1016 85 16093 1.48 83 16:56 27.11.2019
847 Clouds -7 1016 85 16093 1.48 83 16:55 27.11.2019
848 Clouds -7 1016 85 16093 1.48 83 16:55 27.11.2019
849 Clouds -7 1017 85 16093 1.5 60 16:36 27.11.2019
850 Clouds -7 1017 85 16093 1.5 60 16:18 27.11.2019
851 Clouds -7 1018 92 16093 2.6 60 15:56 27.11.2019
852 Clouds -7 1018 92 16093 2.6 60 15:37 27.11.2019
853 Clouds -8 1018 92 16093 2.6 60 15:19 27.11.2019
854 Clouds -8 1019 92 16093 2.1 60 14:56 27.11.2019
855 Clouds -8 1019 92 16093 2.1 60 14:38 27.11.2019
856 Clouds -8 1019 92 16093 2.1 60 14:19 27.11.2019
857 Clouds -8 1019 92 16093 2.1 60 14:19 27.11.2019
858 Clouds -8 1020 100 16093 0.59 101 13:55 27.11.2019
859 Clouds -8 1020 100 16093 0.59 101 13:37 27.11.2019
860 Clouds -8 1020 100 16093 0.83 116 13:18 27.11.2019
861 Clouds -8 1021 92 16093 0.83 116 12:41 27.11.2019
862 Clouds -8 1021 92 16093 0.83 116 12:22 27.11.2019
863 Clouds -8 1021 92 16093 1.5 60 11:56 27.11.2019
864 Clouds -8 1021 92 16093 1.5 60 11:37 27.11.2019
865 Clouds -8 1022 92 16093 1.5 50 11:18 27.11.2019
866 Clouds -8 1022 92 16093 1.5 50 10:46 27.11.2019
867 Clouds -8 1022 92 16093 1.5 50 10:46 27.11.2019
868 Clouds -8 1022 92 16093 1.5 50 10:24 27.11.2019
869 Snow -8 1022 92 16093 0.68 94 09:58 27.11.2019
870 Snow -8 1022 92 16093 0.68 94 09:39 27.11.2019
871 Snow -8 1022 92 16093 0.68 94 09:21 27.11.2019
872 Snow -8 1022 92 16093 0.68 94 08:42 27.11.2019
873 Rain -8 1022 92 6437 3.1 70 08:23 27.11.2019
874 Clouds -8 1021 73 16093 2.6 30 07:51 27.11.2019
875 Snow -9 1023 92 6437 3.1 70 07:30 27.11.2019
876 Snow -9 1023 92 4828 3.1 80 06:55 27.11.2019
877 Snow -9 1023 92 4828 3.1 80 06:55 27.11.2019
878 Snow -9 1023 92 4828 3.1 80 06:37 27.11.2019
879 Snow -9 1023 78 3219 2.1 360 05:55 27.11.2019
880 Snow -9 1023 92 6437 2.6 60 05:26 27.11.2019
881 Snow -10 1023 72 4023 2.1 20 04:55 27.11.2019
882 Snow -10 1024 92 9656 1.5 60 04:36 27.11.2019
883 Clouds -10 1023 85 16093 1.5 330 03:48 27.11.2019
884 Snow -10 1024 92 9656 0.36 177 03:21 27.11.2019
885 Snow -11 1024 72 4828 2.6 20 02:42 27.11.2019
886 Snow -12 1024 78 2414 1.5 10 01:22 27.11.2019
887 Clouds -12 1026 85 16093 2.1 70 00:40 27.11.2019
888 Clouds -12 1026 85 16093 2.1 70 00:22 27.11.2019
889 Clouds -13 1026 84 16093 0.88 84 23:42 26.11.2019
890 Clouds -13 1026 84 16093 0.88 84 23:24 26.11.2019
891 Clouds -14 1025 77 16093 1.22 74 22:40 26.11.2019
892 Clouds -14 1026 71 16093 1.22 74 22:20 26.11.2019
893 Clouds -15 1027 77 16093 1.22 74 22:00 26.11.2019
894 Clouds -14 1027 77 16093 1.22 74 21:39 26.11.2019
895 Clouds -14 1027 77 16093 1.22 74 21:21 26.11.2019
896 Clouds -14 1027 77 16093 1.22 74 21:21 26.11.2019
897 Clouds -15 1028 84 16093 1.22 74 20:57 26.11.2019
898 Clouds -15 1028 84 16093 1.22 74 20:39 26.11.2019
899 Clouds -17 1028 84 16093 1.81 63 20:19 26.11.2019
900 Clouds -17 1029 84 16093 2.1 40 19:56 26.11.2019
901 Clouds -17 1029 84 16093 2.1 40 19:38 26.11.2019
902 Clouds -17 1029 84 16093 2.1 40 19:19 26.11.2019
903 Clouds -18 1029 77 16093 2.6 30 18:58 26.11.2019
904 Clouds -18 1029 77 16093 2.6 30 18:39 26.11.2019
905 Clouds -19 1029 77 16093 2.6 30 18:21 26.11.2019
906 Clouds -19 1030 77 16093 2.1 40 17:59 26.11.2019
907 Clouds -18 1030 77 16093 2.1 40 17:40 26.11.2019
908 Clouds -18 1030 77 16093 2.1 40 17:22 26.11.2019
909 Clear -18 1031 84 16093 3.6 70 16:57 26.11.2019
910 Clear -19 1031 84 16093 3.6 70 16:38 26.11.2019
911 Clear -18 1031 84 16093 3.6 70 16:19 26.11.2019
912 Clear -19 1031 91 16093 3.1 70 15:59 26.11.2019
913 Clear -17 1031 91 16093 3.1 70 15:38 26.11.2019
914 Clear -18 1031 91 16093 3.1 70 15:20 26.11.2019
915 Haze -18 1030 69 2213 1.84 46 14:51 26.11.2019
916 Clear -18 1031 84 14484 1.84 46 14:26 26.11.2019
917 Mist -17 1032 84 2816 1.54 52 13:59 26.11.2019
918 Mist -17 1032 84 2816 1.54 52 13:40 26.11.2019
919 Clear -16 1032 91 16093 1.58 45 13:22 26.11.2019
920 Clouds -15 1032 92 16093 1.58 45 12:40 26.11.2019
921 Clouds -15 1032 92 16093 1.58 45 12:22 26.11.2019
922 Clouds -14 1032 84 16093 2.1 50 11:59 26.11.2019
923 Clouds -14 1032 84 16093 2.1 50 11:40 26.11.2019
924 Clouds -14 1032 84 16093 2.1 50 11:20 26.11.2019
925 Clouds -13 1033 84 16093 2.1 70 10:59 26.11.2019
926 Clouds -13 1033 84 16093 2.1 70 10:41 26.11.2019
927 Snow -13 1033 84 14484 2.6 70 10:21 26.11.2019
928 Clouds -13 1033 85 16093 1.5 60 09:58 26.11.2019
929 Clouds -14 1033 85 16093 1.5 60 09:38 26.11.2019
930 Clouds -14 1033 85 16093 1.5 60 09:20 26.11.2019
931 Clouds -13 1032 92 16093 2.6 60 08:46 26.11.2019
932 Clouds -13 1032 92 16093 2.6 60 08:26 26.11.2019
933 Snow -13 1032 85 14484 2.6 60 07:48 26.11.2019
934 Clouds -13 1032 85 14484 2.1 60 07:29 26.11.2019
935 Snow -13 1031 92 12874 2.1 70 06:59 26.11.2019
936 Snow -13 1031 92 12874 2.1 70 06:40 26.11.2019
937 Snow -12 1031 78 14484 0.81 126 05:54 26.11.2019
938 Snow -12 1031 92 12874 2.1 60 04:47 26.11.2019
939 Snow -12 1030 92 6437 1.5 60 02:53 26.11.2019
940 Snow -12 1029 84 16093 0.97 141 01:35 26.11.2019
941 Snow -12 1029 85 16093 0.97 130 00:53 26.11.2019
942 Snow -12 1029 85 16093 2.1 200 00:33 26.11.2019
943 Clouds -12 1028 85 16093 2.1 210 23:56 25.11.2019
944 Clouds -12 1028 85 16093 2.1 210 23:37 25.11.2019
945 Clouds -12 1028 85 16093 2.1 210 23:18 25.11.2019
946 Clouds -11 1028 92 14484 2.6 220 22:39 25.11.2019
947 Clouds -11 1028 92 14484 2.6 220 22:19 25.11.2019
948 Clouds -11 1027 85 16093 0.73 144 21:59 25.11.2019
949 Clouds -11 1027 85 16093 0.73 144 21:40 25.11.2019
950 Clouds -11 1028 92 16093 2.6 220 21:22 25.11.2019
951 Snow -10 1027 92 11265 3.1 230 20:58 25.11.2019
952 Snow -10 1027 92 11265 3.1 230 20:40 25.11.2019
953 Snow -10 1027 85 3621 3.1 220 20:20 25.11.2019
954 Snow -10 1027 85 3621 3.1 220 20:20 25.11.2019
955 Snow -10 1026 92 6437 2.6 220 19:56 25.11.2019
956 Snow -10 1026 92 6437 2.6 220 19:38 25.11.2019
957 Snow -10 1026 92 9656 3.1 230 19:19 25.11.2019
958 Snow -10 1026 85 11265 3.1 220 18:57 25.11.2019
959 Snow -9 1026 92 14484 3.1 230 18:39 25.11.2019
960 Snow -9 1026 92 14484 3.1 230 18:21 25.11.2019
961 Snow -9 1025 85 16093 2.1 240 17:58 25.11.2019
962 Snow -9 1025 92 14484 3.1 240 17:39 25.11.2019
963 Snow -9 1025 92 14484 3.1 240 17:21 25.11.2019
964 Snow -9 1025 100 9656 0.65 175 16:58 25.11.2019
965 Snow -9 1025 100 9656 0.65 175 16:40 25.11.2019
966 Snow -9 1025 100 2213 0.65 175 16:22 25.11.2019
967 Snow -9 1024 92 4828 0.65 175 15:56 25.11.2019
968 Snow -9 1024 92 4828 0.65 175 15:37 25.11.2019
969 Snow -9 1024 92 3621 0.65 175 15:18 25.11.2019
970 Snow -9 1024 92 3219 0.65 175 14:43 25.11.2019
971 Snow -9 1023 92 3219 0.65 175 14:25 25.11.2019
972 Snow -9 1023 92 2615 0.81 238 13:57 25.11.2019
973 Snow -9 1023 92 4023 0.81 238 13:37 25.11.2019
974 Snow -9 1023 92 4023 0.78 252 13:18 25.11.2019
975 Snow -9 1023 92 4426 0.78 252 12:57 25.11.2019
976 Snow -9 1022 92 6437 0.78 252 12:38 25.11.2019
977 Snow -9 1022 92 6437 0.78 252 12:19 25.11.2019
978 Clouds -9 1021 92 16093 0.78 252 11:40 25.11.2019
979 Clouds -9 1021 92 16093 0.78 252 11:40 25.11.2019
980 Clouds -9 1021 92 16093 0.78 252 11:40 25.11.2019
981 Clouds -10 1021 92 16093 0.81 217 11:21 25.11.2019
982 Clouds -10 1020 92 14484 0.81 217 10:58 25.11.2019
983 Clouds -10 1020 92 14484 0.81 217 10:39 25.11.2019
984 Clouds -10 1020 92 14484 0.81 217 10:19 25.11.2019
985 Clouds -10 1020 92 14484 0.81 217 09:42 25.11.2019
986 Snow -10 1019 92 14484 0.81 217 09:24 25.11.2019
987 Clouds -10 1019 92 16093 1.5 230 08:57 25.11.2019
988 Clouds -11 1019 92 16093 1.5 230 08:38 25.11.2019
989 Clouds -11 1018 92 16093 0.61 195 08:18 25.11.2019
990 Snow -10 1018 92 14484 0.59 199 07:38 25.11.2019
991 Snow -10 1017 92 9656 0.59 199 07:18 25.11.2019
992 Snow -10 1016 100 12874 0.59 199 06:38 25.11.2019
993 Snow -10 1016 100 12874 0.59 199 06:18 25.11.2019
994 Clouds -10 1015 100 14484 1.5 230 05:32 25.11.2019
995 Clouds -9 1014 92 16093 0.39 155 04:49 25.11.2019
996 Clouds -8 1012 92 16093 0.39 155 02:45 25.11.2019
997 Clouds -8 1011 92 16093 0.59 198 01:56 25.11.2019
998 Clouds -8 1011 92 16093 0.5 177 01:36 25.11.2019
999 Clouds -8 1011 92 16093 0.5 177 01:18 25.11.2019
1000 Clouds -8 1010 92 16093 0.5 177 00:21 25.11.2019
1001 Clouds -8 1009 92 14484 1.5 230 23:45 24.11.2019
1002 Clouds -8 1009 92 14484 1.5 230 23:21 24.11.2019
1003 Clouds -8 1008 100 16093 0.5 163 22:59 24.11.2019
1004 Clouds -8 1008 100 16093 0.5 163 22:59 24.11.2019
1005 Clouds -8 1008 100 16093 0.5 163 22:40 24.11.2019
1006 Clouds -8 1008 100 16093 0.5 163 22:20 24.11.2019
1007 Clouds -8 1007 100 16093 0.5 163 21:58 24.11.2019
1008 Clouds -8 1007 100 16093 0.5 163 21:40 24.11.2019
1009 Clouds -8 1007 100 16093 0.5 163 21:21 24.11.2019
1010 Clouds -8 1006 92 16093 0.5 163 20:58 24.11.2019
1011 Clouds -8 1006 92 16093 0.5 163 20:38 24.11.2019
1012 Clouds -8 1006 92 16093 0.59 150 20:19 24.11.2019
1013 Clouds -8 1004 100 16093 1.5 250 19:56 24.11.2019
1014 Clouds -7 1004 100 16093 1.5 250 19:38 24.11.2019
1015 Clouds -7 1004 100 16093 1.5 250 19:20 24.11.2019
1016 Clouds -7 1003 92 16093 1.5 270 18:58 24.11.2019
1017 Clouds -7 1003 92 16093 1.5 270 18:37 24.11.2019
1018 Clouds -7 1003 92 16093 1.5 270 18:19 24.11.2019
1019 Clouds -7 1002 100 16093 0.59 150 17:56 24.11.2019
1020 Clouds -7 1002 100 16093 0.59 150 17:37 24.11.2019
1021 Clouds -7 1002 100 16093 0.59 150 17:37 24.11.2019
1022 Clouds -7 1002 100 16093 0.39 79 17:19 24.11.2019
1023 Clouds -7 1001 100 16093 1.5 270 16:57 24.11.2019
1024 Clouds -7 1001 100 16093 1.5 270 16:38 24.11.2019
1025 Clouds -7 1001 100 16093 1.5 270 16:20 24.11.2019
1026 Clouds -7 1001 92 16093 0.39 79 15:44 24.11.2019
1027 Clouds -7 1001 92 16093 0.39 79 15:26 24.11.2019
1028 Clouds -6 1000 85 16093 0.39 79 14:58 24.11.2019
1029 Clouds -6 1000 85 16093 0.39 79 14:38 24.11.2019
1030 Clouds -6 1000 92 16093 2.1 270 14:18 24.11.2019
1031 Clouds -6 999 92 16093 0.44 132 13:54 24.11.2019
1032 Clouds -6 999 92 16093 0.44 132 13:54 24.11.2019
1033 Clouds -6 999 92 16093 0.44 132 13:36 24.11.2019
1034 Clouds -7 999 92 16093 0.48 121 13:18 24.11.2019
1035 Clouds -7 999 100 16093 0.48 121 12:42 24.11.2019
1036 Clouds -6 999 100 16093 0.48 121 12:19 24.11.2019
1037 Clouds -6 999 100 16093 0.48 121 11:58 24.11.2019
1038 Clouds -6 999 100 16093 0.48 121 11:37 24.11.2019
1039 Clouds -6 999 100 16093 0.53 60 11:19 24.11.2019
1040 Clouds -6 998 100 16093 0.53 60 10:47 24.11.2019
1041 Clouds -6 998 92 16093 0.53 60 10:29 24.11.2019
1042 Clouds -6 998 100 16093 0.53 60 09:59 24.11.2019
1043 Clouds -6 998 100 16093 0.53 60 09:38 24.11.2019
1044 Clouds -6 997 100 16093 0.53 60 09:19 24.11.2019
1045 Clouds -6 997 100 16093 0.53 60 08:56 24.11.2019
1046 Clouds -6 997 100 16093 0.53 60 08:36 24.11.2019
1047 Clouds -6 997 100 16093 0.09 131 08:18 24.11.2019
1048 Clouds -6 996 92 14484 0.33 158 07:45 24.11.2019
1049 Clouds -6 996 92 14484 0.33 158 07:20 24.11.2019
1050 Clouds -6 996 92 14484 0.33 158 06:21 24.11.2019
1051 Clouds -6 994 92 16093 0.64 193 04:54 24.11.2019
1052 Clouds -6 994 92 16093 0.64 193 04:35 24.11.2019
1053 Snow -5 993 92 14484 0.64 193 02:32 24.11.2019
1054 Snow -5 993 85 14484 1.23 172 01:49 24.11.2019
1055 Clouds -5 993 92 16093 1.27 159 01:27 24.11.2019
1056 Clouds -5 993 100 14484 1.27 159 00:48 24.11.2019
1057 Clouds -5 993 100 14484 1.27 159 00:24 24.11.2019
1058 Snow -5 992 92 14484 1.27 159 23:56 23.11.2019
1059 Snow -5 992 92 14484 1.27 159 23:56 23.11.2019
1060 Clouds -5 992 92 11265 1.27 159 23:38 23.11.2019
1061 Clouds -5 992 92 11265 0.96 144 23:19 23.11.2019
1062 Snow -5 992 100 11265 0.96 144 22:55 23.11.2019
1063 Snow -5 992 100 11265 0.96 144 22:37 23.11.2019
1064 Mist -5 992 100 9656 0.96 144 22:18 23.11.2019
1065 Snow -5 991 100 9656 0.96 144 21:43 23.11.2019
1066 Mist -5 991 100 4426 0.96 144 21:23 23.11.2019
1067 Snow -6 991 100 2816 1.5 80 20:59 23.11.2019
1068 Snow -6 991 100 2816 1.5 80 20:38 23.11.2019
1069 Clouds -6 990 85 14484 1.04 167 20:19 23.11.2019
1070 Clouds -6 990 85 14484 1.04 163 20:19 23.11.2019
1071 Snow -6 990 100 14484 1.04 163 19:56 23.11.2019
1072 Snow -6 989 100 11265 1.5 90 19:38 23.11.2019
1073 Snow -6 989 100 11265 1.5 90 19:18 23.11.2019
1074 Snow -6 989 100 14484 1.5 60 18:55 23.11.2019
1075 Snow -6 988 85 14484 1.04 163 18:36 23.11.2019
1076 Snow -6 988 85 14484 1.04 163 18:18 23.11.2019
1077 Clouds -6 988 100 16093 1.5 50 17:41 23.11.2019
1078 Clouds -6 988 100 16093 1.5 50 17:21 23.11.2019
1079 Clouds -6 987 92 16093 1.1 160 16:56 23.11.2019
1080 Clouds -6 987 92 16093 1.1 160 16:38 23.11.2019
1081 Clouds -6 987 92 16093 1.1 160 16:20 23.11.2019
1082 Clouds -7 986 100 16093 1.1 160 15:58 23.11.2019
1083 Clouds -7 986 100 16093 1.1 160 15:39 23.11.2019
1084 Clouds -7 986 100 16093 1.1 160 15:19 23.11.2019
1085 Clouds -7 986 92 16093 1.1 160 14:56 23.11.2019
1086 Clouds -7 986 92 16093 1.1 160 14:37 23.11.2019
1087 Clouds -7 985 92 16093 1.13 163 14:18 23.11.2019
1088 Mist -7 985 92 6437 1.5 70 13:42 23.11.2019
1089 Mist -6 985 92 3621 0.93 172 13:20 23.11.2019
1090 Clouds -6 984 85 16093 1.5 160 12:58 23.11.2019
1091 Clouds -7 984 100 16093 0.93 172 12:39 23.11.2019
1092 Clouds -7 984 100 16093 0.93 172 12:21 23.11.2019
1093 Clouds -7 983 100 16093 0.93 172 11:42 23.11.2019
1094 Clouds -6 983 100 16093 0.98 159 11:20 23.11.2019
1095 Mist -6 983 92 2213 0.98 159 10:45 23.11.2019
1096 Mist -6 982 100 1006 0.98 159 10:22 23.11.2019
1097 Clouds -5 981 92 16093 0.98 159 09:42 23.11.2019
1098 Clouds -5 981 92 16093 0.98 159 09:20 23.11.2019
1099 Clouds -4 980 92 16093 0.98 159 08:45 23.11.2019
1100 Clouds -4 980 92 16093 1.13 224 08:20 23.11.2019
1101 Clouds -3 980 79 16093 1.5 20 07:54 23.11.2019
1102 Clouds -4 979 85 14484 1.5 270 07:35 23.11.2019
1103 Clouds -4 978 85 16093 2.6 150 06:48 23.11.2019
1104 Clouds -4 979 92 16093 1.13 224 06:21 23.11.2019
1105 Clouds -3 978 100 16093 1.13 224 05:51 23.11.2019
1106 Clouds -3 978 100 16093 1.13 224 05:29 23.11.2019
1107 Clouds -4 978 92 16093 0.71 121 04:49 23.11.2019
1108 Clouds -4 978 92 16093 0.71 121 04:27 23.11.2019
1109 Clouds -3 977 92 16093 0.71 121 02:48 23.11.2019
1110 Clouds -3 976 74 16093 1.5 0 01:51 23.11.2019
1111 Clouds -2 976 74 16093 1.5 0 01:32 23.11.2019
1112 Clouds -1 975 97 14484 3.6 150 00:43 23.11.2019
1113 Clouds -1 975 97 14484 3.6 150 00:18 23.11.2019
1114 Clouds -1 974 86 16093 0.9 103 23:42 22.11.2019
1115 Clouds -1 974 86 16093 0.52 115 23:20 22.11.2019
1116 Clouds -1 974 86 16093 0.52 115 22:57 22.11.2019
1117 Clouds -1 974 86 16093 0.52 115 22:38 22.11.2019
1118 Clouds -2 973 74 16093 2.1 0 22:20 22.11.2019
1119 Clouds -3 973 86 14484 1.5 20 21:58 22.11.2019
1120 Clouds -3 973 86 14484 1.5 20 21:39 22.11.2019
1121 Clouds -3 972 86 14484 3.1 270 21:20 22.11.2019
1122 Clouds -2 971 79 16093 1.5 40 20:43 22.11.2019
1123 Clouds -1 971 79 16093 1.5 40 20:22 22.11.2019
1124 Clouds 0 970 69 16093 1.8 51 19:57 22.11.2019
1125 Clouds 0 970 69 16093 1.8 51 19:37 22.11.2019
1126 Clouds 0 970 69 16093 1.8 51 19:19 22.11.2019
1127 Clouds 0 969 86 16093 1.8 51 18:40 22.11.2019
1128 Clouds 0 969 86 16093 1.8 51 18:21 22.11.2019
1129 Clouds 0 969 86 16093 1.8 51 17:59 22.11.2019
1130 Clouds 0 969 86 16093 1.8 51 17:40 22.11.2019
1131 Clouds 0 969 86 16093 1.76 47 17:22 22.11.2019
1132 Clouds 1 969 69 16093 1.5 60 16:47 22.11.2019
1133 Clouds 1 969 69 16093 1.5 60 16:28 22.11.2019
1134 Clear 1 969 69 16093 3.6 60 15:47 22.11.2019
1135 Clear 1 969 69 16093 3.6 60 15:25 22.11.2019
1136 Clear -1 970 92 16093 2.1 40 14:57 22.11.2019
1137 Clear -2 970 92 16093 2.1 40 14:39 22.11.2019
1138 Clear 0 970 92 16093 2.1 40 14:21 22.11.2019
1139 Clear 0 971 74 16093 2.39 45 13:59 22.11.2019
1140 Clear 0 971 74 16093 2.39 45 13:37 22.11.2019
1141 Clear 1 971 74 16093 2.66 58 13:19 22.11.2019
1142 Clouds 0 972 69 16093 3.1 80 12:57 22.11.2019
1143 Clouds 1 972 69 16093 3.1 80 12:39 22.11.2019
1144 Clouds 1 972 69 16093 3.1 80 12:19 22.11.2019
1145 Rain 2 973 74 16093 3.1 50 11:55 22.11.2019
1146 Rain 3 973 74 16093 3.1 50 11:36 22.11.2019
1147 Rain 3 973 74 16093 3.1 50 11:18 22.11.2019
1148 Rain 2 974 69 16093 4.6 60 10:40 22.11.2019
1149 Rain 3 974 69 16093 4.6 60 10:22 22.11.2019
1150 Rain 2 975 74 16093 4.6 60 09:58 22.11.2019
1151 Rain 2 975 74 16093 4.6 60 09:39 22.11.2019
1152 Rain 2 975 74 16093 4.6 60 09:21 22.11.2019
1153 Rain 2 975 74 16093 4.6 60 09:21 22.11.2019
1154 Rain 1 977 74 16093 4.1 60 08:47 22.11.2019
1155 Rain 1 977 74 16093 4.1 60 08:28 22.11.2019
1156 Clouds 1 978 74 16093 5.1 60 07:56 22.11.2019
1157 Clouds 1 978 74 16093 5.1 60 07:37 22.11.2019
1158 Clouds 0 978 74 16093 5.1 60 07:18 22.11.2019
1159 Clouds -2 978 80 16093 4.6 60 06:41 22.11.2019
1160 Clouds -3 979 84 16093 5.1 60 05:56 22.11.2019
1161 Clouds -8 980 80 16093 4.6 60 04:52 22.11.2019
1162 Clouds -12 982 85 16093 2.41 51 02:57 22.11.2019
1163 Clouds -12 982 85 16093 2.41 51 02:33 22.11.2019
1164 Clouds -12 983 85 16093 2.35 38 01:46 22.11.2019
1165 Clouds -12 983 85 16093 2.5 26 01:20 22.11.2019
1166 Clouds -12 984 84 16093 2.5 26 00:54 22.11.2019
1167 Clouds -10 984 84 16093 2.5 26 00:25 22.11.2019
1168 Clouds -12 985 92 16093 2.5 26 23:57 21.11.2019
1169 Clouds -12 985 92 16093 2.5 26 23:38 21.11.2019
1170 Clouds -13 985 92 16093 2.38 24 23:20 21.11.2019
1171 Clouds -13 986 91 16093 2.38 24 22:41 21.11.2019
1172 Clouds -13 986 91 16093 2.38 24 22:22 21.11.2019
1173 Clouds -14 987 91 14484 2.38 24 21:58 21.11.2019
1174 Clouds -13 987 91 14484 2.38 24 21:39 21.11.2019
1175 Clouds -13 987 91 14484 2.38 24 21:39 21.11.2019
1176 Clouds -13 987 91 14484 2.38 24 21:20 21.11.2019
1177 Clouds -14 987 91 14484 2.38 24 20:59 21.11.2019
1178 Clouds -14 987 91 14484 2.38 24 20:39 21.11.2019
1179 Clouds -15 987 91 14484 0.75 103 20:19 21.11.2019
1180 Clouds -14 987 92 14484 0.75 103 19:59 21.11.2019
1181 Clouds -14 987 92 14484 0.75 103 19:59 21.11.2019
1182 Clouds -14 987 92 14484 0.75 103 19:41 21.11.2019
1183 Clouds -14 987 92 14484 0.75 103 19:23 21.11.2019
1184 Clear -13 988 84 16093 0.75 103 18:58 21.11.2019
1185 Clear -13 988 84 16093 0.75 103 18:40 21.11.2019
1186 Clear -13 988 84 16093 0.75 103 18:20 21.11.2019
1187 Clouds -12 987 85 16093 0.75 103 17:58 21.11.2019
1188 Clouds -11 987 85 16093 0.75 103 17:39 21.11.2019
1189 Clouds -11 987 85 16093 1.32 173 17:20 21.11.2019
1190 Snow -11 987 85 16093 1.5 260 16:55 21.11.2019
1191 Snow -11 987 85 16093 1.5 260 16:37 21.11.2019
1192 Clouds -10 986 92 16093 1.5 220 16:18 21.11.2019
1193 Clouds -8 986 92 16093 4.1 210 15:42 21.11.2019
1194 Clouds -8 986 92 16093 4.1 210 15:20 21.11.2019
1195 Clouds -7 985 92 16093 1.32 173 14:57 21.11.2019
1196 Clouds -6 985 92 16093 1.32 173 14:37 21.11.2019
1197 Clouds -7 985 92 16093 0.57 14 14:19 21.11.2019
1198 Clouds -9 984 92 16093 0.57 14 13:56 21.11.2019
1199 Rain -8 984 92 16093 0.57 14 13:36 21.11.2019
1200 Clouds -9 984 92 16093 0.3 36 13:18 21.11.2019
1201 Clouds -8 985 92 16093 0.3 36 12:40 21.11.2019
1202 Clouds -8 985 92 16093 0.3 36 12:22 21.11.2019
1203 Clouds -10 985 92 16093 0.3 36 11:55 21.11.2019
1204 Clouds -9 985 92 16093 0.3 36 11:36 21.11.2019
1205 Clouds -8 985 92 16093 2.24 52 11:18 21.11.2019
1206 Clouds -9 985 85 16093 2.24 52 10:42 21.11.2019
1207 Clouds -9 985 85 16093 2.24 52 10:24 21.11.2019
1208 Clear -12 985 92 11265 2.24 52 09:57 21.11.2019
1209 Clear -11 985 92 11265 2.24 52 09:39 21.11.2019
1210 Clear -10 985 92 11265 2.24 52 09:20 21.11.2019
1211 Clear -11 986 92 16093 2.24 52 08:44 21.11.2019
1212 Clear -11 986 92 16093 1.52 57 08:23 21.11.2019
1213 Clouds -11 986 77 16093 2.1 70 07:45 21.11.2019
1214 Clouds -11 986 77 16093 2.1 70 07:20 21.11.2019
1215 Clouds -10 986 85 16093 0.91 34 06:58 21.11.2019
1216 Clouds -10 986 85 16093 0.91 34 06:34 21.11.2019
1217 Clear -11 986 84 16093 0.91 34 05:50 21.11.2019
1218 Clear -14 986 92 16093 2.04 34 03:36 21.11.2019
1219 Clear -14 987 92 14484 2.04 34 02:42 21.11.2019
1220 Clear -15 987 92 14484 2.04 34 02:24 21.11.2019
1221 Clouds -12 987 84 16093 2.1 170 01:49 21.11.2019
1222 Clouds -12 987 84 16093 2.1 170 01:49 21.11.2019
1223 Clouds -14 987 77 16093 1.57 31 01:20 21.11.2019
1224 Clouds -13 988 92 16093 1.57 31 00:38 21.11.2019
1225 Clouds -13 988 92 16093 1.57 31 00:20 21.11.2019
1226 Clouds -14 989 84 16093 1.57 31 23:46 20.11.2019
1227 Clouds -14 989 84 16093 1.76 30 23:21 20.11.2019
1228 Clouds -14 990 91 16093 1.76 30 22:58 20.11.2019
1229 Clouds -14 990 91 16093 1.76 30 22:38 20.11.2019
1230 Clouds -14 990 91 16093 1.76 30 22:19 20.11.2019
1231 Clouds -15 990 92 14484 1.76 30 21:58 20.11.2019
1232 Clouds -13 990 92 14484 1.76 30 21:39 20.11.2019
1233 Clouds -13 990 92 14484 1.76 30 21:20 20.11.2019
1234 Clouds -13 990 92 14484 1.76 30 21:20 20.11.2019
1235 Clouds -13 990 92 16093 1.76 30 20:57 20.11.2019
1236 Clouds -13 990 92 16093 1.76 30 20:39 20.11.2019
1237 Clouds -13 990 92 16093 0.74 354 20:20 20.11.2019
1238 Clouds -13 990 92 16093 1.5 140 19:56 20.11.2019
1239 Clouds -13 990 92 16093 1.5 140 19:37 20.11.2019
1240 Clouds -12 990 92 16093 1.5 140 19:18 20.11.2019
1241 Mist -11 990 92 6437 0.74 354 18:58 20.11.2019
1242 Mist -11 990 92 6437 0.74 354 18:39 20.11.2019
1243 Clouds -11 990 92 16093 2.6 240 18:20 20.11.2019
1244 Clouds -11 989 92 16093 1.5 120 17:56 20.11.2019
1245 Clouds -12 989 92 16093 1.5 120 17:38 20.11.2019
1246 Clouds -12 989 92 16093 1.5 120 17:38 20.11.2019
1247 Clouds -12 989 92 16093 1.5 120 17:20 20.11.2019
1248 Clouds -12 989 92 16093 0.44 48 16:56 20.11.2019
1249 Clouds -13 989 92 16093 0.44 48 16:37 20.11.2019
1250 Clouds -12 989 92 16093 0.44 48 16:18 20.11.2019
1251 Clear -13 989 92 16093 0.44 48 15:42 20.11.2019
1252 Clear -12 989 92 16093 0.44 48 15:22 20.11.2019
1253 Clouds -11 990 92 16093 0.44 48 14:59 20.11.2019
1254 Clouds -13 990 92 16093 0.44 48 14:40 20.11.2019
1255 Clouds -12 990 92 16093 2.41 34 14:21 20.11.2019
1256 Rain -11 991 100 16093 2.41 34 13:58 20.11.2019
1257 Rain -11 991 100 16093 2.41 34 13:39 20.11.2019
1258 Rain -11 991 100 16093 2.41 34 13:20 20.11.2019
1259 Rain -11 991 92 16093 1.26 16 12:55 20.11.2019
1260 Rain -11 991 92 16093 1.26 16 12:36 20.11.2019
1261 Rain -11 991 92 16093 1.26 16 12:18 20.11.2019
1262 Clouds -10 992 92 16093 1.26 16 11:41 20.11.2019
1263 Clouds -10 992 92 16093 2.49 16 11:22 20.11.2019
1264 Clouds -9 992 92 16093 2.49 16 10:56 20.11.2019
1265 Snow -10 992 92 12874 2.49 16 10:37 20.11.2019
1266 Snow -10 992 92 12874 2.49 16 10:19 20.11.2019
1267 Clouds -9 992 92 16093 1.5 20 09:43 20.11.2019
1268 Snow -9 992 92 4426 2.49 16 09:21 20.11.2019
1269 Snow -9 992 92 6437 2.49 16 08:56 20.11.2019
1270 Snow -9 992 92 6437 2.49 16 08:38 20.11.2019
1271 Snow -10 993 92 4828 1.5 200 08:20 20.11.2019
1272 Snow -10 991 78 16093 1.5 150 07:45 20.11.2019
1273 Clouds -10 992 92 11265 1.55 33 07:25 20.11.2019
1274 Clouds -12 992 92 16093 1.55 33 06:49 20.11.2019
1275 Clouds -12 992 92 16093 1.55 33 06:22 20.11.2019
1276 Clouds -10 992 92 16093 1.55 33 05:39 20.11.2019
1277 Clouds -9 993 92 16093 3.6 60 03:42 20.11.2019
1278 Snow -10 995 92 16093 3.1 30 02:21 20.11.2019
1279 Snow -11 996 78 805 3.6 360 01:33 20.11.2019
1280 Snow -11 996 78 1207 2.6 10 00:41 20.11.2019
1281 Snow -12 998 78 2012 2.1 50 23:57 19.11.2019
1282 Snow -12 998 72 2414 2.6 30 23:27 19.11.2019
1283 Snow -14 1000 91 16093 3.08 27 22:59 19.11.2019
1284 Snow -15 1000 91 16093 3.08 27 22:41 19.11.2019
1285 Clouds -15 1000 84 16093 3.08 27 22:19 19.11.2019
1286 Clouds -16 1000 84 16093 3.08 27 22:19 19.11.2019
1287 Clouds -16 1001 77 16093 3.08 27 21:57 19.11.2019
1288 Clouds -16 1001 77 16093 3.08 27 21:38 19.11.2019
1289 Clouds -17 1003 84 14484 3.08 27 21:19 19.11.2019
1290 Clouds -17 1003 77 16093 2.1 30 20:56 19.11.2019
1291 Clouds -17 1003 77 16093 2.1 30 20:56 19.11.2019
1292 Clouds -17 1003 77 16093 2.1 30 20:56 19.11.2019
1293 Clouds -17 1003 77 16093 2.1 30 20:38 19.11.2019
1294 Clouds -19 1004 83 16093 1.71 32 20:20 19.11.2019
1295 Clouds -19 1005 70 16093 3.1 30 19:57 19.11.2019
1296 Clouds -19 1005 70 16093 3.1 30 19:57 19.11.2019
1297 Clouds -19 1005 70 16093 3.1 30 19:39 19.11.2019
1298 Clouds -21 1005 70 16093 3.1 30 19:19 19.11.2019
1299 Clear -21 1007 75 16093 1.71 32 18:55 19.11.2019
1300 Clear -21 1007 75 16093 1.71 32 18:36 19.11.2019
1301 Clear -22 1007 75 16093 1.71 32 18:18 19.11.2019
1302 Clear -22 1008 83 16093 1.71 32 17:55 19.11.2019
1303 Clear -22 1008 83 16093 1.71 32 17:37 19.11.2019
1304 Clear -22 1008 83 16093 1.71 32 17:37 19.11.2019
1305 Clear -22 1008 83 16093 2.07 24 17:18 19.11.2019
1306 Clear -22 1009 75 16093 2.07 24 16:43 19.11.2019
1307 Clear -22 1009 75 16093 2.07 24 16:24 19.11.2019
1308 Clear -23 1010 83 16093 2.07 24 15:59 19.11.2019
1309 Clear -23 1010 83 16093 2.07 24 15:39 19.11.2019
1310 Clear -23 1010 83 16093 2.07 24 15:21 19.11.2019
1311 Clear -22 1011 76 16093 2.07 24 14:56 19.11.2019
1312 Clear -22 1011 76 16093 2.07 24 14:56 19.11.2019
1313 Clear -22 1011 76 16093 2.07 24 14:37 19.11.2019
1314 Clear -22 1011 76 16093 1.99 30 14:19 19.11.2019
1315 Clear -21 1012 83 16093 1.99 30 13:40 19.11.2019
1316 Clear -21 1012 83 16093 1.85 28 13:19 19.11.2019
1317 Clouds -20 1012 91 16093 1.85 28 12:41 19.11.2019
1318 Clouds -19 1012 91 16093 1.85 28 12:23 19.11.2019
1319 Clouds -19 1012 91 16093 1.85 28 12:23 19.11.2019
1320 Clouds -18 1013 84 16093 1.85 28 11:58 19.11.2019
1321 Clouds -18 1013 84 16093 1.85 28 11:38 19.11.2019
1322 Clouds -17 1013 84 16093 1.48 32 11:19 19.11.2019
1323 Clouds -18 1013 84 16093 1.48 32 10:48 19.11.2019
1324 Clouds -17 1013 84 16093 1.48 32 10:23 19.11.2019
1325 Clouds -17 1013 84 16093 1.48 32 09:58 19.11.2019
1326 Clouds -17 1013 84 16093 1.48 32 09:40 19.11.2019
1327 Clouds -17 1013 84 16093 1.48 32 09:19 19.11.2019
1328 Clouds -17 1013 84 16093 1.48 32 09:19 19.11.2019
1329 Clouds -17 1012 77 16093 1.48 32 08:41 19.11.2019
1330 Snow -17 1013 84 16093 1.48 32 08:23 19.11.2019
1331 Clouds -17 1013 84 12874 0.53 81 07:59 19.11.2019
1332 Clouds -17 1013 84 12874 0.53 81 07:41 19.11.2019
1333 Clouds -17 1013 84 12874 0.53 81 07:22 19.11.2019
1334 Snow -17 1013 84 14484 0.53 81 06:52 19.11.2019
1335 Snow -17 1013 84 14484 0.53 81 06:33 19.11.2019
1336 Clouds -17 1013 84 12874 0.53 81 05:44 19.11.2019
1337 Snow -17 1013 84 8047 0.16 205 04:26 19.11.2019
1338 Snow -17 1012 84 11265 0.16 205 03:35 19.11.2019
1339 Snow -17 1012 77 11265 0.16 205 02:57 19.11.2019
1340 Snow -16 1012 77 6437 1.5 200 02:33 19.11.2019
1341 Mist -16 1012 91 4023 0.55 257 01:45 19.11.2019
1342 Snow -16 1011 84 4023 0.52 262 00:22 19.11.2019
1343 Snow -16 1010 77 3219 0.52 262 23:59 18.11.2019
1344 Snow -16 1010 77 3219 0.52 262 23:37 18.11.2019
1345 Snow -16 1011 84 3219 0.9 287 23:18 18.11.2019
1346 Snow -16 1011 84 4828 0.9 287 22:46 18.11.2019
1347 Snow -16 1010 84 3219 0.9 287 22:24 18.11.2019
1348 Snow -16 1010 84 2414 0.9 287 21:57 18.11.2019
1349 Snow -16 1010 84 2414 0.9 287 21:38 18.11.2019
1350 Snow -17 1010 84 11265 0.9 287 21:20 18.11.2019
1351 Mist -17 1009 84 4828 0.9 287 20:57 18.11.2019
1352 Mist -17 1009 84 4828 0.9 287 20:38 18.11.2019
1353 Mist -17 1009 84 4828 0.9 287 20:38 18.11.2019
1354 Snow -17 1009 84 6437 1.03 318 20:18 18.11.2019
1355 Snow -17 1009 84 3219 1.03 318 19:56 18.11.2019
1356 Snow -17 1009 84 3219 1.03 318 19:37 18.11.2019
1357 Snow -17 1009 84 6437 1.03 318 19:19 18.11.2019
1358 Snow -16 1008 91 4828 1.03 318 18:55 18.11.2019
1359 Clouds -16 1008 91 11265 1.03 318 18:37 18.11.2019
1360 Clouds -16 1008 91 11265 1.03 318 18:19 18.11.2019
1361 Snow -16 1008 84 8047 1.03 318 17:39 18.11.2019
1362 Snow -16 1008 84 8047 1.03 318 17:39 18.11.2019
1363 Snow -16 1008 84 8047 0.94 334 17:20 18.11.2019
1364 Snow -16 1007 77 2414 0.94 334 16:58 18.11.2019
1365 Snow -16 1007 77 2414 0.94 334 16:40 18.11.2019
1366 Snow -16 1008 84 9656 0.94 334 16:22 18.11.2019
1367 Snow -16 1007 91 14484 0.94 334 15:56 18.11.2019
1368 Snow -16 1007 91 14484 0.94 334 15:37 18.11.2019
1369 Snow -16 1007 91 14484 0.94 334 15:37 18.11.2019
1370 Clouds -16 1007 84 16093 0.94 334 15:19 18.11.2019
1371 Clouds -16 1007 84 11265 0.94 334 14:43 18.11.2019
1372 Snow -16 1007 84 8047 0.94 334 14:24 18.11.2019
1373 Snow -16 1007 91 16093 1.13 354 13:56 18.11.2019
1374 Clouds -16 1007 91 16093 1.13 354 13:37 18.11.2019
1375 Clouds -16 1007 91 16093 1.13 354 13:37 18.11.2019
1376 Snow -16 1007 91 16093 1.13 354 13:37 18.11.2019
1377 Clouds -16 1007 91 16093 1.12 353 13:19 18.11.2019
1378 Clouds -17 1007 84 16093 1.12 353 12:39 18.11.2019
1379 Clouds -16 1007 84 16093 1.12 353 12:19 18.11.2019
1380 Clouds -16 1006 84 16093 1.12 353 11:46 18.11.2019
1381 Clouds -16 1006 84 16093 1.12 353 11:27 18.11.2019
1382 Clouds -16 1006 84 16093 1.45 19 10:59 18.11.2019
1383 Clouds -16 1006 84 16093 1.45 19 10:40 18.11.2019
1384 Clouds -16 1006 84 16093 1.45 19 10:22 18.11.2019
1385 Snow -15 1005 77 14484 1.45 19 09:56 18.11.2019
1386 Snow -15 1005 77 14484 1.45 19 09:56 18.11.2019
1387 Snow -15 1005 77 14484 1.45 19 09:38 18.11.2019
1388 Snow -15 1005 77 14484 1.45 19 09:38 18.11.2019
1389 Clouds -15 1006 84 12874 1.45 19 09:18 18.11.2019
1390 Snow -15 1005 77 12874 1.45 19 08:45 18.11.2019
1391 Snow -15 1005 77 12874 1.53 27 08:22 18.11.2019
1392 Clouds -15 1005 84 16093 1.53 27 07:49 18.11.2019
1393 Clouds -16 1005 84 16093 1.53 27 07:30 18.11.2019
1394 Clouds -16 1005 84 16093 1.53 27 06:57 18.11.2019
1395 Clouds -16 1005 84 16093 1.53 27 06:39 18.11.2019
1396 Clouds -16 1005 84 16093 1.53 27 06:20 18.11.2019
1397 Clouds -15 1004 77 16093 1.53 27 05:25 18.11.2019
1398 Clouds -16 1004 84 16093 1.66 30 03:30 18.11.2019
1399 Snow -15 1003 84 16093 1.31 36 01:37 18.11.2019
1400 Clouds -15 1002 84 16093 1.34 43 00:46 18.11.2019
1401 Clouds -15 1001 84 11265 1.5 60 23:59 17.11.2019
1402 Clouds -15 1001 84 11265 1.5 60 23:40 17.11.2019
1403 Snow -15 1001 84 11265 1.16 50 23:21 17.11.2019
1404 Snow -15 1001 84 9656 1.16 50 22:56 17.11.2019
1405 Snow -15 1001 84 9656 1.16 50 22:38 17.11.2019
1406 Snow -15 1001 84 9656 1.16 50 22:38 17.11.2019
1407 Snow -15 1001 84 9656 1.16 50 22:19 17.11.2019
1408 Clouds -16 1000 84 11265 1.16 50 21:42 17.11.2019
1409 Snow -16 1000 84 11265 1.16 50 21:20 17.11.2019
1410 Clouds -16 1000 77 11265 1.16 50 20:58 17.11.2019
1411 Snow -16 999 77 11265 1.5 200 20:39 17.11.2019
1412 Mist -16 1000 84 9656 0.91 51 20:20 17.11.2019
1413 Snow -16 999 84 4828 0.91 51 19:57 17.11.2019
1414 Snow -16 999 84 4828 0.91 51 19:39 17.11.2019
1415 Snow -16 999 84 4828 0.91 51 19:39 17.11.2019
1416 Clouds -16 999 91 12874 0.91 51 19:20 17.11.2019
1417 Snow -16 998 91 6437 0.91 51 18:56 17.11.2019
1418 Snow -16 998 91 6437 0.91 51 18:38 17.11.2019
1419 Snow -16 998 91 6437 0.91 51 18:19 17.11.2019
1420 Snow -16 998 91 6437 0.91 51 18:19 17.11.2019
1421 Snow -16 998 91 6437 0.91 51 17:58 17.11.2019
1422 Snow -16 998 84 3621 0.91 51 17:40 17.11.2019
1423 Snow -16 998 84 3621 0.93 51 17:20 17.11.2019
1424 Snow -16 998 77 4023 0.93 51 16:59 17.11.2019
1425 Snow -16 998 77 4023 0.93 51 16:41 17.11.2019
1426 Snow -16 998 84 14484 0.93 51 16:21 17.11.2019
1427 Snow -16 997 77 16093 0.93 51 15:56 17.11.2019
1428 Snow -16 997 77 16093 0.93 51 15:38 17.11.2019
1429 Clouds -16 997 77 16093 0.93 51 15:18 17.11.2019
1430 Snow -16 996 77 16093 0.93 51 14:57 17.11.2019
1431 Snow -16 996 77 16093 0.93 51 14:38 17.11.2019
1432 Clouds -16 997 84 16093 1 34 14:20 17.11.2019
1433 Clouds -16 997 84 16093 1 34 14:20 17.11.2019
1434 Clouds -16 997 77 16093 1 34 13:57 17.11.2019
1435 Clouds -16 996 77 16093 1 34 13:39 17.11.2019
1436 Clouds -16 996 77 16093 1.14 33 13:19 17.11.2019
1437 Clouds -17 996 77 16093 1.14 33 12:44 17.11.2019
1438 Clouds -17 996 77 16093 1.14 33 12:23 17.11.2019
1439 Clouds -18 995 70 16093 1.14 33 11:58 17.11.2019
1440 Clouds -18 995 70 16093 1.14 33 11:39 17.11.2019
1441 Clear -18 996 91 16093 1.84 32 11:20 17.11.2019
1442 Clouds -18 996 84 16093 1.84 32 10:45 17.11.2019
1443 Clouds -17 996 84 16093 1.84 32 10:24 17.11.2019
1444 Clouds -17 996 77 16093 1.5 30 09:58 17.11.2019
1445 Clouds -17 996 77 16093 1.5 30 09:40 17.11.2019
1446 Clouds -16 996 77 16093 1.5 30 09:22 17.11.2019
1447 Clouds -15 996 65 16093 1.84 32 08:41 17.11.2019
1448 Clouds -15 996 65 16093 1.87 37 08:23 17.11.2019
1449 Clouds -15 996 71 16093 2.1 80 07:56 17.11.2019
1450 Clouds -15 996 71 16093 2.1 80 07:37 17.11.2019
1451 Clouds -15 996 71 16093 2.1 80 07:19 17.11.2019
1452 Clouds -15 997 71 16093 1.88 35 06:46 17.11.2019
1453 Clouds -15 997 71 16093 1.88 35 06:27 17.11.2019
1454 Clouds -15 997 77 16093 2.1 20 04:38 17.11.2019
1455 Clouds -15 997 71 16093 2.22 34 03:53 17.11.2019
1456 Clouds -15 997 71 16093 2.22 34 03:33 17.11.2019
1457 Clouds -15 997 77 16093 1.5 40 02:36 17.11.2019
1458 Haze -14 998 77 9656 2.4 34 01:45 17.11.2019
1459 Clouds -14 998 77 16093 1.5 80 00:56 17.11.2019
1460 Clouds -14 998 77 16093 1.5 80 00:23 17.11.2019
1461 Clouds -14 999 84 16093 3.1 60 23:54 16.11.2019
1462 Clouds -14 999 84 16093 3.1 60 23:21 16.11.2019
1463 Clouds -14 999 84 14484 2.6 70 22:59 16.11.2019
1464 Clouds -14 999 84 14484 2.6 70 22:41 16.11.2019
1465 Clouds -14 999 84 14484 2.6 70 22:20 16.11.2019
1466 Clouds -14 999 84 14484 2.6 70 22:20 16.11.2019
1467 Snow -14 999 71 4828 3.1 60 21:57 16.11.2019
1468 Clouds -14 999 84 16093 2.6 60 21:38 16.11.2019
1469 Snow -14 1000 84 3219 2.1 70 21:20 16.11.2019
1470 Snow -14 1000 77 2012 2.1 60 20:56 16.11.2019
1471 Snow -14 1000 77 2012 2.1 60 20:38 16.11.2019
1472 Snow -14 999 77 2414 3.6 50 20:18 16.11.2019
1473 Snow -14 1000 77 16093 1.5 70 19:40 16.11.2019
1474 Clouds -14 1000 84 16093 2.1 80 19:22 16.11.2019
1475 Snow -15 1000 84 9656 2.1 70 18:48 16.11.2019
1476 Snow -15 1000 84 16093 2.1 60 18:30 16.11.2019
1477 Snow -15 1000 84 4023 1.5 70 17:58 16.11.2019
1478 Snow -15 1000 84 4023 1.5 70 17:39 16.11.2019
1479 Snow -15 1000 84 3219 2.1 60 17:21 16.11.2019
1480 Snow -15 1000 84 3621 2.1 60 16:56 16.11.2019
1481 Snow -15 1000 84 3621 2.1 60 16:37 16.11.2019
1482 Snow -15 1000 77 2213 2.1 70 16:19 16.11.2019
1483 Snow -14 1001 60 14484 3.1 90 15:42 16.11.2019
1484 Snow -14 1001 60 14484 3.1 90 15:24 16.11.2019
1485 Snow -14 1000 55 16093 3.6 30 14:58 16.11.2019
1486 Snow -15 1000 55 16093 3.6 30 14:40 16.11.2019
1487 Clouds -15 1001 60 16093 3.1 70 14:21 16.11.2019
1488 Clouds -14 1001 55 16093 3.1 60 13:56 16.11.2019
1489 Clouds -15 1001 55 16093 3.1 60 13:38 16.11.2019
1490 Clouds -14 1001 55 16093 3.1 60 13:19 16.11.2019
1491 Clouds -14 1002 50 16093 3.6 60 12:56 16.11.2019
1492 Clouds -15 1002 50 16093 3.6 60 12:38 16.11.2019
1493 Clouds -15 1002 50 16093 3.6 60 12:19 16.11.2019
1494 Clouds -15 1001 55 16093 3.6 50 11:43 16.11.2019
1495 Clouds -15 1002 50 16093 4.1 60 11:25 16.11.2019
1496 Clouds -15 1003 54 16093 3.1 60 10:56 16.11.2019
1497 Clouds -15 1003 54 16093 3.1 60 10:37 16.11.2019
1498 Clouds -15 1003 54 16093 3.1 60 10:19 16.11.2019
1499 Clouds -15 1003 54 16093 3.1 50 09:42 16.11.2019
1500 Clouds -15 1003 54 16093 3.1 50 09:20 16.11.2019
1501 Clouds -15 1003 54 16093 2.6 60 08:57 16.11.2019
1502 Clouds -16 1003 54 16093 2.6 60 08:37 16.11.2019
1503 Clouds -15 1003 54 16093 2.6 60 08:18 16.11.2019
1504 Clouds -16 1003 59 16093 3.1 50 07:41 16.11.2019
1505 Clouds -16 1003 59 16093 3.1 50 07:19 16.11.2019
1506 Clouds -16 1003 54 16093 3.1 60 06:44 16.11.2019
1507 Clouds -16 1003 54 16093 3.1 60 06:25 16.11.2019
1508 Clouds -16 1003 54 16093 4.6 50 04:49 16.11.2019
1509 Clouds -15 1003 50 16093 5.1 50 03:27 16.11.2019
1510 Clouds -15 1003 50 16093 5.1 50 03:27 16.11.2019
1511 Clouds -15 1003 50 14484 5.7 60 02:55 16.11.2019
1512 Clouds -15 1003 50 14484 5.7 60 02:55 16.11.2019
1513 Clouds -15 1004 55 16093 4.1 50 01:44 16.11.2019
1514 Clouds -15 1004 55 16093 4.1 50 01:44 16.11.2019
1515 Clouds -15 1004 55 16093 4.1 50 01:18 16.11.2019
1516 Clouds -15 1004 50 14484 5.1 50 00:41 16.11.2019
1517 Clouds -15 1004 50 14484 5.1 50 00:20 16.11.2019
1518 Clouds -15 1003 54 16093 6.7 50 23:39 15.11.2019
1519 Clouds -15 1003 54 16093 6.7 50 23:20 15.11.2019
1520 Clouds -15 1004 54 16093 4.1 50 22:55 15.11.2019
1521 Clouds -15 1004 54 16093 4.1 50 22:36 15.11.2019
1522 Clouds -15 1004 54 16093 4.1 50 22:18 15.11.2019
1523 Rain -16 1003 64 16093 3.6 50 21:41 15.11.2019
1524 Rain -16 1003 64 16093 3.6 50 21:20 15.11.2019
1525 Clouds -16 1003 64 16093 2.6 50 20:58 15.11.2019
1526 Clouds -17 1003 64 16093 2.6 50 20:40 15.11.2019
1527 Clouds -17 1003 64 16093 2.6 50 20:21 15.11.2019
1528 Clouds -16 1003 65 16093 3.1 50 19:58 15.11.2019
1529 Clouds -17 1003 65 16093 3.1 50 19:40 15.11.2019
1530 Clouds -17 1003 65 16093 3.1 50 19:20 15.11.2019
1531 Clouds -16 1003 65 16093 2.6 40 18:58 15.11.2019
1532 Clouds -16 1003 65 16093 2.6 40 18:40 15.11.2019
1533 Clouds -16 1002 60 16093 5.1 30 18:21 15.11.2019
1534 Snow -16 1001 65 4828 4.6 30 17:43 15.11.2019
1535 Clouds -16 1002 65 11265 3.1 50 17:25 15.11.2019
1536 Rain -15 1001 71 2414 3.6 20 16:57 15.11.2019
1537 Rain -15 1001 71 2414 3.6 20 16:38 15.11.2019
1538 Rain -15 1003 77 4828 4.1 40 16:19 15.11.2019
1539 Snow -15 1002 77 6437 2.6 40 15:39 15.11.2019
1540 Snow -15 1002 77 6437 2.6 40 15:39 15.11.2019
1541 Snow -15 1002 77 6437 2.6 40 15:20 15.11.2019
1542 Snow -15 1002 77 3219 3.6 50 14:58 15.11.2019
1543 Rain -15 1002 77 6437 2.1 40 14:38 15.11.2019
1544 Rain -15 1002 77 6437 2.1 40 14:20 15.11.2019
1545 Snow -15 1002 77 3017 2.1 40 13:58 15.11.2019
1546 Snow -15 1002 77 3017 2.1 40 13:40 15.11.2019
1547 Snow -15 1002 77 3017 3.6 50 13:21 15.11.2019
1548 Snow -15 1000 77 805 5.1 20 12:59 15.11.2019
1549 Snow -15 1000 77 805 5.1 20 12:40 15.11.2019
1550 Snow -15 1001 77 4023 3.1 50 12:20 15.11.2019
1551 Snow -15 1001 77 1609 5.7 20 11:59 15.11.2019
1552 Snow -15 1001 77 1609 5.7 20 11:39 15.11.2019
1553 Snow -15 1001 84 4426 2.6 40 11:20 15.11.2019
1554 Snow -15 1000 84 2816 4.6 50 10:57 15.11.2019
1555 Snow -15 1000 84 2816 4.6 50 10:38 15.11.2019
1556 Snow -15 1000 84 2816 4.6 50 10:18 15.11.2019
1557 Snow -15 1000 84 1609 4.1 40 09:41 15.11.2019
1558 Snow -15 999 84 2615 4.1 40 09:20 15.11.2019
1559 Snow -15 999 77 3017 4.6 40 08:44 15.11.2019
1560 Snow -15 999 77 3017 4.6 40 08:23 15.11.2019
1561 Snow -15 998 77 2414 5.1 20 07:49 15.11.2019
1562 Snow -15 998 77 2414 5.1 20 07:28 15.11.2019
1563 Snow -15 998 77 3017 4.6 50 06:52 15.11.2019
1564 Snow -15 998 77 2816 6.7 20 06:32 15.11.2019
1565 Snow -14 998 77 6437 5.1 50 05:49 15.11.2019
1566 Snow -15 998 71 4828 6.7 20 05:27 15.11.2019
1567 Snow -15 997 77 3621 8.2 50 03:58 15.11.2019
1568 Snow -15 997 77 3621 7.7 50 03:25 15.11.2019
1569 Snow -15 997 77 1408 6.7 50 02:21 15.11.2019
1570 Snow -15 997 77 1810 6.2 50 01:36 15.11.2019
1571 Snow -15 997 77 1810 6.2 50 01:18 15.11.2019
1572 Snow -15 997 77 2012 9.3 50 00:34 15.11.2019
1573 Snow -14 997 71 1609 8.2 50 23:57 14.11.2019
1574 Snow -14 997 65 2012 7.7 20 23:38 14.11.2019
1575 Snow -14 997 65 2012 7.7 20 23:18 14.11.2019
1576 Snow -14 997 65 2012 7.7 20 23:18 14.11.2019
1577 Snow -14 997 60 14484 8.7 50 22:40 14.11.2019
1578 Clouds -14 997 65 12874 8.7 50 22:21 14.11.2019
1579 Clouds -14 997 65 12874 8.7 50 22:21 14.11.2019
1580 Snow -13 998 60 14484 9.3 50 21:57 14.11.2019
1581 Snow -13 998 60 14484 9.3 50 21:38 14.11.2019
1582 Clouds -13 998 60 16093 7.2 50 21:20 14.11.2019
1583 Clouds -13 998 60 16093 5.7 50 20:42 14.11.2019
1584 Clouds -13 998 60 16093 8.2 50 20:24 14.11.2019
1585 Clouds -13 999 60 16093 7.7 40 19:59 14.11.2019
1586 Clouds -13 999 60 16093 7.7 40 19:41 14.11.2019
1587 Clouds -13 999 60 16093 7.7 40 19:18 14.11.2019
1588 Clouds -13 999 66 11265 6.7 40 18:56 14.11.2019
1589 Snow -14 1000 55 16093 6.7 50 18:38 14.11.2019
1590 Snow -13 1000 55 16093 6.7 50 18:20 14.11.2019
1591 Snow -13 1000 55 16093 6.7 50 17:56 14.11.2019
1592 Snow -13 1000 55 16093 6.7 50 17:37 14.11.2019
1593 Clouds -13 1001 55 16093 6.2 50 17:19 14.11.2019
1594 Clouds -13 1001 55 16093 6.2 50 16:57 14.11.2019
1595 Clouds -13 1001 55 16093 6.2 50 16:36 14.11.2019
1596 Clouds -13 1001 55 16093 6.2 50 16:18 14.11.2019
1597 Clouds -13 1001 55 16093 6.2 50 15:56 14.11.2019
1598 Clouds -13 1001 55 16093 6.2 50 15:37 14.11.2019
1599 Clouds -13 1001 55 16093 6.2 50 15:19 14.11.2019
1600 Clouds -13 1002 55 16093 7.7 50 14:44 14.11.2019
1601 Clouds -13 1002 55 16093 7.7 50 14:22 14.11.2019
1602 Clouds -13 1003 55 16093 9.3 40 13:57 14.11.2019
1603 Clouds -13 1003 55 16093 9.3 40 13:38 14.11.2019
1604 Clouds -13 1003 55 16093 9.3 40 13:19 14.11.2019
1605 Clouds -13 1003 60 14484 7.7 50 12:47 14.11.2019
1606 Snow -13 1003 60 14484 6.7 50 12:26 14.11.2019
1607 Clouds -13 1004 60 11265 6.2 50 11:59 14.11.2019
1608 Clouds -14 1004 60 11265 6.2 50 11:38 14.11.2019
1609 Snow -14 1004 55 14484 8.2 30 11:20 14.11.2019
1610 Snow -14 1005 65 1408 7.2 50 10:58 14.11.2019
1611 Snow -14 1005 65 1408 7.2 50 10:39 14.11.2019
1612 Snow -14 1005 65 1408 7.2 50 10:20 14.11.2019
1613 Snow -14 1005 71 1408 7.2 50 09:56 14.11.2019
1614 Snow -14 1006 71 6437 8.2 50 09:38 14.11.2019
1615 Snow -13 1006 71 6437 8.2 50 09:19 14.11.2019
1616 Snow -13 1006 71 6437 8.2 50 08:47 14.11.2019
1617 Snow -13 1006 71 6437 8.2 50 08:47 14.11.2019
1618 Snow -13 1006 71 8047 8.7 50 08:25 14.11.2019
1619 Snow -13 1007 60 6437 7.7 50 07:44 14.11.2019
1620 Snow -13 1007 55 11265 9.3 50 07:25 14.11.2019
1621 Clouds -13 1008 55 16093 8.7 40 06:56 14.11.2019
1622 Clouds -13 1008 55 16093 8.7 40 06:37 14.11.2019
1623 Clouds -13 1008 55 16093 8.7 40 06:18 14.11.2019
1624 Clouds -17 1014 68 0 3.38 47 04:40 14.11.2019
1625 Clouds -13 1010 55 16093 9.3 50 03:59 14.11.2019
1626 Clouds -13 1010 50 16093 9.3 60 02:43 14.11.2019
1627 Clouds -13 1011 50 16093 7.2 30 01:41 14.11.2019
1628 Clouds -13 1011 50 16093 7.2 30 01:20 14.11.2019
1629 Clouds -13 1012 55 16093 7.7 60 00:48 14.11.2019
1630 Clouds -13 1012 55 16093 7.7 60 00:25 14.11.2019
1631 Clouds -13 1013 55 16093 8.2 60 23:41 13.11.2019
1632 Clouds -13 1013 55 16093 8.2 60 23:21 13.11.2019
1633 Clouds -13 1014 55 16093 8.2 60 22:56 13.11.2019
1634 Clouds -13 1014 55 16093 8.2 60 22:38 13.11.2019
1635 Clouds -14 1014 55 16093 8.2 60 22:20 13.11.2019
1636 Clear -15 1014 55 16093 5.1 50 21:55 13.11.2019
1637 Clear -15 1014 55 16093 5.1 50 21:55 13.11.2019
1638 Clear -15 1014 55 16093 5.1 50 21:37 13.11.2019
1639 Clear -15 1014 55 16093 5.1 50 21:19 13.11.2019
1640 Clear -15 1014 60 16093 6.2 50 20:56 13.11.2019
1641 Clear -15 1014 60 16093 6.2 50 20:37 13.11.2019
1642 Clear -15 1014 60 16093 6.2 50 20:18 13.11.2019
1643 Clouds -15 1013 49 0 1.79 35 19:44 13.11.2019
1644 Clouds -15 1014 55 16093 7.2 10 19:20 13.11.2019
1645 Clear -15 1014 60 16093 3.6 50 18:58 13.11.2019
1646 Clear -15 1014 60 16093 3.6 50 18:58 13.11.2019
1647 Clear -15 1014 60 16093 3.6 50 18:39 13.11.2019
1648 Clear -15 1014 60 16093 3.6 50 18:39 13.11.2019
1649 Clear -14 1014 60 16093 3.6 50 18:21 13.11.2019
1650 Clouds -14 1013 55 16093 6.2 30 17:58 13.11.2019
1651 Clouds -14 1013 55 16093 6.2 30 17:40 13.11.2019
1652 Clear -14 1014 60 16093 4.6 50 17:22 13.11.2019
1653 Clear -14 1014 60 16093 4.6 50 17:22 13.11.2019
1654 Clear -14 1014 55 16093 7.2 40 16:58 13.11.2019
1655 Clear -14 1014 55 16093 7.2 40 16:40 13.11.2019
1656 Clear -14 1014 55 16093 7.2 40 16:40 13.11.2019
1657 Clear -14 1014 55 16093 7.2 40 16:21 13.11.2019
1658 Clear -14 1014 55 16093 7.2 40 16:21 13.11.2019
1659 Clear -14 1015 60 16093 2.6 60 15:58 13.11.2019
1660 Clear -14 1015 60 16093 2.6 60 15:39 13.11.2019
1661 Clear -14 1015 60 16093 2.6 60 15:20 13.11.2019
1662 Clear -14 1015 60 16093 4.6 50 14:43 13.11.2019
1663 Clear -14 1015 60 16093 4.6 50 14:23 13.11.2019
1664 Clear -14 1015 55 16093 5.1 50 13:58 13.11.2019
1665 Clear -14 1015 55 16093 5.1 50 13:37 13.11.2019
1666 Clear -14 1015 55 16093 5.1 50 13:18 13.11.2019
1667 Clear -13 1015 51 16093 5.1 50 12:56 13.11.2019
1668 Clear -13 1015 51 16093 5.1 50 12:37 13.11.2019
1669 Clear -13 1015 51 16093 5.1 50 12:19 13.11.2019
1670 Clear -13 1015 51 16093 5.1 50 11:41 13.11.2019
1671 Clear -13 1015 51 16093 5.1 50 11:21 13.11.2019
1672 Clouds -13 1015 55 16093 4.6 50 10:58 13.11.2019
1673 Clouds -13 1015 55 16093 4.6 50 10:40 13.11.2019
1674 Clouds -13 1015 55 16093 4.6 50 10:20 13.11.2019
1675 Clouds -12 1015 47 16093 6.7 50 09:57 13.11.2019
1676 Clouds -11 1015 47 16093 6.7 50 09:38 13.11.2019
1677 Clouds -11 1015 47 16093 6.7 50 09:38 13.11.2019
1678 Clouds -11 1015 47 16093 6.7 50 09:20 13.11.2019
1679 Clouds -11 1014 51 16093 4.6 50 08:39 13.11.2019
1680 Clouds -11 1014 51 16093 4.6 50 08:20 13.11.2019
1681 Clouds -11 1014 51 16093 5.7 10 07:42 13.11.2019
1682 Clouds -10 1014 51 16093 5.7 10 07:21 13.11.2019
1683 Clouds -9 1014 48 16093 6.2 50 06:47 13.11.2019
1684 Clouds -9 1014 48 16093 6.2 50 06:19 13.11.2019
1685 Clouds -9 1014 48 16093 6.2 50 06:19 13.11.2019
1686 Clouds -8 1013 48 16093 5.7 40 05:57 13.11.2019
1687 Clouds -8 1013 48 16093 5.7 40 05:38 13.11.2019
1688 Clouds -9 1013 52 16093 4.6 40 04:44 13.11.2019
1689 Clouds -7 1012 62 16093 2.6 30 02:28 13.11.2019
1690 Clouds -8 1012 78 16093 3.1 40 01:46 13.11.2019
1691 Clear -10 1012 85 16093 2.45 28 00:57 13.11.2019
1692 Clear -10 1012 85 16093 2.45 28 00:36 13.11.2019
1693 Clear -12 1012 85 16093 2.45 28 23:42 12.11.2019
1694 Clear -12 1012 85 16093 2.15 32 23:22 12.11.2019
1695 Clear -13 1012 84 16093 2.15 32 22:58 12.11.2019
1696 Clear -14 1012 84 16093 2.15 32 22:40 12.11.2019
1697 Clear -13 1012 84 16093 2.15 32 22:18 12.11.2019
1698 Clear -13 1012 92 14484 2.15 32 21:44 12.11.2019
1699 Clear -13 1012 92 14484 2.15 32 21:25 12.11.2019
1700 Clear -15 1012 91 12874 2.15 32 20:58 12.11.2019
1701 Clear -14 1012 91 12874 2.15 32 20:38 12.11.2019
1702 Clear -15 1012 91 12874 1.97 19 20:19 12.11.2019
1703 Clear -14 1011 92 14484 1.97 19 19:57 12.11.2019
1704 Clear -14 1011 92 14484 1.97 19 19:39 12.11.2019
1705 Clear -14 1011 92 14484 1.97 19 19:19 12.11.2019
1706 Clouds -13 1011 92 16093 1.97 19 18:59 12.11.2019
1707 Clouds -13 1011 92 16093 1.97 19 18:40 12.11.2019
1708 Clouds -13 1011 92 16093 1.97 19 18:40 12.11.2019
1709 Clouds -12 1011 92 16093 1.97 19 18:22 12.11.2019
1710 Clouds -13 1011 92 16093 1.97 19 18:22 12.11.2019
1711 Clouds -12 1011 92 16093 1.97 19 17:57 12.11.2019
1712 Clouds -12 1011 92 16093 1.97 19 17:39 12.11.2019
1713 Clouds -13 1011 92 16093 1.78 18 17:21 12.11.2019
1714 Clouds -13 1011 92 16093 1.78 18 17:21 12.11.2019
1715 Clouds -13 1011 92 16093 1.78 18 17:21 12.11.2019
1716 Clear -13 1010 92 16093 1.78 18 16:57 12.11.2019
1717 Clear -13 1010 92 16093 1.78 18 16:39 12.11.2019
1718 Clear -12 1010 92 16093 1.78 18 16:21 12.11.2019
1719 Clear -12 1010 92 16093 1.78 18 15:42 12.11.2019
1720 Clear -12 1010 92 16093 1.78 18 15:21 12.11.2019
1721 Clear -12 1010 85 16093 1.5 290 14:57 12.11.2019
1722 Clear -12 1010 85 16093 1.5 290 14:37 12.11.2019
1723 Clear -12 1010 85 16093 1.5 290 14:19 12.11.2019
1724 Clear -11 1010 85 16093 1.5 290 13:56 12.11.2019
1725 Clear -11 1010 85 16093 1.5 290 13:37 12.11.2019
1726 Clear -12 1010 85 16093 1.5 290 13:18 12.11.2019
1727 Clear -12 1010 92 16093 2.1 270 12:43 12.11.2019
1728 Clear -12 1010 92 16093 2.1 270 12:20 12.11.2019
1729 Clear -11 1010 85 16093 1.71 19 11:59 12.11.2019
1730 Clear -12 1010 85 16093 1.8 17 11:40 12.11.2019
1731 Clear -12 1010 85 16093 1.71 19 11:40 12.11.2019
1732 Clear -11 1010 85 16093 1.17 17 11:22 12.11.2019
1733 Clear -11 1010 85 16093 1.17 17 11:22 12.11.2019
1734 Clear -12 1010 92 16093 1.13 8 10:56 12.11.2019
1735 Clear -11 1010 92 16093 1.17 17 10:37 12.11.2019
1736 Clear -12 1010 92 16093 1.13 8 10:19 12.11.2019
1737 Clouds -10 1011 79 16093 1.17 17 09:42 12.11.2019
1738 Clouds -10 1011 79 16093 1.17 17 09:21 12.11.2019
1739 Clouds -9 1011 79 16093 1.5 270 08:54 12.11.2019
1740 Clouds -8 1012 83 0 1.17 17 08:36 12.11.2019
1741 Clouds -7 1011 73 16093 2.1 260 08:18 12.11.2019
1742 Clouds -6 1011 73 16093 2.1 260 07:40 12.11.2019
1743 Clouds -6 1011 73 16093 2.1 260 07:40 12.11.2019
1744 Clouds -7 1011 73 16093 2.1 260 07:20 12.11.2019
1745 Clouds -6 1012 79 16093 1.5 240 06:42 12.11.2019
1746 Clouds -6 1012 79 16093 1.5 240 06:22 12.11.2019
1747 Clouds -6 1012 73 16093 1.5 220 05:46 12.11.2019
1748 Clouds -5 1012 79 16093 0.21 35 04:46 12.11.2019
1749 Clouds -5 1013 79 16093 0.21 35 03:40 12.11.2019
1750 Clouds -5 1014 79 14484 0.43 143 01:47 12.11.2019
1751 Clouds -5 1014 79 14484 0.38 148 01:22 12.11.2019
1752 Clouds -5 1014 79 16093 0.38 148 00:47 12.11.2019
1753 Clouds -5 1014 79 16093 0.38 148 00:28 12.11.2019
1754 Clouds -5 1015 73 14484 0.38 148 23:44 11.11.2019
1755 Clouds -5 1015 73 14484 1.3 37 23:23 11.11.2019
1756 Clouds -6 1016 79 16093 1.3 37 22:57 11.11.2019
1757 Clouds -6 1016 79 16093 1.3 37 22:36 11.11.2019
1758 Clouds -6 1016 79 16093 1.3 37 22:18 11.11.2019
1759 Clouds -6 1017 85 14484 1.3 37 21:57 11.11.2019
1760 Clouds -7 1017 85 14484 1.3 37 21:38 11.11.2019
1761 Clouds -7 1017 85 14484 1.3 37 21:19 11.11.2019
1762 Clouds -7 1017 85 16093 1.3 37 20:42 11.11.2019
1763 Clouds -8 1017 85 16093 0.92 50 20:20 11.11.2019
1764 Clouds -8 1018 92 14484 0.92 50 19:58 11.11.2019
1765 Clouds -8 1018 92 14484 0.92 50 19:40 11.11.2019
1766 Clouds -8 1018 92 14484 0.92 50 19:18 11.11.2019
1767 Clouds -8 1018 92 16093 1.5 360 18:55 11.11.2019
1768 Clouds -9 1018 92 16093 1.5 360 18:37 11.11.2019
1769 Clouds -8 1018 92 16093 1.5 360 18:19 11.11.2019
1770 Clear -8 1019 85 16093 0.92 50 17:42 11.11.2019
1771 Clear -8 1019 85 16093 0.92 50 17:24 11.11.2019
1772 Clouds -8 1019 73 16093 0.69 80 16:42 11.11.2019
1773 Clouds -7 1019 73 16093 0.69 80 16:22 11.11.2019
1774 Clouds -7 1019 67 16093 0.69 80 15:58 11.11.2019
1775 Clouds -7 1019 67 16093 0.69 80 15:40 11.11.2019
1776 Clouds -7 1019 67 16093 0.69 80 15:19 11.11.2019
1777 Clouds -7 1019 67 16093 0.69 80 15:19 11.11.2019
1778 Clouds -8 1020 85 16093 0.69 80 14:44 11.11.2019
1779 Clouds -8 1020 85 16093 0.56 94 14:25 11.11.2019
1780 Clouds -8 1020 78 16093 0.56 94 13:58 11.11.2019
1781 Clouds -8 1020 78 16093 0.56 94 13:38 11.11.2019
1782 Clouds -8 1020 78 16093 0.46 92 13:19 11.11.2019
1783 Clouds -8 1021 78 16093 0.46 92 12:57 11.11.2019
1784 Clouds -8 1021 78 16093 0.46 92 12:39 11.11.2019
1785 Clouds -8 1021 78 16093 0.46 92 12:39 11.11.2019
1786 Clouds -8 1021 78 16093 0.46 92 12:39 11.11.2019
1787 Clouds -8 1021 85 16093 1.5 260 12:21 11.11.2019
1788 Clouds -8 1021 78 16093 1.5 240 11:42 11.11.2019
1789 Clouds -8 1021 78 16093 1.5 240 11:22 11.11.2019
1790 Clouds -8 1021 78 16093 1.5 230 10:57 11.11.2019
1791 Clouds -8 1021 78 16093 1.5 230 10:38 11.11.2019
1792 Clouds -8 1021 78 16093 1.5 230 10:18 11.11.2019
1793 Clouds -8 1021 73 16093 0.47 198 09:55 11.11.2019
1794 Clouds -7 1021 73 16093 0.47 198 09:36 11.11.2019
1795 Clouds -7 1021 73 16093 0.47 198 09:18 11.11.2019
1796 Clouds -7 1021 79 16093 0.47 198 08:38 11.11.2019
1797 Clouds -7 1021 79 16093 0.84 30 08:20 11.11.2019
1798 Clouds -7 1022 79 16093 0.76 52 07:55 11.11.2019
1799 Clouds -7 1022 79 16093 0.76 52 07:36 11.11.2019
1800 Clouds -7 1022 79 16093 0.76 52 07:18 11.11.2019
1801 Clouds -7 1021 85 16093 1.5 250 06:41 11.11.2019
1802 Clouds -7 1021 85 16093 1.5 250 06:21 11.11.2019
1803 Clouds -8 1021 79 16093 0.76 52 05:49 11.11.2019
1804 Clouds -9 1022 72 16093 0.65 80 03:59 11.11.2019
1805 Clouds -9 1022 72 16093 0.65 80 03:22 11.11.2019
1806 Clouds -9 1022 79 16093 0.53 144 02:20 11.11.2019
1807 Clouds -9 1022 78 16093 0.53 144 01:52 11.11.2019
1808 Clouds -9 1022 78 16093 0.53 144 01:31 11.11.2019
1809 Clouds -9 1023 78 16093 0.55 129 00:42 11.11.2019
1810 Clouds -9 1023 92 16093 0.55 129 23:59 10.11.2019
1811 Clouds -9 1023 92 16093 0.55 129 23:39 10.11.2019
1812 Clouds -9 1023 92 16093 0.59 104 23:19 10.11.2019
1813 Clouds -10 1023 92 16093 0.59 104 22:57 10.11.2019
1814 Clouds -11 1023 92 16093 0.59 104 22:38 10.11.2019
1815 Clouds -12 1023 92 16093 0.59 104 22:20 10.11.2019
1816 Clouds -13 1022 71 16093 2.1 330 21:57 10.11.2019
1817 Clouds -12 1022 71 16093 2.1 330 21:39 10.11.2019
1818 Clouds -12 1023 92 16093 0.59 104 21:20 10.11.2019
1819 Clouds -13 1023 84 16093 0.59 104 20:43 10.11.2019
1820 Clouds -16 1023 91 16093 0.76 65 20:23 10.11.2019
1821 Clear -18 1023 84 16093 0.71 66 19:57 10.11.2019
1822 Clear -18 1023 84 16093 0.71 66 19:57 10.11.2019
1823 Clear -18 1023 84 16093 0.71 66 19:38 10.11.2019
1824 Clear -17 1023 84 16093 0.71 66 19:19 10.11.2019
1825 Clear -17 1023 84 16093 0.71 66 19:19 10.11.2019
1826 Clouds -16 1023 84 16093 0.71 66 18:58 10.11.2019
1827 Clouds -16 1023 84 16093 0.71 66 18:40 10.11.2019
1828 Clouds -16 1023 84 16093 0.71 66 18:40 10.11.2019
1829 Clouds -16 1023 84 16093 0.71 66 18:20 10.11.2019
1830 Clouds -16 1022 84 16093 2.1 40 17:57 10.11.2019
1831 Clouds -17 1022 84 16093 2.1 40 17:39 10.11.2019
1832 Clouds -19 1022 84 16093 2.1 40 17:20 10.11.2019
1833 Clouds -19 1022 84 16093 2.1 40 17:20 10.11.2019
1834 Clouds -21 1023 76 16093 0.88 51 16:59 10.11.2019
1835 Clouds -21 1023 76 16093 0.88 51 16:41 10.11.2019
1836 Clouds -20 1023 76 16093 0.88 51 16:22 10.11.2019
1837 Clear -22 1023 83 14484 0.88 51 15:56 10.11.2019
1838 Clear -22 1023 83 14484 0.88 51 15:37 10.11.2019
1839 Clear -22 1023 83 14484 0.88 51 15:18 10.11.2019
1840 Clear -22 1022 83 16093 0.88 51 14:55 10.11.2019
1841 Clear -22 1022 83 16093 0.88 51 14:36 10.11.2019
1842 Clear -20 1022 83 16093 1.11 26 14:18 10.11.2019
1843 Clear -23 1023 83 16093 1.11 26 13:43 10.11.2019
1844 Clear -21 1023 83 16093 1.4 27 13:21 10.11.2019
1845 Clear -22 1023 76 16093 1.4 27 12:58 10.11.2019
1846 Clear -22 1023 76 16093 1.4 27 12:40 10.11.2019
1847 Clear -22 1023 76 16093 1.4 27 12:18 10.11.2019
1848 Clear -20 1023 83 16093 1.4 27 11:54 10.11.2019
1849 Clear -20 1023 83 16093 1.4 27 11:36 10.11.2019
1850 Clear -20 1023 83 16093 0.78 31 11:18 10.11.2019
1851 Clear -20 1023 83 16093 0.78 31 11:18 10.11.2019
1852 Clear -22 1022 83 16093 0.78 31 10:42 10.11.2019
1853 Clear -22 1022 83 16093 0.78 31 10:20 10.11.2019
1854 Clear -21 1022 76 16093 0.78 31 09:55 10.11.2019
1855 Clear -21 1022 76 16093 0.78 31 09:37 10.11.2019
1856 Clear -21 1022 76 16093 0.78 31 09:18 10.11.2019
1857 Clear -19 1022 76 16093 0.78 31 08:39 10.11.2019
1858 Clear -19 1022 76 16093 1.77 20 08:19 10.11.2019
1859 Clear -19 1022 76 16093 1.77 20 08:19 10.11.2019
1860 Clear -20 1021 83 16093 1.77 20 07:44 10.11.2019
1861 Clear -20 1021 83 16093 1.77 20 07:25 10.11.2019
1862 Clear -17 1022 83 16093 1.77 20 06:38 10.11.2019
1863 Clear -19 1021 84 12874 1.77 20 05:43 10.11.2019
1864 Clear -16 1021 91 12874 1.94 19 03:26 10.11.2019
1865 Clear -14 1021 91 11265 2.1 290 02:18 10.11.2019
1866 Clear -12 1021 84 11265 1.32 30 01:19 10.11.2019
1867 Clear -13 1021 78 14484 1.32 30 00:42 10.11.2019
1868 Clear -13 1022 91 14484 1.32 30 23:58 09.11.2019
1869 Clear -15 1022 91 14484 1.32 30 23:38 09.11.2019
1870 Clear -15 1022 91 14484 1.74 40 23:18 09.11.2019
1871 Clear -16 1022 91 14484 1.74 40 22:41 09.11.2019
1872 Clear -17 1022 91 14484 1.74 40 22:21 09.11.2019
1873 Clear -18 1022 91 12874 1.74 40 21:58 09.11.2019
1874 Clear -15 1022 91 12874 1.74 40 21:38 09.11.2019
1875 Clear -16 1022 91 12874 1.74 40 21:20 09.11.2019
1876 Clear -17 1021 76 14484 1.74 40 20:44 09.11.2019
1877 Mist -19 1022 83 9656 2.33 37 20:23 09.11.2019
1878 Haze -19 1021 75 3017 2.33 37 19:58 09.11.2019
1879 Haze -17 1021 75 3017 2.33 37 19:40 09.11.2019
1880 Mist -17 1022 91 9656 2.33 37 19:22 09.11.2019
1881 Clear -19 1022 83 12874 2.33 37 18:57 09.11.2019
1882 Clear -18 1022 83 12874 2.33 37 18:38 09.11.2019
1883 Clear -18 1022 83 12874 2.33 37 18:38 09.11.2019
1884 Clear -18 1022 83 12874 2.33 37 18:18 09.11.2019
1885 Clear -17 1022 83 11265 2.1 300 17:41 09.11.2019
1886 Clear -17 1022 83 11265 2.1 300 17:22 09.11.2019
1887 Clear -17 1022 83 11265 2.1 300 17:22 09.11.2019
1888 Haze -17 1022 69 6437 1.78 51 16:56 09.11.2019
1889 Haze -17 1022 69 6437 1.78 51 16:37 09.11.2019
1890 Clear -16 1022 71 16093 2.6 50 16:18 09.11.2019
1891 Clear -18 1022 84 16093 1.78 51 15:41 09.11.2019
1892 Clear -17 1022 84 16093 1.78 51 15:23 09.11.2019
1893 Clear -16 1023 65 16093 3.1 30 14:46 09.11.2019
1894 Clear -16 1023 65 16093 3.1 30 14:23 09.11.2019
1895 Clear -15 1023 84 16093 1.98 47 13:58 09.11.2019
1896 Clear -16 1023 84 16093 1.98 47 13:40 09.11.2019
1897 Clear -17 1023 84 16093 1.79 53 13:21 09.11.2019
1898 Clear -17 1024 71 16093 2.1 130 12:58 09.11.2019
1899 Clear -16 1024 71 16093 2.1 130 12:40 09.11.2019
1900 Clear -16 1024 71 16093 2.1 130 12:22 09.11.2019
1901 Clear -16 1024 66 16093 1.79 53 11:48 09.11.2019
1902 Clear -15 1024 66 16093 1.88 50 11:23 09.11.2019
1903 Clear -14 1024 71 16093 4.1 60 10:59 09.11.2019
1904 Clear -14 1024 71 16093 4.1 60 10:39 09.11.2019
1905 Clear -14 1024 71 16093 4.1 60 10:19 09.11.2019
1906 Clear -15 1024 77 16093 2.6 90 09:45 09.11.2019
1907 Clear -15 1024 77 16093 2.6 90 09:27 09.11.2019
1908 Clear -13 1023 71 16093 2.1 70 08:58 09.11.2019
1909 Clear -13 1023 71 16093 2.1 70 08:39 09.11.2019
1910 Clear -13 1023 71 16093 2.1 70 08:19 09.11.2019
1911 Clear -12 1024 72 16093 1.5 90 07:45 09.11.2019
1912 Clear -12 1024 72 16093 1.5 90 07:23 09.11.2019
1913 Clear -11 1024 72 16093 3.1 60 06:49 09.11.2019
1914 Clear -11 1024 72 16093 3.1 60 06:30 09.11.2019
1915 Clear -11 1024 66 16093 4.6 50 05:43 09.11.2019
1916 Clear -11 1023 72 16093 3.1 60 04:58 09.11.2019
1917 Clear -10 1023 72 16093 3.6 50 03:52 09.11.2019
1918 Clear -9 1023 72 16093 2.1 60 02:43 09.11.2019
1919 Clear -8 1023 72 16093 3.1 70 01:55 09.11.2019
1920 Clear -7 1023 67 16093 2.1 50 00:52 09.11.2019
1921 Clear -8 1023 67 16093 2.1 50 00:31 09.11.2019
1922 Clear -8 1023 67 16093 2.6 60 23:58 08.11.2019
1923 Clear -8 1023 67 16093 2.6 60 23:39 08.11.2019
1924 Clear -7 1023 67 16093 2.6 60 23:19 08.11.2019
1925 Clear -7 1023 67 16093 2.6 60 23:19 08.11.2019
1926 Clear -8 1023 72 16093 3.1 60 22:48 08.11.2019
1927 Clear -8 1023 72 16093 3.1 60 22:22 08.11.2019
1928 Clear -8 1023 72 16093 3.6 60 21:56 08.11.2019
1929 Clear -8 1023 72 16093 3.6 60 21:38 08.11.2019
1930 Clear -9 1023 72 16093 3.6 60 21:18 08.11.2019
1931 Clear -9 1022 78 16093 4.1 60 20:42 08.11.2019
1932 Clear -10 1022 78 16093 4.1 60 20:22 08.11.2019
1933 Clear -11 1022 78 16093 3.6 50 19:58 08.11.2019
1934 Clear -11 1022 78 16093 3.6 50 19:38 08.11.2019
1935 Clear -10 1022 78 16093 3.6 50 19:18 08.11.2019
1936 Clear -10 1021 78 16093 2.6 60 18:55 08.11.2019
1937 Clear -10 1021 78 16093 2.6 60 18:37 08.11.2019
1938 Clear -10 1021 78 16093 2.6 60 18:37 08.11.2019
1939 Clear -10 1021 78 16093 2.6 60 18:19 08.11.2019
1940 Clear -10 1021 78 16093 4.1 50 17:55 08.11.2019
1941 Clear -10 1021 78 16093 4.1 50 17:55 08.11.2019
1942 Clear -10 1021 78 16093 4.1 50 17:37 08.11.2019
1943 Clear -9 1021 78 16093 4.1 50 17:19 08.11.2019
1944 Clear -10 1021 85 16093 3.1 60 16:58 08.11.2019
1945 Clear -10 1021 85 16093 3.1 60 16:39 08.11.2019
1946 Clear -10 1021 85 16093 3.1 60 16:39 08.11.2019
1947 Clear -10 1021 85 16093 3.1 60 16:19 08.11.2019
1948 Clear -10 1021 78 16093 3.1 50 15:57 08.11.2019
1949 Clear -10 1021 78 16093 3.1 50 15:38 08.11.2019
1950 Clear -10 1021 78 16093 3.1 50 15:20 08.11.2019
1951 Clouds -9 1020 85 16093 2.6 50 14:55 08.11.2019
1952 Clouds -9 1020 85 16093 2.6 50 14:36 08.11.2019
1953 Clouds -9 1020 85 16093 2.6 50 14:18 08.11.2019
1954 Clear -9 1020 78 16093 3.6 40 13:57 08.11.2019
1955 Clear -9 1020 78 16093 3.6 40 13:38 08.11.2019
1956 Clear -9 1020 78 16093 3.6 40 13:19 08.11.2019
1957 Clear -9 1020 78 16093 3.1 50 12:42 08.11.2019
1958 Clear -9 1020 78 16093 3.1 50 12:24 08.11.2019
1959 Clear -9 1019 85 16093 3.6 60 11:57 08.11.2019
1960 Clear -9 1019 85 16093 3.6 60 11:38 08.11.2019
1961 Clear -9 1019 85 16093 3.6 60 11:20 08.11.2019
1962 Clear -9 1019 85 16093 3.6 60 11:20 08.11.2019
1963 Clouds -8 1019 85 16093 2.6 50 10:56 08.11.2019
1964 Clouds -8 1019 85 16093 2.6 50 10:38 08.11.2019
1965 Clouds -7 1019 85 16093 2.6 50 10:20 08.11.2019
1966 Clouds -7 1018 79 16093 2.1 50 09:41 08.11.2019
1967 Clouds -7 1018 79 16093 2.1 50 09:20 08.11.2019
1968 Clouds -7 1018 79 16093 2.1 50 09:20 08.11.2019
1969 Clouds -6 1018 79 16093 1.5 50 08:59 08.11.2019
1970 Clouds -6 1018 79 16093 1.5 50 08:37 08.11.2019
1971 Clouds -6 1018 79 16093 1.5 50 08:18 08.11.2019
1972 Clouds -6 1017 79 16093 2.1 50 07:41 08.11.2019
1973 Clouds -6 1017 79 16093 2.1 50 07:22 08.11.2019
1974 Clouds -5 1017 79 16093 1.5 60 06:41 08.11.2019
1975 Clouds -5 1017 79 16093 1.5 60 06:23 08.11.2019
1976 Snow -5 1016 73 9656 4.6 30 05:55 08.11.2019
1977 Snow -5 1016 73 9656 4.6 30 05:55 08.11.2019
1978 Snow -5 1016 79 12874 2.1 60 05:24 08.11.2019
1979 Rain -4 1015 92 16093 2.1 50 03:46 08.11.2019
1980 Rain -4 1015 92 16093 2.1 50 03:24 08.11.2019
1981 Snow -4 1013 73 8047 4.1 20 02:47 08.11.2019
1982 Rain -4 1014 92 3219 3.13 33 01:49 08.11.2019
1983 Rain -4 1014 92 3219 3.13 33 01:30 08.11.2019
1984 Snow -4 1014 92 3219 3.11 33 00:37 08.11.2019
1985 Mist -4 1014 92 3219 3.11 33 00:18 08.11.2019
1986 Snow -4 1013 92 2816 3.11 33 23:43 07.11.2019
1987 Snow -4 1013 92 2816 3.11 33 23:24 07.11.2019
1988 Snow -4 1013 100 2816 3.06 33 22:55 07.11.2019
1989 Snow -4 1013 100 2816 3.06 33 22:36 07.11.2019
1990 Rain -4 1013 86 2012 3.1 20 22:18 07.11.2019
1991 Rain -4 1013 92 3017 3.06 33 21:38 07.11.2019
1992 Rain -4 1013 92 3017 3.06 33 21:20 07.11.2019
1993 Rain -5 1012 85 1609 2.1 40 20:58 07.11.2019
1994 Rain -5 1012 85 1609 2.1 40 20:40 07.11.2019
1995 Rain -5 1012 85 1609 2.1 40 20:40 07.11.2019
1996 Rain -5 1012 100 4828 2.76 36 20:21 07.11.2019
1997 Snow -5 1012 100 3621 2.62 35 19:56 07.11.2019
1998 Rain -5 1012 100 3017 2.62 35 19:37 07.11.2019
1999 Rain -5 1012 100 3017 2.62 35 19:19 07.11.2019
2000 Snow -5 1011 100 4828 2.62 35 18:56 07.11.2019
2001 Snow -5 1011 100 4828 2.62 35 18:37 07.11.2019
2002 Snow -5 1011 100 4828 2.62 35 18:19 07.11.2019
2003 Snow -5 1011 100 3621 2.62 35 17:41 07.11.2019
2004 Snow -5 1011 100 3621 2.54 43 17:23 07.11.2019
2005 Snow -5 1011 85 1609 2.1 60 16:59 07.11.2019
2006 Snow -5 1011 85 2012 3.1 40 16:41 07.11.2019
2007 Snow -5 1011 85 2012 3.1 40 16:22 07.11.2019
2008 Snow -5 1011 92 3017 2.54 43 15:59 07.11.2019
2009 Snow -5 1011 92 3017 2.54 43 15:40 07.11.2019
2010 Snow -5 1011 92 3017 2.54 43 15:19 07.11.2019
2011 Snow -5 1011 92 3621 2.54 43 14:54 07.11.2019
2012 Snow -5 1011 100 3621 2.54 43 14:36 07.11.2019
2013 Snow -5 1011 100 3621 2.8 32 14:18 07.11.2019
2014 Snow -4 1011 100 6437 2.8 32 13:54 07.11.2019
2015 Rain -4 1010 100 4426 2.8 32 13:36 07.11.2019
2016 Rain -4 1011 100 3621 2.81 31 13:18 07.11.2019
2017 Rain -4 1011 100 3621 2.81 31 12:54 07.11.2019
2018 Rain -4 1011 100 3621 2.81 31 12:54 07.11.2019
2019 Rain -4 1011 100 3621 2.81 31 12:36 07.11.2019
2020 Rain -4 1011 100 3621 2.81 31 12:18 07.11.2019
2021 Rain -4 1011 100 4023 2.81 31 11:40 07.11.2019
2022 Rain -4 1011 100 4023 2.43 29 11:22 07.11.2019
2023 Rain -4 1011 100 3621 2.43 29 10:42 07.11.2019
2024 Rain -4 1011 100 3621 2.43 29 10:19 07.11.2019
2025 Snow -4 1010 85 3621 2.43 29 09:45 07.11.2019
2026 Rain -4 1011 100 4828 2.43 29 09:25 07.11.2019
2027 Snow -4 1011 92 4828 2.43 29 08:59 07.11.2019
2028 -273 0 0 0 0 0 08:40 07.11.2019
2029 Snow -4 1011 100 4426 2.17 1 08:22 07.11.2019
2030 Snow -4 1011 100 4828 1.95 360 07:56 07.11.2019
2031 Rain -4 1011 85 1609 1.95 360 07:38 07.11.2019
2032 Rain -4 1011 85 1609 1.95 360 07:20 07.11.2019
2033 Snow -4 1011 85 2012 1.95 360 06:45 07.11.2019
2034 Snow -4 1011 100 1609 1.95 360 06:25 07.11.2019
2035 Rain -4 1011 100 2414 1.95 360 05:49 07.11.2019
2036 Rain -4 1011 100 2414 1.95 360 05:31 07.11.2019
2037 -273 0 0 0 0 0 04:51 07.11.2019
2038 Rain -4 1012 92 2414 1.55 341 04:29 07.11.2019
2039 Rain -4 1012 92 2414 1.55 341 04:29 07.11.2019
2040 Rain -3 1012 100 8047 1.18 349 01:28 07.11.2019
2041 Mist -3 1013 100 6437 1.19 344 00:32 07.11.2019
2042 Mist -3 1012 86 4828 1.19 344 23:58 06.11.2019
2043 Snow -3 1013 100 9656 1.19 344 23:40 06.11.2019
2044 Snow -3 1013 100 9656 1.45 26 23:20 06.11.2019
2045 Rain -3 1014 92 16093 1.45 26 22:40 06.11.2019
2046 Rain -3 1014 92 16093 1.45 26 22:21 06.11.2019
2047 Rain -3 1013 85 16093 2.6 10 21:57 06.11.2019
2048 Rain -3 1014 92 16093 1.45 26 21:39 06.11.2019
2049 Rain -3 1014 92 16093 1.45 26 21:19 06.11.2019
2050 Rain -4 1014 85 16093 1.5 320 20:57 06.11.2019
2051 Rain -4 1014 92 16093 1.08 30 20:39 06.11.2019
2052 Rain -4 1014 92 16093 0.84 327 20:20 06.11.2019
2053 Clouds -5 1015 100 16093 0.84 327 19:57 06.11.2019
2054 Clouds -5 1015 100 16093 0.84 327 19:37 06.11.2019
2055 Clouds -5 1015 100 16093 0.84 327 19:19 06.11.2019
2056 Snow -5 1015 100 4828 0.84 327 18:55 06.11.2019
2057 Snow -5 1015 100 4426 0.84 327 18:37 06.11.2019
2058 Snow -5 1015 100 4426 0.84 327 18:18 06.11.2019
2059 Snow -5 1016 100 2213 0.84 327 17:42 06.11.2019
2060 Rain -5 1016 100 3017 0.84 327 17:23 06.11.2019
2061 Snow -5 1016 92 2816 0.84 18 16:57 06.11.2019
2062 Snow -5 1016 92 2816 0.84 18 16:39 06.11.2019
2063 Snow -5 1016 92 3017 0.84 18 16:21 06.11.2019
2064 Rain -5 1017 92 2816 0.84 18 15:58 06.11.2019
2065 Rain -5 1017 92 2816 0.84 18 15:38 06.11.2019
2066 Rain -5 1017 92 2816 0.84 18 15:19 06.11.2019
2067 Snow -5 1017 100 3219 0.84 18 14:59 06.11.2019
2068 Snow -5 1017 100 3219 0.84 18 14:41 06.11.2019
2069 Snow -5 1018 100 3621 0.72 351 14:22 06.11.2019
2070 Snow -5 1018 92 3621 0.72 351 13:59 06.11.2019
2071 Snow -5 1018 92 3621 0.72 351 13:38 06.11.2019
2072 Snow -5 1018 92 4023 0.71 3 13:19 06.11.2019
2073 Snow -5 1018 85 16093 0.71 3 12:55 06.11.2019
2074 Clouds -5 1018 85 16093 2.1 250 12:37 06.11.2019
2075 Clouds -5 1018 85 16093 2.1 250 12:18 06.11.2019
2076 Clouds -5 1018 85 16093 2.1 250 12:18 06.11.2019
2077 Clouds -6 1018 92 16093 0.71 3 11:57 06.11.2019
2078 Clouds -6 1018 92 16093 0.71 3 11:36 06.11.2019
2079 Clouds -6 1018 85 16093 0.63 11 11:18 06.11.2019
2080 Snow -6 1018 79 9656 2.1 0 10:55 06.11.2019
2081 Snow -6 1018 79 9656 2.1 0 10:37 06.11.2019
2082 Clouds -7 1019 85 16093 0.63 11 10:18 06.11.2019
2083 Snow -7 1019 85 16093 0.63 11 09:41 06.11.2019
2084 Clouds -8 1019 92 16093 0.63 11 09:21 06.11.2019
2085 Clouds -8 1019 85 16093 0.63 11 08:56 06.11.2019
2086 Clouds -8 1019 85 16093 0.63 11 08:38 06.11.2019
2087 Clouds -8 1019 85 16093 1.58 25 08:18 06.11.2019
2088 Clouds -8 1018 85 16093 1.58 25 07:47 06.11.2019
2089 Clouds -9 1019 79 16093 1.5 40 07:29 06.11.2019
2090 Clouds -9 1020 92 16093 2.1 60 06:54 06.11.2019
2091 Clouds -10 1020 92 16093 2.1 60 06:36 06.11.2019
2092 Clouds -11 1021 85 16093 1.58 25 05:58 06.11.2019
2093 Clear -11 1022 92 16093 1.04 22 03:48 06.11.2019
2094 Clouds -10 1022 78 16093 1.5 30 01:59 06.11.2019
2095 Clear -10 1023 85 14484 1.04 39 00:48 06.11.2019
2096 Clear -11 1023 85 14484 1.04 39 00:26 06.11.2019
2097 Clouds -11 1024 84 14484 1.04 39 23:56 05.11.2019
2098 Clouds -12 1024 84 14484 1.04 39 23:37 05.11.2019
2099 Clouds -12 1024 84 14484 1.06 55 23:18 05.11.2019
2100 Clouds -12 1024 84 14484 1.06 55 23:18 05.11.2019
2101 Clear -13 1024 84 16093 1.5 60 22:41 05.11.2019
2102 Clear -13 1024 84 16093 1.5 60 22:19 05.11.2019
2103 Clear -14 1025 84 16093 1.06 55 21:55 05.11.2019
2104 Clear -14 1025 84 16093 1.06 55 21:55 05.11.2019
2105 Clear -14 1025 84 16093 1.06 55 21:37 05.11.2019
2106 Clear -14 1025 84 16093 1.06 55 21:19 05.11.2019
2107 Clear -16 1025 91 16093 1.06 55 20:56 05.11.2019
2108 Clear -15 1025 91 16093 1.06 55 20:37 05.11.2019
2109 Clear -16 1026 84 14484 1.76 44 20:19 05.11.2019
2110 Clear -16 1026 84 12874 1.5 50 19:42 05.11.2019
2111 Clear -18 1026 84 12874 1.5 50 19:23 05.11.2019
2112 Clear -18 1027 84 16093 1.76 44 18:58 05.11.2019
2113 Clear -18 1027 84 16093 1.76 44 18:40 05.11.2019
2114 Clear -18 1027 84 16093 1.76 44 18:21 05.11.2019
2115 Clear -18 1027 84 16093 1.5 50 17:59 05.11.2019
2116 Clear -18 1027 84 16093 1.5 50 17:39 05.11.2019
2117 Clear -18 1027 84 16093 1.5 50 17:20 05.11.2019
2118 Clear -18 1027 91 16093 2.1 70 16:57 05.11.2019
2119 Clear -18 1027 91 16093 2.1 70 16:57 05.11.2019
2120 Clear -18 1027 91 16093 2.1 70 16:57 05.11.2019
2121 Clear -18 1027 91 16093 2.1 70 16:39 05.11.2019
2122 Clear -18 1027 91 16093 2.1 70 16:19 05.11.2019
2123 Mist -18 1027 76 3219 1.75 48 15:39 05.11.2019
2124 Clear -17 1028 84 16093 1.75 48 15:20 05.11.2019
2125 Clear -17 1028 84 16093 1.75 48 15:20 05.11.2019
2126 Clear -17 1029 84 16093 1.75 48 14:59 05.11.2019
2127 Clear -17 1029 84 16093 1.75 48 14:40 05.11.2019
2128 Clear -18 1029 84 16093 1.72 47 14:22 05.11.2019
2129 Clear -17 1029 91 16093 2.1 70 13:58 05.11.2019
2130 Clear -17 1029 91 16093 2.1 70 13:58 05.11.2019
2131 Clear -16 1029 91 16093 2.1 70 13:39 05.11.2019
2132 Clear -18 1029 91 16093 2.1 70 13:21 05.11.2019
2133 Clear -17 1030 84 16093 1.63 48 12:40 05.11.2019
2134 Clear -17 1030 84 16093 1.63 48 12:21 05.11.2019
2135 Clear -16 1030 84 16093 1.63 48 11:56 05.11.2019
2136 Clear -16 1030 84 16093 1.63 48 11:38 05.11.2019
2137 Clear -17 1030 84 16093 2.05 39 11:19 05.11.2019
2138 Clear -16 1030 84 16093 2.6 60 10:48 05.11.2019
2139 Clear -16 1030 84 16093 2.6 60 10:27 05.11.2019
2140 Clear -16 1030 84 16093 2.6 60 10:27 05.11.2019
2141 Clear -16 1030 84 16093 2.05 39 09:59 05.11.2019
2142 Clear -16 1030 84 16093 2.05 39 09:59 05.11.2019
2143 Clear -16 1030 84 16093 2.05 39 09:41 05.11.2019
2144 Clear -16 1030 84 16093 2.05 39 09:21 05.11.2019
2145 Clear -16 1030 84 16093 3.1 40 08:57 05.11.2019
2146 Clear -15 1030 84 16093 3.1 40 08:37 05.11.2019
2147 Clear -16 1030 84 16093 3.1 40 08:19 05.11.2019
2148 Clear -15 1030 77 16093 2.6 30 07:45 05.11.2019
2149 Clear -15 1030 77 16093 2.6 30 07:26 05.11.2019
2150 Clear -14 1030 84 16093 1.98 42 06:52 05.11.2019
2151 Clear -14 1030 84 16093 1.98 42 06:33 05.11.2019
2152 Clear -14 1031 92 16093 1.98 42 05:49 05.11.2019
2153 Clear -14 1031 92 16093 2 38 05:21 05.11.2019
2154 Clear -13 1031 92 16093 2 38 04:23 05.11.2019
2155 Clear -12 1030 92 16093 2.6 70 03:32 05.11.2019
2156 Clear -11 1030 78 16093 3.1 70 02:43 05.11.2019
2157 Clear -10 1030 78 16093 5.1 50 01:56 05.11.2019
2158 Clear -10 1031 78 16093 4.1 60 00:48 05.11.2019
2159 Clear -9 1031 78 16093 4.1 60 00:27 05.11.2019
2160 Clear -10 1031 85 16093 4.6 60 23:43 04.11.2019
2161 Clear -10 1031 85 16093 4.6 60 23:20 04.11.2019
2162 Clear -11 1031 85 16093 4.1 60 22:59 04.11.2019
2163 Clear -11 1031 85 16093 4.1 60 22:40 04.11.2019
2164 Clear -12 1031 85 16093 4.1 60 22:21 04.11.2019
2165 Clear -13 1031 85 16093 3.6 50 21:55 04.11.2019
2166 Clear -13 1031 85 16093 3.6 50 21:37 04.11.2019
2167 Clear -13 1031 85 16093 3.6 50 21:37 04.11.2019
2168 Clear -13 1031 85 16093 3.6 50 21:18 04.11.2019
2169 Clear -14 1031 84 14484 2.1 60 20:57 04.11.2019
2170 Clear -15 1031 84 14484 2.1 60 20:38 04.11.2019
2171 Clear -16 1031 84 14484 2.1 60 20:20 04.11.2019
2172 Clouds -16 1030 77 16093 2.6 30 19:57 04.11.2019
2173 Clouds -16 1030 77 16093 2.6 30 19:39 04.11.2019
2174 Clouds -17 1030 77 16093 2.6 30 19:21 04.11.2019
2175 Clear -17 1030 84 16093 1.81 45 18:55 04.11.2019
2176 Clear -17 1030 84 16093 1.81 45 18:37 04.11.2019
2177 Clear -17 1030 84 16093 1.81 45 18:18 04.11.2019
2178 Clear -17 1030 84 16093 1.81 45 17:39 04.11.2019
2179 Clear -16 1030 84 16093 1.63 48 17:20 04.11.2019
2180 Clear -17 1030 84 16093 1.63 48 16:56 04.11.2019
2181 Clear -17 1030 84 16093 1.63 48 16:38 04.11.2019
2182 Clear -17 1030 84 16093 1.63 48 16:19 04.11.2019
2183 Clear -16 1030 84 16093 2.1 40 15:41 04.11.2019
2184 Clear -16 1030 84 16093 2.1 40 15:22 04.11.2019
2185 Clear -16 1030 91 16093 1.63 48 14:59 04.11.2019
2186 Clear -16 1030 91 16093 1.63 48 14:41 04.11.2019
2187 Clear -15 1030 91 16093 1.77 38 14:21 04.11.2019
2188 Clear -15 1030 91 16093 1.77 38 13:58 04.11.2019
2189 Clear -15 1030 91 16093 1.77 38 13:40 04.11.2019
2190 Clear -15 1030 91 16093 1.85 38 13:21 04.11.2019
2191 Clear -15 1030 91 16093 1.85 38 13:21 04.11.2019
2192 Clear -15 1030 91 16093 1.85 38 13:21 04.11.2019
2193 Clear -15 1030 91 16093 1.85 38 12:57 04.11.2019
2194 Clear -15 1030 91 16093 1.85 38 12:39 04.11.2019
2195 Clear -15 1030 91 16093 1.85 38 12:21 04.11.2019
2196 Clear -15 1030 84 16093 1.85 38 11:55 04.11.2019
2197 Clear -14 1030 84 16093 1.85 38 11:37 04.11.2019
2198 Clear -13 1030 84 16093 1.47 45 11:19 04.11.2019
2199 Clear -13 1029 91 16093 1.47 45 10:42 04.11.2019
2200 Clear -13 1029 91 16093 1.47 45 10:24 04.11.2019
2201 Clear -12 1029 92 16093 1.47 45 09:46 04.11.2019
2202 Clear -12 1029 92 16093 1.47 45 09:28 04.11.2019
2203 Clear -12 1029 92 16093 1.47 45 09:28 04.11.2019
2204 Clear -12 1029 92 16093 2.1 80 08:59 04.11.2019
2205 Clear -12 1029 92 16093 2.1 80 08:38 04.11.2019
2206 Clear -12 1029 92 16093 2.1 80 08:38 04.11.2019
2207 Clear -12 1029 92 16093 2.1 80 08:20 04.11.2019
2208 Clear -11 1029 92 16093 1.5 50 07:44 04.11.2019
2209 Clear -10 1029 92 16093 1.5 50 07:24 04.11.2019
2210 Clouds -10 1028 92 14484 2.6 60 06:57 04.11.2019
2211 Clouds -10 1028 92 14484 2.6 60 06:34 04.11.2019
2212 Clouds -9 1028 85 14484 1.3 33 05:49 04.11.2019
2213 Clouds -8 1028 85 16093 1.5 360 04:45 04.11.2019
2214 Clouds -8 1028 85 16093 1.5 360 04:21 04.11.2019
2215 Clouds -8 1028 100 16093 1.5 260 02:34 04.11.2019
2216 Clouds -8 1028 100 12874 1.5 240 01:22 04.11.2019
2217 Snow -8 1029 100 12874 0.56 236 00:43 04.11.2019
2218 Snow -8 1029 100 12874 0.56 236 00:21 04.11.2019
2219 Clouds -8 1029 92 12874 0.56 236 23:44 03.11.2019
2220 Clouds -8 1029 92 12874 0.56 236 23:44 03.11.2019
2221 Clouds -8 1029 92 12874 0.14 149 23:22 03.11.2019
2222 Snow -8 1029 100 11265 2.1 240 22:59 03.11.2019
2223 Snow -8 1029 100 11265 2.1 240 22:41 03.11.2019
2224 Snow -9 1029 100 11265 2.1 240 22:21 03.11.2019
2225 Snow -9 1029 100 11265 0.14 149 21:58 03.11.2019
2226 Snow -9 1029 100 11265 0.14 149 21:40 03.11.2019
2227 Mist -9 1028 100 9656 0.14 149 21:20 03.11.2019
2228 Snow -9 1029 100 8047 0.14 149 20:56 03.11.2019
2229 Snow -9 1029 100 8047 0.14 149 20:36 03.11.2019
2230 Snow -9 1029 100 8047 0.43 194 20:18 03.11.2019
2231 Snow -9 1028 92 12874 0.43 194 19:56 03.11.2019
2232 Snow -9 1028 92 12874 0.43 194 19:37 03.11.2019
2233 Clouds -9 1028 100 12874 0.43 194 19:19 03.11.2019
2234 Clouds -9 1028 92 14484 0.43 194 18:39 03.11.2019
2235 Clouds -9 1028 92 16093 0.43 194 18:19 03.11.2019
2236 Snow -9 1028 100 12874 1.5 210 17:58 03.11.2019
2237 Snow -9 1028 100 12874 1.5 210 17:40 03.11.2019
2238 Clouds -9 1028 100 14484 1.5 220 17:19 03.11.2019
2239 Clouds -9 1028 100 16093 1.5 230 16:56 03.11.2019
2240 Clouds -9 1028 100 16093 1.5 230 16:38 03.11.2019
2241 Clouds -9 1028 100 16093 1.5 230 16:19 03.11.2019
2242 Clouds -9 1027 100 16093 2.1 210 15:56 03.11.2019
2243 Clouds -9 1027 100 16093 2.1 210 15:38 03.11.2019
2244 Clouds -9 1027 100 16093 2.1 210 15:20 03.11.2019
2245 Clouds -8 1027 92 16093 2.1 210 14:41 03.11.2019
2246 Clouds -8 1027 92 16093 1.5 230 14:19 03.11.2019
2247 Clouds -8 1027 92 16093 1.5 220 13:56 03.11.2019
2248 Clouds -8 1027 92 16093 1.5 220 13:37 03.11.2019
2249 Clouds -8 1027 92 16093 1.5 220 13:18 03.11.2019
2250 Clouds -8 1027 100 16093 2.1 230 12:38 03.11.2019
2251 Clouds -8 1027 100 16093 2.1 230 12:19 03.11.2019
2252 Clouds -8 1027 92 16093 2.6 220 11:56 03.11.2019
2253 Clouds -8 1027 92 16093 2.6 220 11:56 03.11.2019
2254 Clouds -8 1027 92 16093 2.6 220 11:38 03.11.2019
2255 Clouds -7 1027 100 16093 2.6 230 11:19 03.11.2019
2256 Clouds -7 1027 100 16093 2.6 230 10:42 03.11.2019
2257 Clouds -7 1027 100 16093 2.1 230 10:22 03.11.2019
2258 Clouds -7 1027 100 16093 2.1 230 10:22 03.11.2019
2259 Clouds -7 1027 100 16093 2.1 230 10:22 03.11.2019
2260 Clouds -7 1027 100 16093 2.1 230 10:22 03.11.2019
2261 Clouds -7 1027 100 16093 2.6 220 09:58 03.11.2019
2262 Clouds -7 1027 100 16093 2.6 220 09:40 03.11.2019
2263 Clouds -7 1026 92 16093 2.1 220 09:22 03.11.2019
2264 Clouds -6 1026 85 14484 0.38 239 08:48 03.11.2019
2265 Clouds -6 1026 92 16093 2.1 240 08:25 03.11.2019
2266 Clouds -6 1026 92 16093 2.1 230 07:47 03.11.2019
2267 Clouds -6 1026 100 16093 0.51 317 07:28 03.11.2019
2268 Clouds -6 1026 100 16093 1.5 230 06:54 03.11.2019
2269 Clouds -6 1026 100 16093 1.5 230 06:35 03.11.2019
2270 Mist -6 1026 85 9656 0.51 317 05:40 03.11.2019
2271 Mist -7 1026 100 9656 0.25 10 05:18 03.11.2019
2272 Mist -7 1025 92 6437 0.25 10 04:45 03.11.2019
2273 Mist -7 1025 92 4828 1.5 200 03:39 03.11.2019
2274 Mist -6 1025 92 2414 0.25 10 02:46 03.11.2019
2275 Clouds -6 1026 92 11265 0.38 180 02:21 03.11.2019
2276 Mist -7 1025 92 3219 0.38 180 01:43 03.11.2019
2277 Mist -6 1025 92 3219 0.52 196 01:21 03.11.2019
2278 Clouds -7 1026 92 14484 0.52 196 00:46 03.11.2019
2279 Clouds -7 1026 100 16093 0.52 196 00:27 03.11.2019
2280 Snow -7 1026 85 2816 0.52 196 23:58 02.11.2019
2281 Snow -7 1026 85 2816 0.52 196 23:39 02.11.2019
2282 Clouds -7 1026 100 11265 0.91 183 23:19 02.11.2019
2283 Clouds -7 1026 92 11265 0.91 183 22:56 02.11.2019
2284 Clouds -7 1026 92 11265 0.91 183 22:56 02.11.2019
2285 Clouds -7 1026 92 11265 0.91 183 22:38 02.11.2019
2286 Clouds -7 1026 92 11265 0.91 183 22:19 02.11.2019
2287 Clouds -7 1026 92 14484 0.91 183 21:56 02.11.2019
2288 Clouds -7 1026 92 14484 0.91 183 21:38 02.11.2019
2289 Clouds -7 1026 92 16093 0.91 183 21:18 02.11.2019
2290 Clouds -7 1026 92 16093 0.91 183 21:18 02.11.2019
2291 Snow -7 1025 85 12874 0.91 183 20:59 02.11.2019
2292 Snow -7 1025 85 12874 0.91 183 20:39 02.11.2019
2293 Clouds -7 1025 92 14484 0.42 253 20:20 02.11.2019
2294 Clouds -7 1025 85 16093 2.1 260 19:55 02.11.2019
2295 Clouds -7 1025 85 16093 2.1 260 19:36 02.11.2019
2296 Clouds -7 1025 92 14484 0.42 253 19:18 02.11.2019
2297 Clouds -7 1025 92 14484 0.42 253 19:18 02.11.2019
2298 Clouds -7 1024 92 16093 0.42 253 18:42 02.11.2019
2299 Clouds -7 1024 92 16093 0.42 253 18:24 02.11.2019
2300 Clouds -7 1024 92 16093 0.42 253 17:59 02.11.2019
2301 Clouds -7 1024 92 16093 0.42 253 17:40 02.11.2019
2302 Clouds -7 1024 92 16093 0.74 280 17:22 02.11.2019
2303 Snow -7 1023 85 4828 1.5 190 16:58 02.11.2019
2304 Snow -7 1023 85 4828 1.5 190 16:38 02.11.2019
2305 Clouds -7 1023 100 16093 0.74 280 16:20 02.11.2019
2306 Snow -7 1023 100 6437 0.74 280 15:42 02.11.2019
2307 Snow -7 1023 100 4828 0.74 280 15:20 02.11.2019
2308 Snow -7 1022 85 14484 0.74 280 14:56 02.11.2019
2309 Snow -7 1022 85 14484 0.74 280 14:38 02.11.2019
2310 Clouds -6 1022 92 11265 2.1 200 14:20 02.11.2019
2311 Mist -6 1021 92 4828 1.5 190 13:40 02.11.2019
2312 Mist -6 1021 92 4828 1.5 190 13:20 02.11.2019
2313 Mist -6 1021 92 6437 0.65 308 12:56 02.11.2019
2314 Mist -6 1021 92 6437 0.65 308 12:38 02.11.2019
2315 Snow -5 1021 100 4828 0.65 308 12:19 02.11.2019
2316 Snow -5 1020 100 4426 1.5 200 11:42 02.11.2019
2317 Mist -5 1020 92 6437 0.65 308 11:24 02.11.2019
2318 Snow -5 1020 92 4023 2.1 200 10:57 02.11.2019
2319 Snow -4 1020 92 4023 2.1 200 10:39 02.11.2019
2320 Snow -5 1019 92 4023 2.1 210 10:18 02.11.2019
2321 Snow -5 1019 92 4023 2.1 210 10:18 02.11.2019
2322 Mist -4 1019 100 6437 3.1 220 09:42 02.11.2019
2323 Snow -4 1019 92 6437 2.1 210 09:22 02.11.2019
2324 Mist -3 1018 92 8047 2.6 210 08:51 02.11.2019
2325 Snow -3 1018 100 6437 2.6 220 08:25 02.11.2019
2326 Snow -3 1018 92 4828 2.1 190 07:58 02.11.2019
2327 Snow -3 1018 92 4828 2.1 190 07:40 02.11.2019
2328 Snow -3 1018 92 4828 2.1 190 07:40 02.11.2019
2329 Snow -3 1017 100 12874 1.5 230 07:22 02.11.2019
2330 Snow -3 1017 100 4426 2.1 220 06:50 02.11.2019
2331 Rain -3 1017 86 3219 0.77 311 06:22 02.11.2019
2332 Snow -3 1016 92 3621 1.5 230 05:41 02.11.2019
2333 Rain -3 1016 100 12874 0.7 308 04:24 02.11.2019
2334 Snow -3 1015 100 4828 1.5 230 03:51 02.11.2019
2335 Snow -3 1015 100 2615 0.7 308 03:30 02.11.2019
2336 Snow -3 1015 92 4828 0.48 314 02:19 02.11.2019
2337 Snow -3 1015 92 16093 0.48 314 01:29 02.11.2019
2338 Clouds -3 1015 92 16093 0.43 322 00:56 02.11.2019
2339 Clouds -3 1015 92 16093 0.43 322 00:30 02.11.2019
2340 Clouds -3 1015 85 16093 0.43 322 23:57 01.11.2019
2341 Clouds -3 1015 85 16093 0.43 322 23:38 01.11.2019
2342 Clouds -3 1015 92 16093 0.39 46 23:19 01.11.2019
2343 Rain -4 1015 92 16093 0.39 46 22:42 01.11.2019
2344 Rain -4 1015 92 16093 0.39 46 22:21 01.11.2019
2345 Clouds -4 1015 92 16093 0.39 46 21:43 01.11.2019
2346 Rain -5 1015 100 11265 0.39 46 21:24 01.11.2019
2347 Clouds -5 1015 85 11265 0.39 46 20:59 01.11.2019
2348 Clouds -5 1015 85 11265 0.39 46 20:41 01.11.2019
2349 Snow -5 1015 85 8047 0.87 27 20:23 01.11.2019
2350 Snow -5 1015 100 4426 0.87 27 19:59 01.11.2019
2351 Snow -5 1015 100 4426 0.87 27 19:59 01.11.2019
2352 Snow -5 1015 100 4426 0.87 27 19:59 01.11.2019
2353 Snow -5 1015 100 4426 0.87 27 19:40 01.11.2019
2354 Snow -5 1015 100 3621 0.87 27 19:21 01.11.2019
2355 Snow -5 1014 100 2213 0.87 27 18:41 01.11.2019
2356 Snow -5 1014 92 3621 0.87 27 18:21 01.11.2019
2357 Snow -5 1014 100 3621 0.87 27 17:59 01.11.2019
2358 Snow -5 1014 100 3621 0.87 27 17:41 01.11.2019
2359 Rain -5 1014 100 2816 0.88 11 17:22 01.11.2019
2360 Rain -5 1014 92 4828 0.88 11 16:40 01.11.2019
2361 Rain -5 1014 79 2012 0.88 11 16:20 01.11.2019
2362 Rain -5 1014 92 6437 0.88 11 15:58 01.11.2019
2363 Rain -5 1014 92 6437 0.88 11 15:40 01.11.2019
2364 Snow -5 1014 92 14484 0.88 11 15:22 01.11.2019
2365 Clouds -5 1014 92 16093 0.88 11 14:44 01.11.2019
2366 Clouds -5 1014 92 16093 1.26 23 14:26 01.11.2019
2367 Clouds -5 1013 85 16093 1.26 23 13:59 01.11.2019
2368 Clouds -5 1013 85 16093 1.26 23 13:40 01.11.2019
2369 Clouds -5 1014 92 16093 0.91 19 13:22 01.11.2019
2370 Clouds -5 1013 85 16093 0.91 19 12:56 01.11.2019
2371 Clouds -5 1013 85 16093 0.91 19 12:37 01.11.2019
2372 Clouds -5 1013 92 16093 0.91 19 12:37 01.11.2019
2373 Clouds -6 1013 92 16093 0.91 19 12:19 01.11.2019
2374 Clouds -5 1014 92 16093 0.91 19 11:42 01.11.2019
2375 Clouds -6 1014 92 16093 1.32 35 11:23 01.11.2019
2376 Clouds -6 1014 92 16093 1.32 35 10:44 01.11.2019
2377 Clouds -6 1014 92 16093 1.32 35 10:44 01.11.2019
2378 Clouds -6 1014 92 16093 1.32 35 10:25 01.11.2019
2379 Clouds -6 1014 92 16093 1.32 35 09:59 01.11.2019
2380 Clouds -7 1014 92 16093 1.32 35 09:59 01.11.2019
2381 Clouds -7 1014 92 16093 1.32 35 09:41 01.11.2019
2382 Clouds -7 1014 92 16093 1.32 35 09:22 01.11.2019
2383 Clear -7 1015 100 16093 1.32 35 08:55 01.11.2019
2384 Clear -7 1015 100 16093 1.32 35 08:36 01.11.2019
2385 Clear -7 1015 100 16093 1.49 32 08:18 01.11.2019
2386 Clear -7 1015 92 16093 1.49 32 07:45 01.11.2019
2387 Clear -7 1015 92 16093 1.49 32 07:22 01.11.2019
2388 Clouds -7 1016 92 16093 1.49 32 06:54 01.11.2019
2389 Clouds -8 1016 92 16093 1.49 32 06:23 01.11.2019
2390 Clear -7 1016 92 16093 1.49 32 05:57 01.11.2019
2391 Clear -7 1016 92 16093 1.49 32 05:35 01.11.2019
2392 Clear -7 1017 85 16093 1.54 37 03:32 01.11.2019
2393 Clear -5 1019 79 16093 1.57 33 01:48 01.11.2019
2394 Clear -5 1019 79 16093 1.47 36 01:19 01.11.2019
2395 Clear -5 1019 73 16093 1.47 36 00:20 01.11.2019
2396 Clear -5 1020 79 16093 1.47 36 23:45 31.10.2019
2397 Clear -4 1020 79 16093 1.47 36 23:25 31.10.2019
2398 Clear -5 1021 85 16093 2.1 90 22:58 31.10.2019
2399 Clear -5 1021 85 16093 2.1 90 22:40 31.10.2019
2400 Clear -5 1021 85 16093 2.1 90 22:22 31.10.2019
2401 Clear -5 1021 92 14484 1.5 60 21:56 31.10.2019
2402 Clear -5 1021 92 14484 1.5 60 21:37 31.10.2019
2403 Clear -6 1021 92 14484 1.5 60 21:18 31.10.2019
2404 Clear -7 1022 92 16093 1.5 30 20:40 31.10.2019
2405 Clear -7 1022 92 16093 1.5 30 20:22 31.10.2019
2406 Clouds -7 1022 79 16093 2.1 10 19:46 31.10.2019
2407 Clouds -7 1023 92 16093 1.5 20 19:27 31.10.2019
2408 Clouds -7 1022 85 16093 2.1 20 18:59 31.10.2019
2409 Clouds -7 1022 85 16093 2.1 20 18:41 31.10.2019
2410 Clouds -7 1023 92 16093 1.47 41 18:22 31.10.2019
2411 Clouds -7 1023 92 16093 1.47 41 17:55 31.10.2019
2412 Clouds -7 1023 92 16093 1.47 41 17:36 31.10.2019
2413 Clouds -7 1023 92 16093 0.85 79 17:18 31.10.2019
2414 Clouds -7 1023 92 3219 2.1 320 16:41 31.10.2019
2415 Clouds -7 1024 92 16093 0.85 79 16:20 31.10.2019
2416 Clouds -7 1024 92 16093 0.85 79 16:20 31.10.2019
2417 Clouds -8 1024 100 16093 0.85 79 15:58 31.10.2019
2418 Clouds -8 1024 100 16093 0.85 79 15:40 31.10.2019
2419 Clouds -8 1024 100 16093 0.85 79 15:20 31.10.2019
2420 Mist -8 1024 92 3219 1.5 70 14:57 31.10.2019
2421 Mist -8 1024 92 3219 1.5 70 14:39 31.10.2019
2422 Mist -8 1024 92 3219 1.5 70 14:20 31.10.2019
2423 Clouds -8 1024 100 16093 1.5 40 13:57 31.10.2019
2424 Clouds -8 1025 100 16093 1.5 40 13:38 31.10.2019
2425 Clouds -8 1025 100 16093 1.5 40 13:19 31.10.2019
2426 Clouds -8 1025 92 16093 1.5 60 12:54 31.10.2019
2427 Clouds -8 1025 92 16093 1.5 60 12:36 31.10.2019
2428 Clouds -8 1024 92 16093 1.5 60 12:18 31.10.2019
2429 Clouds -8 1024 100 16093 1.11 137 11:43 31.10.2019
2430 Clouds -8 1024 100 16093 1.43 165 11:20 31.10.2019
2431 Clear -8 1024 100 16093 1.43 165 10:57 31.10.2019
2432 Clear -8 1024 100 16093 1.43 165 10:57 31.10.2019
2433 Clear -8 1024 100 16093 1.43 165 10:38 31.10.2019
2434 Clear -8 1024 100 16093 1.43 165 10:20 31.10.2019
2435 Clear -7 1024 92 16093 3.1 180 09:44 31.10.2019
2436 Clouds -7 1023 92 16093 2.6 180 09:19 31.10.2019
2437 Clear -7 1023 85 16093 1.43 165 08:56 31.10.2019
2438 Clear -7 1023 85 16093 1.43 165 08:38 31.10.2019
2439 Clouds -6 1023 92 16093 2.1 190 08:19 31.10.2019
2440 Clear -6 1023 85 16093 3.1 240 07:43 31.10.2019
2441 Clear -5 1023 85 16093 3.1 240 07:24 31.10.2019
2442 Clouds -5 1022 85 16093 4.6 220 06:39 31.10.2019
2443 Clouds -5 1022 79 16093 2.6 180 06:20 31.10.2019
2444 Clouds -4 1021 79 16093 6.2 240 04:40 31.10.2019
2445 Clouds -3 1019 86 16093 5.7 250 02:47 31.10.2019
2446 Clouds -3 1019 86 16093 5.7 250 02:22 31.10.2019
2447 Clouds -2 1018 79 16093 5.7 250 00:47 31.10.2019
2448 Clouds -2 1018 80 16093 5.7 260 00:24 31.10.2019
2449 Rain -2 1016 74 16093 7.7 250 23:34 30.10.2019
2450 Snow -1 1016 91 8047 3.1 0 22:59 30.10.2019
2451 Snow -1 1016 91 8047 3.1 0 22:39 30.10.2019
2452 Clouds -1 1015 91 11265 7.2 250 22:19 30.10.2019
2453 Rain 0 1014 91 6437 5.1 240 21:54 30.10.2019
2454 Rain 0 1014 91 6437 5.1 240 21:36 30.10.2019
2455 Rain 0 1013 91 1609 2.1 240 21:18 30.10.2019
2456 Rain 0 1013 91 1609 2.1 240 21:18 30.10.2019
2457 Snow 0 1013 91 1609 3.32 226 20:56 30.10.2019
2458 Snow 0 1013 80 1609 3.67 231 20:37 30.10.2019
2459 Rain 0 1012 100 4023 2.09 203 20:18 30.10.2019
2460 Rain 0 1011 100 9656 2.09 203 19:42 30.10.2019
2461 Rain 0 1011 92 16093 2.09 203 19:23 30.10.2019
2462 Clouds 0 1010 86 16093 2.09 203 18:59 30.10.2019
2463 Clouds -1 1010 86 16093 2.09 203 18:38 30.10.2019
2464 Clouds -1 1010 86 16093 2.09 203 18:38 30.10.2019
2465 Rain -1 1010 86 16093 2.09 203 18:19 30.10.2019
2466 Rain -1 1010 86 16093 2.09 203 18:19 30.10.2019
2467 Clouds -1 1009 100 16093 2.09 203 17:55 30.10.2019
2468 Clouds -1 1009 92 16093 1.5 180 17:37 30.10.2019
2469 Clouds -1 1009 92 16093 1.5 180 17:37 30.10.2019
2470 Clouds -1 1009 92 16093 1.5 180 17:18 30.10.2019
2471 Clouds -1 1009 92 16093 0.94 149 16:42 30.10.2019
2472 Clouds -1 1008 86 16093 0.94 149 16:24 30.10.2019
2473 Clouds -1 1008 86 16093 1.5 30 15:59 30.10.2019
2474 Clouds -1 1008 86 16093 1.5 30 15:39 30.10.2019
2475 Clouds -1 1008 86 16093 1.5 30 15:20 30.10.2019
2476 Clouds -1 1008 86 16093 1.5 270 14:59 30.10.2019
2477 Clouds -1 1008 86 16093 1.5 270 14:40 30.10.2019
2478 Clouds -1 1008 86 16093 1.5 270 14:21 30.10.2019
2479 Clouds -1 1008 92 16093 0.94 231 13:55 30.10.2019
2480 Clouds -1 1008 92 16093 0.94 231 13:37 30.10.2019
2481 Clouds -1 1008 92 16093 0.7 69 13:18 30.10.2019
2482 Clouds -1 1008 86 16093 2.1 60 12:45 30.10.2019
2483 Clouds -1 1008 86 16093 2.1 60 12:27 30.10.2019
2484 Clouds -1 1007 86 16093 0.7 69 11:58 30.10.2019
2485 Clouds 0 1007 86 16093 0.7 69 11:40 30.10.2019
2486 Clouds 0 1007 86 16093 1.36 158 11:21 30.10.2019
2487 Clouds 0 1007 92 16093 1.5 300 10:43 30.10.2019
2488 Clouds 0 1007 92 16093 1.5 300 10:23 30.10.2019
2489 Clouds 0 1008 95 16093 1.36 158 09:42 30.10.2019
2490 Clouds 0 1008 95 16093 1.36 158 09:24 30.10.2019
2491 Clouds 0 1007 80 16093 1.5 80 08:57 30.10.2019
2492 Clouds 0 1007 80 16093 1.5 80 08:39 30.10.2019
2493 Clouds 1 1007 80 16093 1.5 80 08:20 30.10.2019
2494 Clouds 1 1007 86 16093 3.1 50 07:46 30.10.2019
2495 Clouds 1 1007 86 16093 3.1 50 07:21 30.10.2019
2496 Clouds 1 1007 92 16093 1.57 165 06:42 30.10.2019
2497 Clouds 1 1007 92 16093 1.57 165 06:42 30.10.2019
2498 Clouds 1 1007 92 16093 1.57 165 06:20 30.10.2019
2499 Clouds 0 1007 80 16093 1.57 165 05:42 30.10.2019
2500 Clouds 1 1007 86 16093 1.21 150 04:55 30.10.2019
2501 Clouds 2 1007 86 16093 1.21 150 03:43 30.10.2019
2502 Clouds 1 1007 86 16093 1.5 330 02:52 30.10.2019
2503 Clouds 2 1007 86 16093 1.5 330 02:19 30.10.2019
2504 Clouds 2 1007 86 16093 0.75 135 01:31 30.10.2019
2505 Clouds 2 1007 86 16093 0.75 135 00:31 30.10.2019
2506 Clouds 2 1008 80 16093 0.75 135 23:46 29.10.2019
2507 Clouds 1 1008 80 16093 1.21 87 23:24 29.10.2019
2508 Clouds 0 1008 100 14484 1.21 87 22:48 29.10.2019
2509 Clouds 0 1008 100 14484 1.21 87 22:20 29.10.2019
2510 Clouds -1 1008 100 14484 1.21 87 21:59 29.10.2019
2511 Clouds -1 1008 100 14484 1.21 87 21:59 29.10.2019
2512 Clouds 1 1008 100 14484 1.21 87 21:41 29.10.2019
2513 Clouds 0 1008 100 14484 1.21 87 21:20 29.10.2019
2514 Clear 0 1009 100 16093 1.21 87 20:58 29.10.2019
2515 Clear 0 1009 100 16093 1.21 87 20:40 29.10.2019
2516 Clear -2 1009 100 16093 1.03 73 20:21 29.10.2019
2517 Clouds -2 1009 92 14484 1.03 73 19:57 29.10.2019
2518 Clouds -2 1009 92 14484 1.03 73 19:38 29.10.2019
2519 Clouds -2 1009 92 14484 1.03 73 19:19 29.10.2019
2520 Clear -3 1009 100 16093 1.03 73 18:55 29.10.2019
2521 Clear -3 1009 100 16093 1.03 73 18:37 29.10.2019
2522 Clear -3 1009 100 16093 1.03 73 18:19 29.10.2019
2523 Clear -3 1009 100 12874 1.03 73 17:54 29.10.2019
2524 Clear -3 1009 100 12874 1.03 73 17:36 29.10.2019
2525 Clear -2 1009 100 12874 0.56 81 17:18 29.10.2019
2526 Clear -1 1009 92 14484 0.56 81 16:39 29.10.2019
2527 Clear -1 1009 92 14484 0.56 81 16:39 29.10.2019
2528 Clear -1 1009 92 14484 0.56 81 16:20 29.10.2019
2529 Clear -2 1009 100 14484 0.56 81 15:56 29.10.2019
2530 Clear -2 1009 100 14484 0.56 81 15:38 29.10.2019
2531 Clear -2 1009 100 14484 0.56 81 15:19 29.10.2019
2532 Clear 0 1009 100 14484 0.56 81 14:55 29.10.2019
2533 Clear -1 1009 100 14484 0.56 81 14:37 29.10.2019
2534 Clear 0 1009 100 14484 0.97 126 14:18 29.10.2019
2535 Clear -1 1009 93 14484 2.1 60 13:40 29.10.2019
2536 Clear 0 1009 93 14484 2.1 60 13:22 29.10.2019
2537 Clear -1 1009 100 14484 1.19 102 12:45 29.10.2019
2538 Clear -1 1009 100 14484 1.19 102 12:26 29.10.2019
2539 Clear -1 1009 100 14484 1.19 102 12:26 29.10.2019
2540 Clear 0 1009 93 14484 1.19 102 11:59 29.10.2019
2541 Clear 0 1009 93 14484 1.19 102 11:41 29.10.2019
2542 Clear 0 1009 94 14484 0.82 89 11:19 29.10.2019
2543 Clear 0 1009 94 14484 2.6 60 10:57 29.10.2019
2544 Clear 0 1009 94 14484 2.6 60 10:38 29.10.2019
2545 Clear 0 1009 94 14484 2.6 60 10:20 29.10.2019
2546 Clear -1 1009 92 14484 2.1 100 09:55 29.10.2019
2547 Clear 0 1009 92 14484 2.1 100 09:37 29.10.2019
2548 Clear 0 1009 92 14484 2.1 100 09:19 29.10.2019
2549 Clouds 0 1008 94 16093 0.82 89 08:43 29.10.2019
2550 Clouds 1 1008 96 16093 0.92 67 08:24 29.10.2019
2551 Clouds 1 1008 96 16093 1.07 114 07:55 29.10.2019
2552 Clouds 1 1008 96 16093 1.07 114 07:36 29.10.2019
2553 Clouds 2 1008 96 16093 1.07 114 07:18 29.10.2019
2554 Clouds 2 1008 96 16093 2.6 50 06:42 29.10.2019
2555 Clouds 2 1008 96 16093 2.6 50 06:20 29.10.2019
2556 Clouds 2 1008 96 16093 1.5 80 05:50 29.10.2019
2557 Clouds 2 1008 96 16093 1.5 80 05:50 29.10.2019
2558 Clouds 3 1008 95 16093 1.5 80 05:19 29.10.2019
2559 Clouds 3 1008 86 14484 0.62 248 03:55 29.10.2019
2560 Clear 6 1007 70 16093 0.62 248 02:32 29.10.2019
2561 Clouds 7 1007 75 12874 1.5 300 01:46 29.10.2019
2562 Clouds 7 1007 75 12874 1.5 300 01:18 29.10.2019
2563 Clear 7 1007 75 12874 3.1 310 00:31 29.10.2019
2564 Clouds 7 1007 75 14484 2.6 300 23:43 28.10.2019
2565 Clouds 7 1007 75 14484 2.6 300 23:20 28.10.2019
2566 Clouds 7 1006 75 14484 1.91 71 22:57 28.10.2019
2567 Clouds 7 1006 75 14484 1.91 71 22:37 28.10.2019
2568 Clouds 6 1006 75 14484 1.91 71 22:18 28.10.2019
2569 Clouds 7 1006 75 16093 1.5 120 21:55 28.10.2019
2570 Clouds 7 1006 75 16093 1.5 120 21:37 28.10.2019
2571 Clouds 6 1006 75 16093 1.5 120 21:18 28.10.2019
2572 Clouds 6 1006 75 16093 1.5 120 21:18 28.10.2019
2573 Clouds 5 1006 70 16093 1.91 71 20:44 28.10.2019
2574 Clouds 4 1006 70 16093 0.61 135 20:24 28.10.2019
2575 Clouds 5 1005 70 14484 3.6 70 19:58 28.10.2019
2576 Clouds 5 1005 70 14484 3.6 70 19:39 28.10.2019
2577 Clouds 5 1005 70 14484 3.6 70 19:20 28.10.2019
2578 Clouds 5 1005 70 14484 3.6 70 19:20 28.10.2019
2579 Clouds 5 1006 70 16093 4.1 70 18:58 28.10.2019
2580 Clouds 6 1006 70 16093 4.1 70 18:39 28.10.2019
2581 Clouds 6 1006 70 16093 4.1 70 18:21 28.10.2019
2582 Clouds 4 1007 75 16093 3.1 70 17:56 28.10.2019
2583 Clouds 4 1007 75 16093 3.1 70 17:38 28.10.2019
2584 Clouds 4 1007 75 16093 3.1 70 17:19 28.10.2019
2585 Clouds 4 1008 75 16093 2.1 60 16:57 28.10.2019
2586 Clouds 3 1008 75 16093 2.1 60 16:39 28.10.2019
2587 Clouds 3 1008 75 16093 2.1 60 16:20 28.10.2019
2588 Clouds 4 1010 75 16093 2.1 60 15:56 28.10.2019
2589 Clouds 3 1010 75 16093 2.1 60 15:38 28.10.2019
2590 Clouds 3 1010 75 16093 2.1 60 15:19 28.10.2019
2591 Clouds 3 1011 80 16093 1.5 280 14:56 28.10.2019
2592 Clouds 3 1011 80 16093 1.5 280 14:37 28.10.2019
2593 Clouds 3 1011 80 16093 1.5 280 14:18 28.10.2019
2594 Clouds 3 1012 75 16093 1.47 90 13:54 28.10.2019
2595 Clouds 3 1012 75 16093 1.47 90 13:36 28.10.2019
2596 Clouds 3 1012 75 16093 0.97 94 13:18 28.10.2019
2597 Clouds 3 1013 75 16093 2.6 100 12:41 28.10.2019
2598 Clouds 3 1013 75 16093 2.6 100 12:41 28.10.2019
2599 Clouds 3 1013 75 16093 2.6 100 12:20 28.10.2019
2600 Clouds 3 1013 86 16093 0.97 94 11:40 28.10.2019
2601 Clouds 3 1013 86 16093 0.8 234 11:21 28.10.2019
2602 Clouds 3 1012 80 16093 1.5 80 10:57 28.10.2019
2603 Clouds 3 1012 80 16093 1.5 80 10:38 28.10.2019
2604 Clouds 3 1012 80 16093 1.5 80 10:20 28.10.2019
2605 Clouds 3 1012 80 16093 3.1 110 09:55 28.10.2019
2606 Clouds 3 1012 80 16093 3.1 110 09:55 28.10.2019
2607 Clouds 3 1012 80 16093 3.1 110 09:36 28.10.2019
2608 Clouds 3 1012 80 16093 3.1 110 09:18 28.10.2019
2609 Clouds 3 1012 75 16093 2.1 300 08:56 28.10.2019
2610 Clouds 3 1012 75 16093 2.1 300 08:37 28.10.2019
2611 Clouds 3 1012 80 16093 1.6 128 08:18 28.10.2019
2612 Clouds 5 1011 61 16093 2.1 60 07:47 28.10.2019
2613 Clouds 6 1011 61 16093 2.1 60 07:23 28.10.2019
2614 Clouds 6 1010 65 16093 3.1 70 06:59 28.10.2019
2615 Clouds 6 1010 65 16093 3.1 70 06:39 28.10.2019
2616 Clouds 6 1011 61 16093 4.1 50 05:19 28.10.2019
2617 Rain 6 1013 65 14484 3.6 60 03:44 28.10.2019
2618 Clouds 6 1014 65 12874 4.6 60 02:46 28.10.2019
2619 Clouds 5 1015 75 16093 4.1 70 01:52 28.10.2019
2620 Clouds 5 1015 75 16093 4.1 70 01:52 28.10.2019
2621 Clear 6 1016 75 16093 5.1 70 00:47 28.10.2019
2622 Clear 6 1016 75 16093 5.1 70 00:25 28.10.2019
2623 Clear 6 1018 81 14484 4.1 70 23:44 27.10.2019
2624 Clear 5 1018 81 14484 4.1 70 23:22 27.10.2019
2625 Clouds 4 1019 86 14484 4.1 70 22:57 27.10.2019
2626 Clouds 4 1019 86 14484 4.1 70 22:37 27.10.2019
2627 Clouds 4 1019 86 14484 4.1 70 22:19 27.10.2019
2628 Clouds 4 1020 93 14484 3.6 60 21:56 27.10.2019
2629 Rain 4 1020 93 14484 3.6 60 21:38 27.10.2019
2630 Rain 3 1020 93 14484 3.6 60 21:20 27.10.2019
2631 Rain 3 1020 93 8047 4.1 80 20:41 27.10.2019
2632 Rain 3 1020 93 4828 3.6 50 20:23 27.10.2019
2633 Rain 2 1021 93 12874 3.1 60 19:58 27.10.2019
2634 Rain 2 1021 93 12874 3.1 60 19:39 27.10.2019
2635 Rain 2 1021 93 8047 2.6 60 19:20 27.10.2019
2636 Rain 2 1021 93 8047 2.6 60 18:57 27.10.2019
2637 Rain 2 1021 93 8047 2.6 60 18:39 27.10.2019
2638 Rain 2 1021 93 4426 3.6 60 18:20 27.10.2019
2639 Rain 2 1022 93 6437 1.5 70 17:55 27.10.2019
2640 Rain 2 1022 93 6437 1.5 70 17:37 27.10.2019
2641 Rain 2 1022 93 9656 3.1 70 17:19 27.10.2019
2642 Clouds 2 1022 93 14484 3.1 70 16:55 27.10.2019
2643 Clouds 2 1022 93 14484 3.1 70 16:37 27.10.2019
2644 Rain 2 1022 93 16093 1.5 30 16:19 27.10.2019
2645 Rain 2 1022 93 11265 3.6 50 15:55 27.10.2019
2646 Rain 2 1022 93 11265 3.6 50 15:37 27.10.2019
2647 Rain 2 1022 100 11265 3.1 70 15:18 27.10.2019
2648 Rain 2 1023 93 6437 3.6 70 14:41 27.10.2019
2649 Rain 2 1023 93 4023 4.1 60 14:20 27.10.2019
2650 Rain 2 1023 93 3219 5.7 60 13:56 27.10.2019
2651 Rain 2 1023 93 4023 5.1 60 13:37 27.10.2019
2652 Rain 2 1023 93 4023 5.1 60 13:19 27.10.2019
2653 Mist 2 1024 93 3621 4.6 60 12:43 27.10.2019
2654 Mist 2 1024 93 1408 4.6 70 12:24 27.10.2019
2655 Rain 2 1024 100 1408 4.1 60 11:56 27.10.2019
2656 Rain 2 1024 100 2213 4.6 60 11:38 27.10.2019
2657 Rain 2 1024 100 2213 4.6 60 11:19 27.10.2019
2658 Mist 2 1024 93 2414 5.1 60 10:43 27.10.2019
2659 Mist 2 1024 93 2414 4.6 70 10:24 27.10.2019
2660 Mist 2 1024 93 4426 4.1 60 09:45 27.10.2019
2661 Mist 1 1025 81 9656 3.6 90 09:20 27.10.2019
2662 Clouds 1 1025 81 16093 4.1 70 08:59 27.10.2019
2663 Clouds 1 1025 76 16093 4.1 70 08:41 27.10.2019
2664 Clouds 1 1025 79 16093 4.1 70 08:20 27.10.2019
2665 Clouds 1 1025 79 16093 4.1 60 07:50 27.10.2019
2666 Clouds 1 1025 79 16093 4.1 60 07:29 27.10.2019
2667 Clear 1 1026 79 16093 3.1 60 06:56 27.10.2019
2668 Clear 1 1026 79 16093 3.1 60 06:38 27.10.2019
2669 Clear 1 1026 79 16093 3.1 60 06:38 27.10.2019
2670 Clear 1 1026 79 16093 3.1 60 06:20 27.10.2019
2671 Clear 1 1027 79 16093 3.6 60 05:38 27.10.2019
2672 Clouds 1 1027 84 16093 2.6 60 04:47 27.10.2019
2673 Clouds 0 1028 80 16093 3.6 70 02:48 27.10.2019
2674 Clouds 1 1028 80 16093 3.6 70 02:18 27.10.2019
2675 Clouds 0 1030 71 16093 2.1 50 01:49 27.10.2019
2676 Clouds 0 1030 71 16093 2.1 50 01:21 27.10.2019
2677 Clear 0 1031 86 16093 1.57 47 00:46 27.10.2019
2678 Clear 0 1031 86 16093 1.57 47 00:27 27.10.2019
2679 Clouds 0 1031 80 16093 1.5 80 23:56 26.10.2019
2680 Clouds -1 1031 80 16093 1.5 80 23:38 26.10.2019
2681 Clouds -1 1031 80 16093 1.5 80 23:20 26.10.2019
2682 Clouds -1 1031 86 16093 1.03 53 22:55 26.10.2019
2683 Clouds -1 1031 86 16093 1.03 53 22:36 26.10.2019
2684 Clouds -1 1031 86 16093 1.03 53 22:18 26.10.2019
2685 Clouds -2 1031 86 16093 1.03 53 21:42 26.10.2019
2686 Clouds -2 1031 92 16093 1.39 39 21:21 26.10.2019
2687 Clouds -3 1031 85 16093 1.39 39 20:55 26.10.2019
2688 Clouds -3 1031 85 16093 1.39 39 20:36 26.10.2019
2689 Clouds -3 1031 85 16093 1.39 39 20:36 26.10.2019
2690 Clouds -3 1031 86 16093 1.5 50 20:18 26.10.2019
2691 Clouds -3 1031 86 16093 2.6 70 19:41 26.10.2019
2692 Clouds -3 1031 86 16093 2.6 70 19:20 26.10.2019
2693 Clear -3 1031 86 16093 2.6 60 18:57 26.10.2019
2694 Clear -3 1031 86 16093 2.6 60 18:38 26.10.2019
2695 Clear -3 1031 86 16093 2.6 60 18:19 26.10.2019
2696 Clouds -3 1031 92 16093 1.32 50 17:56 26.10.2019
2697 Clouds -3 1031 92 16093 1.32 50 17:37 26.10.2019
2698 Clouds -3 1031 86 16093 2.1 60 17:19 26.10.2019
2699 Clouds -3 1031 86 16093 2.6 60 16:43 26.10.2019
2700 Clouds -3 1031 86 16093 2.6 60 16:24 26.10.2019
2701 Clear -4 1031 86 16093 2.1 60 15:44 26.10.2019
2702 Clear -4 1031 86 16093 2.1 60 15:22 26.10.2019
2703 Clear -4 1031 86 16093 3.1 60 14:59 26.10.2019
2704 Clear -4 1031 86 16093 3.1 60 14:37 26.10.2019
2705 Clear -4 1031 92 16093 2.1 70 14:19 26.10.2019
2706 Clear -4 1031 92 16093 2.1 70 13:42 26.10.2019
2707 Clouds -4 1032 86 0 1.2 43 13:23 26.10.2019
2708 Clouds -4 1029 86 0 1.2 43 12:50 26.10.2019
2709 Clouds -4 1032 92 16093 3.1 60 12:29 26.10.2019
2710 Clouds -4 1032 92 16093 3.1 60 11:58 26.10.2019
2711 Clouds -4 1032 92 16093 3.1 60 11:40 26.10.2019
2712 Clouds -4 1032 92 16093 3.1 60 11:22 26.10.2019
2713 Clouds -4 1031 86 16093 3.6 70 10:46 26.10.2019
2714 Clouds -4 1031 86 16093 3.6 70 10:25 26.10.2019
2715 Clouds -4 1032 92 16093 1.5 50 09:49 26.10.2019
2716 Clouds -4 1032 92 16093 1.5 50 09:30 26.10.2019
2717 Clouds -4 1031 86 16093 1.5 60 08:50 26.10.2019
2718 Clouds -3 1031 86 16093 1.5 60 08:28 26.10.2019
2719 Clouds -3 1031 86 16093 1.19 144 07:57 26.10.2019
2720 Clouds -3 1031 86 16093 1.19 144 07:39 26.10.2019
2721 Clouds -3 1031 86 16093 1.19 144 07:19 26.10.2019
2722 Clouds -3 1030 85 16093 2.6 160 06:39 26.10.2019
2723 Clouds -3 1029 79 16093 2.1 220 05:24 26.10.2019
2724 Clouds -2 1029 74 16093 5.7 250 04:59 26.10.2019
2725 Clouds -2 1027 80 16093 2.6 210 03:31 26.10.2019
2726 Rain -2 1026 74 16093 3.1 250 02:29 26.10.2019
2727 Clouds -2 1025 74 16093 4.1 250 01:46 26.10.2019
2728 Clouds -1 1024 68 16093 4.6 260 00:51 26.10.2019
2729 Clouds -2 1023 74 16093 3.6 270 23:48 25.10.2019
2730 Clouds -2 1023 74 16093 3.6 270 23:22 25.10.2019
2731 Rain -2 1023 80 16093 4.1 250 22:58 25.10.2019
2732 Rain -2 1023 80 16093 4.1 250 22:58 25.10.2019
2733 Rain -3 1023 80 16093 4.1 250 22:39 25.10.2019
2734 Snow -2 1022 74 11265 4.1 250 22:21 25.10.2019
2735 Rain -2 1021 86 14484 5.1 230 21:55 25.10.2019
2736 Rain -2 1021 86 14484 5.1 230 21:37 25.10.2019
2737 Rain -2 1020 92 16093 5.1 220 21:19 25.10.2019
2738 Rain -2 1019 100 6437 3.1 210 20:43 25.10.2019
2739 Rain -2 1019 100 6437 3.1 210 20:19 25.10.2019
2740 Rain -3 1018 100 3219 3.6 220 19:47 25.10.2019
2741 Snow -2 1017 92 16093 4.1 220 19:27 25.10.2019
2742 Rain -3 1016 100 4828 3.6 220 18:56 25.10.2019
2743 Rain -3 1016 100 4828 3.6 220 18:37 25.10.2019
2744 Rain -3 1016 100 12874 3.1 210 18:19 25.10.2019
2745 Rain -3 1015 100 3219 2.17 216 17:39 25.10.2019
2746 Rain -3 1015 100 3219 2.17 216 17:20 25.10.2019
2747 Snow -3 1014 92 3219 2.17 216 16:46 25.10.2019
2748 Snow -3 1013 92 11265 2.17 216 16:23 25.10.2019
2749 Rain -3 1012 92 16093 2.17 216 15:57 25.10.2019
2750 Rain -3 1012 92 16093 2.17 216 15:38 25.10.2019
2751 Rain -3 1012 92 8047 1.63 204 15:20 25.10.2019
2752 Rain -4 1011 92 4828 1.63 204 14:42 25.10.2019
2753 Rain -3 1010 92 6437 1.22 206 14:23 25.10.2019
2754 Rain -4 1009 100 6437 1.22 206 13:59 25.10.2019
2755 Rain -4 1009 100 6437 1.22 206 13:39 25.10.2019
2756 Rain -4 1008 92 2816 1.22 206 13:21 25.10.2019
2757 Snow -4 1008 100 12874 1.22 206 12:43 25.10.2019
2758 Rain -4 1007 79 4828 0.95 233 12:22 25.10.2019
2759 Rain -4 1006 79 6437 0.95 233 11:59 25.10.2019
2760 Rain -4 1005 92 16093 0.95 233 11:38 25.10.2019
2761 Rain -4 1005 92 16093 0.95 233 11:19 25.10.2019
2762 Snow -4 1005 92 3621 0.95 233 10:41 25.10.2019
2763 Clouds -4 1004 92 14484 0.95 233 10:23 25.10.2019
2764 Clouds -4 1003 92 16093 0.95 233 09:58 25.10.2019
2765 Clouds -4 1003 92 16093 0.65 208 09:38 25.10.2019
2766 Clouds -4 1003 92 16093 0.84 229 09:20 25.10.2019
2767 Clouds -4 1002 92 16093 1.5 170 08:51 25.10.2019
2768 Clouds -4 1002 92 16093 1.5 170 08:33 25.10.2019
2769 Clouds -3 1000 86 16093 2.1 220 07:57 25.10.2019
2770 Clouds -3 1000 86 16093 2.1 220 07:35 25.10.2019
2771 Clouds -2 999 86 16093 2.6 190 06:42 25.10.2019
2772 Clouds -1 998 88 16093 2.6 210 05:59 25.10.2019
2773 Clouds -1 998 88 16093 2.6 210 05:37 25.10.2019
2774 Clouds 0 997 74 16093 1.5 210 04:54 25.10.2019
2775 Clouds 2 997 64 16093 0.61 304 03:45 25.10.2019
2776 Clouds 3 996 69 14484 0.78 298 01:54 25.10.2019
2777 Clouds 3 996 69 14484 0.78 298 01:35 25.10.2019
2778 Clear 1 996 80 14484 0.55 357 00:22 25.10.2019
2779 Mist 0 995 86 6437 0.55 357 23:41 24.10.2019
2780 Mist 0 995 86 6437 0.55 357 23:23 24.10.2019
2781 Clouds 0 994 80 16093 0.55 357 22:56 24.10.2019
2782 Clouds 0 994 80 16093 0.55 357 22:37 24.10.2019
2783 Mist -1 995 86 8047 0.55 357 22:18 24.10.2019
2784 Clouds -2 994 86 12874 0.55 357 21:56 24.10.2019
2785 Clouds -2 994 86 12874 0.55 357 21:56 24.10.2019
2786 Clouds -2 994 86 12874 0.76 350 21:38 24.10.2019
2787 Clouds -2 994 86 12874 1.24 36 21:19 24.10.2019
2788 Clouds -2 994 86 12874 1.24 36 21:19 24.10.2019
2789 Mist -2 993 92 8047 1.24 36 20:56 24.10.2019
2790 Mist -2 993 92 8047 1.24 36 20:38 24.10.2019
2791 Mist -2 993 92 8047 1.24 36 20:20 24.10.2019
2792 Clouds -2 993 86 16093 1.24 36 19:54 24.10.2019
2793 Clouds -2 993 86 16093 1.24 36 19:36 24.10.2019
2794 Clouds -2 993 86 16093 1.24 36 19:18 24.10.2019
2795 Clouds -2 993 92 16093 1.24 36 18:40 24.10.2019
2796 Clouds -3 993 92 16093 2.21 30 18:22 24.10.2019
2797 Clouds -3 992 92 14484 1.5 50 17:59 24.10.2019
2798 Clouds -3 992 92 14484 1.5 50 17:39 24.10.2019
2799 Clouds -4 992 92 14484 1.5 50 17:20 24.10.2019
2800 Clouds -4 992 92 14484 1.5 50 17:20 24.10.2019
2801 Clouds -4 992 92 12874 2.21 30 16:55 24.10.2019
2802 Clouds -4 992 92 12874 2.21 30 16:37 24.10.2019
2803 Clouds -4 992 92 12874 2.21 30 16:18 24.10.2019
2804 Clouds -4 992 92 14484 2.21 30 15:55 24.10.2019
2805 Clouds -4 992 92 14484 2.21 30 15:37 24.10.2019
2806 Clouds -4 992 92 14484 2.33 31 15:18 24.10.2019
2807 Clouds -4 991 92 16093 2.05 32 14:44 24.10.2019
2808 Clouds -4 991 92 16093 2.33 31 14:44 24.10.2019
2809 Clouds -4 991 92 16093 2.05 32 14:26 24.10.2019
2810 Clouds -4 991 100 14484 2.05 32 13:59 24.10.2019
2811 Clouds -3 991 100 14484 2.05 32 13:38 24.10.2019
2812 Clouds -3 991 100 14484 2.05 32 13:19 24.10.2019
2813 Clouds -3 991 100 14484 2.05 32 13:19 24.10.2019
2814 Clouds -3 991 92 14484 2.05 32 12:56 24.10.2019
2815 Clouds -3 991 92 14484 2.05 32 12:38 24.10.2019
2816 Clouds -2 991 92 14484 1.85 60 12:18 24.10.2019
2817 Clouds -2 990 92 16093 1.85 60 11:55 24.10.2019
2818 Clouds -3 990 92 16093 1.85 60 11:36 24.10.2019
2819 Clouds -3 990 92 16093 1.85 60 11:36 24.10.2019
2820 Clouds -2 990 92 16093 1.85 60 11:18 24.10.2019
2821 Clouds -2 990 86 16093 1.5 260 10:42 24.10.2019
2822 Clouds -2 990 86 16093 1.5 260 10:23 24.10.2019
2823 Clouds -3 989 86 16093 1.5 70 09:41 24.10.2019
2824 Clouds -2 989 86 16093 1.5 70 09:19 24.10.2019
2825 Clear -2 989 86 16093 2.6 60 09:00 24.10.2019
2826 Clear -1 989 86 16093 2.6 60 08:41 24.10.2019
2827 Clear -2 989 86 16093 2.6 60 08:20 24.10.2019
2828 Clear -2 988 86 16093 3.1 60 07:48 24.10.2019
2829 Clear -2 988 86 16093 3.1 60 07:23 24.10.2019
2830 Clear -2 988 86 16093 3.1 60 07:23 24.10.2019
2831 Clouds -1 988 74 16093 3.1 70 06:56 24.10.2019
2832 Clouds -1 988 74 16093 3.1 70 06:36 24.10.2019
2833 Clouds 1 988 69 16093 1.5 90 05:55 24.10.2019
2834 Clouds 1 988 64 16093 3.1 70 05:31 24.10.2019
2835 Clouds 2 987 55 16093 3.6 80 04:23 24.10.2019
2836 Clouds 3 988 55 16093 3.6 70 03:35 24.10.2019
2837 Clouds 3 988 60 16093 3.6 70 02:39 24.10.2019
2838 Clouds 3 988 60 16093 3.6 70 02:19 24.10.2019
2839 Clouds 3 989 60 16093 4.6 70 01:31 24.10.2019
2840 Clouds 4 990 48 16093 5.7 70 00:56 24.10.2019
2841 Clouds 4 990 48 16093 5.7 70 00:27 24.10.2019
2842 Clouds 4 991 48 11265 6.2 60 23:57 23.10.2019
2843 Clouds 4 991 48 11265 6.2 60 23:38 23.10.2019
2844 Clouds 4 991 48 11265 6.2 60 23:18 23.10.2019
2845 Clouds 4 1013 48 11265 5.1 70 22:54 23.10.2019
2846 Clouds 4 1013 48 11265 5.1 70 22:54 23.10.2019
2847 Clouds 4 1013 48 11265 5.1 70 22:36 23.10.2019
2848 Clouds 4 1013 48 11265 5.1 70 22:18 23.10.2019
2849 Clouds 3 993 59 11265 1 40 21:55 23.10.2019
2850 Clouds 3 993 59 11265 1 40 21:36 23.10.2019
2851 Clouds 2 993 59 11265 1 40 21:18 23.10.2019
2852 Clouds 1 995 59 11265 1.5 90 20:54 23.10.2019
2853 Clouds 1 995 59 11265 1.5 90 20:54 23.10.2019
2854 Clouds 1 995 59 11265 1.5 90 20:36 23.10.2019
2855 Clouds 1 995 59 11265 1.5 90 20:18 23.10.2019
2856 Clouds 1 996 70 11265 1 0 19:42 23.10.2019
2857 Clouds 0 996 70 11265 1 0 19:19 23.10.2019
2858 Clouds -1 997 68 11265 1 40 18:57 23.10.2019
2859 Clouds -1 997 68 11265 1 40 18:38 23.10.2019
2860 Clouds -1 997 68 11265 1 40 18:19 23.10.2019
2861 Clouds -2 1001 74 16093 3.6 20 17:46 23.10.2019
2862 Clouds -2 1001 74 16093 3.6 20 17:21 23.10.2019
2863 Clouds -3 1002 79 16093 3.1 50 16:59 23.10.2019
2864 Clouds -2 1002 79 16093 3.1 50 16:40 23.10.2019
2865 Clouds -2 1002 79 16093 3.1 50 16:40 23.10.2019
2866 Clouds -3 1002 79 16093 3.1 50 16:20 23.10.2019
2867 Clouds -3 1002 79 16093 3.1 50 16:20 23.10.2019
2868 Clouds -4 1004 79 16093 3.21 38 15:56 23.10.2019
2869 Clouds -4 1004 79 16093 3.21 38 15:37 23.10.2019
2870 Clouds -5 1004 79 16093 2.68 38 15:18 23.10.2019
2871 Clouds -6 1005 79 16093 1.5 70 14:55 23.10.2019
2872 Clouds -6 1005 79 16093 1.5 70 14:37 23.10.2019
2873 Clouds -5 1005 79 16093 1.5 70 14:18 23.10.2019
2874 Clouds -5 1005 79 16093 1.5 70 14:18 23.10.2019
2875 Clouds -6 1007 85 16093 2.62 38 13:42 23.10.2019
2876 Clouds -6 1007 85 16093 2.62 38 13:24 23.10.2019
2877 Clear -6 1009 85 16093 1.5 70 12:57 23.10.2019
2878 Clear -7 1009 85 16093 1.5 70 12:38 23.10.2019
2879 Clear -7 1009 85 16093 1.5 70 12:19 23.10.2019
2880 Clear -7 1010 92 16093 1.5 30 11:57 23.10.2019
2881 Clear -7 1010 92 16093 1.5 30 11:39 23.10.2019
2882 Clear -7 1010 92 16093 1.5 30 11:20 23.10.2019
2883 Clear -6 1011 85 16093 1.5 40 10:46 23.10.2019
2884 Clear -5 1011 85 16093 1.5 40 10:26 23.10.2019
2885 Clear -5 1011 85 16093 1.5 40 10:26 23.10.2019
2886 Clouds -6 1011 85 11265 1.5 60 09:58 23.10.2019
2887 Clouds -5 1011 85 11265 1.5 60 09:39 23.10.2019
2888 Clouds -6 1011 85 11265 1.5 60 09:20 23.10.2019
2889 Clouds -5 1012 85 11265 2.6 320 08:43 23.10.2019
2890 Clouds -5 1012 85 11265 2.6 320 08:25 23.10.2019
2891 Clouds -4 1013 85 11265 1 330 07:47 23.10.2019
2892 Clouds -4 1013 85 11265 1 330 07:26 23.10.2019
2893 Clouds -3 1013 86 11265 1.76 47 06:48 23.10.2019
2894 Clouds -3 1013 86 11265 0.81 59 06:23 23.10.2019
2895 Clouds -3 1013 79 11265 0.81 59 05:55 23.10.2019
2896 Clouds -3 1013 79 11265 0.81 59 05:18 23.10.2019
2897 Clouds 0 1014 60 11265 0.81 59 03:37 23.10.2019
2898 Clouds 0 1014 64 11265 1 140 02:42 23.10.2019
2899 Clouds 0 1014 64 11265 1 0 01:35 23.10.2019
2900 Clouds 0 1014 74 16093 2.1 20 00:59 23.10.2019
2901 Clouds 0 1014 74 16093 2.1 20 00:33 23.10.2019
2902 Clouds -1 1014 68 16093 0.75 151 23:43 22.10.2019
2903 Clouds -2 1014 68 16093 0.75 151 23:19 22.10.2019
2904 Clouds -2 1013 79 16093 0.75 151 22:59 22.10.2019
2905 Clouds -2 1013 79 16093 0.75 151 22:59 22.10.2019
2906 Clouds -2 1013 79 16093 0.75 151 22:40 22.10.2019
2907 Clouds -2 1013 74 16093 0.75 151 22:21 22.10.2019
2908 Snow -3 1012 86 11265 0.5 80 21:57 22.10.2019
2909 Snow -3 1012 86 11265 0.5 80 21:38 22.10.2019
2910 Clouds -3 1013 74 16093 0.96 174 21:19 22.10.2019
2911 Clouds -3 1012 74 16093 0.96 174 20:58 22.10.2019
2912 Clouds -3 1012 74 16093 0.96 174 20:58 22.10.2019
2913 Clouds -3 1012 74 16093 0.96 174 20:40 22.10.2019
2914 Clouds -3 1012 74 16093 0.96 174 20:21 22.10.2019
2915 Clouds -3 1012 74 11265 1 0 19:55 22.10.2019
2916 Clouds -3 1012 74 11265 1 0 19:37 22.10.2019
2917 Clouds -3 1012 74 11265 1 0 19:19 22.10.2019
2918 Clouds -3 1011 85 16093 0.96 174 18:54 22.10.2019
2919 Clouds -3 1011 74 16093 2.1 60 18:36 22.10.2019
2920 Clouds -3 1011 74 16093 2.1 60 18:18 22.10.2019
2921 Clouds -3 1011 74 11265 0.5 70 17:39 22.10.2019
2922 Clouds -3 1011 74 11265 0.5 70 17:20 22.10.2019
2923 Snow -3 1009 79 14484 1.02 167 16:59 22.10.2019
2924 Snow -3 1009 79 14484 1.02 167 16:39 22.10.2019
2925 Snow -3 1009 79 14484 1.02 167 16:39 22.10.2019
2926 Snow -3 1009 79 14484 1.02 167 16:20 22.10.2019
2927 Snow -3 1009 79 14484 1.02 167 16:20 22.10.2019
2928 Snow -3 1009 86 14484 1.02 167 15:58 22.10.2019
2929 Snow -3 1009 86 14484 1.02 167 15:40 22.10.2019
2930 Snow -3 1009 86 14484 1.02 160 15:19 22.10.2019
2931 Snow -4 1008 85 14484 1.02 160 14:46 22.10.2019
2932 Snow -4 1008 85 14484 1.02 162 14:21 22.10.2019
2933 Snow -4 1008 79 14484 1.02 162 13:54 22.10.2019
2934 Snow -4 1008 79 14484 1.02 162 13:36 22.10.2019
2935 Snow -4 1008 79 14484 1.02 162 13:18 22.10.2019
2936 Snow -4 1007 79 14484 1.02 162 12:41 22.10.2019
2937 Snow -3 1007 79 14484 0.91 155 12:21 22.10.2019
2938 Snow -3 1007 79 14484 0.91 155 11:59 22.10.2019
2939 Snow -3 1007 79 14484 0.91 155 11:39 22.10.2019
2940 Snow -3 1007 79 14484 0.91 155 11:39 22.10.2019
2941 Snow -3 1007 79 14484 0.91 155 11:20 22.10.2019
2942 Snow -3 1006 79 14484 0.91 155 10:58 22.10.2019
2943 Snow -3 1006 79 14484 0.91 155 10:37 22.10.2019
2944 Snow -3 1006 79 14484 0.91 155 10:18 22.10.2019
2945 Clouds -3 1005 86 11265 1 140 09:55 22.10.2019
2946 Clouds -3 1005 86 11265 1 140 09:36 22.10.2019
2947 Clouds -3 1005 86 11265 1 140 09:18 22.10.2019
2948 Clouds -3 1005 86 11265 1 140 08:42 22.10.2019
2949 Clouds -3 1005 86 11265 1 140 08:21 22.10.2019
2950 Clouds -3 1005 79 11265 1 210 07:48 22.10.2019
2951 Clouds -3 1005 79 11265 1 210 07:27 22.10.2019
2952 Clouds -2 1004 80 11265 0.5 200 06:51 22.10.2019
2953 Clouds -2 1004 80 11265 0.5 200 06:31 22.10.2019
2954 Clouds -1 1004 86 11265 0.53 174 05:58 22.10.2019
2955 Clouds -1 1004 86 11265 0.53 174 05:24 22.10.2019
2956 Clouds 1 1005 69 16093 0.6 206 02:48 22.10.2019
2957 Clouds 1 1005 69 16093 0.87 195 02:28 22.10.2019
2958 Clouds 1 1005 74 16093 0.87 195 01:29 22.10.2019
2959 Clouds 1 1004 69 11265 2.1 0 00:58 22.10.2019
2960 Clouds 0 1004 69 11265 2.1 0 00:40 22.10.2019
2961 Clouds 0 1004 69 11265 2.1 0 00:21 22.10.2019
2962 Clouds 0 1005 64 11265 1 210 23:55 21.10.2019
2963 Clouds 0 1005 64 11265 1 210 23:37 21.10.2019
2964 Clouds 0 1005 64 11265 1 210 23:18 21.10.2019
2965 Clouds -1 1006 80 11265 1 240 22:56 21.10.2019
2966 Clouds -1 1006 80 11265 1 240 22:37 21.10.2019
2967 Clouds -1 1006 80 11265 1 240 22:19 21.10.2019
2968 Clouds -2 1005 92 11265 1 90 21:54 21.10.2019
2969 Clouds -2 1005 92 11265 1 90 21:36 21.10.2019
2970 Clouds -3 1005 92 11265 1 90 21:18 21.10.2019
2971 Clouds -5 1005 79 11265 1 0 20:41 21.10.2019
2972 Clouds -5 1005 79 11265 1 0 20:21 21.10.2019
2973 Clouds -5 1005 85 11265 1 110 19:59 21.10.2019
2974 Clouds -5 1005 85 11265 1 110 19:41 21.10.2019
2975 Clouds -5 1005 85 11265 1 110 19:22 21.10.2019
2976 Clouds -5 1005 85 11265 1 0 18:57 21.10.2019
2977 Clouds -5 1005 85 11265 1 0 18:38 21.10.2019
2978 Clouds -5 1005 85 11265 1 0 18:19 21.10.2019
2979 Clouds -4 1005 85 11265 0.5 110 17:57 21.10.2019
2980 Clouds -4 1005 85 11265 0.5 110 17:38 21.10.2019
2981 Clouds -3 1005 85 11265 0.5 110 17:19 21.10.2019
2982 Clouds -4 1004 92 16093 0.94 47 16:57 21.10.2019
2983 Clouds -4 1004 92 16093 0.94 47 16:38 21.10.2019
2984 Clouds -4 1004 92 16093 0.94 47 16:20 21.10.2019
2985 Clouds -3 1004 85 16093 0.94 47 15:47 21.10.2019
2986 Clouds -4 1004 85 16093 0.94 47 15:25 21.10.2019
2987 Clouds -3 1004 85 16093 1.5 20 14:58 21.10.2019
2988 Clouds -3 1004 85 16093 1.5 20 14:39 21.10.2019
2989 Clouds -4 1004 85 16093 1.5 20 14:21 21.10.2019
2990 Clouds -4 1004 85 16093 1.24 40 13:57 21.10.2019
2991 Clouds -4 1004 85 16093 1.24 40 13:39 21.10.2019
2992 Clouds -3 1004 85 16093 1.24 40 13:19 21.10.2019
2993 Clouds -4 1004 85 16093 1.24 40 12:42 21.10.2019
2994 Clouds -3 1005 79 16093 1.29 3.723 12:23 21.10.2019
2995 Clouds -3 1005 79 16093 1.29 3.723 11:58 21.10.2019
2996 Clouds -3 1005 79 16093 1.29 3.723 11:39 21.10.2019
2997 Clouds -3 1005 79 16093 1.29 3.723 11:20 21.10.2019
2998 Clouds -3 1005 85 16093 1.29 3.723 10:57 21.10.2019
2999 Clouds -3 1005 85 16093 1.29 3.723 10:38 21.10.2019
3000 Clouds -3 1005 85 16093 1.29 3.723 10:19 21.10.2019
3001 Clouds -2 1005 79 16093 1.29 3.723 09:48 21.10.2019
3002 Clouds -2 1005 79 16093 1.29 3.723 09:26 21.10.2019
3003 Clouds -2 1005 79 16093 1.11 347.443 08:58 21.10.2019
3004 Clouds -2 1005 79 16093 1.11 347.443 08:40 21.10.2019
3005 Clouds -2 1005 79 16093 1.11 347.443 08:22 21.10.2019
3006 Clouds -1 1005 79 16093 1.5 10 07:44 21.10.2019
3007 Clouds -1 1005 79 16093 1.5 10 07:21 21.10.2019
3008 Clouds 0 1005 92 16093 1.11 347.443 06:57 21.10.2019
3009 Clouds 0 1005 92 16093 1.11 347.443 06:39 21.10.2019
3010 Clouds 1 1005 69 16093 1.32 358.613 05:57 21.10.2019
3011 Clouds 1 1005 69 16093 1.32 358.613 05:57 21.10.2019
3012 Clouds 1 1005 64 16093 1.5 20 04:50 21.10.2019
3013 Clouds 3 1005 55 16093 1.5 100 03:38 21.10.2019
3014 Clouds 2 1006 55 16093 0.94 343.189 02:37 21.10.2019
3015 Clouds 2 1006 55 16093 0.94 343.189 02:19 21.10.2019
3016 Clouds 3 1006 55 16093 1.5 110 01:38 21.10.2019
3017 Clouds 2 1006 59 16093 2.1 40 00:51 21.10.2019
3018 Clouds 2 1006 59 16093 2.1 40 00:27 21.10.2019
3019 Clouds 1 1006 64 16093 1.5 70 23:43 20.10.2019
3020 Clouds 0 1006 64 16093 1.5 70 23:22 20.10.2019
3021 Clouds 0 1006 89 16093 0.7 43.833 22:58 20.10.2019
3022 Clouds 0 1006 89 16093 0.7 43.833 22:39 20.10.2019
3023 Clouds 0 1006 89 16093 0.7 43.833 22:19 20.10.2019
3024 Clouds 0 1006 89 16093 0.7 43.833 21:59 20.10.2019
3025 Clouds -1 1006 89 16093 0.7 43.833 21:39 20.10.2019
3026 Clouds -1 1006 94 16093 0.5 346.608 21:21 20.10.2019
3027 Clouds -1 1006 80 16093 0.96 340.738 20:54 20.10.2019
3028 Clouds -1 1006 80 16093 0.96 340.738 20:36 20.10.2019
3029 Clouds -2 1006 80 16093 0.96 340.738 20:18 20.10.2019
3030 Clouds -2 1006 80 16093 2.1 30 19:55 20.10.2019
3031 Clouds -2 1006 80 16093 2.1 30 19:36 20.10.2019
3032 Clouds -2 1006 80 16093 2.1 30 19:18 20.10.2019
3033 Clouds -2 1005 92 16093 0.96 340.738 18:40 20.10.2019
3034 Clouds -2 1006 80 16093 2.1 20 18:20 20.10.2019
3035 Clouds -2 1005 86 16093 0.9 356.637 17:56 20.10.2019
3036 Clouds -2 1005 86 16093 0.9 356.637 17:37 20.10.2019
3037 Clouds -2 1005 86 16093 0.9 356.637 17:19 20.10.2019
3038 Clouds -2 1005 86 16093 0.9 356.637 16:43 20.10.2019
3039 Clouds -2 1005 86 16093 0.9 356.637 16:24 20.10.2019
3040 Clouds -2 1005 86 16093 0.9 356.637 15:59 20.10.2019
3041 Clouds -2 1005 86 16093 0.9 356.637 15:38 20.10.2019
3042 Clouds -2 1005 86 16093 0.86 3.206 15:20 20.10.2019
3043 Clouds -2 1004 86 16093 0.86 3.206 14:58 20.10.2019
3044 Clouds -2 1004 86 16093 0.86 3.206 14:38 20.10.2019
3045 Clouds -2 1004 86 16093 0.86 3.206 14:19 20.10.2019
3046 Clouds -1 1004 80 16093 0.86 3.206 13:56 20.10.2019
3047 Clouds -1 1004 80 16093 0.86 3.206 13:56 20.10.2019
3048 Clouds -1 1004 80 16093 0.86 3.206 13:37 20.10.2019
3049 Clouds -1 1004 80 16093 1.02 355.218 13:18 20.10.2019
3050 Clouds -1 1004 80 16093 1.02 355.218 13:18 20.10.2019
3051 Clouds -1 1004 92 16093 2.1 130 12:56 20.10.2019
3052 Clouds -1 1004 92 16093 2.1 130 12:38 20.10.2019
3053 Clouds -1 1004 80 16093 1.1 359.013 12:20 20.10.2019
3054 Clouds -1 1003 86 16093 1.1 359.013 11:55 20.10.2019
3055 Clouds 0 1003 86 16093 1.1 359.013 11:37 20.10.2019
3056 Clouds 0 1003 90 16093 1.1 359.013 11:19 20.10.2019
3057 Clouds -1 1003 80 16093 1.1 359.013 10:41 20.10.2019
3058 Clouds -1 1003 80 16093 1.1 359.013 10:22 20.10.2019
3059 Clouds -1 1003 80 16093 1.5 40 09:58 20.10.2019
3060 Clouds -1 1003 80 16093 1.5 40 09:40 20.10.2019
3061 Clouds -1 1003 80 16093 1.5 40 09:21 20.10.2019
3062 Clouds -1 1002 92 16093 1.5 60 08:48 20.10.2019
3063 Clouds -1 1002 92 16093 1.5 60 08:24 20.10.2019
3064 Clouds -1 1002 92 16093 1.31 349.59 07:50 20.10.2019
3065 Clouds -1 1002 92 16093 1.31 349.59 07:30 20.10.2019
3066 Clouds -1 1002 92 16093 1.31 349.59 06:57 20.10.2019
3067 Clouds -1 1002 91 16093 1.3 339.614 06:20 20.10.2019
3068 Clouds 0 1001 59 16093 1.3 339.614 04:28 20.10.2019
3069 Clouds 1 1001 64 16093 1.3 339.614 03:46 20.10.2019
3070 Clouds 1 1001 64 16093 1.29 351.051 03:20 20.10.2019
3071 Clouds 2 1001 51 16093 1.5 60 02:43 20.10.2019
3072 Clouds 2 1001 51 16093 1.29 351.051 01:58 20.10.2019
3073 Clouds 2 1001 51 16093 1.26 349.226 01:24 20.10.2019
3074 Clouds 1 1000 55 16093 1.26 349.226 00:57 20.10.2019
3075 Clouds 1 1000 55 16093 1.26 349.226 00:39 20.10.2019
3076 Clouds 1 1000 55 16093 1.23 15.124 00:19 20.10.2019
3077 Clouds 0 1000 69 16093 1.23 15.124 23:42 19.10.2019
3078 Clouds 0 1000 69 16093 1.23 15.124 23:22 19.10.2019
3079 Clouds 0 1000 69 16093 1.23 15.124 22:57 19.10.2019
3080 Clouds 0 1000 69 16093 1.23 15.124 22:38 19.10.2019
3081 Clouds 0 1000 69 16093 1.23 15.124 22:20 19.10.2019
3082 Clouds -1 1000 80 16093 1.5 160 21:46 19.10.2019
3083 Clouds -1 1000 80 16093 1.5 160 21:23 19.10.2019
3084 Clouds -1 1000 80 16093 2.1 50 20:46 19.10.2019
3085 Clouds -1 1000 80 16093 2.1 50 20:46 19.10.2019
3086 Clouds -2 1000 80 16093 2.1 50 20:23 19.10.2019
3087 Clouds -2 999 79 16093 1.44 14.559 19:59 19.10.2019
3088 Clouds -2 999 79 16093 1.44 14.559 19:40 19.10.2019
3089 Clouds -2 999 79 16093 1.44 14.559 19:22 19.10.2019
3090 Clouds -2 999 79 16093 2.1 20 18:43 19.10.2019
3091 Clouds -2 999 79 16093 2.1 20 18:24 19.10.2019
3092 Clouds -2 999 68 16093 2.1 130 17:57 19.10.2019
3093 Clouds -2 999 68 16093 2.1 130 17:37 19.10.2019
3094 Clouds -2 999 68 16093 2.1 130 17:19 19.10.2019
3095 Clouds -2 999 68 16093 2.1 50 16:39 19.10.2019
3096 Clouds -2 999 68 16093 2.1 50 16:39 19.10.2019
3097 Clouds -2 999 68 16093 2.1 50 16:20 19.10.2019
3098 Clouds -2 998 94 16093 1.5 40 15:57 19.10.2019
3099 Clouds -2 998 94 16093 1.5 40 15:39 19.10.2019
3100 Clouds -2 998 94 16093 1.5 40 15:20 19.10.2019
3101 Clouds -2 998 94 16093 2.1 10 14:38 19.10.2019
3102 Clouds -2 998 94 16093 2.1 10 14:20 19.10.2019
3103 Clouds -1 998 86 16093 1.5 160 13:56 19.10.2019
3104 Clouds -1 998 86 16093 1.5 160 13:38 19.10.2019
3105 Clouds -1 998 59 16093 2.1 20 13:18 19.10.2019
3106 Clouds -1 998 59 16093 2.1 360 12:41 19.10.2019
3107 Clouds -1 998 59 16093 2.1 360 12:22 19.10.2019
3108 Clouds -1 997 90 16093 2.6 20 11:59 19.10.2019
3109 Clouds -1 997 90 16093 2.6 20 11:40 19.10.2019
3110 Clouds -2 997 90 16093 2.6 20 11:22 19.10.2019
3111 Clouds -1 997 86 16093 1.22 23.972 10:42 19.10.2019
3112 Clouds -1 997 90 16093 2.1 40 10:23 19.10.2019
3113 Clouds -1 997 90 11265 0.5 40 09:59 19.10.2019
3114 Clouds -1 997 90 11265 0.5 40 09:41 19.10.2019
3115 Clouds 0 997 92 11265 0.5 40 09:22 19.10.2019
3116 Clouds -1 996 74 16093 2.1 20 08:57 19.10.2019
3117 Clouds -1 996 74 16093 2.1 20 08:39 19.10.2019
3118 Clouds -1 996 74 16093 2.1 20 08:20 19.10.2019
3119 Clouds -2 997 74 11265 0.5 40 07:42 19.10.2019
3120 Clouds -2 997 74 11265 0.5 40 07:23 19.10.2019
3121 Clouds -2 997 74 11265 0.5 40 07:23 19.10.2019
3122 Clouds -1 996 74 11265 0.5 70 06:40 19.10.2019
3123 Clouds 0 996 81 11265 1.5 40 05:55 19.10.2019
3124 Clouds 0 996 81 11265 1.5 40 05:27 19.10.2019
3125 Clouds 2 993 55 16093 1.03 45.869 03:25 19.10.2019
3126 Clouds 2 993 55 16093 1.16 22.881 02:38 19.10.2019
3127 Clouds 2 993 55 16093 1.16 22.881 01:51 19.10.2019
3128 Clouds 2 993 55 16093 1.21 27.053 01:18 19.10.2019
3129 Clouds 2 994 55 11265 0.5 90 00:45 19.10.2019
3130 Clouds 2 994 55 11265 0.5 90 00:22 19.10.2019
3131 Snow 1 992 55 11265 1.5 60 23:41 18.10.2019
3132 Clouds 2 992 55 11265 2.1 60 23:23 18.10.2019
3133 Clouds 1 991 59 11265 1 30 22:55 18.10.2019
3134 Clouds 1 991 59 11265 1 30 22:37 18.10.2019
3135 Clouds 1 991 59 11265 1 30 22:19 18.10.2019
3136 Clouds 0 991 59 11265 1 30 21:56 18.10.2019
3137 Clouds 0 991 59 11265 1 30 21:56 18.10.2019
3138 Clouds 0 991 59 11265 1 30 21:38 18.10.2019
3139 Clouds 0 991 59 11265 1 30 21:19 18.10.2019
3140 Clouds -1 991 86 16093 1.57 35.118 20:54 18.10.2019
3141 Clouds -1 991 86 16093 1.57 35.118 20:36 18.10.2019
3142 Clouds -1 990 59 11265 1.57 35.118 20:18 18.10.2019
3143 Clouds -2 990 74 11265 0.5 60 19:54 18.10.2019
3144 Clouds -2 990 74 11265 0.5 60 19:36 18.10.2019
3145 Clouds -2 990 74 11265 0.5 60 19:18 18.10.2019
3146 Clouds -1 990 71 11265 1.57 35.118 18:42 18.10.2019
3147 Clouds -1 990 75 11265 1.69 32.845 18:23 18.10.2019
3148 Snow -1 990 86 16093 1.5 160 17:57 18.10.2019
3149 Snow -1 990 86 16093 1.5 160 17:38 18.10.2019
3150 Rain -1 989 75 11265 1.69 32.845 17:20 18.10.2019
3151 Rain -1 989 75 11265 1.69 32.845 17:20 18.10.2019
3152 Clouds -1 990 55 16093 2.6 360 16:44 18.10.2019
3153 Clouds -1 990 55 16093 2.6 360 16:44 18.10.2019
3154 Clouds -1 990 55 16093 2.6 360 16:44 18.10.2019
3155 Clouds -1 990 55 16093 2.6 360 16:22 18.10.2019
3156 Clouds -1 990 55 16093 2.1 10 15:59 18.10.2019
3157 Clouds -1 990 55 16093 2.1 10 15:40 18.10.2019
3158 Clouds -1 990 55 16093 2.1 10 15:21 18.10.2019
3159 Clouds -1 990 59 16093 2.1 40 14:58 18.10.2019
3160 Clouds -1 990 59 16093 2.1 40 14:58 18.10.2019
3161 Clouds -1 990 59 16093 2.1 40 14:58 18.10.2019
3162 Clouds -1 990 59 16093 2.1 40 14:58 18.10.2019
3163 Clouds -1 990 59 16093 2.1 40 14:58 18.10.2019
3164 Clouds -1 990 59 16093 2.1 40 14:40 18.10.2019
3165 Clouds -1 990 59 16093 2.1 40 14:22 18.10.2019
3166 Clouds -1 989 59 16093 4.6 10 13:59 18.10.2019
3167 Clouds -1 989 59 16093 4.6 10 13:40 18.10.2019
3168 Clouds -1 989 59 16093 4.6 10 13:22 18.10.2019
3169 Clouds -1 989 55 16093 4.6 360 12:56 18.10.2019
3170 Clouds -1 989 55 16093 4.6 360 12:38 18.10.2019
3171 Clouds -1 989 55 16093 4.6 360 12:38 18.10.2019
3172 Clouds -1 989 55 16093 4.6 360 12:38 18.10.2019
3173 Clouds -1 989 55 16093 4.6 360 12:20 18.10.2019
3174 Clouds -1 989 55 16093 4.6 360 12:20 18.10.2019
3175 Clouds -1 989 55 16093 4.6 360 11:56 18.10.2019
3176 Clouds -1 989 55 16093 4.6 360 11:37 18.10.2019
3177 Clouds -1 989 55 16093 4.6 360 11:18 18.10.2019
3178 Clouds -1 989 55 16093 4.1 360 10:43 18.10.2019
3179 -273 0 0 0 0 0 10:43 18.10.2019
3180 Clouds 0 989 55 16093 4.1 360 10:22 18.10.2019
3181 Clouds 0 990 73 11265 1 290 09:59 18.10.2019
3182 Clouds 0 990 73 11265 1 290 09:40 18.10.2019
3183 Clouds 0 990 72 11265 1 290 09:20 18.10.2019
3184 Clouds 0 989 64 11265 1.5 350 08:58 18.10.2019
3185 Clouds 0 989 64 11265 1.5 350 08:39 18.10.2019
3186 Clouds 0 989 64 11265 1.5 350 08:20 18.10.2019
3187 Clouds 0 988 86 16093 1.73 12.331 07:42 18.10.2019
3188 Clouds -1 988 72 11265 1.5 350 07:21 18.10.2019
3189 Clouds -2 989 74 11265 1.5 340 06:39 18.10.2019
3190 Clouds -2 989 74 11265 1.5 340 06:20 18.10.2019
3191 Clouds -1 989 59 11265 1 70 05:55 18.10.2019
3192 Clouds -1 989 59 11265 1 70 05:22 18.10.2019
3193 Clouds 1 990 48 11265 1.5 100 03:56 18.10.2019
3194 Clouds 1 990 48 11265 1.5 100 03:29 18.10.2019
3195 Clouds 1 989 48 11265 1 260 02:33 18.10.2019
3196 Clouds 0 990 55 11265 0.5 280 01:44 18.10.2019
3197 Clouds 0 990 55 11265 0.5 280 01:26 18.10.2019
3198 Clouds 1 990 51 11265 1 310 00:45 18.10.2019
3199 Clouds 1 990 51 11265 1 310 00:21 18.10.2019
3200 Clouds 0 988 57 11265 1.5 330 23:55 17.10.2019
3201 Clouds 0 988 57 11265 1.5 330 23:36 17.10.2019
3202 Clouds 0 988 57 11265 1.5 330 23:18 17.10.2019
3203 Clouds -2 989 63 11265 1.5 40 22:54 17.10.2019
3204 Clouds -2 989 63 11265 1.5 40 22:36 17.10.2019
3205 -273 0 0 0 0 0 22:18 17.10.2019
3206 Clouds -3 989 63 11265 2.1 50 21:55 17.10.2019
3207 Clouds -3 989 63 11265 2.1 50 21:55 17.10.2019
3208 Clouds -3 989 63 11265 2.1 50 21:37 17.10.2019
3209 Clouds -4 988 63 16093 3.1 50 21:19 17.10.2019
3210 Clouds -4 989 68 11265 3.6 30 20:56 17.10.2019
3211 Clouds -4 989 68 11265 3.6 30 20:37 17.10.2019
3212 Clouds -5 989 68 11265 3.6 30 20:18 17.10.2019
3213 Clouds -5 989 68 11265 2.6 40 19:42 17.10.2019
3214 Clouds -5 988 62 16093 3.1 10 19:20 17.10.2019
3215 Clouds -5 988 68 11265 1 40 18:59 17.10.2019
3216 Clouds -5 988 68 11265 1 40 18:39 17.10.2019
3217 Clouds -5 988 68 11265 1 40 18:20 17.10.2019
3218 Clouds -6 988 62 16093 3.6 30 17:43 17.10.2019
3219 Clouds -6 988 62 11265 1.5 50 17:25 17.10.2019
3220 Clouds -6 988 67 16093 3.1 10 16:59 17.10.2019
3221 Clouds -6 988 67 16093 3.1 10 16:41 17.10.2019
3222 Clouds -6 988 67 16093 3.1 10 16:19 17.10.2019
3223 Clouds -6 989 67 16093 3.1 20 15:57 17.10.2019
3224 Clouds -6 989 67 16093 3.1 20 15:38 17.10.2019
3225 Clouds -7 989 67 16093 3.1 20 15:20 17.10.2019
3226 Clouds -7 989 67 16093 3.1 40 14:56 17.10.2019
3227 Clouds -7 989 67 16093 3.1 40 14:38 17.10.2019
3228 Clouds -7 989 67 16093 3.1 40 14:19 17.10.2019
3229 Clouds -7 989 67 16093 2.1 40 13:39 17.10.2019
3230 Clouds -8 989 67 16093 2.1 40 13:20 17.10.2019
3231 Clouds -7 989 67 16093 2.6 40 12:57 17.10.2019
3232 Clouds -7 989 67 16093 2.6 40 12:37 17.10.2019
3233 Clouds -7 989 67 16093 2.6 40 12:19 17.10.2019
3234 Clouds -7 989 67 16093 3.6 10 11:42 17.10.2019
3235 Clouds -7 989 67 16093 3.6 10 11:42 17.10.2019
3236 Clouds -7 989 67 16093 3.6 10 11:22 17.10.2019
3237 Clouds -7 990 67 16093 3.1 10 10:59 17.10.2019
3238 Clouds -7 990 67 16093 3.1 10 10:41 17.10.2019
3239 Clouds -6 990 67 16093 3.1 10 10:19 17.10.2019
3240 Clouds -6 990 62 11265 1.5 70 09:56 17.10.2019
3241 Clouds -6 990 62 11265 1.5 70 09:38 17.10.2019
3242 Clouds -6 990 62 11265 1.5 70 09:19 17.10.2019
3243 Clouds -6 990 67 16093 2.6 40 08:48 17.10.2019
3244 Clouds -5 990 67 16093 2.6 40 08:27 17.10.2019
3245 Clouds -5 990 62 16093 3.6 70 07:59 17.10.2019
3246 Clouds -5 990 58 11265 1 40 07:41 17.10.2019
3247 Clouds -4 990 58 11265 1 40 07:21 17.10.2019
3248 Clouds -4 990 58 11265 1 40 07:21 17.10.2019
3249 Clouds -4 990 63 16093 3.6 60 06:51 17.10.2019
3250 Clouds -4 990 63 16093 3.6 60 06:31 17.10.2019
3251 Clouds -3 990 54 11265 2.6 40 05:59 17.10.2019
3252 Clouds -3 990 54 11265 2.6 40 05:37 17.10.2019
3253 Clouds -3 990 58 16093 3.6 80 05:19 17.10.2019
3254 Clouds -2 991 47 11265 1.5 40 04:45 17.10.2019
3255 Clouds 0 991 48 11265 3.1 70 03:45 17.10.2019
3256 Clouds 0 991 47 16093 4.1 80 01:57 17.10.2019
3257 Clouds 0 992 47 16093 4.1 60 00:42 17.10.2019
3258 Clouds 0 992 47 16093 4.1 60 00:21 17.10.2019
3259 Clouds -1 992 50 11265 3.6 60 23:59 16.10.2019
3260 Clouds -1 992 50 11265 3.6 60 23:40 16.10.2019
3261 Clouds -1 992 50 11265 3.6 60 23:18 16.10.2019
3262 Clouds -3 992 54 11265 4.6 50 22:54 16.10.2019
3263 Clouds -2 992 54 11265 4.6 50 22:36 16.10.2019
3264 Clouds -3 992 54 11265 4.6 50 22:18 16.10.2019
3265 Clouds -4 993 62 11265 3.1 50 21:54 16.10.2019
3266 Clouds -4 993 62 11265 3.1 50 21:54 16.10.2019
3267 Clouds -4 993 62 11265 3.1 50 21:36 16.10.2019
3268 Clouds -5 993 62 11265 3.1 50 21:18 16.10.2019
3269 Clouds -6 993 67 11265 2.1 60 20:56 16.10.2019
3270 Clouds -6 993 67 11265 2.1 60 20:37 16.10.2019
3271 Clouds -6 993 67 11265 2.1 60 20:37 16.10.2019
3272 Clouds -7 993 67 11265 2.1 60 20:19 16.10.2019
3273 Clouds -8 993 78 11265 1 350 19:40 16.10.2019
3274 Clouds -8 993 78 11265 1 350 19:40 16.10.2019
3275 Clouds -8 993 78 11265 1 350 19:21 16.10.2019
3276 Clouds -8 994 78 16093 1.882 31 18:58 16.10.2019
3277 Clouds -8 994 78 16093 1.882 31 18:58 16.10.2019
3278 Clouds -7 994 78 16093 1.882 31 18:38 16.10.2019
3279 Clouds -8 994 78 16093 1.123 43 18:18 16.10.2019
3280 Clouds -8 994 78 16093 1.123 43 18:18 16.10.2019
3281 Clear -8 994 57 11265 1.123 43 17:56 16.10.2019
3282 Clear -8 994 57 11265 1.123 43 17:37 16.10.2019
3283 Clear -7 994 57 11265 1.123 43 17:19 16.10.2019
3284 Clear -8 994 85 16093 1.5 330 16:57 16.10.2019
3285 Clear -8 994 85 16093 1.5 330 16:38 16.10.2019
3286 Clouds -7 995 78 16093 1.123 43 16:20 16.10.2019
3287 Clouds -7 995 78 16093 1.123 43 15:41 16.10.2019
3288 Clouds -7 995 78 16093 1.123 43 15:41 16.10.2019
3289 Clouds -6 995 67 16093 1.51 34 15:19 16.10.2019
3290 Clouds -6 995 67 16093 1.51 34 14:59 16.10.2019
3291 Clouds -6 995 67 16093 1.51 34 14:41 16.10.2019
3292 Clouds -6 995 67 16093 1.433 35 14:23 16.10.2019
3293 Clouds -6 995 67 16093 1.433 35 13:59 16.10.2019
3294 Clouds -6 995 73 16093 1.5 40 13:41 16.10.2019
3295 Clouds -6 995 73 16093 1.5 40 13:22 16.10.2019
3296 Clouds -5 995 58 16093 1.433 35 12:44 16.10.2019
3297 Clouds -5 995 58 16093 1.951 41 12:20 16.10.2019
3298 Clouds -5 995 58 16093 1.951 41 11:59 16.10.2019
3299 Clouds -5 995 62 16093 2.6 50 11:41 16.10.2019
3300 Clouds -4 995 62 16093 2.6 50 11:18 16.10.2019
3301 Clouds -4 995 53 16093 2.6 60 10:37 16.10.2019
3302 Clouds -4 995 53 16093 2.6 60 10:19 16.10.2019
3303 Clouds -4 995 53 16093 3.1 50 09:41 16.10.2019
3304 Clouds -4 995 53 16093 3.1 50 09:22 16.10.2019
3305 Clouds -4 995 53 16093 3.1 50 08:58 16.10.2019
3306 Clouds -3 995 54 11265 1 40 08:40 16.10.2019
3307 Clouds -3 995 54 11265 1 40 08:22 16.10.2019
3308 Clouds -3 995 50 11265 2.1 40 07:45 16.10.2019
3309 -273 0 0 0 0 0 07:24 16.10.2019
3310 Clouds -2 995 50 16093 3.1 70 06:56 16.10.2019
3311 Clouds -2 995 46 11265 2.1 40 06:35 16.10.2019
3312 Clouds -2 995 46 16093 3.1 80 05:39 16.10.2019
3313 Clouds 0 995 34 16093 6.2 90 02:57 16.10.2019
3314 Clouds 0 995 34 16093 6.2 90 02:37 16.10.2019
3315 Clouds 0 995 34 16093 3.6 90 01:18 16.10.2019
3316 Rain 0 996 37 16093 4.1 70 00:46 16.10.2019
3317 Rain 0 996 37 16093 4.1 70 00:27 16.10.2019
3318 Clouds -1 997 46 11265 2.6 50 23:40 15.10.2019
3319 Clouds -1 997 46 11265 2.6 50 23:22 15.10.2019
3320 Clouds -2 997 49 11265 2.6 50 22:56 15.10.2019
3321 Clouds -3 997 49 11265 2.6 50 22:38 15.10.2019
3322 Clouds -3 997 49 11265 2.6 50 22:19 15.10.2019
3323 Clouds -5 997 49 16093 3.6 30 21:56 15.10.2019
3324 Clouds -5 997 57 11265 2.1 30 21:38 15.10.2019
3325 Clouds -5 997 57 11265 2.1 30 21:19 15.10.2019
3326 Clouds -6 998 53 16093 3.1 50 20:57 15.10.2019
3327 Clouds -7 997 53 11265 1.5 60 20:39 15.10.2019
3328 Clouds -8 997 53 11265 1.5 60 20:20 15.10.2019
3329 Clouds -8 997 53 11265 1.5 60 20:20 15.10.2019
3330 Clouds -8 998 67 16093 2.6 40 19:58 15.10.2019
3331 Clouds -9 1000 57 11265 2.1 50 19:40 15.10.2019
3332 Clouds -9 1000 57 11265 2.1 50 19:19 15.10.2019
3333 Clouds -8 1000 72 11265 1 80 18:47 15.10.2019
3334 Clouds -8 1000 72 11265 1 80 18:29 15.10.2019
3335 Clear -8 1000 67 11265 1 100 17:59 15.10.2019
3336 Clear -9 1000 67 11265 1 100 17:39 15.10.2019
3337 Clear -8 1000 67 11265 1 100 17:20 15.10.2019
3338 Clear -7 1001 62 16093 4.6 50 16:55 15.10.2019
3339 Clear -7 1001 62 16093 4.6 50 16:37 15.10.2019
3340 Clear -7 1001 62 16093 4.6 50 16:19 15.10.2019
3341 Clear -8 1000 58 16093 4.1 70 15:42 15.10.2019
3342 Clear -8 1002 62 16093 5.1 30 15:20 15.10.2019
3343 Clear -8 1002 62 16093 5.1 30 14:58 15.10.2019
3344 Clear -8 1002 67 16093 4.1 30 14:38 15.10.2019
3345 Clear -8 1002 67 16093 4.1 30 14:20 15.10.2019
3346 Clear -7 1002 67 16093 4.1 30 13:55 15.10.2019
3347 Clear -7 1002 85 16093 6.7 60 13:37 15.10.2019
3348 Clear -7 1003 67 16093 2.6 30 13:18 15.10.2019
3349 Clear -8 1004 62 16093 3.6 50 12:41 15.10.2019
3350 Clear -8 1004 62 16093 3.6 50 12:21 15.10.2019
3351 Clear -7 1005 67 16093 3.1 30 11:56 15.10.2019
3352 Clear -7 1005 67 16093 3.1 30 11:37 15.10.2019
3353 Clear -7 1005 67 16093 3.1 30 11:18 15.10.2019
3354 Clear -6 1006 62 16093 3.6 60 10:43 15.10.2019
3355 Clear -6 1006 62 16093 3.6 60 10:19 15.10.2019
3356 Clear -6 1006 62 16093 3.6 60 09:57 15.10.2019
3357 Clear -6 1006 67 16093 3.6 50 09:37 15.10.2019
3358 Clear -6 1006 67 16093 3.6 50 09:37 15.10.2019
3359 Clear -6 1006 67 16093 3.6 50 09:19 15.10.2019
3360 Clear -5 1007 62 16093 3.1 60 08:43 15.10.2019
3361 Clear -5 1007 62 16093 3.1 60 08:22 15.10.2019
3362 Clear -5 1007 62 16093 3.1 60 08:22 15.10.2019
3363 Clear -5 1007 62 16093 3.1 60 07:58 15.10.2019
3364 Clear -4 1008 58 16093 3.6 70 07:39 15.10.2019
3365 Clear -4 1008 58 16093 3.6 70 07:20 15.10.2019
3366 Clear -3 1009 58 16093 2.6 70 06:45 15.10.2019
3367 Clear -3 1009 58 16093 2.6 70 06:26 15.10.2019
3368 Clouds -3 1009 58 16093 2.1 70 05:41 15.10.2019
3369 Clouds -2 1009 58 16093 2.1 70 05:23 15.10.2019
3370 Clouds -2 1010 69 16093 2.6 70 04:32 15.10.2019
3371 Clouds -1 1011 47 16093 4.1 90 03:37 15.10.2019
3372 Clouds 0 1012 47 16093 4.1 70 02:42 15.10.2019
3373 Clear -1 1012 63 16093 2.1 70 01:49 15.10.2019
3374 Clear 0 1013 43 16093 5.1 90 01:22 15.10.2019
3375 Clear -1 1013 43 16093 4.1 70 00:49 15.10.2019
3376 Clear -1 1013 41 16093 4.1 70 00:22 15.10.2019
3377 Clear -2 1014 50 16093 4.6 70 23:45 14.10.2019
3378 Clear -2 1014 50 16093 4.6 70 23:20 14.10.2019
3379 Clear -3 1015 58 16093 5.7 80 22:58 14.10.2019
3380 Clear -4 1015 58 16093 5.7 80 22:38 14.10.2019
3381 Clear -4 1015 58 16093 5.7 80 22:19 14.10.2019
3382 Clear -4 1015 58 16093 5.7 80 21:56 14.10.2019
3383 Clear -5 1015 73 16093 3.1 50 21:37 14.10.2019
3384 Clear -6 1015 73 16093 3.1 50 21:19 14.10.2019
3385 Clear -6 1016 79 16093 2.6 50 20:55 14.10.2019
3386 Clear -6 1016 79 16093 2.6 50 20:36 14.10.2019
3387 Clear -6 1016 79 16093 2.6 50 20:18 14.10.2019
3388 Clear -7 1016 78 16093 2.6 40 19:41 14.10.2019
3389 Clear -8 1016 78 16093 2.6 40 19:23 14.10.2019
3390 Clear -8 1016 78 16093 2.6 40 18:58 14.10.2019
3391 Clear -8 1017 78 16093 3.1 40 18:39 14.10.2019
3392 Clear -8 1017 78 16093 3.1 40 18:39 14.10.2019
3393 Clear -7 1017 78 16093 3.1 40 18:19 14.10.2019
3394 Clear -7 1017 78 16093 3.1 40 18:19 14.10.2019
3395 Clear -7 1017 73 16093 2.6 40 17:57 14.10.2019
3396 Clear -7 1017 73 16093 2.6 40 17:38 14.10.2019
3397 Clear -7 1017 73 16093 2.6 40 17:20 14.10.2019
3398 Clear -7 1018 73 16093 3.6 40 16:44 14.10.2019
3399 Clear -7 1018 73 16093 3.6 40 16:21 14.10.2019
3400 Clear -6 1018 73 16093 3.1 50 15:44 14.10.2019
3401 Clear -6 1018 73 16093 3.1 50 15:25 14.10.2019
3402 Clear -6 1018 85 16093 2.6 60 14:58 14.10.2019
3403 Clear -6 1018 85 16093 2.6 60 14:39 14.10.2019
3404 Clear -6 1018 85 16093 2.6 60 14:20 14.10.2019
3405 Clear -6 1019 73 16093 2.6 30 13:44 14.10.2019
3406 Clear -6 1019 73 16093 2.6 30 13:22 14.10.2019
3407 Clear -6 1019 73 16093 3.1 70 12:56 14.10.2019
3408 Clear -6 1019 73 16093 3.1 70 12:56 14.10.2019
3409 Clear -6 1019 73 16093 3.1 70 12:37 14.10.2019
3410 Clear -6 1019 73 16093 3.1 70 12:18 14.10.2019
3411 Clouds -6 1019 73 16093 3.1 70 11:45 14.10.2019
3412 Clouds -5 1019 73 16093 3.1 70 11:26 14.10.2019
3413 Clouds -5 1020 73 16093 2.6 60 10:57 14.10.2019
3414 Clouds -5 1020 73 16093 2.6 60 10:38 14.10.2019
3415 Clear -5 1019 79 16093 2.1 110 10:20 14.10.2019
3416 Clear -5 1020 85 16093 2.1 40 09:54 14.10.2019
3417 Clear -5 1020 85 16093 2.1 40 09:36 14.10.2019
3418 Clear -5 1020 85 16093 2.1 40 09:18 14.10.2019
3419 Clouds -4 1020 79 16093 1.69 34.255 08:42 14.10.2019
3420 Clouds -4 1020 79 16093 1.69 34.255 08:20 14.10.2019
3421 Clouds -3 1020 63 16093 3.6 90 07:41 14.10.2019
3422 Clouds -3 1020 63 16093 3.6 90 07:41 14.10.2019
3423 Clouds -3 1020 63 16093 3.6 90 07:18 14.10.2019
3424 Clouds -3 1021 68 16093 3.1 60 06:38 14.10.2019
3425 Clouds -2 1021 68 16093 3.1 60 06:20 14.10.2019
3426 Clouds -2 1021 68 16093 3.1 80 05:46 14.10.2019
3427 Clouds -2 1021 68 16093 4.6 120 04:42 14.10.2019
3428 Snow -2 1021 74 16093 1.5 100 03:27 14.10.2019
3429 Snow -2 1021 86 16093 1.35 104.48 02:42 14.10.2019
3430 Clouds -2 1021 86 16093 1.5 140 01:23 14.10.2019
3431 Clouds -2 1021 79 16093 1.34 101.184 00:53 14.10.2019
3432 Clouds -2 1022 80 16093 0.96 79.711 00:19 14.10.2019
3433 Clouds -2 1022 86 16093 0.96 79.711 23:45 13.10.2019
3434 Clouds -2 1021 92 16093 0.96 79.711 23:20 13.10.2019
3435 Snow -2 1021 86 16093 1.5 240 22:58 13.10.2019
3436 Snow -2 1021 86 16093 1.5 240 22:40 13.10.2019
3437 Snow -2 1021 86 16093 1.5 240 22:21 13.10.2019
3438 Clouds -3 1021 86 14484 2.1 200 21:58 13.10.2019
3439 Clouds -3 1021 86 14484 2.1 200 21:37 13.10.2019
3440 Clouds -3 1021 92 14484 2.1 220 21:19 13.10.2019
3441 Clouds -3 1021 92 14484 2.1 220 21:19 13.10.2019
3442 Clouds -3 1021 92 16093 1.5 220 20:57 13.10.2019
3443 Clouds -3 1021 92 16093 1.5 220 20:38 13.10.2019
3444 Clouds -3 1021 92 16093 1.5 200 20:20 13.10.2019
3445 -273 0 0 0 0 0 19:58 13.10.2019
3446 Clouds -3 1021 92 16093 0.73 70.969 19:39 13.10.2019
3447 Clouds -3 1021 92 16093 0.73 70.969 19:21 13.10.2019
3448 Snow -3 1021 86 16093 3.1 240 18:57 13.10.2019
3449 Snow -3 1021 86 16093 3.1 240 18:57 13.10.2019
3450 Snow -3 1021 86 16093 3.1 240 18:37 13.10.2019
3451 Clouds -3 1021 86 16093 2.6 250 18:19 13.10.2019
3452 Clouds -3 1021 86 16093 3.6 250 17:57 13.10.2019
3453 Clouds -3 1021 86 16093 3.6 250 17:38 13.10.2019
3454 Clouds -3 1021 86 16093 2.6 240 17:20 13.10.2019
3455 Clouds -3 1020 86 16093 1.5 220 16:41 13.10.2019
3456 Clouds -3 1021 86 16093 3.6 210 16:18 13.10.2019
3457 Clouds -3 1021 92 16093 2.6 210 15:57 13.10.2019
3458 Clouds -3 1021 92 16093 2.6 210 15:38 13.10.2019
3459 Clouds -3 1021 92 16093 2.6 210 15:18 13.10.2019
3460 Clouds -3 1021 92 16093 3.6 230 14:57 13.10.2019
3461 Clouds -3 1021 92 16093 3.6 230 14:38 13.10.2019
3462 Clouds -3 1021 92 16093 3.1 210 14:19 13.10.2019
3463 Clouds -3 1021 92 16093 3.6 210 13:41 13.10.2019
3464 Snow -2 1021 80 16093 2.6 220 13:23 13.10.2019
3465 Clouds -2 1021 86 16093 1.01 156.13 12:59 13.10.2019
3466 Clouds -2 1021 86 16093 1.01 156.13 12:39 13.10.2019
3467 Clouds -2 1022 80 16093 2.1 200 12:21 13.10.2019
3468 Clouds -2 1022 80 16093 3.1 240 11:58 13.10.2019
3469 Clouds -2 1022 80 16093 3.1 240 11:39 13.10.2019
3470 Clouds -2 1022 80 16093 3.1 240 11:20 13.10.2019
3471 Clouds -2 1022 86 16093 3.1 200 10:57 13.10.2019
3472 Clouds -2 1022 86 16093 3.1 200 10:38 13.10.2019
3473 Clouds -2 1022 86 16093 3.1 200 10:20 13.10.2019
3474 Clouds -2 1022 86 16093 2.6 180 09:39 13.10.2019
3475 Clouds -3 1022 86 16093 2.6 180 09:21 13.10.2019
3476 Clouds -3 1022 92 16093 1.5 220 08:45 13.10.2019
3477 Clouds -3 1022 92 16093 1.5 220 08:26 13.10.2019
3478 Clouds -3 1023 100 16093 0.97 173.765 07:52 13.10.2019
3479 Clouds -3 1023 100 16093 0.97 173.765 07:33 13.10.2019
3480 -273 0 0 0 0 0 06:54 13.10.2019
3481 Clouds -3 1022 92 16093 0.97 173.765 06:54 13.10.2019
3482 Clouds -3 1022 92 16093 1.1 188.559 06:24 13.10.2019
3483 Clouds -3 1022 92 16093 0.97 173.765 06:24 13.10.2019
3484 Clouds -3 1022 92 16093 1.1 188.559 06:24 13.10.2019
3485 Clear -3 1022 92 16093 1.5 60 05:27 13.10.2019
3486 Clouds -2 1022 86 16093 2.1 170 04:35 13.10.2019
3487 Clear -1 1022 80 16093 3.6 180 03:34 13.10.2019
3488 Clear 0 1022 80 16093 3.1 210 02:31 13.10.2019
3489 Clear 0 1022 80 16093 3.1 210 02:31 13.10.2019
3490 Clear 1 1022 69 16093 2.6 200 01:37 13.10.2019
3491 Clouds 1 1022 69 16093 3.6 200 00:56 13.10.2019
3492 Clouds 1 1022 69 16093 3.6 200 00:38 13.10.2019
3493 Clouds 1 1022 69 16093 3.6 200 00:19 13.10.2019
3494 Clouds 0 1021 86 16093 0.79 216.957 23:42 12.10.2019
3495 Clouds 0 1021 86 16093 0.79 216.957 23:42 12.10.2019
3496 Clouds 0 1021 69 16093 2.1 270 23:23 12.10.2019
3497 Clouds 0 1021 66 16093 1.5 230 22:59 12.10.2019
3498 Clouds 0 1021 66 16093 1.5 230 22:40 12.10.2019
3499 Clouds -1 1021 66 16093 1.5 230 22:22 12.10.2019
3500 Clouds -1 1020 86 16093 2.1 230 21:58 12.10.2019
3501 Clouds -1 1020 86 16093 2.1 230 21:40 12.10.2019
3502 Clouds -1 1020 86 16093 2.1 230 21:40 12.10.2019
3503 Clouds -1 1020 86 16093 2.1 230 21:40 12.10.2019
3504 Clouds -1 1020 86 16093 2.1 230 21:21 12.10.2019
3505 Clouds -2 1019 86 16093 1.5 240 20:54 12.10.2019
3506 Clouds -2 1019 86 16093 1.5 240 20:54 12.10.2019
3507 Clouds -2 1019 86 16093 1.5 240 20:36 12.10.2019
3508 Clouds -2 1019 86 16093 1.5 240 20:18 12.10.2019
3509 Clouds -2 1019 86 16093 3.1 230 19:36 12.10.2019
3510 Clouds -2 1019 86 16093 3.1 230 19:18 12.10.2019
3511 Clouds -2 1018 80 16093 2.1 260 18:43 12.10.2019
3512 Clouds -2 1018 80 16093 2.1 260 18:24 12.10.2019
3513 Clouds -2 1018 86 16093 0.44 336.87 17:46 12.10.2019
3514 Clouds -2 1017 80 16093 0.44 336.87 17:22 12.10.2019
3515 Clouds -2 1017 88 16093 3.1 270 16:59 12.10.2019
3516 Clouds -2 1017 88 16093 3.1 270 16:40 12.10.2019
3517 Clouds -2 1017 88 16093 3.1 270 16:40 12.10.2019
3518 Clouds -2 1017 88 16093 3.1 270 16:21 12.10.2019
3519 Clouds -1 1016 69 16093 2.6 290 15:56 12.10.2019
3520 Clouds -1 1016 69 16093 2.6 290 15:37 12.10.2019
3521 Clouds -1 1016 69 16093 2.6 290 15:18 12.10.2019
3522 Clouds -1 1015 69 16093 2.6 290 14:40 12.10.2019
3523 Clouds -1 1015 69 16093 2.6 290 14:20 12.10.2019
3524 Clouds -1 1015 87 16093 2.6 260 13:51 12.10.2019
3525 Clouds -1 1015 86 16093 2.6 260 13:32 12.10.2019
3526 Clouds -1 1014 92 16093 3.6 260 12:56 12.10.2019
3527 Clouds -1 1014 92 16093 3.6 260 12:38 12.10.2019
3528 Clouds -1 1014 92 16093 3.6 260 12:38 12.10.2019
3529 Clouds -1 1014 86 16093 3.1 280 12:20 12.10.2019
3530 Clouds -1 1014 86 16093 3.1 280 12:20 12.10.2019
3531 Clouds -1 1013 86 16093 4.1 280 11:45 12.10.2019
3532 Snow -1 1013 80 16093 3.1 280 11:24 12.10.2019
3533 Snow 0 1013 74 14484 2.6 280 10:58 12.10.2019
3534 Snow 0 1013 74 14484 2.6 280 10:39 12.10.2019
3535 Snow 0 1012 86 14484 2.6 280 10:20 12.10.2019
3536 Clouds -1 1012 86 14484 3.6 290 09:57 12.10.2019
3537 Clouds -1 1012 86 14484 3.6 290 09:57 12.10.2019
3538 Clouds -1 1012 80 16093 4.1 300 09:38 12.10.2019
3539 Clouds -1 1012 80 16093 4.1 300 09:19 12.10.2019
3540 Clouds -1 1012 80 16093 4.1 300 09:19 12.10.2019
3541 Clouds 0 1011 86 14484 3.6 290 08:44 12.10.2019
3542 Clouds 0 1011 86 14484 3.6 290 08:44 12.10.2019
3543 Snow 0 1011 86 14484 4.1 280 08:24 12.10.2019
3544 Snow 0 1011 86 11265 4.6 280 07:57 12.10.2019
3545 Snow 0 1010 80 14484 3.6 290 07:31 12.10.2019
3546 Snow 0 1009 86 11265 3.6 310 06:28 12.10.2019
3547 Snow 0 1009 86 11265 2.6 310 05:43 12.10.2019
3548 Snow 0 1008 74 11265 4.1 330 04:34 12.10.2019
3549 Snow 0 1007 69 14484 3.1 320 03:54 12.10.2019
3550 Snow 1 1006 73 4023 4.1 270 02:50 12.10.2019
3551 Snow 0 1005 74 16093 3.6 300 01:33 12.10.2019
3552 Snow 0 1005 73 1609 4.6 270 00:55 12.10.2019
3553 Snow 0 1005 80 16093 3.6 280 00:37 12.10.2019
3554 Snow 0 1005 80 14484 3.1 330 23:55 11.10.2019
3555 Snow 0 1005 80 14484 3.6 340 23:36 11.10.2019
3556 Snow 0 1005 80 14484 3.6 340 23:18 11.10.2019
3557 Snow 0 1005 80 16093 3.6 340 22:38 11.10.2019
3558 Snow 0 1005 80 14484 3.1 320 22:19 11.10.2019
3559 Snow 0 1004 80 14484 4.1 310 21:43 11.10.2019
3560 Snow 0 1004 80 12874 3.1 330 21:22 11.10.2019
3561 Snow 0 1004 80 12874 4.1 320 20:59 11.10.2019
3562 Snow 0 1004 80 12874 4.1 320 20:41 11.10.2019
3563 Snow 0 1004 80 14484 3.6 320 20:23 11.10.2019
3564 Snow -1 1003 85 4828 4.6 290 19:55 11.10.2019
3565 Snow -1 1003 85 4828 4.6 290 19:37 11.10.2019
3566 Snow -1 1004 86 14484 2.6 320 19:18 11.10.2019
3567 Snow -1 1004 86 14484 2.6 320 19:18 11.10.2019
3568 Snow -1 1004 86 14484 2.6 320 19:18 11.10.2019
3569 Snow -1 1004 86 14484 2.6 320 19:18 11.10.2019
3570 Snow -1 1004 86 14484 2.6 320 19:18 11.10.2019
3571 Snow 0 1005 86 11265 3.6 320 18:56 11.10.2019
3572 Snow 0 1004 74 9656 4.6 340 18:37 11.10.2019
3573 Snow 0 1005 86 14484 3.1 320 18:18 11.10.2019
3574 Snow 0 1004 86 14484 3.1 320 17:55 11.10.2019
3575 Snow 0 1004 86 14484 3.1 320 17:36 11.10.2019
3576 Snow 0 1004 80 4023 4.6 340 17:18 11.10.2019
3577 Snow 0 1003 92 6437 4.1 300 16:40 11.10.2019
3578 Snow 0 1004 92 12874 3.1 320 16:20 11.10.2019
3579 Snow 0 1004 92 12874 3.1 320 16:20 11.10.2019
3580 Snow 0 1004 92 14484 2.6 300 15:58 11.10.2019
3581 Snow 1 1004 92 14484 2.6 300 15:38 11.10.2019
3582 Snow 1 1005 94 14484 2.6 310 15:19 11.10.2019
3583 Rain 1 1005 94 14484 3.6 340 14:47 11.10.2019
3584 Rain 1 1005 94 14484 3.6 340 14:29 11.10.2019
3585 Snow 1 1005 94 14484 3.1 330 13:56 11.10.2019
3586 Snow 1 1005 94 14484 3.1 330 13:37 11.10.2019
3587 Rain 1 1005 93 16093 2.1 330 13:19 11.10.2019
3588 Snow 1 1005 93 16093 1.5 340 12:54 11.10.2019
3589 Snow 1 1005 93 16093 1.94 328.449 12:36 11.10.2019
3590 Snow 1 1005 93 16093 1.62 332.488 12:18 11.10.2019
3591 Snow 1 1006 93 11265 2.6 20 11:41 11.10.2019
3592 Rain 1 1006 93 11265 2.6 20 11:22 11.10.2019
3593 Snow 1 1006 93 11265 1.62 332.488 10:56 11.10.2019
3594 Snow 1 1006 93 11265 1.62 332.488 10:38 11.10.2019
3595 Rain 1 1006 93 12874 1.5 340 10:20 11.10.2019
3596 Rain 1 1005 97 16093 1.62 332.488 09:55 11.10.2019
3597 Rain 1 1005 97 16093 1.79 326.905 09:37 11.10.2019
3598 Snow 1 1006 93 16093 1.5 330 09:18 11.10.2019
3599 Snow 1 1006 93 16093 1.5 330 09:18 11.10.2019
3600 Rain 1 1007 93 16093 1.5 320 08:54 11.10.2019
3601 Rain 1 1007 93 16093 1.5 320 08:36 11.10.2019
3602 Rain 1 1007 93 16093 1.5 320 08:18 11.10.2019
3603 Rain 1 1006 93 12874 2.1 320 07:41 11.10.2019
3604 Rain 1 1007 100 11265 1.51 331.928 07:22 11.10.2019
3605 Rain 2 1006 86 16093 3.1 360 06:47 11.10.2019
3606 Rain 2 1007 100 11265 1.26 339.081 06:22 11.10.2019
3607 Rain 2 1007 93 14484 1.26 339.081 05:37 11.10.2019
3608 Rain 2 1007 100 14484 1.26 339.081 04:59 11.10.2019
3609 Rain 2 1007 93 14484 2.6 350 04:24 11.10.2019
3610 Rain 2 1008 100 8047 1.5 130 02:19 11.10.2019
3611 Rain 2 1008 97 4828 1.21 333.923 00:43 11.10.2019
3612 Rain 2 1008 93 8047 1.2 324.412 00:25 11.10.2019
3613 Rain 2 1008 100 8047 1.2 324.412 23:43 10.10.2019
3614 Rain 2 1008 100 8047 1.2 324.412 23:21 10.10.2019
3615 Rain 2 1008 100 8047 1.2 324.412 22:57 10.10.2019
3616 Rain 2 1008 100 8047 1.2 324.412 22:38 10.10.2019
3617 Rain 2 1008 100 8047 1.2 324.412 22:20 10.10.2019
3618 Rain 2 1009 100 9656 1.2 324.412 21:56 10.10.2019
3619 Rain 2 1009 100 9656 1.2 324.412 21:56 10.10.2019
3620 Rain 2 1009 100 9656 1.2 324.412 21:56 10.10.2019
3621 Rain 2 1009 100 9656 1.2 324.412 21:38 10.10.2019
3622 Rain 2 1009 100 9656 1.03 347.994 21:20 10.10.2019
3623 Rain 2 1009 93 14484 1.5 120 20:42 10.10.2019
3624 Rain 2 1009 93 16093 0.78 350.381 20:21 10.10.2019
3625 Rain 2 1009 93 9656 1.5 360 19:58 10.10.2019
3626 Rain 2 1009 93 9656 1.5 360 19:40 10.10.2019
3627 Rain 2 1009 93 9656 1.5 360 19:20 10.10.2019
3628 Rain 2 1009 93 9656 1.5 360 19:20 10.10.2019
3629 Rain 1 1010 100 11265 1.5 310 18:57 10.10.2019
3630 Rain 2 1010 93 11265 1.5 310 18:38 10.10.2019
3631 Rain 2 1010 93 11265 1.5 310 18:19 10.10.2019
3632 Rain 2 1011 100 16093 0.73 340.184 17:54 10.10.2019
3633 Clouds 1 1011 100 16093 0.73 340.184 17:36 10.10.2019
3634 Rain 2 1011 93 16093 0.73 340.184 17:18 10.10.2019
3635 Rain 2 1011 93 11265 1.5 310 16:41 10.10.2019
3636 Rain 2 1011 100 11265 1.5 310 16:22 10.10.2019
3637 Rain 2 1011 100 11265 0.73 340.184 15:44 10.10.2019
3638 Rain 2 1011 100 11265 1.5 320 15:25 10.10.2019
3639 Rain 1 1011 93 16093 3.1 310 14:59 10.10.2019
3640 Rain 2 1011 93 16093 3.1 310 14:38 10.10.2019
3641 Rain 2 1012 86 6437 0.02 217.405 14:19 10.10.2019
3642 Rain 2 1012 100 12874 0.02 217.405 13:59 10.10.2019
3643 Rain 2 1012 100 12874 0.02 217.405 13:59 10.10.2019
3644 Rain 2 1012 100 12874 0.02 217.405 13:41 10.10.2019
3645 Rain 2 1012 100 12874 0.72 22.202 13:20 10.10.2019
3646 Rain 2 1012 100 12874 0.72 22.202 12:57 10.10.2019
3647 Rain 2 1013 100 11265 0.72 22.202 12:39 10.10.2019
3648 Rain 2 1013 100 11265 0.55 83.442 12:19 10.10.2019
3649 Rain 2 1013 100 9656 0.55 83.442 11:55 10.10.2019
3650 Rain 2 1013 100 9656 0.55 83.442 11:37 10.10.2019
3651 Rain 2 1013 100 11265 0.55 83.442 11:18 10.10.2019
3652 Snow 2 1014 100 12874 0.55 83.442 10:44 10.10.2019
3653 Rain 2 1014 100 16093 0.55 83.442 10:25 10.10.2019
3654 Snow 2 1014 100 16093 0.55 83.442 09:56 10.10.2019
3655 Clouds 2 1014 93 16093 0.55 83.442 09:37 10.10.2019
3656 Rain 2 1014 93 16093 0.85 138.406 09:19 10.10.2019
3657 Rain 2 1014 93 16093 0.85 138.406 08:41 10.10.2019
3658 Rain 2 1014 100 16093 0.85 138.406 08:23 10.10.2019
3659 Rain 2 1014 93 16093 0.85 138.406 07:58 10.10.2019
3660 Rain 2 1014 93 16093 0.85 138.406 07:40 10.10.2019
3661 Rain 3 1014 93 14484 0.85 138.406 07:20 10.10.2019
3662 Rain 3 1014 93 4828 0.85 138.406 06:45 10.10.2019
3663 Rain 3 1014 93 16093 2.1 200 06:22 10.10.2019
3664 Drizzle 3 1014 100 16093 1.5 180 05:24 10.10.2019
3665 Rain 3 1014 93 16093 1.5 190 04:37 10.10.2019
3666 Rain 4 1014 86 12874 2.1 280 03:27 10.10.2019
3667 Clouds 4 1014 80 16093 3.1 320 01:42 10.10.2019
3668 Clouds 4 1014 80 16093 3.1 320 01:42 10.10.2019
3669 Clouds 4 1014 80 16093 3.1 320 01:24 10.10.2019
3670 Clouds 4 1014 75 16093 1.5 360 00:45 10.10.2019
3671 Clouds 4 1013 87 0 0.45 286 00:20 10.10.2019
3672 Rain 3 1013 86 16093 1.5 320 23:39 09.10.2019
3673 Rain 3 1013 86 16093 1.5 320 23:20 09.10.2019
3674 Rain 3 1013 86 16093 1.5 350 22:43 09.10.2019
3675 Rain 3 1013 86 16093 1.5 350 22:24 09.10.2019
3676 Rain 2 1014 100 16093 0.9 218.071 21:59 09.10.2019
3677 Rain 2 1014 100 16093 0.9 218.071 21:59 09.10.2019
3678 Rain 2 1014 100 16093 0.9 218.071 21:40 09.10.2019
3679 Rain 2 1014 100 16093 0.41 82.341 21:20 09.10.2019
3680 Rain 2 1014 100 12874 0.58 74.884 20:56 09.10.2019
3681 Rain 2 1014 100 12874 0.58 74.884 20:56 09.10.2019
3682 Rain 1 1014 100 12874 0.58 74.884 20:37 09.10.2019
3683 Rain 1 1013 93 16093 1.5 40 20:18 09.10.2019
3684 Rain 1 1013 93 16093 1.5 40 20:18 09.10.2019
3685 Rain 1 1014 93 16093 0.58 74.884 19:46 09.10.2019
3686 Rain 1 1014 93 16093 0.58 74.884 19:24 09.10.2019
3687 Clouds 1 1014 93 16093 0.58 74.884 18:58 09.10.2019
3688 Clouds 1 1014 93 16093 0.58 74.884 18:38 09.10.2019
3689 Rain 1 1014 93 16093 0.61 118.039 18:18 09.10.2019
3690 Rain 1 1014 100 14484 0.61 118.039 17:56 09.10.2019
3691 Rain 1 1014 100 14484 0.61 118.039 17:37 09.10.2019
3692 Rain 1 1014 100 14484 0.61 118.039 17:18 09.10.2019
3693 Clouds 1 1015 100 14484 0.61 118.039 16:42 09.10.2019
3694 Rain 1 1015 93 12874 0.61 118.039 16:23 09.10.2019
3695 Rain 1 1014 93 16093 0.61 118.039 15:58 09.10.2019
3696 Rain 1 1014 93 16093 0.61 118.039 15:39 09.10.2019
3697 Clouds 1 1015 100 16093 1.5 70 15:20 09.10.2019
3698 Rain 1 1016 100 16093 1.14 139.616 14:59 09.10.2019
3699 Rain 1 1016 100 16093 1.14 139.616 14:41 09.10.2019
3700 Rain 1 1016 100 16093 1.14 139.616 14:18 09.10.2019
3701 Rain 1 1015 93 16093 1.14 139.616 13:40 09.10.2019
3702 Rain 1 1015 93 16093 1.14 139.616 13:40 09.10.2019
3703 Rain 1 1016 93 12874 1.23 135.329 13:22 09.10.2019
3704 Rain 1 1016 100 14484 1.23 135.329 12:59 09.10.2019
3705 Rain 1 1016 100 14484 1.23 135.329 12:41 09.10.2019
3706 Rain 1 1016 100 12874 1.5 60 12:21 09.10.2019
3707 Rain 1 1016 93 12874 2.6 60 11:55 09.10.2019
3708 Rain 1 1016 93 12874 2.6 60 11:37 09.10.2019
3709 Rain 1 1016 93 11265 2.1 70 11:19 09.10.2019
3710 Rain 1 1016 93 6437 2.6 60 10:44 09.10.2019
3711 Rain 1 1016 93 12874 1.5 70 10:22 09.10.2019
3712 Rain 1 1016 93 12874 1.31 139.251 09:59 09.10.2019
3713 Rain 1 1016 93 12874 1.31 139.251 09:40 09.10.2019
3714 Rain 1 1016 93 11265 0.9 111.991 09:19 09.10.2019
3715 Rain 1 1016 93 14484 1.5 60 08:41 09.10.2019
3716 Snow 1 1016 93 16093 2.1 50 08:23 09.10.2019
3717 Rain 1 1016 93 16093 1.5 70 07:59 09.10.2019
3718 Snow 1 1016 93 16093 1.5 70 07:39 09.10.2019
3719 Snow 1 1016 93 16093 1.5 70 07:20 09.10.2019
3720 Snow 1 1017 93 16093 1.5 100 06:51 09.10.2019
3721 Rain 1 1017 93 16093 2.1 80 05:56 09.10.2019
3722 Rain 1 1017 93 16093 2.1 80 05:37 09.10.2019
3723 Rain 1 1017 100 4828 3.1 60 04:25 09.10.2019
3724 Mist 1 1018 93 12874 2.1 80 02:53 09.10.2019
3725 Snow 1 1018 93 12874 2.1 60 01:43 09.10.2019
3726 Snow 1 1018 93 16093 2.1 60 01:20 09.10.2019
3727 Mist 1 1018 86 11265 1.5 40 00:57 09.10.2019
3728 Mist 1 1019 97 6437 2.6 70 00:38 09.10.2019
3729 Mist 1 1019 93 6437 2.6 70 00:20 09.10.2019
3730 Rain 0 1019 93 4828 2.6 50 23:39 08.10.2019
3731 Rain 0 1019 93 3219 2.6 80 23:19 08.10.2019
3732 Rain 0 1019 93 3219 2.6 80 23:19 08.10.2019
3733 Rain 0 1019 93 3017 2.6 80 22:57 08.10.2019
3734 Rain 0 1019 93 3017 2.6 80 22:38 08.10.2019
3735 Rain 0 1019 93 4023 3.1 70 22:19 08.10.2019
3736 Rain 0 1020 93 6437 2.6 80 21:57 08.10.2019
3737 Snow 0 1020 93 2012 2.6 100 21:39 08.10.2019
3738 Snow -1 1020 94 2012 2.6 100 21:19 08.10.2019
3739 Snow -1 1020 94 2012 2.6 100 21:19 08.10.2019
3740 Snow -1 1019 94 3219 1.37 135.148 20:56 08.10.2019
3741 Snow -1 1019 94 3219 1.28 128.73 20:37 08.10.2019
3742 Snow -1 1020 94 2012 2.1 70 20:19 08.10.2019
3743 Snow -1 1020 94 3219 2.1 70 19:57 08.10.2019
3744 Snow -1 1020 94 3219 2.1 70 19:38 08.10.2019
3745 Snow -1 1020 100 9656 2.1 60 19:20 08.10.2019
3746 Snow -1 1020 94 3219 1.5 60 18:46 08.10.2019
3747 Snow -1 1020 94 16093 2.1 70 18:28 08.10.2019
3748 Snow -1 1020 100 16093 2.1 60 17:59 08.10.2019
3749 Snow -1 1020 100 16093 2.1 60 17:40 08.10.2019
3750 Snow -1 1021 91 16093 1.5 60 17:20 08.10.2019
3751 Snow -1 1021 91 11265 1.5 80 16:57 08.10.2019
3752 Snow -1 1021 91 11265 1.5 80 16:38 08.10.2019
3753 Snow -1 1021 91 14484 1.5 80 16:20 08.10.2019
3754 Snow -1 1022 91 16093 1.5 60 15:40 08.10.2019
3755 Snow -1 1022 93 16093 1.5 60 15:21 08.10.2019
3756 Snow -1 1022 93 16093 1.57 151.494 14:57 08.10.2019
3757 Clouds -1 1022 93 16093 1.57 151.494 14:39 08.10.2019
3758 Snow -1 1022 93 16093 1.57 151.494 14:20 08.10.2019
3759 Clouds -1 1023 93 16093 3.6 70 13:56 08.10.2019
3760 Clouds -1 1023 93 16093 3.6 70 13:37 08.10.2019
3761 Clouds -1 1023 93 16093 3.6 70 13:18 08.10.2019
3762 Clouds -1 1023 92 16093 1.47 139.69 12:42 08.10.2019
3763 Clouds -1 1023 89 16093 1.5 70 12:22 08.10.2019
3764 Clouds -1 1023 89 16093 1.5 50 11:59 08.10.2019
3765 Clouds -1 1023 89 16093 1.5 50 11:40 08.10.2019
3766 Clouds -1 1023 89 16093 1.5 50 11:22 08.10.2019
3767 Clouds -1 1024 89 16093 2.6 70 10:56 08.10.2019
3768 Clouds -1 1024 89 16093 2.6 70 10:36 08.10.2019
3769 Clouds -1 1024 89 16093 2.6 70 10:18 08.10.2019
3770 Clear -1 1024 89 16093 2.1 70 09:41 08.10.2019
3771 Clear -1 1024 91 16093 2.1 70 09:23 08.10.2019
3772 Clouds -1 1025 91 16093 2.6 70 08:59 08.10.2019
3773 Clouds -1 1025 95 16093 2.6 70 08:41 08.10.2019
3774 Clouds -1 1025 95 16093 2.6 70 08:22 08.10.2019
3775 Clouds -1 1025 95 16093 2.6 80 07:42 08.10.2019
3776 Clouds 0 1025 95 16093 2.6 80 07:21 08.10.2019
3777 Clouds 0 1025 95 16093 2.6 80 07:21 08.10.2019
3778 Clouds 0 1026 95 16093 1.15 142.513 06:49 08.10.2019
3779 Clouds 0 1025 74 16093 2.1 120 06:28 08.10.2019
3780 Clouds 0 1026 80 16093 1.5 90 05:46 08.10.2019
3781 Clouds 1 1026 80 16093 1.5 90 05:25 08.10.2019
3782 Rain 1 1026 80 16093 2.1 270 03:57 08.10.2019
3783 Rain 1 1026 80 16093 2.1 270 03:24 08.10.2019
3784 Rain 1 1026 80 16093 3.6 210 02:35 08.10.2019
3785 Rain 1 1026 80 16093 3.1 220 01:45 08.10.2019
3786 Rain 2 1026 74 16093 2.1 270 01:26 08.10.2019
3787 Rain 1 1026 74 16093 4.1 260 00:46 08.10.2019
3788 Rain 1 1026 80 16093 4.1 240 00:20 08.10.2019
3789 Clouds 1 1026 80 16093 4.6 240 23:39 07.10.2019
3790 Clouds 1 1026 80 16093 4.6 240 23:20 07.10.2019
3791 Clouds 1 1026 80 16093 5.1 230 22:56 07.10.2019
3792 Clouds 1 1026 80 16093 5.1 230 22:38 07.10.2019
3793 Clouds 0 1026 80 16093 5.1 230 22:20 07.10.2019
3794 Clouds 0 1025 68 16093 3.6 260 21:56 07.10.2019
3795 Clouds 0 1025 68 16093 4.6 230 21:37 07.10.2019
3796 Clouds 0 1025 68 16093 4.6 230 21:37 07.10.2019
3797 Clouds -1 1025 82 16093 4.6 230 21:19 07.10.2019
3798 Clouds -1 1025 82 16093 4.6 230 21:19 07.10.2019
3799 Clouds -1 1025 82 16093 4.6 230 21:19 07.10.2019
3800 Clouds -1 1025 85 14484 3.1 240 20:57 07.10.2019
3801 Clouds -1 1025 85 14484 3.1 240 20:39 07.10.2019
3802 Clouds -1 1025 85 14484 3.6 240 20:19 07.10.2019
3803 Clouds -1 1024 85 16093 3.6 240 19:57 07.10.2019
3804 Clouds -2 1024 85 16093 3.6 240 19:39 07.10.2019
3805 Clouds -1 1024 85 14484 4.1 240 19:18 07.10.2019
3806 Clouds -2 1024 92 14484 3.6 240 18:56 07.10.2019
3807 Clouds -2 1024 92 16093 3.1 240 18:38 07.10.2019
3808 Clouds -1 1024 92 16093 3.1 240 18:18 07.10.2019
3809 Clouds -1 1023 100 14484 2.1 250 17:42 07.10.2019
3810 Clouds -1 1023 100 16093 1.71 242.551 17:19 07.10.2019
3811 Snow -1 1023 100 14484 1.71 242.551 16:55 07.10.2019
3812 Snow -1 1023 100 14484 1.71 242.551 16:37 07.10.2019
3813 Snow -1 1023 87 16093 2.6 210 16:19 07.10.2019
3814 Clouds -2 1023 92 16093 1.71 242.551 15:43 07.10.2019
3815 Snow -1 1022 92 16093 1.27 234.882 15:25 07.10.2019
3816 Clouds -2 1022 92 14484 1.27 234.882 14:42 07.10.2019
3817 Snow -1 1022 89 16093 2.1 240 14:24 07.10.2019
3818 -273 0 0 0 0 0 14:24 07.10.2019
3819 Clouds -1 1021 89 16093 3.1 240 13:59 07.10.2019
3820 Clouds -1 1021 89 16093 3.1 240 13:41 07.10.2019
3821 Clouds -2 1021 92 16093 2.6 240 13:19 07.10.2019
3822 Clouds -2 1021 92 16093 2.1 230 12:55 07.10.2019
3823 Clouds -2 1021 92 16093 2.1 230 12:37 07.10.2019
3824 Clouds -2 1020 92 14484 2.1 210 12:18 07.10.2019
3825 Clouds -2 1020 96 16093 3.1 0 11:56 07.10.2019
3826 Clouds -2 1020 96 16093 3.1 0 11:37 07.10.2019
3827 Clear -2 1020 92 16093 3.6 260 11:18 07.10.2019
3828 Clouds -2 1019 96 16093 4.6 270 10:41 07.10.2019
3829 Clear -2 1019 92 16093 5.7 260 10:20 07.10.2019
3830 Clouds -1 1018 96 16093 4.6 260 09:42 07.10.2019
3831 Clear -1 1018 91 16093 4.6 260 09:23 07.10.2019
3832 Clouds -1 1016 91 16093 4.6 250 08:56 07.10.2019
3833 Clouds -1 1016 93 16093 4.6 250 08:38 07.10.2019
3834 Clouds -1 1016 93 16093 4.6 250 08:19 07.10.2019
3835 Clouds 0 1015 80 16093 5.1 260 07:41 07.10.2019
3836 Clouds 0 1015 80 16093 5.1 260 07:21 07.10.2019
3837 Clouds 0 1014 86 16093 5.7 270 06:49 07.10.2019
3838 Clouds 0 1014 86 16093 5.7 270 06:27 07.10.2019
3839 Snow 0 1013 86 16093 4.1 270 05:47 07.10.2019
3840 Snow 0 1013 86 16093 4.1 270 05:21 07.10.2019
3841 Rain 0 1013 86 16093 6.7 260 04:25 07.10.2019
3842 Rain 0 1012 86 16093 4.6 250 03:44 07.10.2019
3843 Rain 0 1012 86 16093 4.6 250 03:44 07.10.2019
3844 Rain 0 1012 83 14484 3.1 260 03:20 07.10.2019
3845 Rain 0 1011 83 16093 4.1 240 02:21 07.10.2019
3846 Rain 1 1010 83 16093 5.7 230 01:50 07.10.2019
3847 Rain 1 1010 84 16093 3.6 220 01:21 07.10.2019
3848 Rain 1 1009 84 16093 3.1 230 00:39 07.10.2019
3849 Rain 1 1009 84 16093 3.1 230 00:39 07.10.2019
3850 Rain 1 1009 89 16093 3.1 200 00:20 07.10.2019
3851 Clouds 1 1008 86 16093 2.6 0 23:42 06.10.2019
3852 Snow 0 1008 89 16093 1.5 240 23:22 06.10.2019
3853 Mist 0 1008 89 16093 2.1 260 22:59 06.10.2019
3854 Mist 0 1008 89 16093 2.1 260 22:41 06.10.2019
3855 Mist 0 1007 89 16093 1.32 251.017 22:22 06.10.2019
3856 Snow 0 1007 89 16093 1.32 251.017 21:58 06.10.2019
3857 Snow 0 1007 89 16093 1.32 251.017 21:38 06.10.2019
3858 Snow 0 1007 89 16093 1.32 251.017 21:38 06.10.2019
3859 Snow 0 1006 96 3219 1.13 178.982 21:19 06.10.2019
3860 Snow -1 1006 100 2816 1.13 178.982 20:58 06.10.2019
3861 Snow -1 1006 100 2816 1.13 178.982 20:58 06.10.2019
3862 Snow -1 1006 100 2816 0.9 186.873 20:40 06.10.2019
3863 Snow -1 1006 100 3017 0.9 186.873 20:20 06.10.2019
3864 Snow -1 1005 92 1609 0.9 186.873 19:57 06.10.2019
3865 Snow -1 1006 100 2213 0.9 186.873 19:37 06.10.2019
3866 Snow -1 1006 100 2213 0.9 186.873 19:19 06.10.2019
3867 Snow -1 1006 100 2414 2.1 170 18:57 06.10.2019
3868 Snow -1 1006 100 2414 2.1 170 18:38 06.10.2019
3869 Snow -1 1005 100 3621 2.1 170 18:19 06.10.2019
3870 Snow -1 1005 100 3621 2.1 170 18:19 06.10.2019
3871 Snow -1 1005 92 3219 1.5 150 17:57 06.10.2019
3872 Snow -1 1005 92 3219 1.5 150 17:38 06.10.2019
3873 Snow -1 1005 92 3219 2.1 140 17:19 06.10.2019
3874 Snow -1 1005 92 4023 2.6 130 16:42 06.10.2019
3875 Snow -1 1006 100 4828 1.5 130 16:23 06.10.2019
3876 Snow -1 1006 100 4828 2.6 140 15:56 06.10.2019
3877 Snow -2 1006 100 4828 2.6 140 15:38 06.10.2019
3878 Snow -2 1006 92 1609 2.1 140 15:18 06.10.2019
3879 Snow -2 1006 100 16093 1.5 120 14:42 06.10.2019
3880 -273 0 0 0 0 0 14:24 06.10.2019
3881 Clouds -2 1006 86 16093 1.13 187.829 13:58 06.10.2019
3882 Clouds -2 1006 86 16093 1.13 187.829 13:39 06.10.2019
3883 Clouds -2 1006 92 16093 0.94 179.574 13:20 06.10.2019
3884 Clouds -2 1006 92 16093 0.94 179.574 12:56 06.10.2019
3885 Clouds -2 1006 92 16093 0.94 179.574 12:38 06.10.2019
3886 Clouds -2 1006 92 16093 3.1 200 12:20 06.10.2019
3887 Clouds -2 1007 92 16093 2.6 200 11:56 06.10.2019
3888 Clouds -2 1007 92 16093 2.6 200 11:37 06.10.2019
3889 Clouds -2 1007 92 16093 2.6 200 11:37 06.10.2019
3890 Clouds -2 1007 92 16093 2.6 200 11:18 06.10.2019
3891 Clouds -2 1006 86 16093 2.1 200 10:42 06.10.2019
3892 Clouds -2 1006 100 16093 2.1 160 10:24 06.10.2019
3893 Clouds -2 1006 100 16093 1.5 190 09:56 06.10.2019
3894 Clouds -2 1006 100 16093 1.5 190 09:38 06.10.2019
3895 Clouds -1 1006 100 16093 2.1 140 09:18 06.10.2019
3896 Clouds -1 1006 96 16093 3.1 200 08:40 06.10.2019
3897 Clouds -1 1006 96 16093 3.1 200 08:20 06.10.2019
3898 Clouds -1 1006 96 16093 5.1 220 07:44 06.10.2019
3899 Clouds -1 1006 96 16093 5.1 220 07:19 06.10.2019
3900 Snow -1 1006 94 12874 4.6 190 06:20 06.10.2019
3901 Snow -1 1006 94 11265 2.75 201.488 05:33 06.10.2019
3902 Snow 0 1006 86 1207 3.1 200 03:41 06.10.2019
3903 Snow 1 1007 80 14484 4.1 200 02:42 06.10.2019
3904 Snow 1 1007 96 16093 5.1 210 02:20 06.10.2019
3905 Snow 0 1007 74 12874 4.6 210 01:40 06.10.2019
3906 Rain 0 1007 86 14484 4.1 200 01:21 06.10.2019
3907 Rain 0 1007 86 4828 4.6 210 00:46 06.10.2019
3908 Snow 0 1007 86 4828 4.1 240 00:25 06.10.2019
3909 Snow 0 1007 86 12874 5.1 230 23:44 05.10.2019
3910 Snow 0 1007 80 3219 5.7 250 23:22 05.10.2019
3911 Snow 0 1007 74 16093 3.1 160 22:58 05.10.2019
3912 Snow 0 1007 74 16093 3.1 160 22:40 05.10.2019
3913 Snow 0 1007 74 16093 3.1 160 22:40 05.10.2019
3914 Clouds 0 1007 74 16093 3.1 140 22:20 05.10.2019
3915 Clouds 0 1008 94 12874 3.68 215.921 21:56 05.10.2019
3916 Clouds 0 1008 94 12874 3.68 215.921 21:38 05.10.2019
3917 -273 0 0 0 0 0 21:18 05.10.2019
3918 Clouds -1 1008 86 16093 3.1 160 20:55 05.10.2019
3919 Clouds -1 1008 86 16093 3.1 160 20:37 05.10.2019
3920 Clouds -1 1008 86 16093 3.1 160 20:18 05.10.2019
3921 Clouds -2 1008 86 16093 3.6 120 19:37 05.10.2019
3922 Clouds -2 1008 86 16093 3.6 120 19:19 05.10.2019
3923 Clouds -2 1008 80 16093 2.1 0 18:55 05.10.2019
3924 Clouds -2 1008 80 16093 2.1 0 18:37 05.10.2019
3925 Clouds -2 1008 86 16093 3.6 200 18:19 05.10.2019
3926 Clear -2 1009 86 16093 2.01 197.443 17:43 05.10.2019
3927 Clouds -1 1008 97 16093 2.6 220 17:24 05.10.2019
3928 Clouds -1 1009 97 16093 4.1 240 16:57 05.10.2019
3929 Clouds -1 1009 97 16093 4.1 240 16:39 05.10.2019
3930 Clouds -1 1009 97 16093 4.1 240 16:20 05.10.2019
3931 Clouds -1 1009 97 16093 3.1 220 15:57 05.10.2019
3932 Clouds -1 1009 97 16093 3.1 220 15:38 05.10.2019
3933 Clouds -1 1009 89 16093 3.1 220 15:20 05.10.2019
3934 Clouds 0 1008 86 16093 5.1 210 14:44 05.10.2019
3935 Clouds 0 1008 86 16093 5.1 210 14:25 05.10.2019
3936 Clouds 0 1008 86 16093 5.7 240 13:59 05.10.2019
3937 Clouds 0 1008 86 16093 5.7 240 13:40 05.10.2019
3938 Clouds 0 1008 86 16093 5.7 240 13:20 05.10.2019
3939 Clouds 0 1007 86 16093 6.2 250 12:44 05.10.2019
3940 Clouds 0 1007 80 16093 5.1 250 12:19 05.10.2019
3941 Rain 1 1006 93 16093 5.1 240 11:44 05.10.2019
3942 Rain 1 1005 93 16093 3.6 250 11:23 05.10.2019
3943 Rain 1 1006 97 16093 3.6 240 10:59 05.10.2019
3944 Rain 1 1006 97 16093 3.6 240 10:40 05.10.2019
3945 Rain 1 1005 93 16093 2.1 220 10:21 05.10.2019
3946 Clouds 1 1005 97 16093 3.25 218.723 09:56 05.10.2019
3947 Clouds 1 1005 97 16093 3.25 218.723 09:37 05.10.2019
3948 Clouds 1 1005 93 11265 4.1 240 09:19 05.10.2019
3949 Clouds 1 1005 93 11265 5.7 230 08:39 05.10.2019
3950 Clouds 1 1005 93 11265 5.7 230 08:19 05.10.2019
3951 Clouds 2 1004 93 11265 6.7 220 07:52 05.10.2019
3952 Clouds 2 1004 86 16093 3.6 210 07:31 05.10.2019
3953 Clouds 2 1003 86 16093 5.1 240 06:57 05.10.2019
3954 Rain 2 1003 86 16093 5.1 240 06:24 05.10.2019
3955 Rain 2 1003 93 16093 3.1 0 05:39 05.10.2019
3956 Rain 4 1001 93 14484 2.1 180 03:39 05.10.2019
3957 Rain 4 1001 93 11265 1.89 174.712 03:20 05.10.2019
3958 Rain 3 1001 93 9656 2.15 165.279 01:29 05.10.2019
3959 Rain 3 1002 93 9656 2.6 190 00:51 05.10.2019
3960 Rain 3 1002 93 6437 2.6 120 00:28 05.10.2019
3961 Rain 3 1002 93 8047 2.23 131.98 23:59 04.10.2019
3962 Rain 3 1002 93 8047 2.23 131.98 23:41 04.10.2019
3963 Rain 3 1002 93 8047 2.6 70 23:23 04.10.2019
3964 Rain 3 1002 93 16093 2.23 131.98 22:57 04.10.2019
3965 Rain 3 1002 93 16093 2.23 131.98 22:38 04.10.2019
3966 Rain 3 1002 93 16093 2.23 131.98 22:38 04.10.2019
3967 Rain 3 1003 93 8047 2.23 131.98 22:19 04.10.2019
3968 Rain 2 1003 100 12874 2.1 120 21:55 04.10.2019
3969 Rain 2 1003 100 12874 2.1 120 21:36 04.10.2019
3970 Rain 2 1003 100 9656 2.6 70 21:18 04.10.2019
3971 Rain 2 1004 93 12874 1.93 123.55 20:42 04.10.2019
3972 Rain 1 1004 100 9656 2.6 100 20:23 04.10.2019
3973 Rain 1 1004 93 16093 2.6 100 19:58 04.10.2019
3974 Rain 1 1005 100 16093 3.1 80 19:39 04.10.2019
3975 Rain 1 1005 100 16093 3.1 80 19:21 04.10.2019
3976 Mist 1 1005 100 9656 2.1 80 18:56 04.10.2019
3977 Mist 1 1005 100 9656 2.1 80 18:37 04.10.2019
3978 Clouds 1 1006 100 16093 1.43 123.211 18:18 04.10.2019
3979 Clear 1 1006 100 16093 3.6 70 17:41 04.10.2019
3980 Clear 1 1006 100 16093 3.6 70 17:22 04.10.2019
3981 Clouds 1 1008 100 16093 3.6 60 16:58 04.10.2019
3982 Clouds 1 1008 100 16093 3.6 60 16:40 04.10.2019
3983 Clouds 1 1008 100 16093 3.6 60 16:40 04.10.2019
3984 Clouds 1 1008 100 16093 3.6 60 16:19 04.10.2019
3985 Clouds 1 1008 100 16093 3.6 60 16:19 04.10.2019
3986 Clear 1 1009 100 16093 1.5 80 15:57 04.10.2019
3987 Clear 1 1009 100 16093 1.5 80 15:39 04.10.2019
3988 Clear 1 1009 100 16093 1.5 80 15:19 04.10.2019
3989 Fog 1 1009 100 16093 3.1 60 14:56 04.10.2019
3990 Fog 0 1009 100 16093 3.1 60 14:38 04.10.2019
3991 Fog 0 1009 100 16093 3.1 60 14:20 04.10.2019
3992 Clear 1 1011 100 16093 2.6 70 13:44 04.10.2019
3993 Clear 1 1011 100 16093 2.6 70 13:22 04.10.2019
3994 Clear 1 1012 100 16093 2.1 70 12:55 04.10.2019
3995 Clear 1 1012 100 16093 2.1 70 12:55 04.10.2019
3996 Clear 1 1012 100 16093 2.1 70 12:36 04.10.2019
3997 Snow 1 1012 100 16093 2.1 70 12:18 04.10.2019
3998 Snow 1 1013 100 16093 2.6 80 11:42 04.10.2019
3999 Clear 1 1013 100 16093 2.6 80 11:22 04.10.2019
4000 Mist 1 1013 100 16093 2.6 70 10:55 04.10.2019
4001 Mist 2 1013 86 16093 1.5 110 10:37 04.10.2019
4002 Clouds 2 1013 100 16093 2.6 80 10:18 04.10.2019
4003 Clouds 2 1014 100 16093 2.1 70 09:41 04.10.2019
4004 Clouds 2 1014 100 16093 2.1 70 09:23 04.10.2019
4005 Clouds 3 1015 100 16093 2.1 70 08:45 04.10.2019
4006 Clouds 3 1015 100 16093 2.1 70 08:26 04.10.2019
4007 Clouds 3 1015 93 16093 2.6 60 07:47 04.10.2019
4008 Clouds 3 1015 93 16093 1.5 60 07:26 04.10.2019
4009 Clouds 3 1015 93 12874 2.1 80 06:58 04.10.2019
4010 Clouds 3 1015 93 12874 2.1 80 06:39 04.10.2019
4011 Clouds 3 1015 93 12874 2.1 80 06:20 04.10.2019
4012 Clouds 3 1015 93 12874 2.1 80 06:20 04.10.2019
4013 Mist 3 1016 100 9656 1.5 50 05:20 04.10.2019
4014 Mist 4 1016 100 2012 1.5 60 04:38 04.10.2019
4015 Mist 3 1016 100 3017 1.23 163.403 03:18 04.10.2019
4016 Rain 3 1016 100 9656 1.5 50 02:43 04.10.2019
4017 Rain 3 1016 100 1810 1.5 80 01:53 04.10.2019
4018 Rain 3 1016 100 1609 2.1 60 01:26 04.10.2019
4019 Rain 2 1016 100 2414 2.1 70 00:33 04.10.2019
4020 Rain 2 1015 93 2414 1.5 130 23:40 03.10.2019
4021 Rain 2 1015 93 2414 1.5 130 23:21 03.10.2019
4022 Rain 1 1016 100 3219 2.6 60 22:58 03.10.2019
4023 Rain 1 1016 100 3219 2.6 60 22:58 03.10.2019
4024 Rain 1 1016 100 3219 2.6 60 22:39 03.10.2019
4025 Rain 1 1016 100 3219 2.6 60 22:39 03.10.2019
4026 Rain 1 1016 100 3219 2.6 60 22:39 03.10.2019
4027 Rain 1 1015 93 2414 1.4 148.679 22:21 03.10.2019
4028 Rain 1 1015 93 11265 2.6 0 21:58 03.10.2019
4029 Rain 1 1015 93 11265 2.6 0 21:40 03.10.2019
4030 Rain 1 1016 100 6437 2.6 50 21:20 03.10.2019
4031 Rain 1 1016 100 6437 1.61 152.323 20:58 03.10.2019
4032 Rain 1 1016 100 6437 1.56 157.357 20:39 03.10.2019
4033 Rain 0 1016 100 6437 1.56 157.357 20:20 03.10.2019
4034 Rain 0 1016 100 4828 1.56 157.357 19:56 03.10.2019
4035 Rain 0 1016 100 4828 1.56 157.357 19:56 03.10.2019
4036 Rain 0 1016 100 4828 1.56 157.357 19:38 03.10.2019
4037 Rain 0 1016 100 4828 1.56 157.357 19:19 03.10.2019
4038 Rain 0 1016 100 4828 1.56 157.357 18:56 03.10.2019
4039 Rain 0 1016 100 4828 1.56 157.357 18:37 03.10.2019
4040 Rain 0 1015 86 3219 2.6 160 18:18 03.10.2019
4041 Rain 1 1015 98 12874 1.18 127.828 17:42 03.10.2019
4042 Rain 0 1015 98 12874 1.18 127.828 17:22 03.10.2019
4043 Clouds 0 1015 98 16093 1.18 127.828 16:57 03.10.2019
4044 Clouds 0 1015 98 16093 1.18 127.828 16:39 03.10.2019
4045 Clouds 1 1015 100 16093 1.5 100 16:20 03.10.2019
4046 Clouds 1 1016 100 14484 1.18 127.828 15:45 03.10.2019
4047 Clouds 1 1015 100 16093 1.5 60 15:24 03.10.2019
4048 Clouds 1 1015 98 16093 1.5 100 14:59 03.10.2019
4049 Clouds 1 1015 93 14484 1.5 50 14:37 03.10.2019
4050 Clouds 1 1015 93 14484 1.5 50 14:19 03.10.2019
4051 Mist 1 1015 98 16093 2.6 160 13:44 03.10.2019
4052 Mist 1 1015 100 11265 1.5 70 13:26 03.10.2019
4053 Mist 1 1015 93 6437 1.38 152.656 12:59 03.10.2019
4054 Mist 1 1015 93 6437 1.38 152.656 12:40 03.10.2019
4055 Mist 1 1015 93 6437 1.38 152.656 12:40 03.10.2019
4056 Mist 1 1015 100 8047 1.5 90 12:20 03.10.2019
4057 Mist 1 1015 100 1408 1.5 100 11:58 03.10.2019
4058 Mist 1 1015 100 1408 1.5 100 11:58 03.10.2019
4059 Mist 1 1015 100 1408 1.5 100 11:40 03.10.2019
4060 Clouds 1 1015 100 12874 1.49 147.133 11:21 03.10.2019
4061 Clouds 2 1015 100 14484 1.5 60 10:57 03.10.2019
4062 Clouds 2 1015 100 14484 1.5 60 10:38 03.10.2019
4063 Clouds 2 1014 93 16093 1.5 130 10:18 03.10.2019
4064 Clouds 2 1014 100 14484 1.49 147.133 09:56 03.10.2019
4065 Clouds 2 1014 100 14484 1.49 147.133 09:37 03.10.2019
4066 Clouds 2 1014 100 16093 1.31 152.4 09:19 03.10.2019
4067 Clouds 2 1014 100 14484 1.16 146.365 08:42 03.10.2019
4068 Rain 2 1014 100 12874 1.16 146.365 08:24 03.10.2019
4069 Clouds 2 1014 100 16093 1.16 146.365 07:42 03.10.2019
4070 Clouds 2 1014 100 16093 1.16 146.365 07:20 03.10.2019
4071 Rain 3 1013 93 16093 1.5 190 06:53 03.10.2019
4072 Rain 3 1014 100 12874 1.5 170 06:27 03.10.2019
4073 Rain 2 1014 100 14484 2.1 200 05:49 03.10.2019
4074 Rain 2 1013 100 16093 2.6 210 05:27 03.10.2019
4075 Rain 2 1013 100 11265 4.1 220 04:45 03.10.2019
4076 Rain 3 1013 100 11265 4.6 230 03:54 03.10.2019
4077 Rain 2 1012 93 16093 2.1 230 03:19 03.10.2019
4078 Rain 3 1012 93 12874 5.1 240 02:22 03.10.2019
4079 Rain 2 1012 93 11265 2.1 270 01:40 03.10.2019
4080 Rain 2 1011 93 12874 3.6 250 00:53 03.10.2019
4081 Rain 2 1011 100 12874 3.6 250 00:31 03.10.2019
4082 Rain 2 1011 100 12874 4.1 250 23:55 02.10.2019
4083 Rain 1 1011 100 12874 4.1 250 23:36 02.10.2019
4084 Rain 1 1011 100 12874 4.1 250 23:18 02.10.2019
4085 Rain 2 1010 100 9656 4.1 260 22:41 02.10.2019
4086 Rain 2 1010 100 9656 3.6 260 22:20 02.10.2019
4087 Rain 2 1009 96 4828 3.1 270 21:55 02.10.2019
4088 Rain 2 1009 96 4828 3.1 270 21:55 02.10.2019
4089 Rain 1 1009 96 4828 3.1 270 21:37 02.10.2019
4090 Rain 2 1009 86 4828 2.6 280 21:18 02.10.2019
4091 Rain 2 1009 86 6437 1.5 250 20:55 02.10.2019
4092 Rain 2 1009 86 6437 1.5 250 20:55 02.10.2019
4093 Rain 2 1009 86 6437 1.5 250 20:54 02.10.2019
4094 Rain 2 1009 86 6437 1.5 250 20:36 02.10.2019
4095 Rain 2 1009 86 6437 1.5 250 20:36 02.10.2019
4096 Rain 2 1009 86 6437 1.5 250 20:18 02.10.2019
4097 Rain 2 1008 93 14484 1.05 297.586 19:43 02.10.2019
4098 Rain 2 1008 93 14484 1.05 297.586 19:21 02.10.2019
4099 Rain 2 1008 86 14484 1.05 297.586 18:57 02.10.2019
4100 Rain 2 1008 86 14484 1.05 297.586 18:38 02.10.2019
4101 Rain 2 1008 93 14484 1.08 315.827 18:20 02.10.2019
4102 Rain 2 1008 86 11265 1.5 260 17:56 02.10.2019
4103 Rain 2 1008 86 11265 1.5 260 17:37 02.10.2019
4104 Rain 2 1008 86 11265 1.5 260 17:19 02.10.2019
4105 Rain 2 1008 100 12874 2.6 270 16:42 02.10.2019
4106 Rain 2 1008 93 11265 2.6 280 16:22 02.10.2019
4107 Rain 2 1008 93 11265 2.6 280 15:59 02.10.2019
4108 Rain 2 1008 86 11265 2.1 300 15:40 02.10.2019
4109 Rain 3 1008 86 11265 2.1 300 15:22 02.10.2019
4110 Rain 3 1008 93 9656 2.1 280 14:57 02.10.2019
4111 Rain 3 1008 93 11265 2.1 280 14:39 02.10.2019
4112 Rain 3 1008 93 11265 2.1 280 14:20 02.10.2019
4113 Rain 3 1008 93 11265 1.5 280 13:45 02.10.2019
4114 Rain 3 1008 93 11265 1.5 280 13:25 02.10.2019
4115 Rain 3 1008 93 9656 1.15 316.699 12:58 02.10.2019
4116 Rain 3 1007 100 11265 1.15 316.699 12:37 02.10.2019
4117 Rain 3 1007 100 11265 1.32 329.171 12:19 02.10.2019
4118 Rain 3 1007 100 12874 2.1 280 11:44 02.10.2019
4119 Rain 3 1007 100 12874 2.1 280 11:23 02.10.2019
4120 Rain 4 1007 86 9656 1.5 300 10:42 02.10.2019
4121 Rain 4 1007 86 9656 1.5 300 10:20 02.10.2019
4122 Rain 4 1007 86 6437 1.32 329.171 09:59 02.10.2019
4123 Rain 4 1007 86 9656 1.32 329.171 09:37 02.10.2019
4124 Rain 4 1007 86 9656 1.07 326.739 09:18 02.10.2019
4125 Rain 4 1006 86 11265 1.28 316.393 08:44 02.10.2019
4126 Rain 4 1007 86 12874 1.5 280 08:24 02.10.2019
4127 Rain 4 1006 86 16093 1.5 310 07:58 02.10.2019
4128 Rain 4 1007 86 4828 2.6 20 07:38 02.10.2019
4129 Rain 4 1007 86 4828 2.6 20 07:20 02.10.2019
4130 Rain 4 1007 86 4828 2.6 20 07:20 02.10.2019
4131 Rain 4 1006 81 4828 3.1 40 06:31 02.10.2019
4132 Rain 5 1006 87 8047 3.1 30 05:55 02.10.2019
4133 Rain 5 1006 81 8047 3.1 20 05:24 02.10.2019
4134 Rain 6 1005 93 9656 1.55 351.891 04:50 02.10.2019
4135 Rain 7 1005 93 16093 1.55 351.891 03:52 02.10.2019
4136 Clouds 7 1005 75 16093 2.07 346.332 02:41 02.10.2019
4137 Clouds 7 1005 75 16093 2.07 346.332 02:23 02.10.2019
4138 Clouds 7 1005 81 16093 1.5 160 01:22 02.10.2019
4139 Clear 7 1006 81 16093 2.15 345.195 00:49 02.10.2019
4140 Clear 7 1006 81 16093 2.15 345.195 00:25 02.10.2019
4141 Rain 6 1006 86 16093 2.39 345.958 23:43 01.10.2019
4142 Rain 5 1006 86 16093 2.39 345.958 23:24 01.10.2019
4143 Rain 5 1006 93 16093 2.39 345.958 22:58 01.10.2019
4144 Rain 4 1006 93 14484 2.39 345.958 22:39 01.10.2019
4145 Rain 4 1006 93 14484 2.39 345.958 22:19 01.10.2019
4146 Clouds 3 1006 93 14484 2.39 345.958 21:55 01.10.2019
4147 Clouds 4 1006 93 14484 2.39 345.958 21:37 01.10.2019
4148 Clouds 3 1006 93 14484 2.07 343.243 21:18 01.10.2019
4149 Clouds 2 1007 100 16093 2.07 343.243 20:54 01.10.2019
4150 Clouds 2 1007 100 16093 1.59 338.833 20:36 01.10.2019
4151 Clouds 2 1007 100 16093 1.59 338.833 20:18 01.10.2019
4152 Clear 2 1007 91 16093 1.5 140 19:44 01.10.2019
4153 Clear 2 1007 91 16093 1.5 140 19:26 01.10.2019
4154 Clear 1 1007 91 16093 2.6 110 18:59 01.10.2019
4155 Clear 1 1007 91 16093 2.6 110 18:39 01.10.2019
4156 Clear 1 1007 91 16093 2.6 110 18:39 01.10.2019
4157 Clear 1 1007 94 16093 2.6 110 18:21 01.10.2019
4158 Clouds 0 1008 100 14484 1.58 346.431 17:55 01.10.2019
4159 Clouds 0 1008 100 14484 1.58 346.431 17:37 01.10.2019
4160 Clouds 1 1008 100 14484 1.58 346.431 17:18 01.10.2019
4161 Mist 0 1008 100 6437 1.58 346.431 16:57 01.10.2019
4162 Mist 1 1008 100 1810 1.58 346.431 16:39 01.10.2019
4163 Mist 1 1008 100 1810 1.58 346.431 16:20 01.10.2019
4164 Mist 0 1008 94 16093 1.58 346.431 15:42 01.10.2019
4165 Mist 1 1008 94 16093 1.14 0.252 15:21 01.10.2019
4166 Mist 1 1008 94 2615 1.14 0.252 14:41 01.10.2019
4167 Mist 1 1008 94 2615 1.14 0.252 14:20 01.10.2019
4168 Fog 0 1009 100 603 1.14 0.252 13:57 01.10.2019
4169 Clear 1 1009 94 14484 1.14 0.252 13:39 01.10.2019
4170 Clear 1 1009 93 14484 1.32 359.264 13:20 01.10.2019
4171 Clear 1 1009 93 14484 1.32 359.264 13:20 01.10.2019
4172 Clear 1 1009 93 14484 1.32 359.264 13:20 01.10.2019
4173 Mist 1 1009 100 1408 1.32 359.264 12:57 01.10.2019
4174 Mist 1 1009 100 1408 1.32 359.264 12:57 01.10.2019
4175 Clear 1 1009 93 12874 1.32 359.264 12:39 01.10.2019
4176 Clear 2 1009 100 16093 0.95 357.216 12:18 01.10.2019
4177 Clear 2 1009 100 16093 0.95 357.216 11:57 01.10.2019
4178 Clear 2 1009 100 16093 0.95 357.216 11:37 01.10.2019
4179 Clear 2 1009 100 16093 0.95 357.216 11:18 01.10.2019
4180 Clear 2 1009 100 16093 0.95 357.216 11:18 01.10.2019
4181 Clouds 3 1010 93 14484 0.95 357.216 10:49 01.10.2019
4182 Clouds 3 1010 93 14484 0.95 357.216 10:29 01.10.2019
4183 Clouds 3 1010 100 14484 0.95 357.216 09:48 01.10.2019
4184 Clouds 3 1010 100 14484 0.95 357.216 09:27 01.10.2019
4185 Clouds 4 1010 93 16093 0.78 328.671 08:57 01.10.2019
4186 Clouds 4 1010 93 16093 0.59 322.503 08:39 01.10.2019
4187 Clouds 4 1010 93 16093 0.59 322.503 08:39 01.10.2019
4188 Clouds 4 1010 93 16093 0.59 322.503 08:21 01.10.2019
4189 Rain 4 1010 93 16093 0.59 322.503 07:43 01.10.2019
4190 Rain 4 1010 93 16093 0.59 322.503 07:24 01.10.2019
4191 Clouds 5 1010 81 16093 0.59 322.503 06:46 01.10.2019
4192 Clouds 6 1010 66 16093 1.5 190 06:18 01.10.2019
4193 Clouds 6 1010 66 16093 1.5 190 05:45 01.10.2019
4194 Clouds 8 1011 93 16093 1.05 207.028 04:50 01.10.2019
4195 Clouds 8 1010 61 16093 1.5 0 04:26 01.10.2019
4196 Rain 9 1011 62 14484 3.1 220 02:26 01.10.2019
4197 Rain 9 1011 71 16093 1.59 200.447 01:58 01.10.2019
4198 Clouds 9 1012 76 12874 1.5 90 00:53 01.10.2019
4199 Clouds 9 1012 76 12874 1.5 90 00:27 01.10.2019
4200 Fog 8 1012 87 14484 1.8 195.534 23:55 30.09.2019
4201 Fog 8 1012 87 14484 1.8 195.534 23:37 30.09.2019
4202 Fog 8 1012 87 14484 1.8 195.534 23:19 30.09.2019
4203 Fog 8 1012 87 14484 1.8 195.534 23:19 30.09.2019
4204 Fog 7 1012 93 14484 1.8 195.534 22:42 30.09.2019
4205 Fog 7 1012 93 14484 1.8 195.534 22:24 30.09.2019
4206 Rain 6 1012 93 12874 1.8 195.534 21:57 30.09.2019
4207 Rain 6 1012 93 14484 1.8 195.534 21:38 30.09.2019
4208 Rain 6 1012 93 14484 1.36 181.773 21:19 30.09.2019
4209 Rain 6 1012 93 14484 1.36 181.773 21:19 30.09.2019
4210 Fog 6 1012 93 14484 1.36 181.773 20:56 30.09.2019
4211 Rain 6 1012 100 11265 1.35 195.957 20:38 30.09.2019
4212 Rain 6 1012 100 11265 1.35 195.957 20:20 30.09.2019
4213 Fog 6 1011 100 14484 1.35 195.957 19:56 30.09.2019
4214 Fog 6 1011 100 14484 1.35 195.957 19:38 30.09.2019
4215 Rain 6 1011 93 16093 1.35 195.957 19:19 30.09.2019
4216 Rain 6 1011 93 16093 1.35 195.957 18:57 30.09.2019
4217 Rain 6 1011 93 16093 1.35 195.957 18:57 30.09.2019
4218 Rain 6 1011 93 16093 1.35 195.957 18:37 30.09.2019
4219 Rain 6 1011 93 16093 1.36 217.571 18:19 30.09.2019
4220 Rain 6 1011 93 16093 2.1 240 17:42 30.09.2019
4221 Rain 6 1011 93 16093 2.1 240 17:22 30.09.2019
4222 Clouds 6 1011 87 16093 1.36 217.571 16:57 30.09.2019
4223 Clouds 6 1011 93 16093 3.1 220 16:39 30.09.2019
4224 Clouds 6 1011 93 16093 3.1 220 16:19 30.09.2019
4225 Rain 6 1011 87 16093 1.36 217.571 15:58 30.09.2019
4226 Rain 6 1011 100 16093 2.6 220 15:37 30.09.2019
4227 Rain 6 1011 100 16093 2.6 220 15:19 30.09.2019
4228 Rain 7 1010 93 16093 2.1 260 14:57 30.09.2019
4229 Rain 7 1010 93 16093 4.6 230 14:37 30.09.2019
4230 Rain 7 1010 93 16093 4.6 230 14:18 30.09.2019
4231 Rain 7 1010 93 16093 4.6 230 14:18 30.09.2019
4232 Rain 7 1010 93 16093 4.6 230 14:18 30.09.2019
4233 Rain 7 1010 93 16093 4.6 230 13:56 30.09.2019
4234 Rain 7 1009 93 14484 4.1 240 13:37 30.09.2019
4235 Rain 8 1009 87 16093 5.1 250 13:19 30.09.2019
4236 Rain 8 1009 87 16093 5.7 230 12:42 30.09.2019
4237 Rain 8 1009 87 16093 5.7 230 12:22 30.09.2019
4238 Rain 8 1009 93 14484 5.1 230 11:56 30.09.2019
4239 Rain 8 1009 93 14484 5.1 230 11:56 30.09.2019
4240 Rain 8 1008 93 12874 1.5 210 11:38 30.09.2019
4241 Rain 8 1008 93 12874 1.5 210 11:19 30.09.2019
4242 Rain 8 1007 100 11265 2.13 212.884 10:41 30.09.2019
4243 Rain 8 1007 100 11265 2.13 212.884 10:41 30.09.2019
4244 Rain 8 1007 100 11265 2.13 212.884 10:19 30.09.2019
4245 Rain 8 1007 93 16093 2.13 212.884 09:59 30.09.2019
4246 Rain 8 1007 93 9656 2.13 212.884 09:39 30.09.2019
4247 Rain 8 1007 93 9656 1.28 173.329 09:20 30.09.2019
4248 Rain 8 1007 100 11265 1.28 173.329 08:47 30.09.2019
4249 Rain 8 1007 100 11265 1.28 173.329 08:47 30.09.2019
4250 Rain 8 1007 100 11265 0.46 175.611 08:29 30.09.2019
4251 Rain 8 1006 100 11265 0.46 175.611 07:46 30.09.2019
4252 Rain 8 1006 100 11265 0.46 175.611 07:28 30.09.2019
4253 Rain 8 1006 100 12874 0.46 175.611 06:56 30.09.2019
4254 Rain 8 1006 100 12874 0.46 175.611 06:56 30.09.2019
4255 Rain 8 1006 100 12874 0.46 175.611 06:56 30.09.2019
4256 Rain 8 1006 100 12874 0.46 175.611 06:34 30.09.2019
4257 Rain 9 1005 93 11265 0.84 80.929 05:48 30.09.2019
4258 Rain 9 1005 93 11265 0.84 80.929 05:24 30.09.2019
4259 Rain 9 1005 93 8047 1.5 40 02:49 30.09.2019
4260 Rain 9 1006 87 8047 1.09 63.81 01:39 30.09.2019
4261 Rain 9 1006 87 8047 0.93 88.948 00:44 30.09.2019
4262 Rain 9 1006 87 8047 0.78 357.642 00:24 30.09.2019
4263 Rain 9 1005 81 16093 0.78 357.642 23:57 29.09.2019
4264 Rain 10 1006 81 6437 2.1 70 23:39 29.09.2019
4265 Rain 10 1006 81 6437 2.1 70 23:19 29.09.2019
4266 Rain 10 1006 71 11265 2.6 80 22:43 29.09.2019
4267 Rain 10 1006 71 11265 2.6 80 22:23 29.09.2019
4268 Rain 9 1006 76 11265 2.1 70 21:58 29.09.2019
4269 Rain 9 1006 71 14484 1.5 80 21:38 29.09.2019
4270 Rain 9 1006 71 14484 1.5 80 21:19 29.09.2019
4271 Drizzle 8 1006 81 14484 0.79 76.859 20:58 29.09.2019
4272 Drizzle 8 1006 81 14484 0.79 76.859 20:40 29.09.2019
4273 Drizzle 7 1006 81 14484 0.73 93.394 20:19 29.09.2019
4274 Drizzle 7 1006 81 14484 0.73 93.394 20:19 29.09.2019
4275 Rain 7 1006 81 14484 0.73 93.394 19:54 29.09.2019
4276 Rain 7 1006 81 12874 0.73 93.394 19:36 29.09.2019
4277 Rain 7 1006 81 12874 0.73 93.394 19:18 29.09.2019
4278 Rain 6 1007 81 11265 0.73 93.394 18:54 29.09.2019
4279 Rain 6 1007 70 12874 1.5 80 18:36 29.09.2019
4280 Rain 6 1007 70 12874 1.5 80 18:18 29.09.2019
4281 Rain 6 1007 75 11265 2.6 70 17:54 29.09.2019
4282 Rain 6 1007 75 11265 2.6 70 17:54 29.09.2019
4283 Rain 6 1007 75 11265 2.6 70 17:36 29.09.2019
4284 Rain 6 1007 75 11265 2.6 70 17:18 29.09.2019
4285 Rain 6 1008 70 11265 3.1 60 16:41 29.09.2019
4286 Rain 6 1008 70 11265 3.1 60 16:20 29.09.2019
4287 Rain 6 1007 65 16093 3.1 120 15:58 29.09.2019
4288 Rain 6 1008 70 12874 3.1 70 15:37 29.09.2019
4289 Rain 6 1008 70 12874 3.1 70 15:19 29.09.2019
4290 Rain 6 1008 62 14484 3.6 60 14:58 29.09.2019
4291 Clouds 5 1008 62 16093 3.6 60 14:38 29.09.2019
4292 Clouds 6 1008 62 16093 3.6 60 14:19 29.09.2019
4293 Rain 6 1009 62 14484 3.6 60 13:56 29.09.2019
4294 Rain 6 1010 62 8047 2.1 60 13:36 29.09.2019
4295 Rain 6 1010 52 16093 2.6 50 13:18 29.09.2019
4296 Rain 7 1010 52 16093 2.6 50 12:56 29.09.2019
4297 Clouds 7 1011 52 16093 2.6 50 12:38 29.09.2019
4298 Clouds 7 1011 52 16093 2.6 50 12:38 29.09.2019
4299 Clouds 6 1011 52 16093 2.6 50 12:20 29.09.2019
4300 Clouds 6 1011 56 16093 2.6 60 11:41 29.09.2019
4301 Clouds 6 1011 56 16093 2.6 60 11:20 29.09.2019
4302 Clear 6 1012 52 16093 3.6 60 10:58 29.09.2019
4303 Clear 6 1012 52 16093 3.6 60 10:39 29.09.2019
4304 Clear 6 1012 52 16093 3.6 60 10:21 29.09.2019
4305 Clear 6 1012 52 16093 3.6 60 10:20 29.09.2019
4306 Clouds 6 1013 56 16093 4.1 60 09:59 29.09.2019
4307 Clouds 6 1013 56 16093 4.1 60 09:41 29.09.2019
4308 Clouds 6 1013 56 16093 4.1 60 09:19 29.09.2019
4309 Clouds 6 1015 52 16093 3.1 60 08:43 29.09.2019
4310 Clouds 6 1015 52 16093 3.1 60 08:22 29.09.2019
4311 Clouds 6 1016 52 16093 3.6 60 07:45 29.09.2019
4312 Clouds 6 1016 52 16093 3.6 60 07:27 29.09.2019
4313 Clouds 6 1016 52 16093 2.6 70 06:55 29.09.2019
4314 Clouds 6 1016 52 16093 2.6 70 06:32 29.09.2019
4315 Clear 9 1018 39 16093 2.6 70 04:52 29.09.2019
4316 Clear 9 1018 39 16093 2.6 70 04:24 29.09.2019
4317 Clear 10 1020 37 16093 1.16 68.428 03:42 29.09.2019
4318 Clouds 10 1021 37 16093 1.5 110 02:19 29.09.2019
4319 Clear 10 1021 43 16093 2.1 90 01:45 29.09.2019
4320 Clear 10 1021 43 16093 2.1 90 01:20 29.09.2019
4321 Clouds 9 1022 43 16093 1.5 100 00:41 29.09.2019
4322 Clouds 8 1023 56 16093 1.14 94.14 00:19 29.09.2019
4323 Clouds 8 1023 56 16093 1.14 94.14 23:39 28.09.2019
4324 Rain 8 1023 56 16093 1.14 94.14 23:21 28.09.2019
4325 Clouds 7 1023 56 16093 1.14 94.14 22:41 28.09.2019
4326 Clouds 6 1023 56 16093 1.14 94.14 22:23 28.09.2019
4327 Clouds 5 1024 64 16093 1.5 50 21:59 28.09.2019
4328 Clouds 5 1024 64 16093 1.5 50 21:40 28.09.2019
4329 Clouds 4 1024 64 16093 1.5 50 21:21 28.09.2019
4330 Clouds 3 1024 80 16093 1.5 70 20:59 28.09.2019
4331 Clouds 2 1024 80 16093 1.5 70 20:40 28.09.2019
4332 Clouds 0 1024 80 16093 1.5 70 20:20 28.09.2019
4333 Clear 0 1024 92 16093 1.02 114.854 19:58 28.09.2019
4334 Clear 0 1024 92 16093 1.02 114.854 19:39 28.09.2019
4335 Clear -1 1024 92 16093 1.02 114.854 19:21 28.09.2019
4336 Clear -1 1024 92 16093 1.02 114.854 18:58 28.09.2019
4337 Clear -1 1024 92 16093 1.02 114.854 18:39 28.09.2019
4338 Clear -1 1024 92 16093 1.29 54.436 18:21 28.09.2019
4339 Clouds 0 1025 75 16093 1.29 54.436 17:56 28.09.2019
4340 Clouds 0 1025 75 16093 1.29 54.436 17:38 28.09.2019
4341 Clouds 0 1025 75 16093 1.29 54.436 17:20 28.09.2019
4342 Clouds 0 1025 80 16093 1.29 54.436 16:44 28.09.2019
4343 Clouds 0 1025 80 16093 1.29 54.436 16:25 28.09.2019
4344 Clouds 0 1025 80 16093 1.29 54.436 15:42 28.09.2019
4345 Clouds 1 1025 80 16093 1.22 82.055 15:23 28.09.2019
4346 Clouds 0 1025 86 16093 1.22 82.055 14:58 28.09.2019
4347 Clouds 0 1025 86 16093 1.22 82.055 14:40 28.09.2019
4348 Clouds 0 1025 86 16093 1.22 82.055 14:21 28.09.2019
4349 Clouds 0 1025 86 16093 2.6 70 13:58 28.09.2019
4350 Clouds 1 1025 86 16093 2.6 70 13:38 28.09.2019
4351 Clouds 1 1025 86 16093 2.6 70 13:20 28.09.2019
4352 Clouds 2 1025 74 16093 3.1 60 12:45 28.09.2019
4353 Clouds 2 1025 74 16093 3.1 60 12:20 28.09.2019
4354 Clear 1 1026 74 16093 3.6 70 11:59 28.09.2019
4355 Clear 2 1026 74 16093 3.6 70 11:39 28.09.2019
4356 Clear 2 1026 74 16093 3.6 70 11:19 28.09.2019
4357 Clouds 2 1026 74 16093 2.1 60 10:43 28.09.2019
4358 Clouds 2 1026 74 16093 2.1 60 10:21 28.09.2019
4359 Clouds 2 1026 74 16093 2.6 60 09:58 28.09.2019
4360 Clouds 2 1026 74 16093 2.6 60 09:40 28.09.2019
4361 Clouds 2 1026 74 16093 2.6 60 09:40 28.09.2019
4362 Clouds 3 1026 74 16093 2.6 60 09:18 28.09.2019
4363 Clouds 3 1027 65 16093 2.6 80 08:46 28.09.2019
4364 Clouds 3 1027 65 16093 2.6 80 08:28 28.09.2019
4365 Clouds 4 1027 74 16093 0.94 80.548 07:46 28.09.2019
4366 -273 0 0 0 0 0 07:24 28.09.2019
4367 Clouds 5 1027 70 16093 0.94 80.548 06:59 28.09.2019
4368 Clouds 5 1027 70 16093 0.94 80.548 06:33 28.09.2019
4369 Clouds 6 1028 71 16093 0.47 74.724 05:59 28.09.2019
4370 Clouds 6 1028 71 16093 0.47 74.724 05:24 28.09.2019
4371 Clouds 7 1028 52 16093 0.47 74.724 04:44 28.09.2019
4372 Clouds 7 1028 52 16093 0.47 74.724 04:21 28.09.2019
4373 Clouds 7 1029 52 16093 0.47 74.724 03:33 28.09.2019
4374 Clouds 7 1029 52 14484 0.96 118.534 02:57 28.09.2019
4375 Clouds 7 1029 52 14484 0.96 118.534 02:36 28.09.2019
4376 Clear 7 1030 57 16093 1.5 100 01:56 28.09.2019
4377 Clear 7 1030 57 16093 1.5 100 01:56 28.09.2019
4378 Clear 7 1030 57 16093 1.5 100 01:38 28.09.2019
4379 Clear 7 1030 53 16093 1.5 100 01:18 28.09.2019
4380 Clear 6 1030 53 16093 0.8 119.194 00:43 28.09.2019
4381 Clear 6 1030 53 16093 0.8 119.194 00:25 28.09.2019
4382 Clear 6 1031 70 16093 1.1 127.306 23:38 27.09.2019
4383 Clear 5 1031 70 16093 1.1 127.306 23:20 27.09.2019
4384 Clear 4 1031 80 16093 1.1 127.306 22:47 27.09.2019
4385 Clear 4 1031 80 16093 1.1 127.306 22:47 27.09.2019
4386 Clear 4 1031 80 16093 1.1 127.306 22:20 27.09.2019
4387 Clear 3 1031 63 14484 1.1 127.306 21:59 27.09.2019
4388 Clear 2 1031 63 14484 1.1 127.306 21:39 27.09.2019
4389 Clear 1 1031 86 14484 0.91 99.993 21:20 27.09.2019
4390 Fog 1 1031 86 11265 0.91 99.993 20:58 27.09.2019
4391 Fog 0 1031 85 11265 0.89 96.853 20:40 27.09.2019
4392 Fog 0 1031 85 11265 0.89 96.853 20:19 27.09.2019
4393 Fog 0 1031 85 11265 0.89 96.853 20:19 27.09.2019
4394 Mist -1 1031 92 6437 0.89 96.853 19:57 27.09.2019
4395 Fog -1 1031 100 14484 0.89 96.853 19:38 27.09.2019
4396 Fog -2 1031 100 14484 0.89 96.853 19:19 27.09.2019
4397 Mist -2 1031 100 6437 0.89 96.853 18:42 27.09.2019
4398 Mist -2 1031 100 6437 0.86 122.076 18:23 27.09.2019
4399 Mist -2 1032 92 9656 1.5 70 17:56 27.09.2019
4400 Mist -2 1032 92 9656 1.5 70 17:38 27.09.2019
4401 Mist -2 1032 92 9656 1.5 70 17:19 27.09.2019
4402 Mist -2 1031 92 201 2.1 50 16:57 27.09.2019
4403 Fog -2 1031 86 402 0.86 122.076 16:37 27.09.2019
4404 Fog -2 1031 86 402 0.86 122.076 16:37 27.09.2019
4405 Fog -2 1031 86 402 0.86 122.076 16:18 27.09.2019
4406 Fog -2 1031 86 402 0.86 122.076 16:18 27.09.2019
4407 Mist -2 1031 92 1207 0.86 122.076 15:45 27.09.2019
4408 Fog -2 1031 100 16093 1.01 143.039 15:21 27.09.2019
4409 Fog -2 1031 100 16093 1.01 143.039 15:21 27.09.2019
4410 Mist -2 1031 100 4828 1.01 143.039 14:59 27.09.2019
4411 Clear -2 1031 100 16093 1.01 143.039 14:41 27.09.2019
4412 Clear -1 1031 100 16093 1.01 143.039 14:21 27.09.2019
4413 Clear -1 1031 96 16093 1.01 143.039 13:58 27.09.2019
4414 Clear -1 1031 96 16093 1.01 143.039 13:39 27.09.2019
4415 Clear 0 1031 96 16093 0.96 134.83 13:21 27.09.2019
4416 Clouds 0 1031 96 16093 1.5 80 12:54 27.09.2019
4417 Clouds 0 1031 94 16093 1.5 80 12:24 27.09.2019
4418 Clouds 0 1031 100 16093 1.07 159.976 11:58 27.09.2019
4419 Clouds 1 1031 100 16093 1.07 159.976 11:38 27.09.2019
4420 Clouds 1 1031 100 16093 1.07 159.976 11:20 27.09.2019
4421 Clouds 1 1030 93 16093 1.07 159.976 10:43 27.09.2019
4422 Clouds 1 1030 93 16093 1.07 159.976 10:23 27.09.2019
4423 Clouds 1 1030 93 16093 1.07 159.976 09:58 27.09.2019
4424 Clouds 1 1030 93 16093 1.07 159.976 09:40 27.09.2019
4425 Clouds 1 1030 93 16093 1.33 202.848 09:19 27.09.2019
4426 Clouds 2 1030 100 16093 1.33 202.848 08:42 27.09.2019
4427 Clouds 2 1030 100 16093 1.29 207.542 08:21 27.09.2019
4428 Clouds 2 1030 93 14484 1.29 207.542 07:57 27.09.2019
4429 Drizzle 2 1030 93 16093 1.29 207.542 07:39 27.09.2019
4430 Drizzle 2 1030 93 16093 1.29 207.542 07:19 27.09.2019
4431 Rain 2 1029 86 12874 1.29 207.542 06:40 27.09.2019
4432 Rain 2 1029 86 16093 1.31 180.614 06:21 27.09.2019
4433 Rain 3 1029 75 14484 2.1 240 05:47 27.09.2019
4434 Rain 4 1029 75 14484 2.1 240 05:29 27.09.2019
4435 Rain 5 1028 75 16093 2.6 230 03:40 27.09.2019
4436 Rain 5 1028 70 16093 3.6 250 01:57 27.09.2019
4437 Rain 5 1028 70 16093 3.6 250 01:57 27.09.2019
4438 Rain 5 1027 70 16093 2.1 0 01:34 27.09.2019
4439 Rain 4 1027 80 14484 3.1 220 00:44 27.09.2019
4440 Rain 4 1027 86 16093 2.6 230 23:59 26.09.2019
4441 Rain 4 1027 86 16093 2.6 230 23:41 26.09.2019
4442 Rain 4 1027 86 16093 2.6 230 23:22 26.09.2019
4443 Rain 3 1027 93 11265 1.5 260 22:59 26.09.2019
4444 Rain 3 1026 93 9656 2.6 270 22:40 26.09.2019
4445 Rain 3 1026 93 9656 2.6 270 22:19 26.09.2019
4446 Drizzle 3 1026 93 14484 2.6 220 21:59 26.09.2019
4447 Drizzle 3 1026 93 14484 2.6 220 21:59 26.09.2019
4448 Drizzle 3 1026 93 16093 3.1 230 21:38 26.09.2019
4449 Drizzle 2 1026 93 16093 3.1 230 21:20 26.09.2019
4450 Drizzle 2 1025 86 8047 3.6 200 20:59 26.09.2019
4451 -273 0 0 0 0 0 20:40 26.09.2019
4452 Drizzle 2 1025 93 8047 2.1 200 20:40 26.09.2019
4453 Drizzle 2 1025 93 8047 2.1 200 20:22 26.09.2019
4454 Mist 2 1025 100 14484 2.6 220 19:59 26.09.2019
4455 Clouds 2 1024 100 16093 3.1 230 19:40 26.09.2019
4456 Clouds 1 1024 90 12874 1.5 190 19:18 26.09.2019
4457 Clouds 1 1024 90 12874 1.5 190 18:57 26.09.2019
4458 Rain 1 1023 100 16093 1.5 220 18:37 26.09.2019
4459 Clouds 1 1023 93 11265 2.1 220 18:19 26.09.2019
4460 Clouds 1 1023 93 12874 2.1 200 17:38 26.09.2019
4461 Clouds 1 1023 93 12874 2.1 200 17:38 26.09.2019
4462 Clouds 1 1023 93 12874 2.1 200 17:19 26.09.2019
4463 Clouds 1 1022 98 16093 2.1 0 16:58 26.09.2019
4464 Clouds 1 1021 98 16093 0.81 208.91 16:39 26.09.2019
4465 Clouds 1 1021 98 16093 0.81 208.91 16:20 26.09.2019
4466 Clouds 1 1021 98 16093 2.6 270 15:56 26.09.2019
4467 Clouds 1 1021 98 16093 2.6 270 15:37 26.09.2019
4468 Clouds 1 1021 97 16093 2.6 270 15:18 26.09.2019
4469 Clouds 1 1020 97 16093 2.6 220 14:41 26.09.2019
4470 Clouds 1 1020 97 16093 2.6 220 14:23 26.09.2019
4471 Clouds 1 1019 97 16093 2.1 270 13:58 26.09.2019
4472 Clouds 1 1019 97 16093 1.5 260 13:40 26.09.2019
4473 Clouds 1 1018 93 16093 1.5 240 13:19 26.09.2019
4474 Clouds 1 1018 93 16093 1.5 240 12:56 26.09.2019
4475 Clouds 1 1018 93 16093 1.5 240 12:38 26.09.2019
4476 Clouds 1 1017 86 16093 1.5 170 12:19 26.09.2019
4477 Clouds 1 1017 86 16093 1.5 170 12:19 26.09.2019
4478 Clouds 1 1017 86 16093 1.02 229.356 11:42 26.09.2019
4479 Clouds 2 1017 97 16093 1.02 229.356 11:21 26.09.2019
4480 Clouds 2 1016 80 16093 2.1 200 10:55 26.09.2019
4481 Clouds 2 1016 80 16093 2.1 200 10:37 26.09.2019
4482 Clouds 2 1016 80 16093 2.1 200 10:19 26.09.2019
4483 Clouds 3 1015 80 14484 2.1 270 09:43 26.09.2019
4484 Clouds 3 1015 80 14484 2.1 270 09:43 26.09.2019
4485 Clouds 3 1015 80 14484 2.1 270 09:25 26.09.2019
4486 Clouds 3 1014 80 16093 2.6 270 08:54 26.09.2019
4487 Clouds 3 1014 80 16093 2.6 270 08:33 26.09.2019
4488 Clouds 3 1013 94 16093 4.1 250 07:59 26.09.2019
4489 Clouds 3 1013 94 16093 4.1 250 07:41 26.09.2019
4490 Clouds 3 1013 94 16093 1.45 235.883 07:20 26.09.2019
4491 Clouds 3 1013 75 16093 4.1 260 06:43 26.09.2019
4492 Clouds 3 1013 75 16093 4.1 260 06:43 26.09.2019
4493 Clouds 3 1013 75 16093 4.1 260 06:24 26.09.2019
4494 Clouds 4 1012 80 16093 4.1 250 05:44 26.09.2019
4495 Clouds 4 1012 80 16093 4.1 250 05:21 26.09.2019
4496 Clouds 6 1010 70 16093 5.1 230 02:47 26.09.2019
4497 Clouds 7 1009 61 16093 2.1 240 01:53 26.09.2019
4498 Clouds 7 1009 65 16093 3.1 260 01:28 26.09.2019
4499 Clouds 7 1009 65 16093 1.83 227.887 00:55 26.09.2019
4500 Clear 7 1008 65 16093 1.83 227.887 00:37 26.09.2019
4501 Clear 6 1008 65 16093 2.6 70 23:47 25.09.2019
4502 Clear 6 1008 65 16093 2.6 70 23:28 25.09.2019
4503 Clouds 5 1008 80 16093 1.5 20 22:57 25.09.2019
4504 Clouds 5 1008 80 16093 1.5 20 22:39 25.09.2019
4505 Clouds 4 1008 80 16093 1.5 20 22:20 25.09.2019
4506 Clouds 3 1007 86 16093 3.1 60 21:57 25.09.2019
4507 Clouds 3 1008 100 16093 3.6 80 21:38 25.09.2019
4508 Clouds 2 1008 100 16093 3.6 80 21:19 25.09.2019
4509 Mist 1 1008 100 6437 4.1 70 20:57 25.09.2019
4510 Mist 1 1008 100 4828 3.1 40 20:39 25.09.2019
4511 Mist 1 1008 100 4828 3.1 40 20:20 25.09.2019
4512 Fog 1 1008 100 805 3.1 60 19:43 25.09.2019
4513 Fog 0 1008 100 805 3.1 60 19:25 25.09.2019
4514 Fog 0 1008 86 805 3.6 40 18:58 25.09.2019
4515 Fog 0 1009 88 805 3.1 80 18:39 25.09.2019
4516 Fog 0 1009 98 805 3.1 80 18:21 25.09.2019
4517 Fog 0 1009 98 402 2.6 100 17:59 25.09.2019
4518 Fog 0 1010 98 402 1.5 110 17:38 25.09.2019
4519 Fog 0 1010 98 402 1.5 110 17:19 25.09.2019
4520 Mist 0 1010 100 1006 1.5 90 16:45 25.09.2019
4521 Mist 0 1010 100 1006 1.5 90 16:27 25.09.2019
4522 Fog 1 1010 86 402 0.99 72.889 15:59 25.09.2019
4523 Fog 0 1011 100 805 0.99 72.889 15:40 25.09.2019
4524 Fog 0 1011 100 805 0.62 160.056 15:22 25.09.2019
4525 Mist 1 1011 98 402 0.62 160.056 14:56 25.09.2019
4526 Mist 1 1011 100 2213 0.62 160.056 14:38 25.09.2019
4527 Mist 1 1011 100 2213 0.62 160.056 14:20 25.09.2019
4528 Mist 1 1012 100 4023 1.5 230 13:41 25.09.2019
4529 Mist 1 1012 100 4023 1.5 230 13:22 25.09.2019
4530 Mist 1 1012 100 4023 1.5 230 13:22 25.09.2019
4531 Clouds 2 1012 93 16093 3.6 230 12:58 25.09.2019
4532 Clouds 2 1012 93 16093 3.6 230 12:39 25.09.2019
4533 Clouds 2 1012 93 16093 3.6 230 12:21 25.09.2019
4534 Mist 2 1012 93 9656 2.6 0 11:55 25.09.2019
4535 Rain 2 1012 100 16093 4.1 220 11:36 25.09.2019
4536 Rain 2 1012 100 16093 4.1 220 11:18 25.09.2019
4537 Rain 3 1012 93 16093 4.6 240 10:41 25.09.2019
4538 Rain 3 1012 93 16093 4.6 240 10:23 25.09.2019
4539 Rain 3 1012 93 16093 3.6 240 09:56 25.09.2019
4540 Rain 3 1012 86 16093 4.1 250 09:37 25.09.2019
4541 Rain 3 1012 86 16093 4.1 250 09:19 25.09.2019
4542 Rain 4 1011 93 16093 4.1 230 08:42 25.09.2019
4543 Rain 4 1011 93 16093 4.1 230 08:21 25.09.2019
4544 Rain 4 1011 93 16093 4.1 230 08:21 25.09.2019
4545 Rain 4 1011 93 16093 3.6 240 07:57 25.09.2019
4546 Rain 4 1011 81 16093 3.6 250 07:38 25.09.2019
4547 Rain 5 1011 81 16093 3.6 250 07:19 25.09.2019
4548 Rain 5 1011 75 16093 4.6 250 06:43 25.09.2019
4549 Rain 5 1011 75 16093 4.6 250 06:22 25.09.2019
4550 Clouds 5 1010 83 16093 4.1 220 05:28 25.09.2019
4551 Rain 6 1009 83 16093 1.74 261.656 04:50 25.09.2019
4552 Clouds 6 1008 60 16093 2.6 220 02:19 25.09.2019
4553 Clouds 6 1008 56 16093 1.4 256.79 00:45 25.09.2019
4554 Clouds 5 1008 65 16093 1.4 256.79 00:25 25.09.2019
4555 Clouds 5 1008 65 16093 0.69 249.522 23:57 24.09.2019
4556 Clouds 5 1008 60 16093 0.69 249.522 23:38 24.09.2019
4557 Clouds 5 1008 60 16093 0.69 249.522 23:19 24.09.2019
4558 Clouds 4 1008 64 16093 0.69 249.522 22:39 24.09.2019
4559 Clouds 4 1008 64 16093 0.69 249.522 22:20 24.09.2019
4560 Clear 3 1008 74 14484 2.1 80 21:56 24.09.2019
4561 Clear 3 1008 74 14484 2.1 80 21:37 24.09.2019
4562 Clear 2 1008 74 14484 2.1 80 21:19 24.09.2019
4563 Clear 1 1008 80 16093 1.5 60 20:58 24.09.2019
4564 Clear 0 1008 80 16093 1.5 60 20:39 24.09.2019
4565 Clear 0 1008 80 16093 1.5 60 20:20 24.09.2019
4566 Clear 0 1008 86 14484 0.31 75.116 19:55 24.09.2019
4567 Clear 0 1008 86 14484 0.31 75.116 19:36 24.09.2019
4568 Clear -1 1007 86 14484 2.6 60 19:18 24.09.2019
4569 Clear -1 1007 86 14484 2.6 60 19:18 24.09.2019
4570 Clear -1 1007 86 14484 2.6 60 18:42 24.09.2019
4571 Clear -2 1007 86 14484 2.6 60 18:22 24.09.2019
4572 Clear -2 1006 86 16093 0.73 58.086 17:59 24.09.2019
4573 Clear -2 1006 86 16093 0.73 58.086 17:39 24.09.2019
4574 Clear -2 1006 86 16093 0.73 58.086 17:39 24.09.2019
4575 Clear -2 1006 86 16093 0.73 58.086 17:21 24.09.2019
4576 Clear -1 1006 86 16093 1.5 40 16:59 24.09.2019
4577 Clear -1 1006 86 16093 1.5 40 16:59 24.09.2019
4578 Clear -1 1006 86 16093 1.5 40 16:40 24.09.2019
4579 Clear -1 1006 86 16093 1.5 40 16:19 24.09.2019
4580 Clear -1 1006 86 16093 1.5 40 16:19 24.09.2019
4581 Clear -1 1006 80 16093 2.1 50 15:43 24.09.2019
4582 Clear -1 1006 80 16093 2.1 50 15:23 24.09.2019
4583 Clear -1 1005 86 16093 1.5 70 14:58 24.09.2019
4584 Clear -1 1005 86 16093 1.5 70 14:58 24.09.2019
4585 Clear -1 1005 86 16093 1.5 70 14:37 24.09.2019
4586 Clear -1 1005 86 16093 1.5 70 14:18 24.09.2019
4587 Clear 0 1005 80 16093 3.1 70 13:40 24.09.2019
4588 Clear 0 1005 80 16093 3.1 70 13:21 24.09.2019
4589 Clear 0 1004 86 16093 1.5 80 12:42 24.09.2019
4590 Clear 0 1004 86 16093 1.5 80 12:21 24.09.2019
4591 Clear 0 1004 81 16093 1.5 90 11:57 24.09.2019
4592 Clear 0 1004 81 16093 1.5 90 11:39 24.09.2019
4593 Clear 0 1004 81 16093 1.5 90 11:19 24.09.2019
4594 Clear 0 1003 81 16093 2.1 80 10:40 24.09.2019
4595 Clear 1 1003 81 16093 2.1 80 10:21 24.09.2019
4596 Clear 2 1003 69 16093 1.1 2.659 09:57 24.09.2019
4597 Clear 2 1003 69 16093 1.1 2.659 09:39 24.09.2019
4598 Clear 2 1003 69 16093 1.22 340.51 09:19 24.09.2019
4599 Clear 2 1002 52 16093 1.5 260 08:55 24.09.2019
4600 Clear 2 1002 52 16093 1.5 260 08:55 24.09.2019
4601 Clear 2 1002 52 16093 1.5 260 08:55 24.09.2019
4602 Clear 2 1002 52 16093 1.5 260 08:55 24.09.2019
4603 Clear 2 1002 52 16093 1.5 260 08:55 24.09.2019
4604 Clear 2 1002 52 16093 1.5 260 08:36 24.09.2019
4605 Clear 2 1002 52 16093 1.5 260 08:18 24.09.2019
4606 Clear 2 1002 52 16093 1.5 260 08:18 24.09.2019
4607 Clear 3 1001 56 16093 2.1 280 07:41 24.09.2019
4608 Clear 4 1001 56 16093 2.1 280 07:23 24.09.2019
4609 Clear 6 1001 39 16093 2.6 270 06:46 24.09.2019
4610 Clouds 6 1001 65 16093 1.19 331.973 06:27 24.09.2019
4611 Clear 9 1000 37 16093 3.1 290 05:25 24.09.2019
4612 Clear 11 1000 32 16093 2.1 270 04:19 24.09.2019
4613 Clear 11 999 30 16093 2.6 330 03:34 24.09.2019
4614 Clear 11 999 37 16093 2.6 240 02:45 24.09.2019
4615 Clear 11 999 40 16093 2.6 240 01:43 24.09.2019
4616 Clear 10 999 43 16093 1.6 301.338 00:42 24.09.2019
4617 Clear 10 999 43 16093 0.77 290.748 00:23 24.09.2019
4618 Clear 9 999 49 16093 0.77 290.748 23:43 23.09.2019
4619 Clear 8 999 49 16093 0.77 290.748 23:23 23.09.2019
4620 Clear 8 999 52 16093 0.77 290.748 22:57 23.09.2019
4621 Clear 7 999 52 16093 0.77 290.748 22:37 23.09.2019
4622 Clear 8 999 52 16093 0.77 290.748 22:37 23.09.2019
4623 Clear 7 999 52 16093 0.77 290.748 22:19 23.09.2019
4624 Clear 6 999 69 16093 0.77 290.748 21:56 23.09.2019
4625 Clear 5 999 69 16093 0.77 290.748 21:37 23.09.2019
4626 Clear 4 999 69 16093 0.57 345.818 21:18 23.09.2019
4627 Clear 3 999 80 14484 0.54 348.836 20:40 23.09.2019
4628 Clear 2 999 80 14484 0.54 348.836 20:19 23.09.2019
4629 Clear 1 999 59 14484 0.54 348.836 19:55 23.09.2019
4630 Clear 1 999 59 14484 0.54 348.836 19:55 23.09.2019
4631 Clear 1 999 59 14484 0.54 348.836 19:37 23.09.2019
4632 Clear 0 998 92 14484 0.54 348.836 19:19 23.09.2019
4633 Clear 0 998 92 14484 0.54 348.836 18:42 23.09.2019
4634 Clear 0 998 92 14484 0.54 348.836 18:42 23.09.2019
4635 Clear 0 999 86 16093 1.22 34.015 18:21 23.09.2019
4636 Clear 0 999 86 16093 1.22 34.015 17:59 23.09.2019
4637 Clear 0 999 86 16093 1.22 34.015 17:39 23.09.2019
4638 Clear 0 999 86 16093 1.22 34.015 17:20 23.09.2019
4639 Clear 0 999 63 16093 2.1 40 16:58 23.09.2019
4640 Clear 0 999 63 16093 2.1 40 16:37 23.09.2019
4641 Clear 0 999 63 16093 2.1 40 16:19 23.09.2019
4642 Clouds 0 999 63 16093 1.22 34.015 15:57 23.09.2019
4643 Clouds 0 999 63 16093 1.22 34.015 15:38 23.09.2019
4644 Clouds 0 999 64 16093 1.89 27.094 15:19 23.09.2019
4645 Clouds 0 998 64 16093 4.1 70 14:40 23.09.2019
4646 Clouds 0 998 64 16093 4.1 70 14:40 23.09.2019
4647 Clouds 0 998 64 16093 4.1 70 14:40 23.09.2019
4648 Clouds 0 998 64 16093 4.1 70 14:21 23.09.2019
4649 Clear 0 999 92 16093 2.1 70 13:59 23.09.2019
4650 Clear -1 999 92 16093 2.1 70 13:39 23.09.2019
4651 Clear 0 999 92 16093 2.1 70 13:18 23.09.2019
4652 Clear 0 999 86 16093 4.1 50 12:56 23.09.2019
4653 Clear 0 1000 65 16093 2.1 80 12:37 23.09.2019
4654 Clear -1 1000 72 16093 2.1 80 12:19 23.09.2019
4655 Clear -1 1000 72 16093 4.1 70 11:44 23.09.2019
4656 Clear -1 1000 72 16093 4.1 70 11:26 23.09.2019
4657 Clear 0 1000 72 16093 5.1 60 10:55 23.09.2019
4658 Clear -1 1000 72 16093 5.1 60 10:36 23.09.2019
4659 Clear 0 1000 72 16093 5.1 60 10:18 23.09.2019
4660 Clear 0 1000 86 16093 3.1 70 09:38 23.09.2019
4661 Clear 1 1000 86 16093 3.1 70 09:20 23.09.2019
4662 Clear 1 1000 74 16093 2.6 70 08:50 23.09.2019
4663 Clear 1 1000 74 16093 2.6 70 08:30 23.09.2019
4664 Clear 2 1000 77 16093 2.1 50 07:58 23.09.2019
4665 Clear 2 1000 77 16093 2.1 50 07:33 23.09.2019
4666 Clear 4 1001 75 16093 1.85 38.288 06:44 23.09.2019
4667 Clear 5 1001 68 16093 2.1 50 06:18 23.09.2019
4668 Clear 6 1001 68 16093 2.1 50 05:22 23.09.2019
4669 Clear 8 1001 49 14484 0.96 62.072 04:55 23.09.2019
4670 Clear 7 1002 49 16093 1.5 50 03:54 23.09.2019
4671 Clear 7 1003 52 16093 2.6 140 01:22 23.09.2019
4672 Clear 6 1003 74 16093 0.97 131.811 00:23 23.09.2019
4673 Clear 6 1003 74 16093 0.97 131.811 23:57 22.09.2019
4674 Clear 6 1003 74 16093 0.97 131.811 23:33 22.09.2019
4675 Clear 5 1004 74 16093 0.97 131.811 22:59 22.09.2019
4676 Clear 5 1004 74 16093 0.97 131.811 22:41 22.09.2019
4677 Clear 4 1004 74 16093 0.97 131.811 22:23 22.09.2019
4678 Clear 4 1004 74 16093 0.97 131.811 22:23 22.09.2019
4679 Clear 3 1004 86 12874 1.5 60 21:55 22.09.2019
4680 Clear 3 1004 86 12874 1.5 60 21:37 22.09.2019
4681 Clear 3 1004 86 12874 1.5 60 21:37 22.09.2019
4682 Clear 2 1004 86 12874 1.5 60 21:19 22.09.2019
4683 Clear 1 1004 93 12874 2.6 70 20:42 22.09.2019
4684 Clear 1 1004 93 12874 2.6 70 20:24 22.09.2019
4685 Fog 0 1003 91 12874 2.1 70 19:56 22.09.2019
4686 Fog 0 1003 91 12874 2.1 70 19:37 22.09.2019
4687 Fog 0 1003 91 16093 1.5 350 19:19 22.09.2019
4688 Fog -1 1003 91 16093 1.5 350 18:56 22.09.2019
4689 Fog -1 1003 91 14484 2.1 70 18:36 22.09.2019
4690 Fog -1 1003 91 14484 2.1 70 18:36 22.09.2019
4691 Fog -1 1003 92 16093 0.88 136.478 18:18 22.09.2019
4692 Clouds -1 1003 98 14484 2.1 60 17:42 22.09.2019
4693 Clouds -1 1003 98 14484 2.1 60 17:24 22.09.2019
4694 Clouds 0 1003 100 16093 0.88 136.478 16:46 22.09.2019
4695 Clouds 0 1003 100 16093 0.88 136.478 16:27 22.09.2019
4696 Clouds 1 1003 93 14484 0.88 136.478 15:58 22.09.2019
4697 Clouds 1 1003 93 14484 0.88 136.478 15:40 22.09.2019
4698 Clouds 1 1003 93 14484 0.98 163.183 15:22 22.09.2019
4699 Clouds 1 1003 93 16093 0.98 163.183 14:47 22.09.2019
4700 Clouds 1 1003 93 16093 0.98 163.183 14:27 22.09.2019
4701 Clouds 1 1003 93 16093 0.98 163.183 13:59 22.09.2019
4702 Clouds 1 1003 93 16093 0.98 163.183 13:41 22.09.2019
4703 Clouds 1 1003 93 16093 0.98 163.183 13:41 22.09.2019
4704 Clouds 1 1003 93 16093 1 165.28 13:22 22.09.2019
4705 Clouds 1 1002 97 16093 3.1 200 12:56 22.09.2019
4706 Clouds 1 1002 97 16093 3.1 200 12:38 22.09.2019
4707 Clouds 1 1002 97 16093 1.5 160 12:18 22.09.2019
4708 Clouds 2 1002 93 16093 4.1 210 11:43 22.09.2019
4709 Clouds 2 1002 93 16093 4.1 210 11:24 22.09.2019
4710 Clouds 2 1002 97 16093 1.5 190 10:55 22.09.2019
4711 Clouds 3 1002 97 16093 1.5 190 10:55 22.09.2019
4712 Clouds 3 1002 93 16093 4.6 210 10:37 22.09.2019
4713 Clouds 3 1001 93 16093 4.1 220 10:18 22.09.2019
4714 Clouds 3 1001 93 16093 4.1 220 09:42 22.09.2019
4715 Clouds 3 1001 93 16093 4.1 220 09:42 22.09.2019
4716 Clouds 3 1001 93 16093 4.1 220 09:21 22.09.2019
4717 Clouds 3 1001 93 16093 4.1 220 09:21 22.09.2019
4718 Clouds 3 1001 93 16093 4.1 220 08:48 22.09.2019
4719 Rain 3 1001 93 16093 4.1 220 08:26 22.09.2019
4720 Rain 3 1001 93 16093 4.1 220 07:58 22.09.2019
4721 Rain 3 1001 93 16093 4.6 220 07:39 22.09.2019
4722 Rain 3 1001 93 16093 4.6 220 07:21 22.09.2019
4723 Rain 3 1000 86 16093 3.6 200 06:56 22.09.2019
4724 Rain 4 1000 93 14484 4.1 220 05:45 22.09.2019
4725 Rain 4 999 86 12874 7.7 250 03:53 22.09.2019
4726 Rain 4 998 86 14484 5.1 250 02:43 22.09.2019
4727 Rain 4 998 86 14484 5.1 250 02:23 22.09.2019
4728 Rain 4 998 86 12874 5.7 240 01:35 22.09.2019
4729 Rain 4 998 86 14484 5.7 250 00:40 22.09.2019
4730 Rain 4 998 86 14484 5.7 250 00:21 22.09.2019
4731 Rain 4 998 86 14484 5.7 250 00:21 22.09.2019
4732 Rain 4 997 93 12874 4.6 230 23:45 21.09.2019
4733 Rain 4 997 93 12874 4.6 230 23:27 21.09.2019
4734 Rain 4 996 93 12874 5.7 220 22:40 21.09.2019
4735 Rain 3 996 93 12874 5.7 220 22:21 21.09.2019
4736 Rain 3 996 93 14484 5.1 230 21:57 21.09.2019
4737 Rain 3 995 93 14484 5.7 230 21:38 21.09.2019
4738 Rain 3 995 93 12874 5.7 230 21:18 21.09.2019
4739 Rain 3 995 93 12874 5.7 230 21:18 21.09.2019
4740 Rain 3 995 93 16093 5.7 240 20:41 21.09.2019
4741 Rain 3 995 93 16093 5.7 240 20:22 21.09.2019
4742 Rain 3 994 93 14484 4.6 230 19:57 21.09.2019
4743 Rain 3 994 93 14484 4.6 230 19:57 21.09.2019
4744 Rain 3 994 93 16093 4.6 230 19:39 21.09.2019
4745 Rain 3 994 93 14484 5.1 230 19:18 21.09.2019
4746 Rain 3 993 93 16093 6.7 240 18:39 21.09.2019
4747 Rain 3 993 93 16093 6.7 240 18:20 21.09.2019
4748 Rain 3 993 93 16093 6.7 240 18:20 21.09.2019
4749 Rain 3 992 93 16093 6.2 240 17:42 21.09.2019
4750 Rain 4 992 93 16093 6.2 240 17:23 21.09.2019
4751 Rain 4 992 93 16093 7.2 230 16:56 21.09.2019
4752 Rain 4 991 100 16093 6.7 230 16:36 21.09.2019
4753 Rain 4 991 100 16093 6.7 230 16:18 21.09.2019
4754 Rain 5 990 93 14484 6.2 240 15:42 21.09.2019
4755 Rain 5 990 93 14484 6.2 240 15:20 21.09.2019
4756 Rain 5 990 93 9656 4.1 240 14:47 21.09.2019
4757 Rain 5 989 100 14484 4.6 240 14:28 21.09.2019
4758 Rain 5 989 100 14484 4.6 240 14:28 21.09.2019
4759 Rain 5 989 100 14484 5.1 240 13:45 21.09.2019
4760 Rain 6 988 100 14484 5.7 240 13:25 21.09.2019
4761 Rain 6 988 100 14484 5.7 240 13:25 21.09.2019
4762 Rain 6 988 87 12874 2.6 240 12:59 21.09.2019
4763 Rain 6 988 100 14484 4.1 230 12:41 21.09.2019
4764 Rain 6 988 100 14484 4.1 230 12:20 21.09.2019
4765 Rain 6 987 93 9656 2.1 220 11:58 21.09.2019
4766 Rain 6 987 93 16093 3.6 200 11:39 21.09.2019
4767 Rain 6 987 93 16093 3.6 200 11:19 21.09.2019
4768 Rain 7 987 93 16093 1.5 200 10:40 21.09.2019
4769 Rain 7 987 93 16093 1.5 200 10:21 21.09.2019
4770 Rain 8 986 93 6437 1.5 60 09:57 21.09.2019
4771 Rain 8 986 93 6437 1.5 60 09:38 21.09.2019
4772 Rain 8 986 93 6437 1.5 60 09:19 21.09.2019
4773 Rain 8 986 93 6437 1.64 312.872 08:48 21.09.2019
4774 Rain 8 986 100 4023 2.1 40 08:22 21.09.2019
4775 Rain 9 986 87 12874 1.65 317.927 07:40 21.09.2019
4776 Rain 9 986 93 16093 1.5 280 07:20 21.09.2019
4777 Rain 9 986 93 16093 1.5 280 07:20 21.09.2019
4778 Rain 9 986 93 14484 1.65 317.927 06:36 21.09.2019
4779 Rain 10 986 87 12874 2.1 190 05:51 21.09.2019
4780 Rain 10 986 81 16093 2.1 320 04:40 21.09.2019
4781 Rain 11 986 76 14484 1.5 350 03:39 21.09.2019
4782 Rain 10 987 76 16093 4.1 10 02:25 21.09.2019
4783 Rain 10 988 81 16093 1.88 340.946 01:49 21.09.2019
4784 Rain 10 988 81 16093 1.88 340.946 01:26 21.09.2019
4785 Rain 10 989 81 9656 2.6 80 00:26 21.09.2019
4786 Rain 9 989 81 12874 3.1 50 23:58 20.09.2019
4787 Clouds 9 990 93 16093 1.68 15.626 23:30 20.09.2019
4788 Rain 9 991 93 12874 1.68 15.626 22:59 20.09.2019
4789 Rain 9 991 100 9656 1.68 15.626 22:38 20.09.2019
4790 Rain 9 991 100 9656 1.68 15.626 22:20 20.09.2019
4791 Rain 9 991 93 9656 1.5 130 21:55 20.09.2019
4792 Rain 8 992 93 8047 1.68 15.626 21:37 20.09.2019
4793 Rain 8 992 93 8047 2.39 17.191 21:18 20.09.2019
4794 Rain 7 992 87 8047 3.1 40 20:41 20.09.2019
4795 Rain 8 992 87 8047 3.1 40 20:21 20.09.2019
4796 Rain 8 992 87 12874 2.6 60 19:58 20.09.2019
4797 Clouds 7 993 93 14484 1.5 40 19:39 20.09.2019
4798 Rain 7 993 93 14484 1.5 40 19:20 20.09.2019
4799 Rain 7 994 93 14484 1.5 30 18:40 20.09.2019
4800 Clouds 6 994 93 14484 1.5 30 18:20 20.09.2019
4801 Clouds 6 995 100 16093 1.71 1.544 17:59 20.09.2019
4802 Clouds 6 995 100 16093 1.71 1.544 17:41 20.09.2019
4803 Clouds 6 995 100 16093 1.71 1.544 17:22 20.09.2019
4804 Clouds 6 996 93 16093 2.6 60 16:41 20.09.2019
4805 Clouds 6 996 93 16093 2.6 60 16:19 20.09.2019
4806 Clear 5 997 93 16093 2.1 100 15:55 20.09.2019
4807 Clouds 5 997 94 0 1.71 1.544 15:37 20.09.2019
4808 Rain 6 998 93 16093 1.84 15.903 15:19 20.09.2019
4809 Rain 6 998 93 16093 1.84 15.903 14:42 20.09.2019
4810 Rain 6 998 93 16093 1.84 15.903 14:19 20.09.2019
4811 Rain 5 999 93 14484 1.5 40 13:48 20.09.2019
4812 Rain 5 999 93 14484 1.5 40 13:28 20.09.2019
4813 Rain 6 999 93 14484 1.5 40 12:57 20.09.2019
4814 Clouds 5 999 100 14484 1.95 17.421 12:37 20.09.2019
4815 Rain 6 1000 100 14484 1.68 24.229 12:18 20.09.2019
4816 Rain 6 1000 100 14484 1.68 24.229 11:48 20.09.2019
4817 Clouds 6 1000 93 16093 1.68 24.229 11:21 20.09.2019
4818 Rain 5 1001 93 4828 2.1 70 10:43 20.09.2019
4819 Rain 6 1001 93 4828 2.1 70 10:24 20.09.2019
4820 Rain 6 1001 93 14484 1.5 120 09:59 20.09.2019
4821 Clouds 6 1001 75 16093 3.6 360 09:37 20.09.2019
4822 Clouds 6 1001 75 16093 3.6 360 09:37 20.09.2019
4823 Clouds 6 1001 75 16093 3.6 360 09:18 20.09.2019
4824 Clouds 5 1002 93 16093 1.08 25.595 08:41 20.09.2019
4825 Clouds 5 1002 93 16093 1.08 25.595 08:23 20.09.2019
4826 Clouds 6 1002 87 16093 1.08 25.595 07:47 20.09.2019
4827 Clouds 5 1002 93 16093 1.24 48.274 07:28 20.09.2019
4828 Clouds 6 1003 87 16093 1.5 20 06:44 20.09.2019
4829 Clouds 6 1003 87 16093 1.5 20 06:22 20.09.2019
4830 Clouds 7 1004 81 16093 2.6 40 05:47 20.09.2019
4831 Clouds 7 1004 75 16093 1.5 170 03:42 20.09.2019
4832 Clouds 7 1004 75 16093 1.5 170 03:19 20.09.2019
4833 Rain 7 1005 75 16093 2.6 210 01:45 20.09.2019
4834 Rain 7 1005 75 16093 3.1 190 00:53 20.09.2019
4835 Rain 7 1005 87 16093 3.1 190 00:26 20.09.2019
4836 Rain 7 1005 93 16093 3.6 200 23:44 19.09.2019
4837 Rain 6 1005 93 16093 3.6 200 23:20 19.09.2019
4838 Rain 6 1004 100 16093 2.6 280 22:57 19.09.2019
4839 Rain 6 1004 100 16093 2.6 280 22:37 19.09.2019
4840 Rain 6 1004 100 16093 2.6 280 22:19 19.09.2019
4841 Rain 6 1004 93 16093 2.6 210 21:56 19.09.2019
4842 Rain 6 1004 93 8047 2.1 190 21:37 19.09.2019
4843 Rain 6 1004 93 8047 2.1 190 21:18 19.09.2019
4844 Rain 6 1004 100 11265 1.5 210 20:43 19.09.2019
4845 Rain 6 1004 100 11265 1.5 210 20:22 19.09.2019
4846 Rain 6 1003 100 16093 2.1 210 19:55 19.09.2019
4847 Rain 6 1003 100 16093 1.62 197.272 19:37 19.09.2019
4848 Rain 6 1002 93 4023 2.6 180 19:19 19.09.2019
4849 Rain 6 1002 100 16093 1.5 210 18:42 19.09.2019
4850 Rain 5 1002 100 16093 1.5 210 18:24 19.09.2019
4851 Rain 6 1002 100 16093 1.5 210 17:54 19.09.2019
4852 Rain 6 1002 100 16093 1.5 200 17:36 19.09.2019
4853 Rain 6 1002 100 16093 1.5 200 17:18 19.09.2019
4854 Rain 6 1001 93 8047 1.4 200.369 16:56 19.09.2019
4855 Rain 6 1001 100 16093 1.4 200.369 16:37 19.09.2019
4856 Rain 6 1001 100 16093 1.4 200.369 16:18 19.09.2019
4857 Rain 6 1001 100 12874 1.5 210 15:38 19.09.2019
4858 Rain 6 1001 100 12874 1.5 210 15:18 19.09.2019
4859 Rain 6 1000 100 1408 0.62 219.734 14:41 19.09.2019
4860 Rain 6 1000 100 1408 0.62 219.734 14:23 19.09.2019
4861 Mist 6 999 100 4828 0.62 219.734 13:58 19.09.2019
4862 Fog 6 999 93 805 0.62 219.734 13:38 19.09.2019
4863 Fog 6 999 93 805 0.7 194.455 13:19 19.09.2019
4864 Mist 6 999 93 3017 0.7 194.455 12:38 19.09.2019
4865 Rain 6 998 93 805 0.54 229.696 12:19 19.09.2019
4866 Rain 6 998 93 805 0.54 229.696 11:56 19.09.2019
4867 Rain 6 998 100 16093 2.1 210 11:38 19.09.2019
4868 Rain 7 997 93 16093 0.54 229.696 11:19 19.09.2019
4869 Rain 7 997 87 9656 2.6 190 10:40 19.09.2019
4870 Rain 7 997 87 9656 2.6 190 10:21 19.09.2019
4871 Rain 7 996 93 16093 2.6 190 09:58 19.09.2019
4872 Rain 7 996 100 16093 2.1 220 09:40 19.09.2019
4873 Rain 7 996 100 16093 2.1 220 09:20 19.09.2019
4874 Rain 8 996 100 16093 2.6 240 08:52 19.09.2019
4875 Rain 8 996 100 16093 2.6 240 08:27 19.09.2019
4876 Rain 8 995 93 16093 2.6 250 07:55 19.09.2019
4877 Rain 8 995 93 16093 2.1 260 07:36 19.09.2019
4878 Clouds 8 995 93 16093 2.1 260 07:18 19.09.2019
4879 Clouds 9 994 93 16093 1.5 260 06:42 19.09.2019
4880 Clouds 8 994 93 16093 1.5 260 06:24 19.09.2019
4881 Clouds 9 993 93 16093 2.1 220 05:50 19.09.2019
4882 Rain 10 993 81 16093 2.6 230 04:24 19.09.2019
4883 Clouds 10 993 76 16093 2.6 210 03:21 19.09.2019
4884 Rain 10 992 93 16093 0.75 316.292 01:50 19.09.2019
4885 Rain 10 992 93 16093 1.02 351.759 01:20 19.09.2019
4886 Rain 9 992 93 14484 1.02 351.759 00:45 19.09.2019
4887 Rain 9 992 93 14484 0.72 5.309 00:24 19.09.2019
4888 Rain 9 991 93 9656 2.1 60 23:39 18.09.2019
4889 Rain 9 991 93 9656 2.1 60 23:20 18.09.2019
4890 Rain 9 991 93 9656 2.1 60 23:20 18.09.2019
4891 Rain 8 991 87 9656 2.6 60 22:43 18.09.2019
4892 Rain 8 991 87 9656 2.6 60 22:20 18.09.2019
4893 Rain 7 991 100 14484 0.72 5.309 21:58 18.09.2019
4894 Rain 7 991 100 14484 0.72 5.309 21:40 18.09.2019
4895 Rain 7 991 100 14484 0.72 5.309 21:40 18.09.2019
4896 Rain 7 991 100 14484 2.03 37.153 21:19 18.09.2019
4897 Rain 6 991 93 9656 4.1 60 20:58 18.09.2019
4898 Rain 6 991 93 9656 4.1 60 20:40 18.09.2019
4899 Rain 6 991 93 9656 4.1 60 20:22 18.09.2019
4900 Rain 6 991 81 14484 2.1 320 19:57 18.09.2019
4901 Rain 5 991 93 8047 3.6 50 19:38 18.09.2019
4902 Rain 5 991 93 16093 2.13 28.856 19:19 18.09.2019
4903 Rain 5 991 93 16093 2.13 28.856 18:55 18.09.2019
4904 Rain 5 992 93 9656 2.1 60 18:37 18.09.2019
4905 Rain 5 992 93 9656 2.1 60 18:18 18.09.2019
4906 Rain 4 992 93 6437 2.1 60 17:57 18.09.2019
4907 Rain 4 992 93 6437 2.1 60 17:57 18.09.2019
4908 Rain 4 992 93 9656 1.81 29.713 17:39 18.09.2019
4909 Rain 4 993 93 9656 2.6 70 17:18 18.09.2019
4910 Rain 4 992 93 9656 1.81 29.713 17:18 18.09.2019
4911 Rain 4 993 93 9656 2.6 70 16:55 18.09.2019
4912 Rain 4 994 93 2213 3.1 50 16:37 18.09.2019
4913 Rain 4 994 93 2213 3.1 50 16:18 18.09.2019
4914 Rain 3 994 86 2012 2.6 60 15:54 18.09.2019
4915 Rain 3 995 85 4023 2.6 50 15:36 18.09.2019
4916 Rain 3 995 85 4023 2.6 50 15:36 18.09.2019
4917 Rain 3 995 67 4023 2.6 50 15:18 18.09.2019
4918 Rain 3 996 74 14484 2.1 50 14:57 18.09.2019
4919 Clouds 3 996 74 16093 2.1 50 14:37 18.09.2019
4920 Clouds 3 996 74 16093 2.1 50 14:37 18.09.2019
4921 Clouds 3 996 74 16093 2.1 50 14:19 18.09.2019
4922 Clouds 3 998 74 16093 2.1 50 13:42 18.09.2019
4923 Clouds 3 999 80 16093 2.6 60 13:19 18.09.2019
4924 Clouds 3 999 80 16093 2.6 60 12:53 18.09.2019
4925 Clouds 3 999 80 16093 2.6 60 12:32 18.09.2019
4926 Clear 2 1000 72 16093 2.6 60 11:59 18.09.2019
4927 Clear 3 1000 72 16093 2.6 60 11:39 18.09.2019
4928 Clear 2 1000 72 16093 2.6 60 11:19 18.09.2019
4929 Clear 3 1002 72 16093 3.1 70 10:40 18.09.2019
4930 Clear 3 1002 72 16093 3.1 70 10:40 18.09.2019
4931 Clear 3 1002 72 16093 3.1 70 10:40 18.09.2019
4932 Clear 3 1002 72 16093 3.1 70 10:21 18.09.2019
4933 Clear 3 1002 72 16093 3.1 70 10:21 18.09.2019
4934 Clouds 2 1003 69 16093 3.6 30 09:58 18.09.2019
4935 Clouds 2 1003 69 16093 3.6 30 09:58 18.09.2019
4936 Clouds 2 1003 69 16093 3.6 30 09:39 18.09.2019
4937 Clouds 2 1003 69 16093 3.6 30 09:21 18.09.2019
4938 Clouds 2 1004 69 16093 3.1 40 08:45 18.09.2019
4939 Clouds 2 1004 69 16093 3.1 40 08:26 18.09.2019
4940 Clouds 3 1004 64 16093 1.62 38.593 07:59 18.09.2019
4941 Clouds 3 1004 64 16093 1.62 38.593 07:40 18.09.2019
4942 Clouds 3 1004 64 16093 1.62 38.593 07:40 18.09.2019
4943 Clouds 4 1004 64 16093 1.62 38.593 07:22 18.09.2019
4944 Clouds 5 1005 36 16093 2.1 290 06:40 18.09.2019
4945 Clouds 6 1006 36 14484 3.6 310 05:51 18.09.2019
4946 Clouds 7 1005 42 16093 3.1 320 05:21 18.09.2019
4947 Clouds 8 1006 29 16093 4.6 240 03:21 18.09.2019
4948 Clouds 8 1006 49 16093 3.6 200 02:39 18.09.2019
4949 Clouds 8 1006 43 16093 5.1 200 01:25 18.09.2019
4950 Rain 7 1006 43 16093 4.1 200 00:49 18.09.2019
4951 Rain 7 1006 57 16093 4.1 200 00:22 18.09.2019
4952 Clouds 7 1006 57 16093 3.6 200 23:46 17.09.2019
4953 Clouds 7 1006 57 16093 3.6 200 23:46 17.09.2019
4954 Clouds 7 1006 57 16093 3.6 200 23:23 17.09.2019
4955 Clouds 7 1006 57 16093 3.1 240 22:43 17.09.2019
4956 Clouds 7 1006 57 16093 3.1 240 22:24 17.09.2019
4957 Clouds 7 1006 57 16093 3.6 220 21:56 17.09.2019
4958 Clouds 7 1006 57 16093 3.6 220 21:37 17.09.2019
4959 Clouds 6 1006 83 16093 3.6 220 21:19 17.09.2019
4960 Clouds 6 1006 83 16093 3.6 220 21:19 17.09.2019
4961 Clouds 6 1006 75 16093 1.77 202.398 20:58 17.09.2019
4962 Clouds 6 1006 75 16093 1.77 202.398 20:58 17.09.2019
4963 Clouds 6 1006 81 12874 3.6 230 20:40 17.09.2019
4964 Clouds 6 1006 81 12874 3.6 230 20:40 17.09.2019
4965 Clouds 6 1006 81 12874 3.6 230 20:40 17.09.2019
4966 Clouds 6 1006 81 12874 3.6 230 20:22 17.09.2019
4967 Clouds 6 1006 81 12874 3.6 230 20:22 17.09.2019
4968 Clouds 6 1006 81 12874 3.6 230 20:22 17.09.2019
4969 Clouds 6 1006 87 16093 2.1 0 19:58 17.09.2019
4970 Clouds 5 1006 87 16093 2.1 0 19:39 17.09.2019
4971 Clouds 5 1006 87 16093 2.6 0 19:20 17.09.2019
4972 Clouds 5 1006 87 16093 2.6 0 18:57 17.09.2019
4973 Clouds 5 1006 87 16093 2.6 0 18:57 17.09.2019
4974 Rain 5 1006 93 16093 1.77 202.398 18:38 17.09.2019
4975 Rain 5 1006 93 16093 1.76 195.238 18:20 17.09.2019
4976 Rain 6 1006 93 16093 2.6 230 17:46 17.09.2019
4977 Rain 6 1006 93 16093 2.6 230 17:20 17.09.2019
4978 Clouds 5 1005 87 16093 1.76 195.238 16:58 17.09.2019
4979 Clouds 5 1006 93 16093 1.76 195.238 16:40 17.09.2019
4980 Clouds 5 1006 93 16093 1.76 195.238 16:21 17.09.2019
4981 Clouds 6 1005 93 16093 1.76 195.238 15:40 17.09.2019
4982 Clouds 6 1005 93 16093 1.27 185.711 15:21 17.09.2019
4983 Rain 6 1005 87 14484 1.27 185.711 14:57 17.09.2019
4984 Rain 6 1005 87 16093 1.27 185.711 14:39 17.09.2019
4985 Rain 6 1005 87 16093 1.27 185.711 14:19 17.09.2019
4986 Clouds 6 1005 87 16093 1.27 185.711 13:57 17.09.2019
4987 Rain 6 1005 81 16093 1.27 185.711 13:38 17.09.2019
4988 Rain 6 1005 81 16093 1.46 188.364 13:20 17.09.2019
4989 Clouds 6 1005 81 16093 2.1 60 12:42 17.09.2019
4990 Clouds 6 1005 81 16093 2.1 60 12:20 17.09.2019
4991 Clouds 6 1005 81 16093 1.01 205.343 11:46 17.09.2019
4992 Clouds 6 1005 81 16093 1.01 205.343 11:27 17.09.2019
4993 Clouds 6 1004 87 16093 2.1 150 10:59 17.09.2019
4994 Clouds 6 1004 93 16093 1.5 140 10:41 17.09.2019
4995 Clouds 7 1004 93 16093 1.5 140 10:21 17.09.2019
4996 Clouds 7 1004 87 16093 1.01 205.343 09:55 17.09.2019
4997 Rain 7 1004 81 14484 1.01 205.343 09:37 17.09.2019
4998 Rain 7 1004 81 14484 0.38 304.029 09:19 17.09.2019
4999 Clouds 8 1004 75 16093 0.38 304.029 08:43 17.09.2019
5000 Clouds 8 1004 75 16093 0.38 304.029 08:43 17.09.2019
5001 Clouds 8 1004 75 16093 1.17 288.528 08:25 17.09.2019
5002 Clouds 8 1004 82 16093 1.5 280 07:45 17.09.2019
5003 Clouds 8 1004 82 16093 1.5 280 07:27 17.09.2019
5004 Clouds 8 1004 82 14484 1.5 290 06:54 17.09.2019
5005 Clouds 9 1004 82 14484 1.5 290 06:35 17.09.2019
5006 Clear 10 1004 64 16093 3.6 290 05:54 17.09.2019
5007 Clouds 11 1004 64 14484 5.1 290 04:56 17.09.2019
5008 Clear 11 1004 64 14484 4.6 300 03:49 17.09.2019
5009 Clear 11 1003 57 14484 5.7 290 02:40 17.09.2019
5010 Clear 11 1003 57 11265 6.7 270 01:50 17.09.2019
5011 Clear 12 1002 54 14484 2.6 260 00:56 17.09.2019
5012 Clouds 11 1002 62 12874 2.1 190 23:42 16.09.2019
5013 Clouds 11 1002 62 12874 2.1 190 23:20 16.09.2019
5014 Clouds 11 1002 76 14484 1.5 150 22:59 16.09.2019
5015 Clouds 10 1002 76 14484 1.5 150 22:41 16.09.2019
5016 Clouds 10 1002 76 14484 1.5 150 22:23 16.09.2019
5017 Clouds 9 1002 87 16093 1.5 0 21:58 16.09.2019
5018 Clouds 9 1001 81 14484 1.5 150 21:38 16.09.2019
5019 Clouds 8 1001 81 14484 1.5 150 21:20 16.09.2019
5020 Clouds 8 1001 81 14484 1.5 150 21:20 16.09.2019
5021 Clouds 8 1001 81 14484 1.5 150 21:20 16.09.2019
5022 Clouds 8 1001 81 12874 1.39 315.904 20:55 16.09.2019
5023 Clouds 7 1001 81 12874 1.33 310.41 20:37 16.09.2019
5024 Clouds 8 1001 81 12874 1.33 310.41 20:18 16.09.2019
5025 Rain 8 1000 81 12874 1.5 220 19:42 16.09.2019
5026 Rain 7 1000 81 12874 1.5 220 19:20 16.09.2019
5027 Clouds 7 1000 75 16093 1.5 200 18:57 16.09.2019
5028 Rain 7 999 81 14484 2.1 210 18:39 16.09.2019
5029 Rain 7 999 81 14484 2.1 210 18:20 16.09.2019
5030 Clouds 8 999 87 16093 1.5 210 17:43 16.09.2019
5031 Clouds 8 999 87 16093 1.5 210 17:24 16.09.2019
5032 Clouds 8 998 87 16093 2.1 220 16:58 16.09.2019
5033 Rain 8 998 93 16093 2.1 220 16:39 16.09.2019
5034 Rain 8 998 93 16093 2.1 220 16:20 16.09.2019
5035 Clouds 9 998 87 16093 1.5 220 15:56 16.09.2019
5036 Clouds 9 998 87 16093 1.5 220 15:56 16.09.2019
5037 Rain 9 998 76 16093 2.6 190 15:37 16.09.2019
5038 Clouds 9 997 93 16093 2.1 230 15:19 16.09.2019
5039 Clouds 10 997 81 14484 1.36 344.239 14:44 16.09.2019
5040 Clouds 10 997 81 14484 1.36 344.239 14:24 16.09.2019
5041 Rain 10 996 87 16093 2.6 230 13:59 16.09.2019
5042 Clouds 10 997 81 16093 2.1 190 13:39 16.09.2019
5043 Clouds 10 997 81 16093 2.1 190 13:21 16.09.2019
5044 Rain 10 996 76 16093 1.52 349.665 12:46 16.09.2019
5045 Rain 10 996 76 16093 1.52 349.665 12:27 16.09.2019
5046 Rain 10 995 76 16093 2.6 340 11:58 16.09.2019
5047 Clouds 11 996 81 16093 1.5 20 11:39 16.09.2019
5048 Clouds 10 996 81 16093 1.5 20 11:21 16.09.2019
5049 Clouds 11 996 81 16093 1.56 353.071 10:39 16.09.2019
5050 Clouds 11 996 81 16093 1.56 353.071 10:21 16.09.2019
5051 Clouds 12 996 58 16093 1.5 250 09:58 16.09.2019
5052 Clouds 12 996 58 16093 1.5 250 09:39 16.09.2019
5053 Clouds 12 996 58 16093 1.5 250 09:19 16.09.2019
5054 Clouds 12 995 66 14484 2.02 355.575 08:47 16.09.2019
5055 Clouds 12 995 66 14484 2.09 356.46 08:28 16.09.2019
5056 Clouds 13 995 62 12874 3.6 350 07:56 16.09.2019
5057 Clouds 13 995 62 12874 3.6 350 07:38 16.09.2019
5058 Clouds 13 995 62 12874 3.6 350 07:38 16.09.2019
5059 Clouds 13 995 62 12874 3.6 350 07:20 16.09.2019
5060 Rain 14 995 55 12874 3.6 350 06:46 16.09.2019
5061 Rain 14 995 55 12874 3.6 350 06:27 16.09.2019
5062 Smoke 15 995 48 16093 2.1 320 05:51 16.09.2019
5063 Smoke 15 995 48 16093 2.1 320 05:29 16.09.2019
5064 Smoke 17 996 42 16093 2.1 350 04:38 16.09.2019
5065 Smoke 17 997 42 16093 3.1 20 02:36 16.09.2019
5066 Smoke 16 999 48 11265 2.6 80 00:44 16.09.2019
5067 Smoke 16 999 48 11265 2.6 80 00:26 16.09.2019
5068 Smoke 14 1001 58 16093 2.1 60 23:44 15.09.2019
5069 Smoke 14 1001 58 16093 2.1 60 23:21 15.09.2019
5070 Smoke 13 1002 58 16093 2.6 80 22:58 15.09.2019
5071 Smoke 13 1002 58 16093 2.6 80 22:37 15.09.2019
5072 Smoke 13 1002 58 16093 2.6 80 22:18 15.09.2019
5073 Smoke 12 1002 76 16093 1.85 63.435 21:55 15.09.2019
5074 Smoke 12 1004 71 16093 4.1 80 21:37 15.09.2019
5075 Smoke 11 1004 71 16093 4.1 80 21:18 15.09.2019
5076 Smoke 9 1005 87 16093 2.6 70 20:43 15.09.2019
5077 Smoke 7 1005 87 16093 2.6 70 20:25 15.09.2019
5078 Smoke 7 1006 93 16093 1.34 48.292 19:47 15.09.2019
5079 Smoke 6 1006 93 16093 1.34 48.292 19:26 15.09.2019
5080 Smoke 4 1007 100 14484 1.5 50 18:55 15.09.2019
5081 Smoke 4 1007 100 14484 1.5 50 18:36 15.09.2019
5082 Smoke 2 1007 100 14484 1.5 50 18:18 15.09.2019
5083 Smoke 2 1007 100 14484 1.5 50 18:18 15.09.2019
5084 Smoke 3 1007 100 14484 1.36 48.097 17:41 15.09.2019
5085 Smoke 3 1007 100 14484 1.36 48.097 17:21 15.09.2019
5086 Clear 3 1008 100 16093 1.5 70 16:56 15.09.2019
5087 Clear 2 1008 100 16093 1.5 70 16:38 15.09.2019
5088 Clear 3 1008 100 16093 1.5 70 16:20 15.09.2019
5089 Mist 3 1009 93 16093 2.1 50 15:41 15.09.2019
5090 Mist 4 1009 93 16093 2.1 50 15:21 15.09.2019
5091 Clear 4 1009 100 16093 1 77.664 14:59 15.09.2019
5092 Mist 4 1010 100 16093 1.5 60 14:41 15.09.2019
5093 Mist 4 1010 100 16093 1.5 60 14:22 15.09.2019
5094 Clear 5 1011 93 16093 1.5 110 13:48 15.09.2019
5095 Clear 5 1011 93 16093 1.5 110 13:26 15.09.2019
5096 Clear 5 1012 93 16093 3.1 60 12:59 15.09.2019
5097 Clear 5 1012 93 16093 3.1 60 12:40 15.09.2019
5098 Clear 6 1012 93 16093 3.1 60 12:20 15.09.2019
5099 Clear 6 1012 100 16093 1.5 80 11:43 15.09.2019
5100 Clear 6 1012 100 16093 1.5 80 11:23 15.09.2019
5101 Clear 6 1012 93 16093 2.1 60 10:59 15.09.2019
5102 Clear 6 1012 93 16093 2.1 60 10:40 15.09.2019
5103 Clear 7 1012 93 16093 2.1 60 10:21 15.09.2019
5104 Clear 7 1012 87 12874 0.76 57.488 09:44 15.09.2019
5105 Clear 8 1012 87 12874 0.97 326.539 09:21 15.09.2019
5106 Clear 9 1012 81 16093 0.97 326.539 08:59 15.09.2019
5107 Clear 9 1012 81 16093 0.97 326.539 08:59 15.09.2019
5108 Clear 9 1012 81 16093 0.97 326.539 08:40 15.09.2019
5109 Clear 9 1012 81 16093 0.96 355.62 08:19 15.09.2019
5110 Clear 10 1012 62 14484 1.5 230 07:46 15.09.2019
5111 Smoke 13 1012 58 14484 3.1 220 06:45 15.09.2019
5112 Smoke 13 1012 58 14484 3.1 220 06:27 15.09.2019
5113 Smoke 16 1011 51 16093 3.6 230 03:20 15.09.2019
5114 Smoke 16 1011 48 14484 4.1 240 02:20 15.09.2019
5115 Smoke 16 1011 51 16093 4.1 220 01:37 15.09.2019
5116 Smoke 16 1011 51 14484 4.1 200 00:57 15.09.2019
5117 Smoke 16 1011 51 14484 4.1 200 00:57 15.09.2019
5118 Smoke 16 1011 51 14484 4.1 200 00:37 15.09.2019
5119 Smoke 16 1011 51 14484 4.1 200 00:19 15.09.2019
5120 Smoke 15 1011 54 14484 2.6 230 23:56 14.09.2019
5121 Smoke 15 1011 54 14484 2.6 230 23:38 14.09.2019
5122 Smoke 15 1011 54 14484 2.6 230 23:38 14.09.2019
5123 Smoke 15 1011 54 14484 2.6 230 23:19 14.09.2019
5124 Smoke 15 1011 58 14484 1.14 326.06 22:57 14.09.2019
5125 Smoke 14 1011 58 14484 1.14 326.06 22:37 14.09.2019
5126 Smoke 14 1011 58 14484 1.14 326.06 22:18 14.09.2019
5127 Smoke 13 1010 66 12874 1.14 326.06 21:40 14.09.2019
5128 Smoke 12 1010 66 12874 1.3 347.26 21:21 14.09.2019
5129 Smoke 12 1010 66 12874 1.3 347.26 21:21 14.09.2019
5130 Clouds 12 1010 71 14484 1.3 347.26 20:58 14.09.2019
5131 Clouds 12 1010 71 14484 1.2 353.26 20:39 14.09.2019
5132 Clouds 11 1010 71 14484 1.2 353.26 20:21 14.09.2019
5133 Clouds 10 1009 87 12874 1.2 353.26 19:47 14.09.2019
5134 Clouds 10 1009 87 12874 1.2 353.26 19:23 14.09.2019
5135 Clouds 10 1009 81 16093 1.2 353.26 18:58 14.09.2019
5136 Smoke 10 1008 93 12874 1.2 353.26 18:38 14.09.2019
5137 Smoke 10 1008 93 12874 1.55 349.401 18:20 14.09.2019
5138 Smoke 10 1007 66 16093 4.1 360 17:45 14.09.2019
5139 Smoke 10 1007 66 16093 4.1 360 17:45 14.09.2019
5140 Smoke 10 1007 66 16093 4.1 360 17:24 14.09.2019
5141 Clouds 10 1006 93 16093 1.55 349.401 16:56 14.09.2019
5142 Clouds 10 1006 93 16093 1.55 349.401 16:38 14.09.2019
5143 Clouds 10 1006 93 16093 1.55 349.401 16:18 14.09.2019
5144 Clouds 11 1005 81 16093 1.55 349.401 15:42 14.09.2019
5145 Clouds 12 1005 81 16093 2.02 358.636 15:22 14.09.2019
5146 Rain 12 1005 81 16093 2.02 358.636 14:55 14.09.2019
5147 Rain 12 1005 81 16093 2.02 358.636 14:36 14.09.2019
5148 Rain 12 1005 81 16093 2.02 358.636 14:18 14.09.2019
5149 Rain 12 1005 81 16093 2.02 358.636 14:18 14.09.2019
5150 Rain 12 1004 76 12874 2.02 358.636 13:44 14.09.2019
5151 Rain 12 1004 76 12874 1.72 350.538 13:20 14.09.2019
5152 Rain 13 1003 62 16093 1.72 350.538 12:45 14.09.2019
5153 Rain 13 1003 62 16093 2.32 6.193 12:23 14.09.2019
5154 Rain 13 1002 58 16093 2.1 50 11:41 14.09.2019
5155 Rain 14 1002 58 16093 2.1 50 11:20 14.09.2019
5156 Clouds 14 1001 54 14484 2.6 40 10:40 14.09.2019
5157 Clouds 14 1001 54 14484 2.6 40 10:40 14.09.2019
5158 Clouds 14 1001 54 14484 2.6 40 10:22 14.09.2019
5159 Smoke 14 1000 54 14484 2.6 50 09:59 14.09.2019
5160 Smoke 14 1000 54 14484 2.6 50 09:40 14.09.2019
5161 Smoke 14 1000 54 14484 2.6 50 09:21 14.09.2019
5162 Smoke 14 999 48 12874 2.6 60 08:57 14.09.2019
5163 Smoke 14 999 48 12874 2.6 60 08:38 14.09.2019
5164 Smoke 14 999 48 12874 2.6 60 08:19 14.09.2019
5165 Smoke 14 998 48 14484 1.5 60 07:43 14.09.2019
5166 Smoke 14 998 48 14484 1.5 60 07:21 14.09.2019
5167 Haze 16 997 42 11265 4.6 60 06:33 14.09.2019
5168 Haze 17 996 42 9656 3.6 20 05:53 14.09.2019
5169 Clouds 20 995 30 11265 5.1 30 04:27 14.09.2019
5170 Clear 21 995 27 14484 2.6 120 03:20 14.09.2019
5171 Clear 22 995 25 16093 2.6 40 02:42 14.09.2019
5172 Clear 22 995 25 16093 2.6 40 02:42 14.09.2019
5173 Clear 21 994 28 14484 4.1 90 01:45 14.09.2019
5174 Clear 21 994 32 14484 2.1 80 01:19 14.09.2019
5175 Clear 20 994 32 14484 2.1 80 00:40 14.09.2019
5176 Clear 20 994 32 14484 2.1 80 00:21 14.09.2019
5177 Clouds 20 994 32 16093 4.1 50 23:55 13.09.2019
5178 Clouds 20 994 32 16093 4.1 50 23:55 13.09.2019
5179 Clouds 19 994 34 14484 4.1 50 23:36 13.09.2019
5180 Clouds 19 994 34 14484 4.1 50 23:18 13.09.2019
5181 Clouds 18 994 42 14484 2.1 90 22:40 13.09.2019
5182 Clouds 18 994 42 14484 2.1 90 22:22 13.09.2019
5183 Clouds 17 994 54 12874 2.1 70 21:59 13.09.2019
5184 Clouds 16 994 54 12874 2.1 70 21:39 13.09.2019
5185 Clouds 14 994 66 11265 2.1 60 21:19 13.09.2019
5186 Clouds 14 994 66 11265 2.1 60 20:57 13.09.2019
5187 Clouds 14 994 66 11265 2.1 60 20:57 13.09.2019
5188 Clouds 14 994 66 11265 2.1 60 20:57 13.09.2019
5189 Clouds 13 994 66 11265 2.1 60 20:37 13.09.2019
5190 Clouds 13 994 66 11265 2.1 60 20:19 13.09.2019
5191 Clear 13 993 66 14484 3.1 60 19:44 13.09.2019
5192 Clouds 12 993 76 16093 2.6 30 19:22 13.09.2019
5193 Clouds 12 993 76 16093 2.6 30 18:59 13.09.2019
5194 Clouds 12 993 71 14484 3.1 70 18:38 13.09.2019
5195 Clouds 12 993 71 14484 3.1 70 18:38 13.09.2019
5196 Clouds 10 993 71 14484 2.1 40 18:19 13.09.2019
5197 Clouds 10 993 71 14484 2.1 40 17:44 13.09.2019
5198 Clouds 10 993 71 14484 2.1 40 17:21 13.09.2019
5199 Clouds 10 993 71 16093 3.6 60 16:59 13.09.2019
5200 Clouds 10 993 71 16093 3.6 60 16:39 13.09.2019
5201 Clouds 10 993 71 16093 3.6 60 16:19 13.09.2019
5202 Clouds 10 993 71 16093 3.1 60 15:42 13.09.2019
5203 Clouds 10 993 71 16093 3.1 60 15:23 13.09.2019
5204 Clouds 10 993 71 16093 3.6 60 14:55 13.09.2019
5205 Clouds 10 993 71 16093 3.6 60 14:37 13.09.2019
5206 Clouds 10 993 71 16093 3.6 60 14:18 13.09.2019
5207 Clouds 10 993 71 16093 3.6 60 13:41 13.09.2019
5208 Clouds 9 993 71 16093 3.6 60 13:22 13.09.2019
5209 Clouds 8 993 66 16093 2.6 60 12:45 13.09.2019
5210 -273 0 0 0 0 0 12:25 13.09.2019
5211 Clouds 9 993 62 16093 4.1 60 11:57 13.09.2019
5212 Clouds 9 993 62 16093 4.1 60 11:20 13.09.2019
5213 Clear 9 993 62 16093 3.1 50 10:57 13.09.2019
5214 Clear 9 993 62 16093 3.1 50 10:37 13.09.2019
5215 Clear 10 993 54 16093 4.6 50 10:18 13.09.2019
5216 Clear 10 993 54 16093 4.6 50 09:43 13.09.2019
5217 Clear 10 993 54 16093 4.6 50 09:43 13.09.2019
5218 Clear 11 993 54 16093 4.6 50 09:20 13.09.2019
5219 Clouds 11 993 50 16093 3.6 60 08:55 13.09.2019
5220 Clouds 12 993 50 16093 3.6 60 08:37 13.09.2019
5221 Clouds 12 993 50 16093 3.6 60 08:19 13.09.2019
5222 Clouds 14 993 44 16093 3.6 60 07:41 13.09.2019
5223 Clouds 14 993 44 16093 3.6 60 07:21 13.09.2019
5224 Clouds 17 993 42 14484 2.1 90 06:37 13.09.2019
5225 Clouds 19 994 32 14484 3.1 90 05:34 13.09.2019
5226 Clouds 20 994 37 16093 3.6 60 03:52 13.09.2019
5227 Clouds 19 994 37 16093 3.6 60 03:25 13.09.2019
5228 Haze 18 995 39 16093 2.6 80 02:20 13.09.2019
5229 Haze 18 995 37 16093 3.6 100 01:37 13.09.2019
5230 Clouds 18 995 39 16093 4.1 110 00:59 13.09.2019
5231 Clouds 17 995 39 16093 4.1 110 00:35 13.09.2019
5232 Clear 17 996 42 16093 3.1 100 23:53 12.09.2019
5233 Clear 18 996 42 16093 3.1 100 23:25 12.09.2019
5234 Clear 16 996 48 16093 5.7 80 22:58 12.09.2019
5235 Clear 16 996 48 16093 5.7 80 22:39 12.09.2019
5236 Clear 16 996 48 16093 5.7 80 22:21 12.09.2019
5237 Clouds 15 997 54 16093 5.1 60 21:55 12.09.2019
5238 Clouds 14 997 54 16093 5.1 60 21:37 12.09.2019
5239 Clouds 13 997 54 16093 5.1 60 21:18 12.09.2019
5240 Clear 11 998 71 16093 4.1 60 20:44 12.09.2019
5241 Clear 11 998 71 16093 4.1 60 20:23 12.09.2019
5242 Clear 8 998 87 16093 5.1 60 19:57 12.09.2019
5243 Clear 8 998 87 16093 5.1 60 19:39 12.09.2019
5244 Clear 5 999 93 14484 4.6 50 19:19 12.09.2019
5245 Clear 4 999 93 14484 4.6 50 18:56 12.09.2019
5246 Clear 4 999 93 14484 4.6 50 18:36 12.09.2019
5247 Clear 4 999 86 16093 1.89 69.241 18:18 12.09.2019
5248 Fog 3 1000 86 16093 4.1 60 17:41 12.09.2019
5249 Fog 3 1000 86 16093 4.1 60 17:20 12.09.2019
5250 Clear 3 1001 100 16093 3.1 60 16:56 12.09.2019
5251 Clear 3 1001 100 16093 3.1 60 16:38 12.09.2019
5252 Clear 3 1001 100 16093 3.1 60 16:19 12.09.2019
5253 Fog 4 1001 93 16093 2.6 70 15:41 12.09.2019
5254 Fog 4 1001 93 16093 2.6 70 15:23 12.09.2019
5255 Fog 5 1002 93 16093 3.1 80 14:46 12.09.2019
5256 Fog 5 1002 93 16093 3.1 80 14:22 12.09.2019
5257 Clear 4 1002 93 16093 3.1 70 13:58 12.09.2019
5258 Clear 4 1002 93 16093 3.1 70 13:38 12.09.2019
5259 Clear 5 1002 93 16093 3.1 70 13:19 12.09.2019
5260 Clear 6 1002 87 16093 3.6 60 12:45 12.09.2019
5261 Clear 6 1002 87 16093 3.6 60 12:19 12.09.2019
5262 Clear 6 1002 87 16093 3.6 60 12:19 12.09.2019
5263 Clear 6 1003 81 16093 4.1 70 11:57 12.09.2019
5264 Clear 6 1003 81 16093 4.1 70 11:39 12.09.2019
5265 Clear 6 1003 81 16093 4.1 70 11:19 12.09.2019
5266 Clear 6 1003 81 16093 4.6 70 10:45 12.09.2019
5267 Clear 6 1003 81 16093 4.6 70 10:26 12.09.2019
5268 Clear 7 1004 76 16093 3.6 70 09:45 12.09.2019
5269 Clear 7 1004 76 16093 3.6 70 09:25 12.09.2019
5270 Clear 8 1004 71 14484 3.1 70 08:59 12.09.2019
5271 Clear 8 1004 71 14484 3.1 70 08:41 12.09.2019
5272 Clear 8 1004 71 14484 3.1 70 08:22 12.09.2019
5273 Clear 9 1005 71 14484 2.6 50 07:44 12.09.2019
5274 Clear 11 1005 58 14484 1.5 60 07:20 12.09.2019
5275 Clear 12 1005 58 14484 1.5 60 06:51 12.09.2019
5276 Clouds 12 1005 62 16093 2.6 70 06:29 12.09.2019
5277 Clear 13 1006 51 14484 2.6 60 05:51 12.09.2019
5278 Clear 13 1006 51 14484 2.6 60 05:33 12.09.2019
5279 Clear 14 1006 51 16093 2.1 120 04:41 12.09.2019
5280 Clouds 14 1008 58 16093 2.6 120 02:59 12.09.2019
5281 Clouds 14 1009 67 16093 2.1 130 01:37 12.09.2019
5282 Clouds 13 1009 67 16093 2.1 130 01:19 12.09.2019
5283 Clouds 13 1009 71 16093 2.6 160 00:44 12.09.2019
5284 Clouds 13 1009 71 16093 2.6 160 00:24 12.09.2019
5285 Clouds 12 1010 87 14484 2.1 70 23:42 11.09.2019
5286 Clouds 12 1010 87 14484 2.1 70 23:24 11.09.2019
5287 Rain 11 1011 87 16093 3.6 80 22:57 11.09.2019
5288 Rain 10 1011 87 16093 3.6 80 22:37 11.09.2019
5289 Rain 10 1011 87 16093 3.6 80 22:19 11.09.2019
5290 Rain 9 1011 87 12874 1.17 99.559 21:43 11.09.2019
5291 Rain 9 1011 87 12874 1.17 99.559 21:25 11.09.2019
5292 Rain 8 1011 87 14484 0.65 123.005 20:58 11.09.2019
5293 Rain 8 1011 87 14484 0.87 125.293 20:40 11.09.2019
5294 Rain 8 1011 87 14484 0.87 125.293 20:20 11.09.2019
5295 Rain 8 1011 87 14484 0.87 125.293 20:20 11.09.2019
5296 Rain 8 1011 93 16093 1.5 80 19:58 11.09.2019
5297 Rain 8 1012 100 16093 1.5 40 19:40 11.09.2019
5298 Rain 7 1012 100 16093 1.5 40 19:21 11.09.2019
5299 Rain 7 1012 100 16093 0.87 125.293 18:58 11.09.2019
5300 Rain 7 1012 100 16093 0.87 125.293 18:40 11.09.2019
5301 Rain 7 1012 100 16093 0.46 137.121 18:22 11.09.2019
5302 Rain 7 1012 93 11265 2.6 130 17:56 11.09.2019
5303 Rain 7 1012 93 11265 2.6 130 17:38 11.09.2019
5304 Rain 7 1012 93 11265 2.6 130 17:20 11.09.2019
5305 Rain 7 1012 100 14484 1.5 110 16:48 11.09.2019
5306 Rain 7 1012 93 12874 1.5 80 16:26 11.09.2019
5307 Rain 7 1012 93 4426 2.1 40 15:59 11.09.2019
5308 Rain 7 1012 93 16093 0.46 137.121 15:40 11.09.2019
5309 Rain 7 1012 93 16093 0.51 132.51 15:19 11.09.2019
5310 Clouds 7 1012 93 16093 0.51 132.51 14:55 11.09.2019
5311 Rain 7 1012 100 16093 0.51 132.51 14:36 11.09.2019
5312 Rain 7 1012 100 16093 0.51 132.51 14:18 11.09.2019
5313 Clouds 7 1011 100 14484 1.5 60 13:38 11.09.2019
5314 Clouds 7 1011 100 14484 1.5 60 13:20 11.09.2019
5315 Rain 7 1012 93 16093 1.5 90 12:56 11.09.2019
5316 Clouds 7 1011 93 16093 0.47 123.792 12:38 11.09.2019
5317 Clouds 7 1011 93 16093 0.29 64.219 12:20 11.09.2019
5318 Clouds 8 1011 93 16093 1.5 90 11:39 11.09.2019
5319 Clouds 8 1011 93 16093 1.5 90 11:21 11.09.2019
5320 Clear 8 1011 87 16093 0.29 64.219 10:57 11.09.2019
5321 Clear 8 1011 87 16093 0.29 64.219 10:38 11.09.2019
5322 Clear 8 1011 76 16093 2.6 260 10:19 11.09.2019
5323 Clear 9 1011 76 16093 2.6 260 09:39 11.09.2019
5324 Clear 9 1011 76 16093 2.6 260 09:20 11.09.2019
5325 Clear 9 1011 76 16093 2.1 290 08:55 11.09.2019
5326 Clear 9 1011 76 16093 2.1 290 08:55 11.09.2019
5327 Clear 9 1011 76 16093 2.1 290 08:37 11.09.2019
5328 Clear 10 1011 76 16093 2.1 290 08:19 11.09.2019
5329 Clear 10 1010 71 16093 2.1 270 07:40 11.09.2019
5330 Clear 11 1010 71 16093 2.1 270 07:22 11.09.2019
5331 Clear 12 1010 66 16093 3.1 240 06:48 11.09.2019
5332 Clear 13 1010 66 16093 3.1 240 06:29 11.09.2019
5333 Clear 14 1010 55 16093 2.1 190 05:37 11.09.2019
5334 Clear 14 1010 55 16093 2.1 190 05:18 11.09.2019
5335 Clouds 15 1010 55 16093 0.87 214.716 04:22 11.09.2019
5336 Clouds 16 1010 51 16093 4.1 240 03:31 11.09.2019
5337 Clouds 16 1010 51 16093 4.1 240 03:31 11.09.2019
5338 Clouds 16 1009 48 16093 3.6 240 02:41 11.09.2019
5339 Clear 16 1009 59 16093 1.5 190 01:50 11.09.2019
5340 Clear 16 1010 59 16093 3.1 240 00:49 11.09.2019
5341 Clear 15 1010 59 16093 3.1 240 00:20 11.09.2019
5342 Clouds 15 1010 71 16093 2.15 244.198 23:41 10.09.2019
5343 Clouds 15 1010 71 16093 2.15 244.198 23:22 10.09.2019
5344 Clouds 15 1010 71 16093 2.15 244.198 23:22 10.09.2019
5345 Clouds 14 1010 67 16093 1.5 0 22:59 10.09.2019
5346 Clouds 14 1010 67 16093 1.5 0 22:41 10.09.2019
5347 Clouds 13 1010 93 14484 2.15 244.198 22:19 10.09.2019
5348 Clouds 13 1010 93 14484 2.15 244.198 22:19 10.09.2019
5349 Fog 12 1010 76 16093 1.5 0 21:55 10.09.2019
5350 Fog 12 1010 76 16093 1.5 0 21:37 10.09.2019
5351 Fog 12 1010 76 16093 1.5 0 21:37 10.09.2019
5352 Fog 12 1010 76 16093 1.5 0 21:37 10.09.2019
5353 Mist 11 1010 100 4828 2.6 170 21:18 10.09.2019
5354 Mist 11 1010 100 4828 2.6 170 20:57 10.09.2019
5355 Clouds 11 1010 87 12874 1.5 170 20:38 10.09.2019
5356 Clouds 10 1010 87 12874 1.5 170 20:19 10.09.2019
5357 Clear 10 1010 93 14484 0.63 260.162 20:19 10.09.2019
5358 Clear 10 1010 93 14484 0.63 260.162 19:56 10.09.2019
5359 Clear 9 1010 93 14484 0.63 260.162 19:37 10.09.2019
5360 Clouds 8 1009 100 16093 0.63 260.162 19:18 10.09.2019
5361 Mist 8 1009 100 14484 0.63 260.162 18:46 10.09.2019
5362 Mist 8 1009 100 14484 0.58 229.764 18:23 10.09.2019
5363 Fog 7 1009 93 0 3.6 230 17:59 10.09.2019
5364 Fog 7 1009 93 0 3.6 230 17:59 10.09.2019
5365 Clear 7 1009 93 14484 0.58 229.764 17:41 10.09.2019
5366 Clear 7 1009 93 14484 0.58 229.764 17:21 10.09.2019
5367 Clouds 7 1009 100 16093 0.58 229.764 16:57 10.09.2019
5368 Clouds 8 1009 100 16093 0.58 229.764 16:39 10.09.2019
5369 Clouds 8 1009 100 16093 0.58 229.764 16:20 10.09.2019
5370 Mist 9 1008 93 8047 0.58 229.764 15:56 10.09.2019
5371 Clouds 8 1009 93 16093 0.58 229.764 15:38 10.09.2019
5372 Clouds 8 1009 93 16093 0.58 229.764 15:38 10.09.2019
5373 Clouds 8 1009 93 16093 0.56 175.813 15:19 10.09.2019
5374 Clouds 9 1008 93 16093 0.56 175.813 14:40 10.09.2019
5375 Clouds 9 1008 93 16093 0.56 175.813 14:22 10.09.2019
5376 Clouds 10 1008 93 16093 1.5 60 13:50 10.09.2019
5377 Clouds 9 1008 93 16093 1.5 60 13:24 10.09.2019
5378 Clouds 10 1008 87 16093 0.71 200.225 12:58 10.09.2019
5379 Clouds 10 1008 87 16093 0.71 200.225 12:40 10.09.2019
5380 Clouds 9 1008 87 16093 1.5 250 12:22 10.09.2019
5381 Clouds 9 1008 87 16093 1.5 250 11:54 10.09.2019
5382 Clouds 10 1008 100 16093 0.4 16.863 11:36 10.09.2019
5383 Clear 10 1008 93 16093 1.5 40 11:18 10.09.2019
5384 Clear 11 1008 93 16093 1.5 40 10:39 10.09.2019
5385 Clouds 11 1008 87 16093 0.4 16.863 10:19 10.09.2019
5386 Clouds 12 1008 87 16093 0.4 16.863 09:50 10.09.2019
5387 Clouds 12 1008 87 16093 0.76 329.798 09:20 10.09.2019
5388 Clouds 12 1008 82 16093 0.76 329.798 08:59 10.09.2019
5389 Clouds 12 1008 82 16093 0.75 329.893 08:41 10.09.2019
5390 Clouds 13 1008 82 16093 0.75 329.893 08:22 10.09.2019
5391 Rain 13 1008 87 16093 0.75 329.893 07:44 10.09.2019
5392 Rain 13 1008 87 16093 0.75 329.893 07:26 10.09.2019
5393 Rain 14 1008 87 16093 0.75 329.893 06:51 10.09.2019
5394 Rain 15 1008 87 16093 0.75 329.893 06:32 10.09.2019
5395 Rain 17 1008 55 16093 3.1 260 04:57 10.09.2019
5396 Rain 18 1008 45 16093 3.1 230 03:48 10.09.2019
5397 Rain 19 1008 45 16093 2.6 200 02:23 10.09.2019
5398 Rain 19 1008 45 16093 2.6 200 02:23 10.09.2019
5399 Clear 19 1009 48 16093 3.1 270 01:55 10.09.2019
5400 Clear 19 1009 48 16093 3.1 270 01:55 10.09.2019
5401 Clear 18 1009 48 16093 3.1 270 01:37 10.09.2019
5402 Clouds 18 1009 51 16093 2.1 260 00:46 10.09.2019
5403 Clouds 18 1009 51 16093 2.1 260 00:25 10.09.2019
5404 Clouds 17 1009 55 16093 0.48 248.155 23:47 09.09.2019
5405 Clear 16 1010 58 16093 1.5 220 23:20 09.09.2019
5406 Clear 16 1010 58 16093 1.5 220 22:56 09.09.2019
5407 Clear 15 1010 58 16093 1.5 220 22:38 09.09.2019
5408 Clouds 14 1010 66 16093 0.48 248.155 22:20 09.09.2019
5409 Clouds 14 1010 66 16093 0.48 248.155 21:57 09.09.2019
5410 Clouds 14 1010 66 16093 0.48 248.155 21:38 09.09.2019
5411 Clouds 13 1010 66 16093 0.71 73.921 21:20 09.09.2019
5412 Clouds 12 1011 71 14484 1.5 260 20:56 09.09.2019
5413 Clouds 12 1011 71 14484 1.5 260 20:37 09.09.2019
5414 Clouds 11 1011 76 16093 0.71 193.392 20:19 09.09.2019
5415 Clouds 11 1011 76 16093 0.71 193.392 19:57 09.09.2019
5416 Clouds 11 1011 76 16093 1.5 190 19:39 09.09.2019
5417 Clouds 10 1011 76 16093 1.5 190 19:19 09.09.2019
5418 Clouds 10 1011 81 16093 0.71 193.392 18:57 09.09.2019
5419 Clouds 10 1011 81 16093 0.71 193.392 18:39 09.09.2019
5420 Clouds 8 1011 76 16093 1.5 100 18:20 09.09.2019
5421 Clouds 8 1011 76 16093 1.5 100 17:57 09.09.2019
5422 Clouds 7 1011 93 12874 1.45 36.507 17:39 09.09.2019
5423 Clouds 7 1011 93 12874 1.45 36.507 17:21 09.09.2019
5424 Mist 8 1012 87 16093 1.5 190 16:55 09.09.2019
5425 Mist 9 1012 87 16093 1.5 190 16:37 09.09.2019
5426 Mist 9 1012 87 16093 1.5 120 16:19 09.09.2019
5427 Mist 8 1012 87 16093 1.5 120 15:55 09.09.2019
5428 Mist 8 1012 87 16093 1.5 120 15:55 09.09.2019
5429 Mist 8 1012 87 16093 1.5 120 15:36 09.09.2019
5430 Clouds 8 1012 93 14484 1.56 34.688 15:18 09.09.2019
5431 Mist 8 1013 87 16093 1.56 34.688 14:54 09.09.2019
5432 Mist 7 1013 87 16093 1.56 34.688 14:36 09.09.2019
5433 Mist 7 1012 87 6437 1.56 34.688 14:18 09.09.2019
5434 Clouds 7 1013 87 16093 1.56 34.688 13:43 09.09.2019
5435 Clouds 7 1013 76 16093 2.1 100 13:19 09.09.2019
5436 Clouds 7 1013 76 16093 2.1 100 12:57 09.09.2019
5437 Clear 8 1013 81 14484 2.1 90 12:38 09.09.2019
5438 Clouds 9 1013 70 16093 3.1 50 12:19 09.09.2019
5439 Haze 9 1013 87 14484 1.5 70 11:46 09.09.2019
5440 Haze 9 1013 87 14484 1.5 70 11:22 09.09.2019
5441 Haze 9 1013 87 14484 1.5 70 11:22 09.09.2019
5442 Haze 9 1013 87 9656 2.02 27.996 10:58 09.09.2019
5443 Clouds 9 1014 87 14484 1.5 100 10:39 09.09.2019
5444 Clouds 10 1014 76 16093 2.02 27.996 10:20 09.09.2019
5445 Clouds 10 1014 76 16093 2.02 27.996 09:56 09.09.2019
5446 Clouds 11 1014 76 16093 2.02 27.996 09:37 09.09.2019
5447 Clouds 12 1014 54 16093 1.73 15.882 09:18 09.09.2019
5448 Clouds 12 1014 54 16093 1.67 15.511 08:38 09.09.2019
5449 Clear 13 1014 54 12874 1.67 15.511 08:19 09.09.2019
5450 Clear 13 1014 54 12874 1.67 15.511 07:45 09.09.2019
5451 Clear 13 1014 54 12874 1.67 15.511 07:22 09.09.2019
5452 Clouds 14 1014 62 16093 1.67 15.511 06:56 09.09.2019
5453 Clear 16 1015 45 16093 1.5 350 06:31 09.09.2019
5454 Clear 18 1015 37 16093 1.11 15.684 04:54 09.09.2019
5455 Clear 18 1016 39 16093 1.5 90 02:43 09.09.2019
5456 Clear 18 1017 37 16093 0.67 126.24 01:50 09.09.2019
5457 Clear 18 1017 45 16093 1.65 119.034 00:39 09.09.2019
5458 Clouds 18 1017 45 16093 2.6 110 00:21 09.09.2019
5459 Clear 17 1018 48 16093 1.51 135.966 23:44 08.09.2019
5460 Clear 17 1018 48 16093 1.51 135.966 23:23 08.09.2019
5461 Clear 17 1018 55 16093 1.51 135.966 22:55 08.09.2019
5462 Clear 17 1018 55 16093 1.51 135.966 22:36 08.09.2019
5463 Clear 17 1018 55 16093 1.51 135.966 22:36 08.09.2019
5464 Clouds 16 1018 51 16093 1.5 170 22:18 08.09.2019
5465 Clouds 15 1018 67 14484 1.51 135.966 21:41 08.09.2019
5466 Clouds 14 1018 67 14484 1.18 78.396 21:22 08.09.2019
5467 Clouds 14 1018 71 12874 1.5 80 20:57 08.09.2019
5468 Clouds 13 1018 71 12874 1.5 80 20:38 08.09.2019
5469 Clouds 12 1017 76 12874 0.75 103.888 20:20 08.09.2019
5470 Clouds 12 1017 76 12874 0.75 103.888 19:57 08.09.2019
5471 Clouds 12 1017 76 12874 0.75 103.888 19:37 08.09.2019
5472 Clouds 10 1017 66 16093 1.5 80 19:18 08.09.2019
5473 Clouds 10 1017 66 16093 1.5 80 18:56 08.09.2019
5474 Clouds 10 1017 87 14484 0.75 103.888 18:37 08.09.2019
5475 Clouds 10 1017 71 16093 2.1 90 18:18 08.09.2019
5476 Clouds 10 1016 87 14484 0.87 357.68 17:54 08.09.2019
5477 Clouds 9 1016 87 14484 0.87 357.68 17:36 08.09.2019
5478 Clouds 9 1016 87 14484 1.5 100 17:18 08.09.2019
5479 Rain 10 1016 87 14484 1.5 100 16:42 08.09.2019
5480 Rain 10 1016 87 14484 1.5 100 16:21 08.09.2019
5481 Rain 10 1016 87 14484 0.87 357.68 15:58 08.09.2019
5482 Clouds 10 1015 87 16093 0.87 357.68 15:39 08.09.2019
5483 Clouds 10 1014 81 16093 2.1 40 15:21 08.09.2019
5484 Clouds 10 1014 81 16093 2.1 40 14:55 08.09.2019
5485 Clouds 10 1014 81 16093 2.1 40 14:36 08.09.2019
5486 Clear 10 1014 71 16093 1.23 255.023 14:18 08.09.2019
5487 Clear 11 1014 71 16093 1.23 255.023 13:55 08.09.2019
5488 Clear 11 1014 71 16093 1.23 255.023 13:36 08.09.2019
5489 Clouds 11 1013 76 16093 1.5 160 13:18 08.09.2019
5490 Clear 11 1013 71 16093 1.37 249.203 12:41 08.09.2019
5491 Clear 11 1013 71 16093 0.65 223.621 12:23 08.09.2019
5492 Clouds 10 1013 76 16093 0.65 223.621 11:58 08.09.2019
5493 Clouds 10 1012 81 16093 0.65 223.621 11:38 08.09.2019
5494 Clouds 11 1012 71 16093 0.65 223.621 11:19 08.09.2019
5495 Clouds 10 1012 71 16093 0.65 223.621 10:55 08.09.2019
5496 Clouds 10 1012 71 16093 0.65 223.621 10:37 08.09.2019
5497 Clouds 11 1011 76 16093 2.1 60 10:18 08.09.2019
5498 Clouds 11 1011 76 16093 2.1 60 09:38 08.09.2019
5499 Clouds 11 1011 71 14484 1.06 44.885 09:19 08.09.2019
5500 Clouds 12 1011 71 14484 1.06 44.885 08:56 08.09.2019
5501 Clouds 12 1011 71 14484 1.1 9.729 08:36 08.09.2019
5502 Clouds 13 1010 66 12874 1.1 9.729 08:18 08.09.2019
5503 Clouds 12 1010 66 12874 1.1 9.729 07:38 08.09.2019
5504 Clouds 12 1010 66 12874 1.1 9.729 07:38 08.09.2019
5505 Haze 14 1010 67 16093 1.1 9.729 07:20 08.09.2019
5506 Haze 15 1010 58 8047 1.1 9.729 06:45 08.09.2019
5507 Haze 17 1010 59 16093 1.5 290 05:57 08.09.2019
5508 Haze 17 1010 48 8047 0.88 338.756 05:35 08.09.2019
5509 Clear 19 1010 26 16093 0.88 338.756 03:51 08.09.2019
5510 Clouds 20 1010 34 16093 0.46 131.352 02:54 08.09.2019
5511 Clouds 19 1010 34 16093 0.46 131.352 02:25 08.09.2019
5512 Clear 20 1010 28 16093 3.1 140 01:34 08.09.2019
5513 Clear 19 1011 32 16093 1.5 100 00:57 08.09.2019
5514 Clear 19 1011 32 16093 1.5 100 00:37 08.09.2019
5515 Clouds 19 1010 37 16093 2.1 100 00:19 08.09.2019
5516 Clear 18 1011 42 16093 2.1 70 23:38 07.09.2019
5517 Clear 17 1011 47 16093 3.1 80 23:19 07.09.2019
5518 Clear 17 1011 47 16093 3.1 80 22:57 07.09.2019
5519 Clear 17 1011 47 16093 3.1 80 22:37 07.09.2019
5520 Clear 15 1011 54 16093 3.1 90 22:19 07.09.2019
5521 Clear 15 1011 54 16093 3.1 90 21:41 07.09.2019
5522 Clear 13 1011 54 16093 3.1 90 21:23 07.09.2019
5523 Clear 11 1011 76 14484 1.34 62.381 20:54 07.09.2019
5524 Clear 11 1011 76 14484 1.19 72.279 20:36 07.09.2019
5525 Clouds 10 1011 70 16093 1.19 72.279 20:18 07.09.2019
5526 Clouds 10 1011 70 16093 1.19 72.279 19:54 07.09.2019
5527 Clouds 11 1011 70 16093 1.19 72.279 19:36 07.09.2019
5528 Clouds 9 1011 81 16093 1.5 130 19:18 07.09.2019
5529 Clouds 8 1011 81 16093 1.5 130 18:54 07.09.2019
5530 Clouds 8 1012 75 14484 1.5 300 18:36 07.09.2019
5531 Clouds 7 1011 81 16093 1.57 65.741 18:18 07.09.2019
5532 Clear 7 1012 81 14484 3.1 70 17:41 07.09.2019
5533 Clear 7 1012 81 16093 1.5 70 17:19 07.09.2019
5534 Clear 7 1012 81 16093 1.5 70 16:59 07.09.2019
5535 Clear 7 1012 81 16093 1.5 70 16:41 07.09.2019
5536 Clear 7 1012 81 16093 1.5 60 16:20 07.09.2019
5537 Clear 7 1012 81 16093 1.5 60 15:48 07.09.2019
5538 Clear 7 1012 81 16093 1.5 60 15:26 07.09.2019
5539 Clear 7 1013 81 16093 1.5 70 14:58 07.09.2019
5540 Clear 7 1013 81 16093 1.5 70 14:37 07.09.2019
5541 Clear 7 1013 81 16093 1.5 70 14:19 07.09.2019
5542 Clear 7 1013 81 16093 1.5 70 13:58 07.09.2019
5543 Clear 7 1013 81 16093 1.5 70 13:58 07.09.2019
5544 Clear 8 1013 81 16093 1.5 70 13:39 07.09.2019
5545 Clear 8 1013 81 16093 1.5 70 13:21 07.09.2019
5546 Clear 7 1014 76 14484 3.1 70 12:44 07.09.2019
5547 Clear 8 1014 76 14484 3.1 70 12:25 07.09.2019
5548 Haze 8 1013 81 16093 2.01 51.705 11:58 07.09.2019
5549 Haze 8 1014 81 9656 1.5 30 11:39 07.09.2019
5550 Clear 8 1014 76 16093 3.6 70 11:19 07.09.2019
5551 Clear 8 1014 76 16093 3.6 70 11:19 07.09.2019
5552 Clear 8 1014 76 16093 3.6 70 10:40 07.09.2019
5553 Clear 8 1014 76 16093 3.6 70 10:22 07.09.2019
5554 Clear 9 1014 93 16093 2.01 51.705 09:56 07.09.2019
5555 Clear 9 1014 93 16093 2.01 51.705 09:37 07.09.2019
5556 Clear 9 1014 93 16093 2.01 51.705 09:37 07.09.2019
5557 Clear 11 1014 81 14484 1.73 50.974 09:19 07.09.2019
5558 Clear 11 1014 81 14484 1.64 50.932 08:44 07.09.2019
5559 Clear 11 1014 81 14484 1.64 50.932 08:25 07.09.2019
5560 Haze 12 1015 67 9656 2.6 50 07:46 07.09.2019
5561 Haze 12 1015 67 9656 2.6 50 07:27 07.09.2019
5562 Clouds 15 1015 55 16093 1.64 50.932 06:50 07.09.2019
5563 Clouds 15 1015 51 16093 1.5 50 06:20 07.09.2019
5564 Clear 17 1016 42 16093 0.81 63.751 04:49 07.09.2019
5565 Clear 17 1016 42 16093 1.5 160 04:23 07.09.2019
5566 Clear 18 1016 42 16093 1.5 130 02:49 07.09.2019
5567 Clear 18 1017 37 16093 1.5 60 01:53 07.09.2019
5568 Clear 18 1017 37 16093 1.5 60 01:23 07.09.2019
5569 Clear 17 1018 42 16093 1.99 128.529 00:40 07.09.2019
5570 Clouds 17 1017 45 16093 2.6 60 00:19 07.09.2019
5571 Clear 16 1018 48 16093 1.42 128.123 23:41 06.09.2019
5572 Clear 16 1018 48 16093 1.42 128.123 23:22 06.09.2019
5573 Clear 15 1019 58 16093 1.42 128.123 22:58 06.09.2019
5574 Clear 15 1019 58 16093 1.42 128.123 22:58 06.09.2019
5575 Clear 15 1019 58 16093 1.42 128.123 22:38 06.09.2019
5576 Clear 13 1019 66 16093 1.42 128.123 22:19 06.09.2019
5577 Clear 13 1019 66 16093 1.42 128.123 21:58 06.09.2019
5578 Clear 12 1019 66 16093 1.42 128.123 21:39 06.09.2019
5579 Clear 11 1019 66 16093 0.71 84.886 21:21 06.09.2019
5580 Clear 10 1020 76 14484 0.71 84.886 20:58 06.09.2019
5581 Clear 10 1020 76 14484 0.66 112.766 20:39 06.09.2019
5582 Clear 10 1020 76 14484 0.66 112.766 20:21 06.09.2019
5583 Haze 8 1020 76 16093 0.66 112.766 19:57 06.09.2019
5584 Haze 7 1020 81 3621 0.66 112.766 19:39 06.09.2019
5585 Clouds 6 1020 81 16093 0.66 112.766 19:20 06.09.2019
5586 Clear 6 1020 86 11265 0.66 112.766 18:46 06.09.2019
5587 Mist 4 1020 86 16093 1.1 65.043 18:25 06.09.2019
5588 Mist 4 1020 86 16093 1.1 65.043 17:59 06.09.2019
5589 Mist 4 1020 86 16093 1.1 65.043 17:59 06.09.2019
5590 Mist 4 1020 93 4023 1.1 65.043 17:38 06.09.2019
5591 Mist 4 1020 93 4828 1.1 65.043 17:19 06.09.2019
5592 Mist 4 1020 86 4023 1.1 65.043 16:41 06.09.2019
5593 Mist 5 1020 87 9656 3.6 70 16:19 06.09.2019
5594 Mist 5 1020 87 9656 3.6 70 15:44 06.09.2019
5595 Mist 5 1020 87 9656 3.6 70 15:26 06.09.2019
5596 Mist 6 1020 100 8047 1.33 44.028 14:59 06.09.2019
5597 Mist 5 1020 100 8047 1.33 44.028 14:39 06.09.2019
5598 Mist 6 1020 93 9656 1.33 44.028 14:18 06.09.2019
5599 Mist 6 1020 93 9656 1.33 44.028 13:43 06.09.2019
5600 Mist 6 1020 93 9656 1.23 53.345 13:22 06.09.2019
5601 Mist 7 1020 87 8047 1.23 53.345 12:39 06.09.2019
5602 Haze 7 1020 81 16093 1.5 40 12:21 06.09.2019
5603 Haze 7 1020 81 16093 1.5 40 11:57 06.09.2019
5604 Haze 8 1020 81 8047 3.1 90 11:39 06.09.2019
5605 Haze 8 1020 81 8047 3.1 90 11:20 06.09.2019
5606 Clear 8 1019 81 11265 1.75 43.634 10:42 06.09.2019
5607 Clear 9 1019 81 11265 1.59 46.329 10:22 06.09.2019
5608 Clear 10 1019 76 14484 1.59 46.329 09:58 06.09.2019
5609 Clear 10 1019 76 14484 1.59 46.329 09:37 06.09.2019
5610 Haze 10 1019 81 8047 1.64 43.94 09:18 06.09.2019
5611 Haze 11 1019 81 8047 1.64 43.94 08:44 06.09.2019
5612 Haze 11 1019 81 8047 1.64 43.94 08:26 06.09.2019
5613 Haze 12 1019 71 8047 1.64 43.94 07:51 06.09.2019
5614 Haze 12 1019 71 8047 1.64 43.94 07:28 06.09.2019
5615 Clouds 15 1019 71 16093 1.64 43.94 06:59 06.09.2019
5616 Clear 15 1019 48 14484 1.64 43.94 06:33 06.09.2019
5617 Clear 16 1019 42 16093 2.1 30 05:45 06.09.2019
5618 Clear 16 1020 42 16093 0.67 30.139 04:54 06.09.2019
5619 Clouds 17 1019 45 16093 2.1 30 04:24 06.09.2019
5620 Clear 17 1021 45 16093 1.5 100 02:44 06.09.2019
5621 Clouds 16 1021 51 16093 1.5 0 00:57 06.09.2019
5622 Clouds 16 1021 55 16093 3.1 90 00:20 06.09.2019
5623 Clouds 16 1021 55 16093 3.1 90 00:20 06.09.2019
5624 Clear 15 1022 62 16093 1.06 131.778 23:41 05.09.2019
5625 Clear 15 1022 62 16093 1.06 131.778 23:22 05.09.2019
5626 Clear 14 1022 67 14484 1.5 80 22:45 05.09.2019
5627 Clear 14 1022 67 14484 1.5 80 22:25 05.09.2019
5628 Clouds 13 1023 76 14484 1.5 70 21:57 05.09.2019
5629 Clouds 12 1023 76 14484 1.5 70 21:39 05.09.2019
5630 Clouds 12 1023 76 14484 1.5 70 21:39 05.09.2019
5631 Clouds 11 1022 76 16093 1.5 0 21:20 05.09.2019
5632 Clouds 11 1022 76 16093 1.5 0 20:58 05.09.2019
5633 Clouds 9 1023 93 14484 1 119.681 20:38 05.09.2019
5634 Clouds 9 1022 76 16093 2.1 60 20:20 05.09.2019
5635 Clouds 8 1022 76 16093 2.1 60 19:57 05.09.2019
5636 Clear 8 1023 100 11265 1 119.681 19:39 05.09.2019
5637 Clear 8 1023 100 11265 1 119.681 19:20 05.09.2019
5638 Clear 7 1023 93 11265 1 119.681 18:43 05.09.2019
5639 Clear 7 1023 93 11265 1 119.681 18:43 05.09.2019
5640 Clear 6 1023 93 11265 1 119.681 18:25 05.09.2019
5641 Clouds 6 1022 87 16093 0.93 114.754 17:59 05.09.2019
5642 Fog 6 1023 100 11265 0.93 114.754 17:40 05.09.2019
5643 Fog 5 1022 87 16093 2.1 50 17:22 05.09.2019
5644 Fog 5 1022 87 16093 2.1 50 16:57 05.09.2019
5645 Fog 5 1022 87 16093 2.1 50 16:57 05.09.2019
5646 Fog 6 1022 87 16093 2.1 50 16:57 05.09.2019
5647 Fog 6 1022 87 16093 2.1 50 16:39 05.09.2019
5648 Clouds 5 1021 86 16093 1.5 30 16:19 05.09.2019
5649 Clouds 6 1021 86 16093 1.5 30 15:40 05.09.2019
5650 Clear 6 1021 100 11265 2.1 80 15:19 05.09.2019
5651 Clear 6 1021 100 11265 2.1 80 14:58 05.09.2019
5652 Clear 6 1021 100 11265 2.1 80 14:40 05.09.2019
5653 Mist 7 1021 100 9656 1.5 90 14:19 05.09.2019
5654 Mist 6 1021 100 9656 1.5 90 13:43 05.09.2019
5655 Clouds 7 1021 87 16093 1.5 90 13:21 05.09.2019
5656 Clouds 7 1021 93 16093 1.5 40 12:46 05.09.2019
5657 Clouds 7 1021 93 16093 1.5 40 12:27 05.09.2019
5658 Clouds 8 1020 87 16093 2.1 70 11:58 05.09.2019
5659 Clouds 8 1020 93 12874 0.55 188.73 11:40 05.09.2019
5660 Clouds 9 1019 81 14484 0.55 188.73 11:19 05.09.2019
5661 Clouds 9 1019 81 14484 0.55 188.73 10:42 05.09.2019
5662 Clouds 9 1019 81 16093 0.55 188.73 10:22 05.09.2019
5663 Clouds 10 1019 81 16093 0.55 188.73 09:58 05.09.2019
5664 Clouds 10 1019 81 16093 0.55 188.73 09:58 05.09.2019
5665 Clouds 10 1019 81 12874 1.5 240 09:40 05.09.2019
5666 Clouds 11 1019 76 16093 1.5 260 09:18 05.09.2019
5667 Clouds 11 1018 71 16093 2.1 260 08:46 05.09.2019
5668 Clouds 11 1018 71 16093 2.1 260 08:26 05.09.2019
5669 Clouds 12 1018 67 16093 3.1 270 07:46 05.09.2019
5670 Clouds 12 1018 67 16093 3.1 270 07:28 05.09.2019
5671 Clouds 13 1018 66 16093 1.05 217.923 06:58 05.09.2019
5672 Clouds 14 1017 54 16093 3.6 260 06:31 05.09.2019
5673 Clouds 14 1017 51 14484 3.6 250 05:51 05.09.2019
5674 Clouds 14 1017 51 14484 3.6 250 05:32 05.09.2019
5675 Clouds 15 1017 58 16093 3.1 260 04:55 05.09.2019
5676 Clouds 15 1017 48 14484 4.1 230 04:29 05.09.2019
5677 Rain 16 1016 48 14484 5.1 230 03:40 05.09.2019
5678 Clear 16 1017 48 14484 4.1 220 02:53 05.09.2019
5679 Clear 16 1017 48 14484 4.1 220 02:27 05.09.2019
5680 Clouds 16 1017 51 16093 2.1 210 01:37 05.09.2019
5681 Clouds 16 1017 55 16093 2.1 220 00:48 05.09.2019
5682 Clouds 15 1017 59 16093 2.1 310 00:22 05.09.2019
5683 Clouds 15 1017 62 16093 2.6 210 23:56 04.09.2019
5684 Clouds 15 1017 62 16093 2.6 210 23:37 04.09.2019
5685 Clouds 14 1017 82 14484 1.5 210 23:18 04.09.2019
5686 Clouds 14 1017 82 14484 1.5 210 22:46 04.09.2019
5687 Clouds 13 1017 76 16093 1.5 210 22:19 04.09.2019
5688 Clouds 12 1016 87 14484 1.06 175.51 21:40 04.09.2019
5689 Clouds 12 1016 87 16093 0.95 154.728 21:20 04.09.2019
5690 Clouds 12 1016 87 14484 0.95 154.728 21:20 04.09.2019
5691 Clouds 11 1016 87 16093 0.95 154.728 20:58 04.09.2019
5692 Clouds 11 1016 87 14484 0.95 154.728 20:40 04.09.2019
5693 Clouds 11 1016 81 16093 0.95 154.728 20:19 04.09.2019
5694 Clouds 10 1016 81 16093 0.95 154.728 19:57 04.09.2019
5695 Mist 10 1016 93 16093 0.95 154.728 19:38 04.09.2019
5696 Mist 9 1016 93 16093 0.95 154.728 19:19 04.09.2019
5697 Fog 9 1016 93 4828 1.5 50 18:39 04.09.2019
5698 Mist 9 1016 93 4828 0.74 128.817 18:20 04.09.2019
5699 -273 0 0 0 0 0 17:55 04.09.2019
5700 Fog 9 1015 100 805 0.74 128.817 17:36 04.09.2019
5701 Fog 9 1015 93 805 1.5 90 17:18 04.09.2019
5702 Clouds 8 1015 100 16093 2.1 60 16:46 04.09.2019
5703 Clouds 8 1015 100 16093 2.1 60 16:28 04.09.2019
5704 Clouds 8 1015 93 16093 2.1 50 15:58 04.09.2019
5705 Clouds 8 1015 93 14484 0.74 128.817 15:39 04.09.2019
5706 Clouds 8 1015 100 14484 0.57 142.628 15:20 04.09.2019
5707 Clouds 8 1015 100 14484 0.57 142.628 14:56 04.09.2019
5708 Clouds 8 1015 100 14484 0.57 142.628 14:37 04.09.2019
5709 Clouds 8 1014 87 16093 0.57 142.628 14:19 04.09.2019
5710 Clouds 9 1015 93 16093 0.57 142.628 13:40 04.09.2019
5711 Clouds 9 1014 93 16093 0.58 160.809 13:22 04.09.2019
5712 Clouds 10 1014 93 16093 0.58 160.809 12:59 04.09.2019
5713 Clouds 10 1014 87 16093 0.58 160.809 12:39 04.09.2019
5714 Clouds 10 1014 87 16093 1.5 190 12:21 04.09.2019
5715 Clouds 10 1014 87 16093 1.5 190 11:55 04.09.2019
5716 Clouds 11 1014 87 16093 0.83 186.386 11:37 04.09.2019
5717 Clouds 11 1014 87 16093 0.83 186.386 11:18 04.09.2019
5718 Clouds 11 1013 87 16093 0.83 186.386 10:44 04.09.2019
5719 Clouds 11 1013 87 16093 0.83 186.386 10:25 04.09.2019
5720 Clouds 11 1013 76 16093 0.8 191.648 09:57 04.09.2019
5721 Clouds 11 1013 76 16093 0.8 191.648 09:39 04.09.2019
5722 Clouds 12 1013 76 16093 2.6 240 09:18 04.09.2019
5723 Clouds 12 1013 76 16093 2.6 240 08:41 04.09.2019
5724 Clouds 12 1013 76 16093 2.6 240 08:23 04.09.2019
5725 Clouds 12 1013 76 16093 1.33 217.621 07:51 04.09.2019
5726 Clouds 12 1012 67 14484 3.6 220 07:32 04.09.2019
5727 Clouds 15 1012 63 14484 4.1 250 06:42 04.09.2019
5728 Clouds 14 1012 59 16093 4.6 240 06:21 04.09.2019
5729 Clear 16 1011 55 16093 6.2 250 04:53 04.09.2019
5730 Clouds 16 1011 55 16093 4.1 260 04:19 04.09.2019
5731 Clouds 17 1011 55 14484 3.6 230 01:49 04.09.2019
5732 Clouds 17 1010 63 16093 1.5 30 00:55 04.09.2019
5733 Clouds 17 1010 63 16093 1.5 30 00:34 04.09.2019
5734 Clouds 15 1010 52 16093 6.2 250 23:56 03.09.2019
5735 Clouds 15 1010 67 14484 2.1 20 23:38 03.09.2019
5736 Rain 14 1009 55 16093 3.1 220 23:19 03.09.2019
5737 Rain 13 1010 71 9656 1.68 208.211 22:40 03.09.2019
5738 Rain 13 1010 71 9656 1.68 208.211 22:22 03.09.2019
5739 Rain 13 1010 71 9656 1.68 208.211 22:22 03.09.2019
5740 Rain 13 1010 62 16093 1.5 240 21:56 03.09.2019
5741 Rain 13 1010 62 16093 1.5 240 21:56 03.09.2019
5742 Rain 12 1010 76 11265 0.86 181.536 21:38 03.09.2019
5743 Clouds 11 1009 71 16093 0.81 147.507 21:20 03.09.2019
5744 Clouds 11 1009 81 14484 0.81 147.507 20:43 03.09.2019
5745 Clouds 11 1009 81 14484 0.81 147.507 20:43 03.09.2019
5746 Clouds 11 1008 76 16093 0.81 147.507 20:24 03.09.2019
5747 Clouds 10 1008 76 16093 0.81 147.507 19:57 03.09.2019
5748 Clouds 10 1008 87 12874 0.81 147.507 19:38 03.09.2019
5749 Clouds 10 1008 87 12874 0.81 147.507 19:19 03.09.2019
5750 Clouds 8 1007 93 12874 2.6 70 18:56 03.09.2019
5751 Clouds 8 1007 93 12874 2.6 70 18:38 03.09.2019
5752 Clouds 7 1007 87 16093 1.5 60 18:18 03.09.2019
5753 Clouds 7 1007 100 14484 2.1 80 17:42 03.09.2019
5754 Clouds 7 1007 100 14484 2.1 80 17:21 03.09.2019
5755 Clouds 7 1006 100 14484 1.5 50 16:59 03.09.2019
5756 Clouds 6 1006 100 14484 1.5 50 16:39 03.09.2019
5757 Clear 6 1006 93 16093 0.53 153.386 16:21 03.09.2019
5758 Clear 6 1006 93 16093 0.53 153.386 15:41 03.09.2019
5759 Clear 6 1006 93 16093 0.53 153.386 15:41 03.09.2019
5760 Clear 7 1006 93 16093 0.51 149.962 15:22 03.09.2019
5761 Clear 8 1005 87 16093 1.5 10 14:58 03.09.2019
5762 Clear 8 1005 87 16093 1.5 10 14:40 03.09.2019
5763 Clouds 8 1005 81 16093 0.51 149.962 14:21 03.09.2019
5764 Clouds 8 1005 81 16093 0.51 149.962 13:57 03.09.2019
5765 Clouds 8 1005 81 16093 0.51 149.962 13:57 03.09.2019
5766 Clear 8 1005 93 16093 2.1 70 13:37 03.09.2019
5767 Clouds 8 1004 87 16093 1.5 70 13:19 03.09.2019
5768 Clouds 8 1004 87 16093 1.5 70 13:19 03.09.2019
5769 Clouds 8 1004 87 16093 1.5 70 12:56 03.09.2019
5770 Clear 9 1004 93 16093 2.1 80 12:38 03.09.2019
5771 Clouds 9 1004 87 16093 0.9 247.585 12:20 03.09.2019
5772 Clear 10 1004 93 16093 0.9 247.585 11:42 03.09.2019
5773 Clear 10 1004 93 16093 0.9 247.585 11:22 03.09.2019
5774 Clear 10 1003 81 16093 0.9 247.585 10:57 03.09.2019
5775 Clear 10 1003 81 16093 0.9 247.585 10:38 03.09.2019
5776 Rain 11 1002 81 16093 2.1 70 10:20 03.09.2019
5777 Rain 11 1002 81 16093 2.1 70 09:44 03.09.2019
5778 Rain 12 1002 81 16093 2.1 70 09:25 03.09.2019
5779 Clouds 13 1002 71 14484 1.5 250 08:55 03.09.2019
5780 Rain 13 1002 76 14484 1.5 130 08:36 03.09.2019
5781 Haze 14 1001 51 16093 2.1 190 08:18 03.09.2019
5782 Haze 14 1001 72 8047 1.49 218.876 07:40 03.09.2019
5783 Haze 14 1001 72 8047 1.49 218.876 07:40 03.09.2019
5784 Clouds 15 1000 51 16093 2.1 200 07:22 03.09.2019
5785 Clouds 17 1000 45 16093 1.49 218.876 06:44 03.09.2019
5786 Clear 17 1000 52 16093 1.53 197.88 05:53 03.09.2019
5787 Clouds 20 1000 37 16093 2.1 250 03:36 03.09.2019
5788 Clouds 21 1000 33 16093 0.94 176.82 02:44 03.09.2019
5789 Clouds 21 1000 33 16093 0.94 176.82 02:23 03.09.2019
5790 Clouds 20 1000 35 16093 2.1 300 01:49 03.09.2019
5791 Clouds 21 1000 35 16093 2.1 300 01:29 03.09.2019
5792 Clouds 21 1000 37 14484 3.1 150 00:40 03.09.2019
5793 Clouds 21 1000 37 16093 2.6 100 00:20 03.09.2019
5794 Clear 21 1000 45 16093 4.24 142.409 23:40 02.09.2019
5795 Clear 21 1000 45 16093 4.24 142.409 23:40 02.09.2019
5796 Clouds 19 1000 48 14484 3.1 60 23:20 02.09.2019
5797 Clouds 19 1000 48 14484 3.1 60 22:56 02.09.2019
5798 Clouds 19 1000 48 14484 3.1 60 22:38 02.09.2019
5799 Clouds 19 1000 48 14484 3.1 60 22:38 02.09.2019
5800 Clouds 18 1000 52 16093 3.1 80 22:19 02.09.2019
5801 Clouds 18 1000 52 16093 3.1 80 21:56 02.09.2019
5802 Clouds 18 999 52 14484 4.1 80 21:38 02.09.2019
5803 Clouds 17 999 55 16093 3.1 90 21:20 02.09.2019
5804 Clouds 16 999 55 16093 3.1 90 20:57 02.09.2019
5805 Clouds 16 999 59 16093 4.1 60 20:39 02.09.2019
5806 Clouds 15 999 59 16093 2.6 60 20:18 02.09.2019
5807 Clouds 14 999 59 16093 2.6 60 19:55 02.09.2019
5808 Clouds 14 999 59 16093 2.6 60 19:55 02.09.2019
5809 Clear 13 999 71 12874 4.1 80 19:37 02.09.2019
5810 Clouds 13 999 76 16093 1.5 0 19:19 02.09.2019
5811 Clear 12 999 71 16093 4.1 40 18:39 02.09.2019
5812 Clouds 11 999 81 16093 3.1 350 18:21 02.09.2019
5813 Clouds 11 999 81 16093 3.1 350 17:57 02.09.2019
5814 Clear 11 999 76 16093 2.6 70 17:39 02.09.2019
5815 Clear 11 999 71 16093 3.1 100 17:19 02.09.2019
5816 Clear 11 999 71 16093 3.1 100 16:42 02.09.2019
5817 Clear 11 999 71 16093 3.1 100 16:23 02.09.2019
5818 Clouds 12 999 81 16093 1.82 77.335 15:59 02.09.2019
5819 Clouds 12 999 62 16093 3.6 70 15:41 02.09.2019
5820 Rain 13 998 55 16093 6.2 110 15:21 02.09.2019
5821 Rain 13 998 55 16093 6.2 110 14:56 02.09.2019
5822 Clouds 13 999 62 16093 4.1 60 14:37 02.09.2019
5823 Clouds 13 999 71 16093 3.6 30 14:19 02.09.2019
5824 Clouds 13 999 62 16093 3.1 70 13:44 02.09.2019
5825 Clouds 12 999 62 16093 3.1 70 13:25 02.09.2019
5826 -273 0 0 0 0 0 13:25 02.09.2019
5827 Clouds 12 999 71 16093 2.1 60 12:56 02.09.2019
5828 Clear 12 999 66 16093 4.1 60 12:38 02.09.2019
5829 Clouds 13 999 71 16093 1.5 10 12:18 02.09.2019
5830 Clouds 12 999 71 16093 1.5 10 11:55 02.09.2019
5831 Clouds 12 999 62 16093 3.6 70 11:36 02.09.2019
5832 Clouds 13 1000 62 16093 3.1 60 11:18 02.09.2019
5833 Clouds 13 1000 62 16093 3.1 60 10:42 02.09.2019
5834 Clouds 12 1000 62 16093 3.1 60 10:22 02.09.2019
5835 Clear 13 1000 62 14484 3.6 80 09:58 02.09.2019
5836 Clear 13 1000 62 14484 3.6 80 09:38 02.09.2019
5837 Clear 14 1000 58 14484 3.1 50 09:20 02.09.2019
5838 Clear 14 1000 58 14484 3.1 50 08:42 02.09.2019
5839 Clouds 15 999 58 16093 2.6 60 08:21 02.09.2019
5840 Clouds 15 999 58 16093 2.6 60 07:56 02.09.2019
5841 Clouds 16 1000 55 14484 3.1 60 07:37 02.09.2019
5842 Clouds 16 999 51 16093 2.1 80 07:18 02.09.2019
5843 Clear 17 1000 45 14484 4.1 90 06:41 02.09.2019
5844 Clear 18 1001 40 16093 5.1 100 05:53 02.09.2019
5845 Clouds 19 1000 42 16093 3.1 110 05:24 02.09.2019
5846 Clear 20 1001 35 14484 4.1 100 04:48 02.09.2019
5847 Clouds 20 1002 37 16093 4.6 110 01:59 02.09.2019
5848 Clear 19 1003 42 16093 3.6 100 01:28 02.09.2019
5849 Clouds 18 1004 45 16093 5.7 70 00:36 02.09.2019
5850 Clouds 18 1004 48 16093 4.6 80 00:18 02.09.2019
5851 Clouds 16 1004 55 16093 4.6 90 23:39 01.09.2019
5852 Clouds 15 1005 58 16093 6.2 70 23:19 01.09.2019
5853 Clouds 15 1005 58 16093 6.2 70 22:56 01.09.2019
5854 Clouds 15 1005 58 16093 6.2 70 22:38 01.09.2019
5855 Clouds 15 1005 58 16093 6.2 70 22:38 01.09.2019
5856 Clouds 14 1005 62 16093 3.6 80 22:18 01.09.2019
5857 Clear 13 1006 66 16093 4.1 70 21:42 01.09.2019
5858 Clear 13 1006 66 16093 4.1 70 21:23 01.09.2019
5859 Clouds 13 1006 66 16093 3.6 70 21:23 01.09.2019
5860 Clouds 12 1006 66 16093 3.6 70 20:58 01.09.2019
5861 Clear 12 1007 76 16093 4.1 70 20:39 01.09.2019
5862 Clouds 11 1006 71 16093 3.1 50 20:19 01.09.2019
5863 Clouds 11 1006 71 16093 3.1 50 19:59 01.09.2019
5864 Clear 11 1007 81 16093 4.6 60 19:40 01.09.2019
5865 Clear 10 1007 81 16093 4.6 60 19:21 01.09.2019
5866 Clear 9 1008 87 16093 4.1 60 18:48 01.09.2019
5867 Clear 9 1008 87 16093 4.1 60 18:30 01.09.2019
5868 Clear 8 1008 87 16093 4.1 60 17:59 01.09.2019
5869 Clear 7 1008 93 16093 3.1 60 17:39 01.09.2019
5870 Clear 7 1008 93 16093 3.1 60 17:21 01.09.2019
5871 Clear 7 1009 93 14484 4.1 60 16:41 01.09.2019
5872 Clear 7 1009 93 14484 4.1 60 16:41 01.09.2019
5873 Clouds 7 1009 81 16093 2.6 50 16:22 01.09.2019
5874 Clouds 7 1009 81 16093 2.6 50 15:59 01.09.2019
5875 Clear 7 1009 87 16093 3.6 60 15:41 01.09.2019
5876 Clear 7 1009 87 16093 3.6 60 15:23 01.09.2019
5877 Clear 7 1010 87 16093 4.1 60 14:44 01.09.2019
5878 Clear 7 1010 87 16093 4.1 60 14:26 01.09.2019
5879 Clear 7 1010 87 16093 4.1 60 13:59 01.09.2019
5880 Clear 7 1010 87 16093 4.1 60 13:40 01.09.2019
5881 Clear 7 1010 87 16093 4.1 60 13:40 01.09.2019
5882 Clear 7 1010 87 16093 4.1 60 13:22 01.09.2019
5883 Clear 8 1011 87 16093 4.1 60 12:44 01.09.2019
5884 Clear 8 1011 87 16093 4.1 60 12:26 01.09.2019
5885 Clouds 8 1011 87 16093 2.1 360 11:58 01.09.2019
5886 Clear 8 1011 81 16093 3.1 70 11:38 01.09.2019
5887 Clear 9 1011 87 14484 3.6 60 11:19 01.09.2019
5888 Clear 9 1011 87 14484 3.6 60 10:45 01.09.2019
5889 Clear 9 1011 93 14484 3.1 60 10:23 01.09.2019
5890 Clear 9 1011 93 14484 3.1 60 09:48 01.09.2019
5891 Clear 10 1011 93 14484 3.1 60 09:26 01.09.2019
5892 Clear 11 1011 93 12874 1.48 22.54 08:58 01.09.2019
5893 Clear 11 1011 93 12874 1.48 22.54 08:39 01.09.2019
5894 Haze 12 1011 76 9656 1.5 50 08:20 01.09.2019
5895 Smoke 12 1011 66 16093 2.1 350 07:41 01.09.2019
5896 Haze 13 1011 66 16093 2.1 350 07:21 01.09.2019
5897 Haze 14 1011 77 8047 1.48 22.54 06:39 01.09.2019
5898 Haze 16 1011 55 16093 1.5 260 05:59 01.09.2019
5899 Haze 16 1011 55 16093 1.5 260 05:59 01.09.2019
5900 Haze 16 1011 55 16093 1.5 260 05:59 01.09.2019
5901 Clear 17 1011 52 14484 2.1 240 04:53 01.09.2019
5902 Clouds 18 1012 48 16093 2.6 270 03:50 01.09.2019
5903 Clouds 18 1012 48 16093 2.6 270 03:32 01.09.2019
5904 Clear 18 1012 48 16093 3.1 250 02:40 01.09.2019
5905 Clouds 18 1012 52 16093 2.6 210 02:22 01.09.2019
5906 Clear 18 1012 48 16093 1.5 220 01:30 01.09.2019
5907 Clouds 17 1012 55 16093 3.1 200 00:59 01.09.2019
5908 Clouds 17 1012 51 16093 1.07 299.585 00:40 01.09.2019
5909 Clouds 17 1012 51 16093 0.88 317.357 00:20 01.09.2019
5910 Clear 17 1012 55 16093 0.88 317.357 23:43 31.08.2019
5911 Clear 16 1012 58 16093 1.5 290 23:21 31.08.2019
5912 Clear 16 1012 58 16093 1.5 290 22:55 31.08.2019
5913 Clear 16 1012 58 16093 1.5 290 22:37 31.08.2019
5914 Clouds 15 1012 66 16093 0.88 317.357 22:19 31.08.2019
5915 Clouds 14 1012 66 16093 0.88 317.357 21:44 31.08.2019
5916 Clouds 14 1012 66 16093 0.84 328.872 21:23 31.08.2019
5917 Clouds 13 1012 66 14484 1.5 100 20:59 31.08.2019
5918 Clouds 13 1012 66 14484 1.5 100 20:41 31.08.2019
5919 Clouds 12 1012 66 14484 1.5 100 20:23 31.08.2019
5920 Clear 11 1012 87 14484 0.84 328.872 19:43 31.08.2019
5921 Clouds 9 1012 71 16093 1.5 360 19:22 31.08.2019
5922 Clouds 9 1012 71 16093 1.5 360 18:56 31.08.2019
5923 Clouds 8 1012 93 16093 0.84 328.872 18:37 31.08.2019
5924 Clouds 8 1012 93 16093 0.84 328.872 18:37 31.08.2019
5925 Clouds 8 1012 81 16093 2.1 50 18:19 31.08.2019
5926 Clouds 7 1012 81 16093 2.1 50 17:55 31.08.2019
5927 Clear 7 1012 100 14484 1.5 40 17:36 31.08.2019
5928 Clear 7 1012 93 16093 1.57 20.739 17:18 31.08.2019
5929 Clear 7 1012 93 16093 1.57 20.739 16:55 31.08.2019
5930 Clear 7 1012 93 16093 1.57 20.739 16:36 31.08.2019
5931 Clear 7 1012 87 16093 1.57 20.739 16:18 31.08.2019
5932 Clear 8 1012 87 16093 1.57 20.739 15:41 31.08.2019
5933 Clear 8 1012 76 14484 1.5 30 15:19 31.08.2019
5934 Clear 8 1012 76 14484 1.5 30 14:44 31.08.2019
5935 Clear 9 1012 76 14484 1.5 30 14:26 31.08.2019
5936 Clear 9 1012 76 14484 1.5 30 14:26 31.08.2019
5937 Clear 9 1013 76 16093 2.13 32.797 13:59 31.08.2019
5938 Clear 9 1013 76 16093 2.13 32.797 13:39 31.08.2019
5939 Haze 9 1012 81 16093 3.6 50 13:21 31.08.2019
5940 Haze 9 1012 81 16093 3.6 50 12:56 31.08.2019
5941 Haze 10 1013 76 4828 2.6 50 12:38 31.08.2019
5942 Haze 10 1012 76 16093 2.1 50 12:18 31.08.2019
5943 Haze 10 1013 76 1609 3.6 70 11:44 31.08.2019
5944 Haze 10 1013 76 1609 3.6 70 11:26 31.08.2019
5945 Haze 10 1013 76 2414 4.1 60 10:57 31.08.2019
5946 Haze 10 1013 76 8047 3.6 70 10:39 31.08.2019
5947 Haze 10 1013 76 4828 4.1 60 10:18 31.08.2019
5948 Haze 10 1013 76 3219 4.1 60 09:40 31.08.2019
5949 Haze 11 1013 76 3219 4.1 60 09:22 31.08.2019
5950 Clear 11 1013 81 11265 1.93 14.381 08:58 31.08.2019
5951 Clear 11 1013 81 11265 1.93 14.381 08:58 31.08.2019
5952 Clear 11 1013 81 11265 1.93 14.381 08:39 31.08.2019
5953 Clear 12 1013 67 16093 1.93 14.381 08:20 31.08.2019
5954 Clear 13 1013 67 16093 1.93 14.381 07:39 31.08.2019
5955 Clouds 13 1013 67 16093 2.6 350 07:18 31.08.2019
5956 Clear 15 1014 48 16093 1.93 14.381 06:27 31.08.2019
5957 Clouds 16 1014 55 16093 2.1 360 05:55 31.08.2019
5958 Clear 17 1014 42 16093 2.1 40 05:29 31.08.2019
5959 Clear 18 1015 40 16093 2.6 80 04:29 31.08.2019
5960 Clear 18 1015 42 16093 0.83 63.065 03:42 31.08.2019
5961 Clear 18 1016 45 16093 1.5 340 02:23 31.08.2019
5962 Clouds 17 1017 48 16093 2.6 60 01:49 31.08.2019
5963 Clouds 17 1017 48 16093 2.6 60 01:31 31.08.2019
5964 Clouds 17 1017 48 16093 2.1 20 00:47 31.08.2019
5965 Clouds 17 1017 48 16093 2.1 20 00:27 31.08.2019
5966 Clouds 17 1017 48 16093 2.1 20 00:27 31.08.2019
5967 Clouds 16 1018 51 16093 2.1 50 23:51 30.08.2019
5968 Clouds 16 1018 58 16093 1.5 30 23:20 30.08.2019
5969 Clouds 16 1018 58 16093 1.5 30 23:20 30.08.2019
5970 Clouds 16 1018 58 16093 1.5 30 22:59 30.08.2019
5971 Clouds 15 1018 58 16093 1.5 30 22:39 30.08.2019
5972 Clouds 14 1018 58 16093 1.5 30 22:21 30.08.2019
5973 Clouds 13 1018 58 16093 1.5 30 21:57 30.08.2019
5974 Clear 12 1019 71 16093 0.64 52.703 21:37 30.08.2019
5975 Clear 12 1019 71 16093 0.64 52.703 21:37 30.08.2019
5976 Clouds 11 1019 66 16093 1.5 40 21:18 30.08.2019
5977 Clouds 11 1019 66 16093 1.5 40 20:56 30.08.2019
5978 Clouds 10 1019 81 16093 0.82 63.875 20:38 30.08.2019
5979 Clouds 9 1019 76 16093 1.5 70 20:19 30.08.2019
5980 Clouds 9 1019 76 16093 1.5 70 20:19 30.08.2019
5981 Clouds 8 1019 76 16093 1.5 70 19:55 30.08.2019
5982 Clear 7 1019 100 14484 0.82 63.875 19:36 30.08.2019
5983 Clear 8 1019 100 14484 0.82 63.875 19:18 30.08.2019
5984 Clear 8 1019 100 14484 0.82 63.875 19:18 30.08.2019
5985 Clear 7 1020 93 11265 0.82 63.875 18:44 30.08.2019
5986 Clouds 5 1019 81 16093 1.5 70 18:24 30.08.2019
5987 Clear 5 1020 93 11265 1.2 44.966 18:24 30.08.2019
5988 Clouds 5 1019 81 16093 1.5 70 17:57 30.08.2019
5989 Clear 4 1020 100 14484 1.5 60 17:39 30.08.2019
5990 Clouds 4 1019 93 16093 1.2 44.966 17:19 30.08.2019
5991 Clear 4 1020 93 16093 1.2 44.966 16:49 30.08.2019
5992 Clear 4 1020 93 16093 1.2 44.966 16:29 30.08.2019
5993 Clear 4 1020 100 16093 1.2 44.966 15:59 30.08.2019
5994 Clear 4 1020 100 16093 1.2 44.966 15:39 30.08.2019
5995 Clouds 5 1019 93 16093 0.75 69.105 15:20 30.08.2019
5996 Mist 5 1020 93 16093 0.75 69.105 14:45 30.08.2019
5997 Mist 5 1020 93 16093 0.75 69.105 14:25 30.08.2019
5998 Clear 5 1020 93 16093 0.75 69.105 13:56 30.08.2019
5999 Clear 5 1020 93 16093 0.75 69.105 13:38 30.08.2019
6000 Clouds 5 1020 87 16093 0.97 51.81 13:20 30.08.2019
6001 Clear 6 1020 93 16093 0.97 51.81 12:44 30.08.2019
6002 Clear 6 1020 93 16093 1.11 34.891 12:25 30.08.2019
6003 -273 0 0 0 0 0 11:55 30.08.2019
6004 Clear 7 1020 87 16093 1.11 34.891 11:37 30.08.2019
6005 Clear 7 1019 87 16093 1.5 50 11:18 30.08.2019
6006 Clear 7 1019 87 16093 1.5 50 10:37 30.08.2019
6007 Clear 8 1019 81 14484 1.11 34.891 10:19 30.08.2019
6008 Clear 8 1019 81 14484 1.11 34.891 09:42 30.08.2019
6009 Clouds 9 1019 81 16093 0.92 15.271 09:20 30.08.2019
6010 Clouds 9 1019 81 16093 0.92 15.271 08:59 30.08.2019
6011 Clouds 9 1019 81 16093 0.92 15.271 08:41 30.08.2019
6012 Clouds 10 1019 81 16093 0.92 15.271 08:22 30.08.2019
6013 Clear 11 1019 62 12874 1.5 360 07:45 30.08.2019
6014 Clouds 12 1019 62 16093 2.1 340 07:25 30.08.2019
6015 Clouds 14 1019 51 16093 3.1 310 06:49 30.08.2019
6016 Clouds 14 1019 51 16093 3.1 310 06:30 30.08.2019
6017 Clouds 14 1019 51 16093 2.6 310 05:59 30.08.2019
6018 Clear 15 1019 55 16093 2.1 260 04:53 30.08.2019
6019 Clouds 15 1020 51 16093 1.09 316.45 03:55 30.08.2019
6020 Clouds 15 1020 51 16093 1.09 316.45 03:34 30.08.2019
6021 Clouds 15 1021 51 16093 1.69 260.582 02:35 30.08.2019
6022 Clouds 15 1021 54 16093 2.6 300 01:40 30.08.2019
6023 Clouds 14 1021 54 16093 1.5 250 00:46 30.08.2019
6024 Clouds 14 1021 58 16093 1.44 242.225 00:18 30.08.2019
6025 Clouds 13 1022 62 16093 1.44 242.225 23:42 29.08.2019
6026 Clouds 13 1022 62 16093 1.44 242.225 23:21 29.08.2019
6027 Clouds 13 1022 71 14484 1.44 242.225 22:45 29.08.2019
6028 Clouds 13 1022 71 14484 1.44 242.225 22:45 29.08.2019
6029 Clouds 13 1022 71 14484 1.44 242.225 22:45 29.08.2019
6030 Clouds 12 1022 71 14484 1.44 242.225 22:26 29.08.2019
6031 Clouds 12 1022 71 14484 1.44 242.225 22:26 29.08.2019
6032 Clouds 12 1022 76 14484 1.51 221.232 21:58 29.08.2019
6033 Clouds 12 1022 76 14484 1.51 221.232 21:58 29.08.2019
6034 Clouds 12 1022 76 14484 1.51 221.232 21:58 29.08.2019
6035 Clouds 11 1022 76 14484 1.51 221.232 21:40 29.08.2019
6036 Clouds 11 1022 76 14484 0.81 162.57 21:21 29.08.2019
6037 Clouds 11 1022 76 16093 0.81 162.57 21:21 29.08.2019
6038 Clouds 10 1022 76 16093 0.81 162.57 20:57 29.08.2019
6039 Clouds 10 1022 87 12874 0.81 162.57 20:38 29.08.2019
6040 Clouds 10 1022 87 12874 0.81 162.57 20:18 29.08.2019
6041 Clouds 10 1022 87 16093 0.81 162.57 19:46 29.08.2019
6042 Clouds 9 1022 87 16093 0.81 162.57 19:26 29.08.2019
6043 Clouds 9 1022 93 16093 0.81 162.57 18:57 29.08.2019
6044 Clouds 9 1022 93 16093 0.81 162.57 18:38 29.08.2019
6045 Clouds 9 1022 93 16093 0.64 122.232 18:18 29.08.2019
6046 Clouds 8 1022 93 16093 0.64 122.232 17:54 29.08.2019
6047 Clouds 8 1022 93 16093 0.64 122.232 17:36 29.08.2019
6048 Clouds 8 1022 93 16093 0.64 122.232 17:18 29.08.2019
6049 Clouds 8 1022 93 16093 0.64 122.232 17:18 29.08.2019
6050 Clouds 8 1021 78 0 0.64 122.232 16:41 29.08.2019
6051 -273 0 0 0 0 0 16:41 29.08.2019
6052 Clouds 9 1022 87 16093 0.64 122.232 16:23 29.08.2019
6053 Clouds 9 1022 87 16093 0.64 122.232 15:41 29.08.2019
6054 Clouds 9 1022 87 16093 0.73 142.989 15:21 29.08.2019
6055 Clouds 9 1022 87 16093 0.73 142.989 14:58 29.08.2019
6056 Clouds 9 1022 87 16093 0.73 142.989 14:40 29.08.2019
6057 Clouds 9 1023 87 16093 1.5 260 14:20 29.08.2019
6058 Clouds 9 1023 87 16093 1.5 260 13:57 29.08.2019
6059 Clouds 9 1023 87 16093 1.5 260 13:38 29.08.2019
6060 Clouds 9 1022 87 16093 0.74 142.678 13:18 29.08.2019
6061 Clouds 9 1022 87 16093 0.74 142.678 12:56 29.08.2019
6062 Clouds 9 1022 93 16093 0.74 142.678 12:38 29.08.2019
6063 Clouds 9 1022 87 16093 0.87 188.711 12:19 29.08.2019
6064 Clouds 9 1022 87 16093 0.87 188.711 11:42 29.08.2019
6065 Clouds 9 1022 87 16093 0.87 188.711 11:21 29.08.2019
6066 Clouds 9 1022 87 16093 0.87 188.711 10:57 29.08.2019
6067 Clouds 9 1022 87 16093 0.87 188.711 10:38 29.08.2019
6068 Clouds 9 1022 71 16093 0.87 188.711 10:20 29.08.2019
6069 Clouds 9 1022 71 16093 0.59 205.69 09:41 29.08.2019
6070 Clouds 9 1022 71 16093 0.59 205.69 09:41 29.08.2019
6071 Clouds 10 1021 76 16093 1.19 231.265 09:19 29.08.2019
6072 Clouds 10 1021 76 16093 1.19 231.265 08:56 29.08.2019
6073 Clouds 10 1021 76 16093 1.19 231.265 08:31 29.08.2019
6074 Clouds 11 1021 66 14484 2.6 260 07:59 29.08.2019
6075 Clouds 11 1021 66 14484 2.6 260 07:41 29.08.2019
6076 Clouds 11 1021 66 16093 2.1 250 07:23 29.08.2019
6077 Clouds 12 1021 67 16093 2.1 210 06:40 29.08.2019
6078 Clouds 13 1021 62 16093 2.1 250 05:54 29.08.2019
6079 Clouds 13 1021 67 16093 3.1 200 05:33 29.08.2019
6080 Clouds 13 1021 67 16093 2.6 320 04:49 29.08.2019
6081 Clouds 13 1021 67 16093 2.6 320 04:28 29.08.2019
6082 Clouds 13 1021 62 16093 3.1 270 02:21 29.08.2019
6083 Clouds 13 1021 67 16093 5.1 240 01:41 29.08.2019
6084 Clouds 13 1021 62 16093 4.1 280 00:51 29.08.2019
6085 Clouds 13 1021 66 16093 4.1 290 00:24 29.08.2019
6086 Clouds 13 1021 66 16093 4.1 290 23:59 28.08.2019
6087 Clouds 13 1021 67 14484 3.6 260 23:41 28.08.2019
6088 Clouds 13 1021 67 14484 3.6 260 23:22 28.08.2019
6089 Clouds 13 1021 67 16093 4.1 240 22:57 28.08.2019
6090 Clouds 13 1021 67 16093 4.1 240 22:38 28.08.2019
6091 Clouds 13 1021 66 16093 2.1 220 22:18 28.08.2019
6092 Clouds 13 1021 66 16093 2.1 220 21:54 28.08.2019
6093 Clouds 13 1021 76 14484 3.6 230 21:36 28.08.2019
6094 Clouds 12 1021 71 16093 2.6 240 21:18 28.08.2019
6095 Clouds 12 1021 81 14484 3.1 210 20:40 28.08.2019
6096 Clouds 11 1021 76 16093 1.5 0 20:22 28.08.2019
6097 Clouds 11 1021 87 16093 3.1 220 19:44 28.08.2019
6098 Clouds 10 1021 87 16093 3.1 220 19:23 28.08.2019
6099 Clouds 10 1021 87 16093 3.1 220 18:59 28.08.2019
6100 Clouds 10 1021 87 14484 2.1 180 18:41 28.08.2019
6101 Clouds 10 1020 81 16093 1.5 220 18:21 28.08.2019
6102 Clouds 10 1020 87 16093 3.1 210 17:39 28.08.2019
6103 Clouds 10 1020 81 16093 3.6 210 17:20 28.08.2019
6104 Clouds 10 1020 81 16093 3.6 210 16:56 28.08.2019
6105 Clouds 10 1020 81 16093 3.6 210 16:56 28.08.2019
6106 Clouds 10 1020 81 16093 3.6 210 16:38 28.08.2019
6107 Clouds 10 1020 81 16093 3.6 210 16:38 28.08.2019
6108 Clouds 10 1020 81 16093 3.1 220 16:18 28.08.2019
6109 Clouds 10 1020 81 16093 4.1 230 15:39 28.08.2019
6110 Clouds 11 1020 81 16093 3.6 220 15:20 28.08.2019
6111 Clouds 11 1020 81 16093 3.6 220 14:58 28.08.2019
6112 Clouds 11 1019 81 16093 2.6 210 14:40 28.08.2019
6113 Clouds 11 1019 81 16093 3.1 220 14:21 28.08.2019
6114 Clouds 11 1019 81 16093 3.1 220 13:59 28.08.2019
6115 Clouds 11 1019 81 16093 3.1 220 13:39 28.08.2019
6116 Clouds 11 1019 76 16093 3.1 250 13:20 28.08.2019
6117 Clouds 11 1019 76 16093 4.1 220 12:44 28.08.2019
6118 Clouds 11 1019 76 16093 2.1 210 12:25 28.08.2019
6119 Clouds 11 1019 76 16093 2.1 210 11:59 28.08.2019
6120 Clouds 11 1019 81 16093 3.6 210 11:40 28.08.2019
6121 Clouds 11 1019 81 16093 3.6 210 11:21 28.08.2019
6122 Clouds 11 1018 71 16093 3.6 230 10:56 28.08.2019
6123 Clouds 11 1018 71 16093 3.6 230 10:56 28.08.2019
6124 Clouds 11 1018 71 16093 3.6 230 10:56 28.08.2019
6125 Clouds 11 1018 71 16093 3.6 230 10:37 28.08.2019
6126 Clouds 11 1018 71 16093 3.1 250 10:19 28.08.2019
6127 Clouds 12 1018 71 16093 3.1 250 09:41 28.08.2019
6128 Clouds 12 1018 71 16093 3.1 250 09:21 28.08.2019
6129 Clouds 12 1018 67 16093 3.6 270 08:55 28.08.2019
6130 Clouds 12 1018 67 16093 3.6 270 08:36 28.08.2019
6131 Clouds 12 1017 71 16093 3.1 280 08:18 28.08.2019
6132 Clouds 12 1017 71 16093 3.1 280 07:37 28.08.2019
6133 Clouds 13 1017 67 16093 2.1 280 07:19 28.08.2019
6134 Clouds 13 1017 62 16093 4.1 250 06:46 28.08.2019
6135 Clouds 14 1017 62 16093 3.1 270 05:52 28.08.2019
6136 Clouds 14 1017 62 16093 2.6 270 04:40 28.08.2019
6137 Clouds 14 1017 59 16093 6.2 230 01:57 28.08.2019
6138 Clouds 15 1017 59 16093 6.2 230 01:30 28.08.2019
6139 Clouds 14 1017 62 14484 4.1 220 00:43 28.08.2019
6140 Clouds 14 1017 62 14484 4.1 220 00:23 28.08.2019
6141 Clouds 13 1017 67 16093 4.1 220 23:44 27.08.2019
6142 Clouds 13 1017 67 16093 4.1 220 23:22 27.08.2019
6143 Clouds 12 1017 76 14484 4.1 220 22:59 27.08.2019
6144 Clouds 12 1017 76 14484 4.1 220 22:39 27.08.2019
6145 Clouds 12 1017 71 16093 2.6 0 22:20 27.08.2019
6146 Clouds 12 1017 71 16093 2.6 0 21:56 27.08.2019
6147 Clouds 11 1017 76 16093 2.1 260 21:38 27.08.2019
6148 Clouds 11 1017 71 16093 2.1 210 21:18 27.08.2019
6149 Clouds 11 1017 71 16093 2.1 210 20:56 27.08.2019
6150 Clouds 10 1016 87 14484 2.35 224.724 20:37 27.08.2019
6151 Clouds 10 1016 76 16093 2.6 210 20:19 27.08.2019
6152 Clouds 9 1016 93 12874 2.1 60 19:43 27.08.2019
6153 Clouds 9 1016 93 12874 2.1 60 19:24 27.08.2019
6154 Clouds 9 1016 93 12874 1.5 60 18:56 27.08.2019
6155 Clouds 9 1016 93 12874 1.5 60 18:36 27.08.2019
6156 Clouds 8 1016 81 16093 2.1 210 18:18 27.08.2019
6157 Clouds 8 1016 93 14484 1.48 221.685 17:43 27.08.2019
6158 Clouds 8 1016 93 14484 1.48 221.685 17:24 27.08.2019
6159 Clouds 8 1016 81 16093 1.48 221.685 16:57 27.08.2019
6160 Clouds 7 1016 100 16093 1.48 221.685 16:36 27.08.2019
6161 Clouds 8 1016 93 16093 1.48 221.685 16:18 27.08.2019
6162 Clouds 8 1016 93 16093 1.48 221.685 15:42 27.08.2019
6163 Clouds 8 1016 87 16093 1.5 80 15:23 27.08.2019
6164 Clouds 8 1016 87 16093 1.5 80 14:59 27.08.2019
6165 Clouds 8 1016 87 16093 1.5 80 14:41 27.08.2019
6166 Clouds 8 1015 87 16093 1.5 70 14:23 27.08.2019
6167 Clouds 8 1015 87 16093 1.5 70 13:43 27.08.2019
6168 Clouds 9 1015 87 16093 1.5 60 13:24 27.08.2019
6169 Clouds 9 1015 87 16093 1.5 70 12:56 27.08.2019
6170 Clouds 9 1015 87 16093 1.5 70 12:37 27.08.2019
6171 Clouds 9 1015 87 16093 1.22 253.004 12:19 27.08.2019
6172 Clouds 9 1015 87 16093 1.22 253.004 11:44 27.08.2019
6173 Clouds 9 1015 87 16093 1.22 253.004 11:25 27.08.2019
6174 Clouds 9 1015 87 16093 1.22 253.004 10:46 27.08.2019
6175 Clouds 9 1015 87 16093 1.22 253.004 10:22 27.08.2019
6176 Clouds 9 1015 93 16093 1.22 253.004 09:59 27.08.2019
6177 Clouds 9 1015 93 16093 1.24 256.556 09:39 27.08.2019
6178 Clouds 10 1015 87 16093 1.49 260.152 09:20 27.08.2019
6179 Clouds 10 1015 87 16093 1.49 260.152 08:55 27.08.2019
6180 Clouds 10 1015 87 16093 1.49 260.152 08:37 27.08.2019
6181 Clouds 10 1015 76 16093 1.49 260.152 08:18 27.08.2019
6182 Clear 12 1015 62 16093 1.49 260.152 07:40 27.08.2019
6183 Clouds 12 1015 62 16093 1.5 250 07:19 27.08.2019
6184 Clear 13 1015 48 16093 3.1 260 06:54 27.08.2019
6185 Clear 14 1015 48 16093 3.1 260 06:25 27.08.2019
6186 Clear 15 1015 42 16093 3.6 280 05:42 27.08.2019
6187 Clear 15 1015 45 16093 3.1 280 04:43 27.08.2019
6188 Clouds 16 1015 39 16093 3.1 240 03:35 27.08.2019
6189 Clouds 16 1016 45 16093 3.1 280 02:23 27.08.2019
6190 Clouds 16 1016 48 16093 3.6 240 01:40 27.08.2019
6191 Clouds 16 1016 48 16093 3.6 270 01:21 27.08.2019
6192 Clouds 16 1016 51 16093 3.15 265.248 00:41 27.08.2019
6193 Clouds 15 1016 51 16093 3.6 210 00:22 27.08.2019
6194 Clear 15 1017 58 16093 2.93 251.949 23:38 26.08.2019
6195 Clear 14 1017 66 16093 2.93 251.949 23:19 26.08.2019
6196 Clear 13 1017 66 16093 2.93 251.949 22:39 26.08.2019
6197 Clear 13 1017 66 16093 2.93 251.949 22:19 26.08.2019
6198 Clear 12 1017 81 16093 1.5 80 21:58 26.08.2019
6199 Clear 11 1017 81 16093 1.5 80 21:38 26.08.2019
6200 Clear 10 1017 81 16093 1.5 80 21:19 26.08.2019
6201 Clear 9 1017 93 16093 1.5 70 20:56 26.08.2019
6202 Clear 8 1017 93 16093 1.5 70 20:37 26.08.2019
6203 Clear 8 1017 93 16093 1.5 70 20:37 26.08.2019
6204 Clear 8 1017 93 16093 1.5 70 20:18 26.08.2019
6205 Clear 8 1017 93 16093 1.5 50 19:43 26.08.2019
6206 Clear 7 1017 93 16093 1.5 50 19:19 26.08.2019
6207 Clouds 7 1016 81 16093 1.5 30 18:58 26.08.2019
6208 Clear 6 1017 100 16093 2.1 80 18:38 26.08.2019
6209 Clear 6 1017 100 16093 2.1 80 18:19 26.08.2019
6210 Clear 5 1016 100 16093 1.15 224.155 17:44 26.08.2019
6211 Clear 5 1016 100 16093 1.15 224.155 17:20 26.08.2019
6212 Mist 5 1016 93 4426 2.6 170 16:57 26.08.2019
6213 Clear 5 1016 100 14484 1.15 224.155 16:39 26.08.2019
6214 Clear 6 1016 100 14484 1.15 224.155 16:19 26.08.2019
6215 Clouds 6 1015 100 16093 1.5 50 15:56 26.08.2019
6216 Clouds 6 1015 100 16093 1.5 50 15:38 26.08.2019
6217 Clouds 6 1015 100 16093 1.5 50 15:20 26.08.2019
6218 Clouds 7 1015 93 16093 1.15 241.74 14:44 26.08.2019
6219 Clouds 7 1015 93 16093 1.15 241.74 14:23 26.08.2019
6220 Clouds 7 1015 93 16093 1.15 241.74 13:57 26.08.2019
6221 Clouds 7 1015 93 16093 1.15 241.74 13:37 26.08.2019
6222 Clouds 7 1015 93 16093 1.23 229.535 13:18 26.08.2019
6223 Clouds 7 1014 93 16093 1.23 229.535 12:43 26.08.2019
6224 Clouds 8 1014 93 16093 1.13 229.922 12:22 26.08.2019
6225 Clouds 8 1014 93 16093 1.13 229.922 11:44 26.08.2019
6226 Clouds 8 1014 93 16093 1.13 229.922 11:26 26.08.2019
6227 Clouds 9 1013 93 16093 1.13 229.922 10:59 26.08.2019
6228 Clouds 9 1013 93 16093 1.13 229.922 10:59 26.08.2019
6229 Clouds 8 1013 93 16093 1.13 229.922 10:41 26.08.2019
6230 Clouds 9 1013 93 16093 1.13 229.922 10:19 26.08.2019
6231 Clouds 9 1013 93 16093 1.13 229.922 10:19 26.08.2019
6232 Clouds 9 1013 87 16093 1.13 229.922 09:47 26.08.2019
6233 Clouds 10 1013 87 16093 1.01 233.085 09:26 26.08.2019
6234 Rain 11 1013 66 8047 1.04 229.011 08:59 26.08.2019
6235 Rain 11 1013 76 16093 1.04 229.011 08:41 26.08.2019
6236 Rain 11 1013 76 16093 1.04 229.011 08:22 26.08.2019
6237 Rain 13 1012 51 16093 2.6 260 07:46 26.08.2019
6238 Rain 13 1012 51 16093 2.6 260 07:25 26.08.2019
6239 Rain 15 1012 36 16093 3.1 260 06:59 26.08.2019
6240 Rain 15 1012 36 16093 3.1 260 06:39 26.08.2019
6241 Rain 15 1012 36 16093 3.1 260 06:20 26.08.2019
6242 Rain 15 1012 59 16093 3.1 160 05:48 26.08.2019
6243 Rain 16 1011 36 16093 7.7 250 04:24 26.08.2019
6244 Clouds 16 1012 51 16093 3.6 150 02:48 26.08.2019
6245 Clouds 16 1012 48 16093 2.1 220 01:25 26.08.2019
6246 Clear 15 1012 54 16093 4.15 255.029 00:46 26.08.2019
6247 Clear 15 1012 54 16093 4.15 255.029 00:27 26.08.2019
6248 Clouds 14 1012 58 16093 3.38 227.563 23:55 25.08.2019
6249 Clouds 14 1012 58 16093 3.38 227.563 23:36 25.08.2019
6250 Clouds 13 1012 58 16093 3.38 227.563 23:18 25.08.2019
6251 Clouds 12 1013 66 16093 3.38 227.563 22:54 25.08.2019
6252 Clouds 12 1013 66 16093 3.38 227.563 22:36 25.08.2019
6253 Clouds 11 1013 66 16093 3.38 227.563 22:18 25.08.2019
6254 Clouds 9 1013 70 16093 1.5 80 21:41 25.08.2019
6255 Clouds 9 1013 70 16093 1.5 80 21:19 25.08.2019
6256 Clouds 8 1013 75 16093 2.1 60 20:59 25.08.2019
6257 Clouds 8 1013 75 16093 2.1 60 20:39 25.08.2019
6258 Clouds 8 1013 75 16093 2.1 60 20:19 25.08.2019
6259 Clouds 7 1012 86 14484 2.1 60 19:55 25.08.2019
6260 Clouds 6 1012 86 14484 2.1 60 19:37 25.08.2019
6261 Clouds 6 1012 86 14484 2.1 60 19:37 25.08.2019
6262 Clouds 6 1012 86 14484 2.1 60 19:18 25.08.2019
6263 Clear 5 1012 93 16093 2.1 70 18:55 25.08.2019
6264 Clear 5 1012 93 16093 2.1 70 18:55 25.08.2019
6265 Clear 4 1012 93 16093 2.1 70 18:37 25.08.2019
6266 Clear 3 1012 93 16093 2.1 70 18:18 25.08.2019
6267 Clear 2 1012 93 16093 0.93 127.745 17:40 25.08.2019
6268 Clear 2 1012 93 16093 0.93 127.745 17:21 25.08.2019
6269 Fog 2 1011 83 16093 0.93 127.745 16:43 25.08.2019
6270 Clear 2 1012 93 16093 2.1 40 16:23 25.08.2019
6271 Clear 2 1011 100 16093 2.6 60 15:58 25.08.2019
6272 Clear 2 1011 100 16093 2.6 60 15:39 25.08.2019
6273 Clear 3 1011 100 16093 2.6 60 15:21 25.08.2019
6274 Clear 3 1011 93 16093 2.6 80 14:41 25.08.2019
6275 Clear 3 1011 93 16093 2.6 80 14:23 25.08.2019
6276 Clear 3 1011 93 16093 1.5 70 13:46 25.08.2019
6277 Clear 3 1011 93 16093 1.5 70 13:22 25.08.2019
6278 Clear 3 1011 93 16093 2.1 60 12:57 25.08.2019
6279 Clear 3 1011 93 16093 2.1 60 12:39 25.08.2019
6280 Clear 4 1011 93 16093 2.1 60 12:20 25.08.2019
6281 Clear 5 1010 86 16093 1.02 166.769 11:57 25.08.2019
6282 Clear 5 1010 86 16093 1.02 166.769 11:37 25.08.2019
6283 Clear 5 1010 86 16093 1.02 166.769 11:18 25.08.2019
6284 Clear 5 1010 93 16093 1.02 166.769 10:55 25.08.2019
6285 Clear 5 1010 93 16093 1.02 166.769 10:36 25.08.2019
6286 Clear 5 1010 93 16093 1.02 166.769 10:18 25.08.2019
6287 Clear 6 1009 87 16093 1.02 166.769 09:42 25.08.2019
6288 Clear 7 1009 87 16093 1.05 235.511 09:23 25.08.2019
6289 Clear 8 1009 81 16093 1.5 60 08:44 25.08.2019
6290 Clear 8 1009 81 16093 1.5 60 08:23 25.08.2019
6291 Clear 10 1008 54 14484 1.05 235.511 07:46 25.08.2019
6292 Clear 10 1008 54 14484 1.05 235.511 07:23 25.08.2019
6293 Clear 13 1008 29 14484 2.6 230 06:31 25.08.2019
6294 Clear 14 1008 36 16093 3.6 210 04:58 25.08.2019
6295 Clear 15 1008 36 16093 2.1 240 03:43 25.08.2019
6296 Clouds 15 1008 48 16093 2.6 200 02:41 25.08.2019
6297 Clouds 14 1008 51 16093 2.6 310 01:45 25.08.2019
6298 Clear 14 1008 71 16093 2.1 230 00:42 25.08.2019
6299 Clear 13 1008 71 16093 2.1 230 00:22 25.08.2019
6300 Clear 13 1008 76 16093 2.1 210 23:54 24.08.2019
6301 Clear 12 1008 76 16093 2.1 210 23:24 24.08.2019
6302 Clear 11 1008 81 16093 1.9 255.444 22:58 24.08.2019
6303 Clear 11 1008 81 16093 1.9 255.444 22:40 24.08.2019
6304 Clear 11 1008 81 16093 1.9 255.444 22:19 24.08.2019
6305 Clouds 10 1007 81 16093 1.9 255.444 21:57 24.08.2019
6306 Clouds 10 1008 93 14484 1.9 255.444 21:39 24.08.2019
6307 Clouds 9 1008 93 14484 0.84 170.064 21:20 24.08.2019
6308 Clouds 9 1008 93 14484 0.84 170.064 21:20 24.08.2019
6309 Mist 8 1007 93 8047 0.84 170.064 20:56 24.08.2019
6310 Mist 8 1007 93 8047 0.84 170.064 20:56 24.08.2019
6311 Mist 8 1007 100 14484 0.84 170.064 20:37 24.08.2019
6312 Mist 8 1007 100 14484 0.84 170.064 20:37 24.08.2019
6313 Mist 8 1007 100 14484 0.84 170.064 20:37 24.08.2019
6314 Mist 8 1007 100 14484 0.84 170.064 20:18 24.08.2019
6315 Mist 8 1007 100 9656 0.84 170.064 19:57 24.08.2019
6316 Mist 7 1007 93 3219 0.84 170.064 19:38 24.08.2019
6317 Mist 7 1007 100 2816 0.84 170.064 19:18 24.08.2019
6318 Fog 6 1007 100 402 0.84 170.064 18:45 24.08.2019
6319 Fog 6 1007 93 805 0.52 104.09 18:23 24.08.2019
6320 Fog 6 1006 93 1408 0.52 104.09 17:46 24.08.2019
6321 Fog 5 1006 100 603 0.52 104.09 17:27 24.08.2019
6322 Mist 5 1006 100 1408 0.52 104.09 16:56 24.08.2019
6323 Fog 5 1006 100 201 0.52 104.09 16:36 24.08.2019
6324 Fog 5 1006 100 201 0.52 104.09 16:18 24.08.2019
6325 Mist 5 1006 100 2414 0.52 104.09 15:43 24.08.2019
6326 Mist 6 1005 100 16093 0.38 90 15:24 24.08.2019
6327 Clouds 7 1005 100 14484 1.5 70 14:55 24.08.2019
6328 Clouds 7 1005 100 14484 1.5 70 14:37 24.08.2019
6329 Clouds 7 1005 100 14484 1.5 70 14:18 24.08.2019
6330 Clouds 8 1005 100 16093 0.38 90 13:42 24.08.2019
6331 Clouds 8 1005 100 16093 0.38 130.058 13:22 24.08.2019
6332 Clouds 8 1004 100 16093 0.38 130.058 12:58 24.08.2019
6333 Clouds 8 1004 100 16093 0.38 130.058 12:39 24.08.2019
6334 Clouds 7 1004 100 16093 0.16 279.944 12:20 24.08.2019
6335 Clouds 8 1004 93 16093 0.16 279.944 11:45 24.08.2019
6336 Clouds 8 1004 93 16093 0.16 279.944 11:24 24.08.2019
6337 Clouds 8 1004 93 14484 1.5 170 10:53 24.08.2019
6338 Clouds 8 1004 93 12874 0.16 279.944 10:24 24.08.2019
6339 Rain 8 1003 93 11265 0.16 279.944 09:58 24.08.2019
6340 Rain 8 1003 93 12874 1.5 40 09:38 24.08.2019
6341 Rain 8 1003 93 12874 1.5 40 09:18 24.08.2019
6342 Rain 8 1003 93 6437 2.6 60 08:41 24.08.2019
6343 Rain 8 1003 93 6437 2.6 60 08:23 24.08.2019
6344 Rain 8 1003 93 1810 2.6 360 07:50 24.08.2019
6345 Rain 8 1002 87 16093 1.04 189.779 07:28 24.08.2019
6346 Rain 9 1002 81 11265 1.5 160 06:31 24.08.2019
6347 Rain 10 1002 87 8047 3.6 340 05:57 24.08.2019
6348 Rain 10 1002 87 4828 4.1 320 05:35 24.08.2019
6349 Rain 11 1001 71 16093 2.6 360 03:40 24.08.2019
6350 Rain 12 1001 58 14484 5.7 260 02:39 24.08.2019
6351 Rain 13 1000 67 14484 6.2 230 01:52 24.08.2019
6352 Clouds 14 1000 67 16093 1.11 192.646 01:22 24.08.2019
6353 Clouds 13 1001 67 16093 3.6 230 00:44 24.08.2019
6354 Clouds 13 1001 67 16093 3.6 230 00:21 24.08.2019
6355 Clouds 12 1001 76 16093 2.1 200 23:43 23.08.2019
6356 Clouds 12 1001 76 12874 2.1 220 23:19 23.08.2019
6357 Clouds 11 1001 76 14484 2.6 190 22:44 23.08.2019
6358 Clouds 11 1001 76 16093 1.27 153.536 22:24 23.08.2019
6359 Clouds 10 1001 87 16093 4.1 170 21:54 23.08.2019
6360 Rain 10 1001 81 14484 0.96 158.95 21:36 23.08.2019
6361 Rain 10 1001 81 14484 0.96 158.95 21:36 23.08.2019
6362 Rain 10 1001 81 14484 0.96 158.95 21:36 23.08.2019
6363 Rain 9 1001 81 14484 0.27 178.297 21:18 23.08.2019
6364 Rain 9 1001 87 11265 2.1 100 20:45 23.08.2019
6365 Rain 9 1001 87 12874 1.5 90 20:27 23.08.2019
6366 Clouds 8 1001 87 12874 1.5 130 19:46 23.08.2019
6367 Clouds 8 1001 87 12874 1.5 130 19:46 23.08.2019
6368 Clouds 8 1001 87 12874 1.5 130 19:19 23.08.2019
6369 Clouds 7 1001 93 14484 2.1 50 18:55 23.08.2019
6370 Clouds 7 1001 93 14484 2.1 50 18:36 23.08.2019
6371 Clouds 7 1001 93 14484 2.1 50 18:18 23.08.2019
6372 Clouds 7 1001 93 14484 1.5 60 17:41 23.08.2019
6373 Clouds 6 1001 93 14484 1.5 60 17:23 23.08.2019
6374 Clouds 6 1001 93 14484 2.1 40 16:49 23.08.2019
6375 Clouds 6 1001 93 14484 2.1 40 16:30 23.08.2019
6376 Clouds 7 1001 93 16093 2.1 120 15:59 23.08.2019
6377 Clouds 7 1001 93 16093 2.1 120 15:39 23.08.2019
6378 Clouds 7 1001 93 16093 2.1 120 15:21 23.08.2019
6379 Clouds 7 1001 93 16093 2.6 50 14:44 23.08.2019
6380 Clouds 7 1001 93 16093 2.6 50 14:21 23.08.2019
6381 Rain 8 1001 87 16093 1.5 70 13:59 23.08.2019
6382 Rain 8 1001 87 16093 1.5 70 13:41 23.08.2019
6383 Rain 8 1001 87 16093 1.5 70 13:23 23.08.2019
6384 Clouds 8 1002 87 16093 1.5 60 12:58 23.08.2019
6385 Clouds 8 1002 87 16093 1.5 60 12:40 23.08.2019
6386 Clouds 9 1002 87 16093 1.5 60 12:21 23.08.2019
6387 Clouds 9 1002 87 16093 2.1 70 11:57 23.08.2019
6388 Clouds 9 1002 87 16093 2.1 70 11:39 23.08.2019
6389 Clouds 9 1002 87 16093 2.1 70 11:19 23.08.2019
6390 Clouds 8 1001 87 16093 0.22 58.46 10:54 23.08.2019
6391 Clouds 8 1001 87 16093 0.22 58.46 10:36 23.08.2019
6392 Clouds 9 1001 87 16093 0.64 117.049 10:18 23.08.2019
6393 Clouds 9 1001 81 16093 0.64 117.049 09:43 23.08.2019
6394 Clouds 9 1001 81 16093 0.64 117.049 09:43 23.08.2019
6395 Clouds 10 1001 81 16093 0.79 154.016 09:20 23.08.2019
6396 Clouds 9 1002 81 16093 0.79 154.016 08:45 23.08.2019
6397 Clouds 10 1002 81 16093 0.79 154.016 08:20 23.08.2019
6398 Clouds 11 1001 71 16093 1.5 270 07:56 23.08.2019
6399 Clouds 11 1001 71 16093 1.5 270 07:38 23.08.2019
6400 Clouds 11 1001 71 16093 1.5 270 07:20 23.08.2019
6401 Clouds 13 1002 51 14484 2.6 230 06:41 23.08.2019
6402 Clouds 13 1002 51 14484 2.6 230 06:21 23.08.2019
6403 Clear 14 1002 51 16093 2.6 230 05:44 23.08.2019
6404 Clear 14 1002 51 16093 2.6 230 05:23 23.08.2019
6405 Clouds 15 1002 38 16093 2.1 220 03:38 23.08.2019
6406 Clear 15 1003 44 16093 1.5 230 02:37 23.08.2019
6407 Clear 15 1003 44 16093 1.5 230 02:19 23.08.2019
6408 Clouds 15 1004 50 16093 1.97 186.006 00:46 23.08.2019
6409 Clouds 14 1004 50 16093 1.8 160.202 00:23 23.08.2019
6410 Clear 13 1004 58 16093 1.8 160.202 23:59 22.08.2019
6411 Clear 13 1004 58 16093 1.8 160.202 23:40 22.08.2019
6412 Clear 14 1004 58 16093 1.8 160.202 23:20 22.08.2019
6413 Clouds 12 1005 62 16093 1.8 160.202 22:42 22.08.2019
6414 Clouds 12 1005 62 16093 1.8 160.202 22:23 22.08.2019
6415 Clear 11 1005 66 16093 1.5 110 21:58 22.08.2019
6416 Clear 11 1005 66 16093 1.5 110 21:58 22.08.2019
6417 Clear 10 1005 66 16093 1.5 110 21:40 22.08.2019
6418 Clear 10 1005 66 16093 1.5 110 21:21 22.08.2019
6419 Clouds 9 1005 81 16093 0.96 124.904 20:57 22.08.2019
6420 Clouds 8 1005 81 16093 0.96 124.904 20:39 22.08.2019
6421 Clouds 8 1005 81 16093 0.96 124.904 20:19 22.08.2019
6422 Clear 7 1006 93 16093 2.1 80 19:56 22.08.2019
6423 Clear 7 1006 93 16093 2.1 80 19:37 22.08.2019
6424 Clear 6 1006 93 16093 2.1 80 19:19 22.08.2019
6425 Clouds 6 1006 86 16093 2.1 60 18:56 22.08.2019
6426 Clouds 6 1006 86 16093 2.1 60 18:38 22.08.2019
6427 Clouds 5 1006 86 16093 2.1 60 18:18 22.08.2019
6428 Clouds 4 1005 93 12874 1.1 76.37 17:43 22.08.2019
6429 Clouds 4 1006 93 12874 1.5 70 17:23 22.08.2019
6430 Clouds 3 1006 93 12874 1.5 70 16:58 22.08.2019
6431 Clouds 4 1006 93 12874 1.5 70 16:40 22.08.2019
6432 Clouds 4 1006 93 12874 1.5 70 16:21 22.08.2019
6433 Clouds 4 1006 93 12874 1.5 70 16:21 22.08.2019
6434 Clouds 4 1005 86 16093 2.1 50 15:59 22.08.2019
6435 Clouds 4 1005 86 16093 2.1 50 15:39 22.08.2019
6436 Clouds 4 1005 86 16093 2.1 50 15:39 22.08.2019
6437 Clouds 4 1005 86 16093 2.1 50 15:21 22.08.2019
6438 Clouds 4 1005 86 16093 2.1 50 15:20 22.08.2019
6439 Clouds 4 1006 93 16093 2.6 50 14:56 22.08.2019
6440 Clouds 4 1006 93 16093 2.6 50 14:38 22.08.2019
6441 Clouds 4 1006 93 16093 2.6 50 14:18 22.08.2019
6442 Clear 4 1006 93 16093 1.5 70 13:55 22.08.2019
6443 Clear 4 1006 93 16093 1.5 70 13:36 22.08.2019
6444 Clear 4 1006 93 16093 1.5 70 13:18 22.08.2019
6445 Clouds 5 1006 93 16093 1.25 70.466 12:40 22.08.2019
6446 Clouds 5 1006 93 16093 1.17 67.433 12:21 22.08.2019
6447 Clear 5 1006 93 16093 2.6 50 11:55 22.08.2019
6448 Clear 5 1006 93 16093 2.6 50 11:36 22.08.2019
6449 Clear 6 1006 93 16093 2.6 50 11:18 22.08.2019
6450 Clear 6 1006 87 16093 1.5 90 10:57 22.08.2019
6451 Clear 6 1006 87 16093 1.5 90 10:36 22.08.2019
6452 Clear 6 1006 87 16093 1.5 90 10:18 22.08.2019
6453 Clear 7 1005 87 16093 1.34 55.635 09:40 22.08.2019
6454 Clear 7 1005 87 16093 1.28 66.837 09:21 22.08.2019
6455 Clear 8 1006 87 16093 1.28 66.837 08:58 22.08.2019
6456 Clear 8 1006 87 16093 1.28 66.837 08:39 22.08.2019
6457 Clear 8 1006 87 16093 1.28 66.837 08:20 22.08.2019
6458 Clear 10 1005 58 14484 2.1 200 07:42 22.08.2019
6459 Clear 10 1005 58 14484 2.1 200 07:23 22.08.2019
6460 Clear 12 1005 50 14484 3.1 170 06:55 22.08.2019
6461 Clear 12 1005 50 14484 3.1 170 06:37 22.08.2019
6462 Clear 12 1005 50 16093 2.6 200 06:18 22.08.2019
6463 Clear 13 1005 47 16093 1.5 260 04:42 22.08.2019
6464 Clouds 13 1005 44 16093 4.6 230 02:52 22.08.2019
6465 Clouds 13 1005 44 16093 4.6 230 02:34 22.08.2019
6466 Clear 13 1005 41 16093 1.44 308.331 01:26 22.08.2019
6467 Clear 12 1005 47 16093 1.44 308.331 00:47 22.08.2019
6468 Clear 12 1005 47 16093 1.44 308.331 00:28 22.08.2019
6469 Clouds 12 1005 54 16093 2.24 331.912 23:58 21.08.2019
6470 Clouds 12 1005 47 16093 2.6 10 23:39 21.08.2019
6471 Clouds 12 1005 47 16093 2.6 10 23:19 21.08.2019
6472 Clear 11 1005 62 16093 2.24 331.912 22:55 21.08.2019
6473 Clear 11 1005 62 16093 2.24 331.912 22:37 21.08.2019
6474 Clear 11 1005 62 16093 2.24 331.912 22:19 21.08.2019
6475 Clear 10 1005 71 14484 2.6 350 21:55 21.08.2019
6476 Clear 10 1005 71 14484 2.6 350 21:37 21.08.2019
6477 Clear 9 1005 71 14484 2.6 350 21:18 21.08.2019
6478 Fog 9 1004 71 16093 2.1 0 20:43 21.08.2019
6479 Fog 9 1004 71 16093 2.1 0 20:43 21.08.2019
6480 Fog 8 1004 71 16093 2.1 0 20:24 21.08.2019
6481 Rain 8 1004 81 16093 2.1 260 19:58 21.08.2019
6482 Rain 8 1005 87 11265 2.1 300 19:39 21.08.2019
6483 Rain 8 1005 87 11265 2.1 300 19:39 21.08.2019
6484 Rain 7 1005 87 11265 2.1 300 19:20 21.08.2019
6485 Rain 7 1005 87 11265 2.6 290 18:56 21.08.2019
6486 Rain 7 1005 100 9656 2.6 330 18:37 21.08.2019
6487 Rain 7 1005 100 9656 2.6 330 18:37 21.08.2019
6488 Rain 7 1004 100 11265 3.6 220 18:19 21.08.2019
6489 Rain 7 1005 100 9656 1.5 230 17:42 21.08.2019
6490 Rain 7 1005 100 9656 1.5 230 17:21 21.08.2019
6491 Rain 7 1005 100 4828 1.61 270.32 16:56 21.08.2019
6492 Rain 7 1005 100 4426 1.61 270.32 16:37 21.08.2019
6493 Rain 7 1005 100 4426 1.61 270.32 16:18 21.08.2019
6494 Rain 7 1005 93 9656 2.1 230 15:56 21.08.2019
6495 Rain 7 1005 93 9656 2.1 230 15:37 21.08.2019
6496 Rain 7 1005 93 9656 2.1 230 15:18 21.08.2019
6497 Rain 7 1005 87 14484 1.5 220 14:39 21.08.2019
6498 Rain 7 1005 87 14484 1.5 220 14:21 21.08.2019
6499 Rain 7 1005 87 11265 1.38 319.998 13:59 21.08.2019
6500 Rain 8 1005 87 11265 1.38 319.998 13:40 21.08.2019
6501 Rain 8 1005 87 11265 1.66 324.342 13:19 21.08.2019
6502 Rain 8 1005 87 16093 1.66 324.342 12:57 21.08.2019
6503 Rain 8 1005 87 4828 1.5 360 12:38 21.08.2019
6504 Rain 8 1005 87 4828 1.5 360 12:19 21.08.2019
6505 Rain 8 1005 81 11265 1.5 270 11:43 21.08.2019
6506 Rain 8 1005 81 11265 1.5 270 11:24 21.08.2019
6507 Rain 9 1005 76 16093 1.5 220 10:58 21.08.2019
6508 Clouds 9 1005 76 16093 1.5 220 10:38 21.08.2019
6509 Clouds 9 1005 76 16093 1.5 220 10:20 21.08.2019
6510 Rain 10 1005 76 16093 0.57 165.792 09:58 21.08.2019
6511 Rain 10 1005 76 16093 0.57 165.792 09:40 21.08.2019
6512 Rain 10 1005 76 16093 1.15 315.952 09:21 21.08.2019
6513 Clouds 10 1006 62 16093 1.15 315.952 08:49 21.08.2019
6514 Clouds 10 1006 62 16093 1.15 315.952 08:25 21.08.2019
6515 Clouds 12 1006 50 14484 4.1 310 07:45 21.08.2019
6516 Clouds 11 1006 50 14484 4.1 310 07:26 21.08.2019
6517 Clouds 14 1006 41 16093 2.6 290 06:51 21.08.2019
6518 Clouds 14 1006 41 16093 2.6 290 06:33 21.08.2019
6519 Clouds 13 1006 46 16093 2.1 300 05:57 21.08.2019
6520 Clouds 14 1006 46 16093 2.1 300 05:28 21.08.2019
6521 Clouds 15 1006 46 16093 3.1 250 04:42 21.08.2019
6522 Clear 15 1008 42 16093 0.99 318.661 02:40 21.08.2019
6523 Clear 15 1008 36 16093 1.5 250 01:30 21.08.2019
6524 Clear 15 1009 43 16093 0.52 327.171 00:41 21.08.2019
6525 Clear 15 1009 41 16093 0.4 132.082 00:20 21.08.2019
6526 Clear 14 1009 41 16093 0.4 132.082 23:45 20.08.2019
6527 Clear 14 1009 41 16093 0.4 132.082 23:20 20.08.2019
6528 Clear 14 1010 50 14484 1.5 300 22:59 20.08.2019
6529 Clear 14 1010 50 14484 1.5 300 22:40 20.08.2019
6530 Clear 14 1010 50 14484 1.5 300 22:40 20.08.2019
6531 Clear 13 1010 50 14484 1.5 300 22:21 20.08.2019
6532 Clear 13 1011 62 16093 0.4 132.082 21:58 20.08.2019
6533 Clear 12 1011 62 16093 0.33 138.715 21:39 20.08.2019
6534 Clear 11 1011 62 16093 0.8 51.754 21:19 20.08.2019
6535 Clear 10 1011 70 16093 0.8 51.754 20:58 20.08.2019
6536 Clear 10 1011 70 16093 0.8 51.754 20:58 20.08.2019
6537 Clear 10 1011 70 16093 0.8 51.754 20:40 20.08.2019
6538 Clear 9 1011 70 16093 0.8 51.754 20:21 20.08.2019
6539 Clear 7 1011 81 14484 0.8 51.754 19:39 20.08.2019
6540 Clear 7 1011 81 14484 0.8 51.754 19:21 20.08.2019
6541 Clouds 7 1012 93 11265 0.8 51.754 18:56 20.08.2019
6542 Clouds 7 1011 70 16093 2.1 20 18:38 20.08.2019
6543 Clouds 4 1011 70 16093 2.1 20 18:19 20.08.2019
6544 Clouds 4 1011 70 16093 2.1 20 18:19 20.08.2019
6545 Clouds 4 1011 70 16093 2.1 20 17:56 20.08.2019
6546 Clear 4 1012 100 12874 1.43 20.189 17:38 20.08.2019
6547 Clear 3 1012 93 12874 1.43 20.189 17:19 20.08.2019
6548 Clear 3 1012 93 12874 1.43 20.189 16:44 20.08.2019
6549 Clear 3 1012 93 12874 1.43 20.189 16:25 20.08.2019
6550 Clear 3 1012 93 14484 1.43 20.189 15:43 20.08.2019
6551 Clear 4 1012 86 16093 1.83 14.659 15:19 20.08.2019
6552 Clear 4 1012 86 16093 1.83 14.659 14:59 20.08.2019
6553 Clear 4 1012 86 16093 1.83 14.659 14:41 20.08.2019
6554 Clear 5 1012 86 16093 1.83 14.659 14:21 20.08.2019
6555 Clear 5 1012 75 16093 1.83 14.659 13:57 20.08.2019
6556 Clear 5 1012 75 16093 1.83 14.659 13:38 20.08.2019
6557 Clouds 6 1012 70 16093 4.1 350 13:20 20.08.2019
6558 Clear 6 1013 70 16093 2.6 60 12:51 20.08.2019
6559 Clear 6 1013 70 16093 2.6 60 12:28 20.08.2019
6560 Clouds 6 1012 70 16093 3.1 350 11:58 20.08.2019
6561 Clear 6 1013 75 16093 2.6 60 11:38 20.08.2019
6562 Clear 6 1013 75 16093 2.1 60 11:19 20.08.2019
6563 Clear 6 1013 75 16093 2.1 60 11:19 20.08.2019
6564 Clear 6 1013 75 16093 2.1 60 10:57 20.08.2019
6565 Clear 6 1013 75 16093 2.1 60 10:57 20.08.2019
6566 Clear 6 1013 75 16093 2.1 60 10:38 20.08.2019
6567 Clear 7 1013 66 16093 3.1 40 10:20 20.08.2019
6568 Clear 7 1013 66 16093 3.1 40 09:43 20.08.2019
6569 Clear 8 1013 66 16093 3.1 40 09:25 20.08.2019
6570 Clear 8 1013 57 16093 3.6 30 08:57 20.08.2019
6571 Clear 9 1013 57 16093 3.6 30 08:39 20.08.2019
6572 Clear 9 1013 50 16093 2.1 50 08:20 20.08.2019
6573 Clear 10 1013 50 16093 2.1 50 07:56 20.08.2019
6574 Clear 11 1013 50 16093 2.1 50 07:37 20.08.2019
6575 Clouds 11 1013 50 16093 3.1 60 07:18 20.08.2019
6576 Clear 12 1013 44 14484 3.1 50 06:28 20.08.2019
6577 Clouds 13 1014 44 16093 2.1 60 05:51 20.08.2019
6578 Clouds 13 1014 44 16093 2.1 60 05:30 20.08.2019
6579 Clouds 14 1014 43 16093 3.6 70 04:18 20.08.2019
6580 Clouds 15 1015 39 16093 2.6 40 02:44 20.08.2019
6581 Clouds 14 1015 39 16093 4.1 110 01:43 20.08.2019
6582 Clouds 14 1015 39 16093 4.1 110 00:59 20.08.2019
6583 Clouds 14 1016 35 16093 2.1 70 00:40 20.08.2019
6584 Clouds 14 1016 41 16093 4.1 120 00:19 20.08.2019
6585 Clear 13 1017 37 16093 2.6 60 23:40 19.08.2019
6586 Clear 13 1017 40 16093 1.51 95.363 23:18 19.08.2019
6587 Clear 13 1017 40 16093 1.51 95.363 22:56 19.08.2019
6588 Clear 12 1017 40 16093 1.51 95.363 22:38 19.08.2019
6589 Clear 12 1018 50 16093 1.51 95.363 22:18 19.08.2019
6590 Clear 11 1018 50 16093 1.51 95.363 21:56 19.08.2019
6591 Clear 11 1018 50 16093 1.32 90.871 21:37 19.08.2019
6592 Clear 11 1018 50 16093 1.32 90.871 21:37 19.08.2019
6593 Clear 10 1018 61 16093 3.1 90 21:18 19.08.2019
6594 Clear 9 1018 61 16093 3.1 90 20:40 19.08.2019
6595 Clear 9 1018 61 16093 3.1 90 20:40 19.08.2019
6596 Clear 9 1018 61 16093 3.1 90 20:40 19.08.2019
6597 Clear 9 1018 61 16093 3.1 90 20:20 19.08.2019
6598 Clear 7 1019 75 16093 1.18 114.031 19:59 19.08.2019
6599 Clear 7 1019 75 16093 1.18 114.031 19:40 19.08.2019
6600 Clear 6 1019 75 16093 1.18 114.031 19:19 19.08.2019
6601 Clear 6 1019 86 14484 1.18 114.031 18:58 19.08.2019
6602 Clear 5 1019 86 14484 1.18 114.031 18:39 19.08.2019
6603 Clouds 5 1019 80 16093 1.5 50 18:20 19.08.2019
6604 Clouds 4 1019 80 16093 1.5 50 17:54 19.08.2019
6605 Clouds 4 1019 86 14484 1.5 80 17:36 19.08.2019
6606 Clouds 3 1020 80 14484 1.5 10 17:18 19.08.2019
6607 Clouds 3 1020 80 14484 1.5 10 16:38 19.08.2019
6608 Clouds 3 1020 80 14484 1.5 10 16:20 19.08.2019
6609 Clouds 3 1020 80 16093 2.1 50 15:56 19.08.2019
6610 Clouds 3 1020 80 16093 2.1 50 15:38 19.08.2019
6611 Clouds 3 1020 80 16093 2.1 50 15:19 19.08.2019
6612 Clear 4 1020 80 16093 3.1 70 14:43 19.08.2019
6613 Clear 4 1020 80 16093 3.1 70 14:23 19.08.2019
6614 Clear 4 1021 86 16093 1.08 48.252 13:58 19.08.2019
6615 Clear 5 1021 86 16093 1.08 48.252 13:38 19.08.2019
6616 Clear 5 1021 86 16093 1.45 36.696 13:20 19.08.2019
6617 Clouds 5 1021 81 16093 1.5 70 12:57 19.08.2019
6618 Clouds 6 1021 81 16093 1.5 70 12:39 19.08.2019
6619 Clouds 6 1021 81 16093 1.5 70 12:19 19.08.2019
6620 Clouds 6 1022 70 16093 3.1 60 11:40 19.08.2019
6621 Clouds 7 1022 70 16093 3.1 60 11:21 19.08.2019
6622 Clouds 6 1022 66 16093 3.1 60 10:58 19.08.2019
6623 Clouds 6 1022 66 16093 3.1 60 10:37 19.08.2019
6624 Clouds 7 1022 66 16093 3.1 60 10:18 19.08.2019
6625 Clouds 8 1023 61 16093 2.1 60 09:45 19.08.2019
6626 Clouds 8 1023 61 16093 2.1 60 09:24 19.08.2019
6627 Clouds 8 1023 61 16093 2.1 60 09:24 19.08.2019
6628 Clouds 8 1023 62 16093 2.1 60 08:59 19.08.2019
6629 Clouds 9 1023 62 16093 2.1 60 08:41 19.08.2019
6630 Clouds 9 1023 62 16093 2.1 60 08:41 19.08.2019
6631 Clouds 9 1023 62 16093 2.1 60 08:20 19.08.2019
6632 Clouds 10 1024 54 16093 1.5 50 07:49 19.08.2019
6633 Clouds 11 1024 54 16093 1.5 50 07:31 19.08.2019
6634 Clouds 12 1024 50 16093 1.5 100 06:52 19.08.2019
6635 Clouds 12 1024 50 16093 1.5 100 06:33 19.08.2019
6636 Clouds 13 1024 41 16093 1.5 80 05:21 19.08.2019
6637 Clouds 13 1025 41 16093 1.11 82.045 04:27 19.08.2019
6638 Clouds 14 1026 35 16093 3.1 40 03:24 19.08.2019
6639 Clear 14 1026 38 16093 3.1 120 02:29 19.08.2019
6640 Clear 14 1027 35 16093 4.6 110 01:35 19.08.2019
6641 Clouds 13 1027 43 16093 6.7 40 00:44 19.08.2019
6642 Clouds 13 1028 38 16093 2.6 60 00:23 19.08.2019
6643 Clouds 13 1028 47 16093 4.6 40 23:43 18.08.2019
6644 Rain 13 1029 47 16093 2.6 80 23:22 18.08.2019
6645 Clear 12 1029 54 16093 3.6 40 22:57 18.08.2019
6646 Rain 12 1029 54 16093 3.6 40 22:38 18.08.2019
6647 Clear 12 1029 54 16093 3.6 40 22:20 18.08.2019
6648 Clear 11 1029 62 16093 4.6 70 21:56 18.08.2019
6649 Clear 11 1029 62 16093 4.6 70 21:37 18.08.2019
6650 Clear 11 1029 62 16093 4.6 70 21:19 18.08.2019
6651 Clear 10 1029 66 16093 4.6 60 20:44 18.08.2019
6652 -273 0 0 0 0 0 20:25 18.08.2019
6653 Clouds 8 1030 81 16093 2.53 36.526 19:56 18.08.2019
6654 Clouds 8 1030 81 16093 2.53 36.526 19:56 18.08.2019
6655 Clouds 8 1030 81 16093 2.53 36.526 19:38 18.08.2019
6656 Clouds 8 1030 81 16093 2.53 36.526 19:19 18.08.2019
6657 Clouds 7 1029 87 16093 2.53 36.526 18:41 18.08.2019
6658 Clouds 7 1029 87 16093 1.96 14.05 18:23 18.08.2019
6659 Clouds 4 1030 93 14484 2.1 70 17:59 18.08.2019
6660 Clouds 4 1030 93 14484 2.1 70 17:41 18.08.2019
6661 Clouds 4 1030 93 14484 2.1 70 17:19 18.08.2019
6662 Rain 5 1030<